<?xml version="1.0" encoding="UTF-8" standalone="no" ?>
<gpx xmlns="http://www.topografix.com/GPX/1/1" xmlns:xsi="http://www.w3.org/2001/XMLSchema-instance" xsi:schemaLocation="http://www.topografix.com/GPX/1/1 http://www.topografix.com/GPX/1/1/gpx.xsd" version="1.1" creator="VisuGPX - https://www.visugpx.com">
  <metadata>
    <name>Circuit vélo Beaujolais 1 journée</name>
    <desc><![CDATA[Circuit vélo Beaujolais 1 journée]]></desc>
  </metadata>
  <trk>
    <name><![CDATA[OR-8071296--Belleville:test]]></name>
    <trkseg>
      <trkpt lat="46.10517" lon="4.75113">
        <ele>172</ele>
        <time>2017-11-01T18:27:37Z</time>
      </trkpt>
      <trkpt lat="46.10521" lon="4.75113">
        <ele>172</ele>
        <time>2017-11-01T18:29:37Z</time>
      </trkpt>
      <trkpt lat="46.10525" lon="4.75113">
        <ele>172</ele>
        <time>2017-11-01T18:31:37Z</time>
      </trkpt>
      <trkpt lat="46.10538" lon="4.75113">
        <ele>172</ele>
        <time>2017-11-01T18:33:37Z</time>
      </trkpt>
      <trkpt lat="46.10538" lon="4.75113">
        <ele>172</ele>
        <time>2017-11-01T18:35:37Z</time>
      </trkpt>
      <trkpt lat="46.10537" lon="4.7511">
        <ele>172</ele>
        <time>2017-11-01T18:37:37Z</time>
      </trkpt>
      <trkpt lat="46.10536" lon="4.75108">
        <ele>172</ele>
        <time>2017-11-01T18:39:37Z</time>
      </trkpt>
      <trkpt lat="46.10536" lon="4.75106">
        <ele>172</ele>
        <time>2017-11-01T18:41:37Z</time>
      </trkpt>
      <trkpt lat="46.10535" lon="4.75104">
        <ele>172</ele>
        <time>2017-11-01T18:43:37Z</time>
      </trkpt>
      <trkpt lat="46.10535" lon="4.75101">
        <ele>172</ele>
        <time>2017-11-01T18:45:37Z</time>
      </trkpt>
      <trkpt lat="46.10535" lon="4.75099">
        <ele>172</ele>
        <time>2017-11-01T18:47:37Z</time>
      </trkpt>
      <trkpt lat="46.10535" lon="4.75096">
        <ele>173</ele>
        <time>2017-11-01T18:49:37Z</time>
      </trkpt>
      <trkpt lat="46.10534" lon="4.75094">
        <ele>173</ele>
        <time>2017-11-01T18:51:37Z</time>
      </trkpt>
      <trkpt lat="46.10535" lon="4.75091">
        <ele>173</ele>
        <time>2017-11-01T18:53:37Z</time>
      </trkpt>
      <trkpt lat="46.10535" lon="4.75089">
        <ele>173</ele>
        <time>2017-11-01T18:55:37Z</time>
      </trkpt>
      <trkpt lat="46.10536" lon="4.75086">
        <ele>173</ele>
        <time>2017-11-01T18:57:37Z</time>
      </trkpt>
      <trkpt lat="46.10536" lon="4.75083">
        <ele>173</ele>
        <time>2017-11-01T18:59:37Z</time>
      </trkpt>
      <trkpt lat="46.10537" lon="4.75081">
        <ele>173</ele>
        <time>2017-11-01T19:01:37Z</time>
      </trkpt>
      <trkpt lat="46.10538" lon="4.75079">
        <ele>173</ele>
        <time>2017-11-01T19:03:37Z</time>
      </trkpt>
      <trkpt lat="46.10539" lon="4.75076">
        <ele>173</ele>
        <time>2017-11-01T19:05:37Z</time>
      </trkpt>
      <trkpt lat="46.10539" lon="4.75074">
        <ele>173</ele>
        <time>2017-11-01T19:07:37Z</time>
      </trkpt>
      <trkpt lat="46.10541" lon="4.75072">
        <ele>173</ele>
        <time>2017-11-01T19:09:37Z</time>
      </trkpt>
      <trkpt lat="46.10542" lon="4.7507">
        <ele>173</ele>
        <time>2017-11-01T19:11:37Z</time>
      </trkpt>
      <trkpt lat="46.10544" lon="4.75068">
        <ele>173</ele>
        <time>2017-11-01T19:13:37Z</time>
      </trkpt>
      <trkpt lat="46.10545" lon="4.75066">
        <ele>173</ele>
        <time>2017-11-01T19:15:37Z</time>
      </trkpt>
      <trkpt lat="46.10547" lon="4.75065">
        <ele>173</ele>
        <time>2017-11-01T19:17:37Z</time>
      </trkpt>
      <trkpt lat="46.10549" lon="4.75063">
        <ele>174</ele>
        <time>2017-11-01T19:19:37Z</time>
      </trkpt>
      <trkpt lat="46.10551" lon="4.75062">
        <ele>174</ele>
        <time>2017-11-01T19:21:37Z</time>
      </trkpt>
      <trkpt lat="46.10553" lon="4.75062">
        <ele>174</ele>
        <time>2017-11-01T19:23:37Z</time>
      </trkpt>
      <trkpt lat="46.10554" lon="4.75061">
        <ele>174</ele>
        <time>2017-11-01T19:25:37Z</time>
      </trkpt>
      <trkpt lat="46.10556" lon="4.75061">
        <ele>174</ele>
        <time>2017-11-01T19:27:37Z</time>
      </trkpt>
      <trkpt lat="46.10558" lon="4.7506">
        <ele>174</ele>
        <time>2017-11-01T19:29:37Z</time>
      </trkpt>
      <trkpt lat="46.10559" lon="4.7506">
        <ele>174</ele>
        <time>2017-11-01T19:31:37Z</time>
      </trkpt>
      <trkpt lat="46.10561" lon="4.7506">
        <ele>174</ele>
        <time>2017-11-01T19:33:37Z</time>
      </trkpt>
      <trkpt lat="46.10563" lon="4.75061">
        <ele>174</ele>
        <time>2017-11-01T19:35:37Z</time>
      </trkpt>
      <trkpt lat="46.10564" lon="4.75061">
        <ele>174</ele>
        <time>2017-11-01T19:37:37Z</time>
      </trkpt>
      <trkpt lat="46.10566" lon="4.75062">
        <ele>174</ele>
        <time>2017-11-01T19:39:37Z</time>
      </trkpt>
      <trkpt lat="46.10578" lon="4.7505">
        <ele>174</ele>
        <time>2017-11-01T19:41:37Z</time>
      </trkpt>
      <trkpt lat="46.10581" lon="4.75044">
        <ele>174</ele>
        <time>2017-11-01T19:43:37Z</time>
      </trkpt>
      <trkpt lat="46.10583" lon="4.75041">
        <ele>175</ele>
        <time>2017-11-01T19:45:37Z</time>
      </trkpt>
      <trkpt lat="46.10584" lon="4.75039">
        <ele>175</ele>
        <time>2017-11-01T19:47:37Z</time>
      </trkpt>
      <trkpt lat="46.10585" lon="4.75036">
        <ele>175</ele>
        <time>2017-11-01T19:49:37Z</time>
      </trkpt>
      <trkpt lat="46.10585" lon="4.75033">
        <ele>175</ele>
        <time>2017-11-01T19:51:37Z</time>
      </trkpt>
      <trkpt lat="46.10587" lon="4.74994">
        <ele>175</ele>
        <time>2017-11-01T19:53:37Z</time>
      </trkpt>
      <trkpt lat="46.10591" lon="4.74962">
        <ele>175</ele>
        <time>2017-11-01T19:55:37Z</time>
      </trkpt>
      <trkpt lat="46.10595" lon="4.74947">
        <ele>175</ele>
        <time>2017-11-01T19:57:37Z</time>
      </trkpt>
      <trkpt lat="46.10601" lon="4.74929">
        <ele>175</ele>
        <time>2017-11-01T19:59:37Z</time>
      </trkpt>
      <trkpt lat="46.10605" lon="4.74907">
        <ele>175</ele>
        <time>2017-11-01T20:01:37Z</time>
      </trkpt>
      <trkpt lat="46.10607" lon="4.74898">
        <ele>175</ele>
        <time>2017-11-01T20:03:37Z</time>
      </trkpt>
      <trkpt lat="46.10613" lon="4.74862">
        <ele>175</ele>
        <time>2017-11-01T20:05:37Z</time>
      </trkpt>
      <trkpt lat="46.10622" lon="4.74815">
        <ele>176</ele>
        <time>2017-11-01T20:07:37Z</time>
      </trkpt>
      <trkpt lat="46.1063" lon="4.74774">
        <ele>176</ele>
        <time>2017-11-01T20:09:37Z</time>
      </trkpt>
      <trkpt lat="46.10646" lon="4.7469">
        <ele>175</ele>
        <time>2017-11-01T20:11:37Z</time>
      </trkpt>
      <trkpt lat="46.10651" lon="4.74663">
        <ele>175</ele>
        <time>2017-11-01T20:13:37Z</time>
      </trkpt>
      <trkpt lat="46.10694" lon="4.74439">
        <ele>176</ele>
        <time>2017-11-01T20:15:37Z</time>
      </trkpt>
      <trkpt lat="46.10694" lon="4.74439">
        <ele>176</ele>
        <time>2017-11-01T20:17:37Z</time>
      </trkpt>
      <trkpt lat="46.10695" lon="4.7444">
        <ele>176</ele>
        <time>2017-11-01T20:19:37Z</time>
      </trkpt>
      <trkpt lat="46.10696" lon="4.7444">
        <ele>176</ele>
        <time>2017-11-01T20:21:37Z</time>
      </trkpt>
      <trkpt lat="46.10697" lon="4.7444">
        <ele>177</ele>
        <time>2017-11-01T20:23:37Z</time>
      </trkpt>
      <trkpt lat="46.10698" lon="4.7444">
        <ele>177</ele>
        <time>2017-11-01T20:25:37Z</time>
      </trkpt>
      <trkpt lat="46.10699" lon="4.7444">
        <ele>177</ele>
        <time>2017-11-01T20:27:37Z</time>
      </trkpt>
      <trkpt lat="46.107" lon="4.7444">
        <ele>177</ele>
        <time>2017-11-01T20:29:37Z</time>
      </trkpt>
      <trkpt lat="46.107" lon="4.74439">
        <ele>177</ele>
        <time>2017-11-01T20:31:37Z</time>
      </trkpt>
      <trkpt lat="46.10701" lon="4.74439">
        <ele>177</ele>
        <time>2017-11-01T20:33:37Z</time>
      </trkpt>
      <trkpt lat="46.10702" lon="4.74438">
        <ele>177</ele>
        <time>2017-11-01T20:35:37Z</time>
      </trkpt>
      <trkpt lat="46.10703" lon="4.74437">
        <ele>177</ele>
        <time>2017-11-01T20:37:37Z</time>
      </trkpt>
      <trkpt lat="46.10704" lon="4.74436">
        <ele>177</ele>
        <time>2017-11-01T20:39:37Z</time>
      </trkpt>
      <trkpt lat="46.10704" lon="4.74435">
        <ele>177</ele>
        <time>2017-11-01T20:41:37Z</time>
      </trkpt>
      <trkpt lat="46.10705" lon="4.74434">
        <ele>177</ele>
        <time>2017-11-01T20:43:37Z</time>
      </trkpt>
      <trkpt lat="46.10747" lon="4.7447">
        <ele>178</ele>
        <time>2017-11-01T20:45:37Z</time>
      </trkpt>
      <trkpt lat="46.10763" lon="4.74483">
        <ele>178</ele>
        <time>2017-11-01T20:47:37Z</time>
      </trkpt>
      <trkpt lat="46.10764" lon="4.74484">
        <ele>178</ele>
        <time>2017-11-01T20:49:37Z</time>
      </trkpt>
      <trkpt lat="46.10802" lon="4.74515">
        <ele>178</ele>
        <time>2017-11-01T20:51:37Z</time>
      </trkpt>
      <trkpt lat="46.10838" lon="4.7453">
        <ele>179</ele>
        <time>2017-11-01T20:53:37Z</time>
      </trkpt>
      <trkpt lat="46.10853" lon="4.74536">
        <ele>179</ele>
        <time>2017-11-01T20:55:37Z</time>
      </trkpt>
      <trkpt lat="46.10873" lon="4.74543">
        <ele>180</ele>
        <time>2017-11-01T20:57:37Z</time>
      </trkpt>
      <trkpt lat="46.10888" lon="4.74551">
        <ele>181</ele>
        <time>2017-11-01T20:59:37Z</time>
      </trkpt>
      <trkpt lat="46.10918" lon="4.74566">
        <ele>182</ele>
        <time>2017-11-01T21:01:37Z</time>
      </trkpt>
      <trkpt lat="46.10932" lon="4.74572">
        <ele>182</ele>
        <time>2017-11-01T21:03:37Z</time>
      </trkpt>
      <trkpt lat="46.10958" lon="4.7458">
        <ele>182</ele>
        <time>2017-11-01T21:05:37Z</time>
      </trkpt>
      <trkpt lat="46.10958" lon="4.7458">
        <ele>182</ele>
        <time>2017-11-01T21:07:37Z</time>
      </trkpt>
      <trkpt lat="46.10958" lon="4.74576">
        <ele>182</ele>
        <time>2017-11-01T21:09:37Z</time>
      </trkpt>
      <trkpt lat="46.10972" lon="4.74498">
        <ele>183</ele>
        <time>2017-11-01T21:11:37Z</time>
      </trkpt>
      <trkpt lat="46.10982" lon="4.74448">
        <ele>185</ele>
        <time>2017-11-01T21:13:37Z</time>
      </trkpt>
      <trkpt lat="46.10989" lon="4.74403">
        <ele>186</ele>
        <time>2017-11-01T21:15:37Z</time>
      </trkpt>
      <trkpt lat="46.10992" lon="4.74386">
        <ele>186</ele>
        <time>2017-11-01T21:17:37Z</time>
      </trkpt>
      <trkpt lat="46.11005" lon="4.74325">
        <ele>187</ele>
        <time>2017-11-01T21:19:37Z</time>
      </trkpt>
      <trkpt lat="46.11035" lon="4.74175">
        <ele>188</ele>
        <time>2017-11-01T21:21:37Z</time>
      </trkpt>
      <trkpt lat="46.11041" lon="4.74136">
        <ele>188</ele>
        <time>2017-11-01T21:23:37Z</time>
      </trkpt>
      <trkpt lat="46.11059" lon="4.74044">
        <ele>189</ele>
        <time>2017-11-01T21:25:37Z</time>
      </trkpt>
      <trkpt lat="46.11073" lon="4.73966">
        <ele>189</ele>
        <time>2017-11-01T21:27:37Z</time>
      </trkpt>
      <trkpt lat="46.11126" lon="4.73689">
        <ele>191</ele>
        <time>2017-11-01T21:29:37Z</time>
      </trkpt>
      <trkpt lat="46.11134" lon="4.73645">
        <ele>191</ele>
        <time>2017-11-01T21:31:37Z</time>
      </trkpt>
      <trkpt lat="46.11137" lon="4.73631">
        <ele>191</ele>
        <time>2017-11-01T21:33:37Z</time>
      </trkpt>
      <trkpt lat="46.11155" lon="4.73533">
        <ele>191</ele>
        <time>2017-11-01T21:35:37Z</time>
      </trkpt>
      <trkpt lat="46.11168" lon="4.7347">
        <ele>191</ele>
        <time>2017-11-01T21:37:37Z</time>
      </trkpt>
      <trkpt lat="46.11169" lon="4.7346">
        <ele>190</ele>
        <time>2017-11-01T21:39:37Z</time>
      </trkpt>
      <trkpt lat="46.1117" lon="4.73456">
        <ele>190</ele>
        <time>2017-11-01T21:41:37Z</time>
      </trkpt>
      <trkpt lat="46.11187" lon="4.73362">
        <ele>190</ele>
        <time>2017-11-01T21:43:37Z</time>
      </trkpt>
      <trkpt lat="46.11194" lon="4.7333">
        <ele>190</ele>
        <time>2017-11-01T21:45:37Z</time>
      </trkpt>
      <trkpt lat="46.11218" lon="4.73204">
        <ele>189</ele>
        <time>2017-11-01T21:47:37Z</time>
      </trkpt>
      <trkpt lat="46.11219" lon="4.73195">
        <ele>189</ele>
        <time>2017-11-01T21:49:37Z</time>
      </trkpt>
      <trkpt lat="46.11221" lon="4.73189">
        <ele>189</ele>
        <time>2017-11-01T21:51:37Z</time>
      </trkpt>
      <trkpt lat="46.11221" lon="4.73189">
        <ele>189</ele>
        <time>2017-11-01T21:53:37Z</time>
      </trkpt>
      <trkpt lat="46.11238" lon="4.73099">
        <ele>190</ele>
        <time>2017-11-01T21:55:37Z</time>
      </trkpt>
      <trkpt lat="46.11256" lon="4.73006">
        <ele>190</ele>
        <time>2017-11-01T21:57:37Z</time>
      </trkpt>
      <trkpt lat="46.11265" lon="4.7296">
        <ele>190</ele>
        <time>2017-11-01T21:59:37Z</time>
      </trkpt>
      <trkpt lat="46.11265" lon="4.7296">
        <ele>190</ele>
        <time>2017-11-01T22:01:37Z</time>
      </trkpt>
      <trkpt lat="46.11282" lon="4.72865">
        <ele>190</ele>
        <time>2017-11-01T22:03:37Z</time>
      </trkpt>
      <trkpt lat="46.11314" lon="4.72699">
        <ele>194</ele>
        <time>2017-11-01T22:05:37Z</time>
      </trkpt>
      <trkpt lat="46.11316" lon="4.7269">
        <ele>195</ele>
        <time>2017-11-01T22:07:37Z</time>
      </trkpt>
      <trkpt lat="46.11325" lon="4.72637">
        <ele>195</ele>
        <time>2017-11-01T22:09:37Z</time>
      </trkpt>
      <trkpt lat="46.11335" lon="4.72592">
        <ele>195</ele>
        <time>2017-11-01T22:11:37Z</time>
      </trkpt>
      <trkpt lat="46.11342" lon="4.7255">
        <ele>196</ele>
        <time>2017-11-01T22:13:37Z</time>
      </trkpt>
      <trkpt lat="46.11343" lon="4.72541">
        <ele>197</ele>
        <time>2017-11-01T22:15:37Z</time>
      </trkpt>
      <trkpt lat="46.11347" lon="4.7252">
        <ele>197</ele>
        <time>2017-11-01T22:17:37Z</time>
      </trkpt>
      <trkpt lat="46.11353" lon="4.72492">
        <ele>198</ele>
        <time>2017-11-01T22:19:37Z</time>
      </trkpt>
      <trkpt lat="46.11368" lon="4.72415">
        <ele>199</ele>
        <time>2017-11-01T22:21:37Z</time>
      </trkpt>
      <trkpt lat="46.11374" lon="4.72383">
        <ele>198</ele>
        <time>2017-11-01T22:23:37Z</time>
      </trkpt>
      <trkpt lat="46.11376" lon="4.72373">
        <ele>198</ele>
        <time>2017-11-01T22:25:37Z</time>
      </trkpt>
      <trkpt lat="46.1138" lon="4.72349">
        <ele>198</ele>
        <time>2017-11-01T22:27:37Z</time>
      </trkpt>
      <trkpt lat="46.11409" lon="4.72199">
        <ele>202</ele>
        <time>2017-11-01T22:29:37Z</time>
      </trkpt>
      <trkpt lat="46.11409" lon="4.72196">
        <ele>202</ele>
        <time>2017-11-01T22:31:37Z</time>
      </trkpt>
      <trkpt lat="46.11414" lon="4.72174">
        <ele>202</ele>
        <time>2017-11-01T22:33:37Z</time>
      </trkpt>
      <trkpt lat="46.11424" lon="4.7212">
        <ele>202</ele>
        <time>2017-11-01T22:35:37Z</time>
      </trkpt>
      <trkpt lat="46.11435" lon="4.72059">
        <ele>202</ele>
        <time>2017-11-01T22:37:37Z</time>
      </trkpt>
      <trkpt lat="46.11441" lon="4.72027">
        <ele>203</ele>
        <time>2017-11-01T22:39:37Z</time>
      </trkpt>
      <trkpt lat="46.11452" lon="4.71971">
        <ele>204</ele>
        <time>2017-11-01T22:41:37Z</time>
      </trkpt>
      <trkpt lat="46.11453" lon="4.71963">
        <ele>204</ele>
        <time>2017-11-01T22:43:37Z</time>
      </trkpt>
      <trkpt lat="46.1146" lon="4.71927">
        <ele>205</ele>
        <time>2017-11-01T22:45:37Z</time>
      </trkpt>
      <trkpt lat="46.11493" lon="4.71751">
        <ele>212</ele>
        <time>2017-11-01T22:47:37Z</time>
      </trkpt>
      <trkpt lat="46.11496" lon="4.71739">
        <ele>212</ele>
        <time>2017-11-01T22:49:37Z</time>
      </trkpt>
      <trkpt lat="46.11499" lon="4.71724">
        <ele>212</ele>
        <time>2017-11-01T22:51:37Z</time>
      </trkpt>
      <trkpt lat="46.11505" lon="4.71691">
        <ele>213</ele>
        <time>2017-11-01T22:53:37Z</time>
      </trkpt>
      <trkpt lat="46.11515" lon="4.71636">
        <ele>214</ele>
        <time>2017-11-01T22:55:37Z</time>
      </trkpt>
      <trkpt lat="46.11522" lon="4.716">
        <ele>215</ele>
        <time>2017-11-01T22:57:37Z</time>
      </trkpt>
      <trkpt lat="46.11527" lon="4.71572">
        <ele>215</ele>
        <time>2017-11-01T22:59:37Z</time>
      </trkpt>
      <trkpt lat="46.11536" lon="4.71519">
        <ele>216</ele>
        <time>2017-11-01T23:01:37Z</time>
      </trkpt>
      <trkpt lat="46.11542" lon="4.71492">
        <ele>217</ele>
        <time>2017-11-01T23:03:37Z</time>
      </trkpt>
      <trkpt lat="46.11544" lon="4.71477">
        <ele>217</ele>
        <time>2017-11-01T23:05:37Z</time>
      </trkpt>
      <trkpt lat="46.11546" lon="4.71468">
        <ele>217</ele>
        <time>2017-11-01T23:07:37Z</time>
      </trkpt>
      <trkpt lat="46.11547" lon="4.71458">
        <ele>217</ele>
        <time>2017-11-01T23:09:37Z</time>
      </trkpt>
      <trkpt lat="46.11549" lon="4.71447">
        <ele>217</ele>
        <time>2017-11-01T23:11:37Z</time>
      </trkpt>
      <trkpt lat="46.1155" lon="4.71436">
        <ele>217</ele>
        <time>2017-11-01T23:13:37Z</time>
      </trkpt>
      <trkpt lat="46.11551" lon="4.71424">
        <ele>217</ele>
        <time>2017-11-01T23:15:37Z</time>
      </trkpt>
      <trkpt lat="46.11553" lon="4.71411">
        <ele>217</ele>
        <time>2017-11-01T23:17:37Z</time>
      </trkpt>
      <trkpt lat="46.11555" lon="4.71381">
        <ele>217</ele>
        <time>2017-11-01T23:19:37Z</time>
      </trkpt>
      <trkpt lat="46.11557" lon="4.71359">
        <ele>216</ele>
        <time>2017-11-01T23:21:37Z</time>
      </trkpt>
      <trkpt lat="46.11563" lon="4.71294">
        <ele>215</ele>
        <time>2017-11-01T23:23:37Z</time>
      </trkpt>
      <trkpt lat="46.11565" lon="4.71268">
        <ele>215</ele>
        <time>2017-11-01T23:25:37Z</time>
      </trkpt>
      <trkpt lat="46.11565" lon="4.71268">
        <ele>215</ele>
        <time>2017-11-01T23:27:37Z</time>
      </trkpt>
      <trkpt lat="46.11565" lon="4.71259">
        <ele>215</ele>
        <time>2017-11-01T23:29:37Z</time>
      </trkpt>
      <trkpt lat="46.11568" lon="4.71243">
        <ele>215</ele>
        <time>2017-11-01T23:31:37Z</time>
      </trkpt>
      <trkpt lat="46.1157" lon="4.71231">
        <ele>216</ele>
        <time>2017-11-01T23:33:37Z</time>
      </trkpt>
      <trkpt lat="46.11572" lon="4.7122">
        <ele>216</ele>
        <time>2017-11-01T23:35:37Z</time>
      </trkpt>
      <trkpt lat="46.11576" lon="4.71206">
        <ele>217</ele>
        <time>2017-11-01T23:37:37Z</time>
      </trkpt>
      <trkpt lat="46.11578" lon="4.71197">
        <ele>218</ele>
        <time>2017-11-01T23:39:37Z</time>
      </trkpt>
      <trkpt lat="46.1158" lon="4.7119">
        <ele>218</ele>
        <time>2017-11-01T23:41:37Z</time>
      </trkpt>
      <trkpt lat="46.11582" lon="4.71183">
        <ele>218</ele>
        <time>2017-11-01T23:43:37Z</time>
      </trkpt>
      <trkpt lat="46.11584" lon="4.71177">
        <ele>218</ele>
        <time>2017-11-01T23:45:37Z</time>
      </trkpt>
      <trkpt lat="46.11585" lon="4.71171">
        <ele>219</ele>
        <time>2017-11-01T23:47:37Z</time>
      </trkpt>
      <trkpt lat="46.11586" lon="4.71162">
        <ele>219</ele>
        <time>2017-11-01T23:49:37Z</time>
      </trkpt>
      <trkpt lat="46.11586" lon="4.71162">
        <ele>219</ele>
        <time>2017-11-01T23:51:37Z</time>
      </trkpt>
      <trkpt lat="46.11585" lon="4.71161">
        <ele>219</ele>
        <time>2017-11-01T23:53:37Z</time>
      </trkpt>
      <trkpt lat="46.11584" lon="4.7116">
        <ele>219</ele>
        <time>2017-11-01T23:55:37Z</time>
      </trkpt>
      <trkpt lat="46.11584" lon="4.71158">
        <ele>219</ele>
        <time>2017-11-01T23:57:37Z</time>
      </trkpt>
      <trkpt lat="46.11583" lon="4.71157">
        <ele>219</ele>
        <time>2017-11-01T23:59:37Z</time>
      </trkpt>
      <trkpt lat="46.11582" lon="4.71155">
        <ele>219</ele>
        <time>2017-11-02T00:01:37Z</time>
      </trkpt>
      <trkpt lat="46.11581" lon="4.71154">
        <ele>219</ele>
        <time>2017-11-02T00:03:37Z</time>
      </trkpt>
      <trkpt lat="46.11581" lon="4.71152">
        <ele>219</ele>
        <time>2017-11-02T00:05:37Z</time>
      </trkpt>
      <trkpt lat="46.1158" lon="4.7115">
        <ele>220</ele>
        <time>2017-11-02T00:07:37Z</time>
      </trkpt>
      <trkpt lat="46.11572" lon="4.71144">
        <ele>220</ele>
        <time>2017-11-02T00:09:37Z</time>
      </trkpt>
      <trkpt lat="46.11562" lon="4.71138">
        <ele>220</ele>
        <time>2017-11-02T00:11:37Z</time>
      </trkpt>
      <trkpt lat="46.11547" lon="4.71135">
        <ele>220</ele>
        <time>2017-11-02T00:13:37Z</time>
      </trkpt>
      <trkpt lat="46.11535" lon="4.71132">
        <ele>219</ele>
        <time>2017-11-02T00:15:37Z</time>
      </trkpt>
      <trkpt lat="46.1153" lon="4.71128">
        <ele>219</ele>
        <time>2017-11-02T00:17:37Z</time>
      </trkpt>
      <trkpt lat="46.11455" lon="4.71116">
        <ele>217</ele>
        <time>2017-11-02T00:19:37Z</time>
      </trkpt>
      <trkpt lat="46.11451" lon="4.71116">
        <ele>217</ele>
        <time>2017-11-02T00:21:37Z</time>
      </trkpt>
      <trkpt lat="46.11447" lon="4.71115">
        <ele>217</ele>
        <time>2017-11-02T00:23:37Z</time>
      </trkpt>
      <trkpt lat="46.11438" lon="4.71112">
        <ele>216</ele>
        <time>2017-11-02T00:25:37Z</time>
      </trkpt>
      <trkpt lat="46.11438" lon="4.71112">
        <ele>216</ele>
        <time>2017-11-02T00:27:37Z</time>
      </trkpt>
      <trkpt lat="46.11431" lon="4.71114">
        <ele>216</ele>
        <time>2017-11-02T00:29:37Z</time>
      </trkpt>
      <trkpt lat="46.11426" lon="4.71114">
        <ele>215</ele>
        <time>2017-11-02T00:31:37Z</time>
      </trkpt>
      <trkpt lat="46.11416" lon="4.71115">
        <ele>215</ele>
        <time>2017-11-02T00:33:37Z</time>
      </trkpt>
      <trkpt lat="46.11392" lon="4.71118">
        <ele>214</ele>
        <time>2017-11-02T00:35:37Z</time>
      </trkpt>
      <trkpt lat="46.11318" lon="4.7113">
        <ele>212</ele>
        <time>2017-11-02T00:37:37Z</time>
      </trkpt>
      <trkpt lat="46.11275" lon="4.71137">
        <ele>211</ele>
        <time>2017-11-02T00:39:37Z</time>
      </trkpt>
      <trkpt lat="46.11237" lon="4.71144">
        <ele>210</ele>
        <time>2017-11-02T00:41:37Z</time>
      </trkpt>
      <trkpt lat="46.11226" lon="4.71146">
        <ele>210</ele>
        <time>2017-11-02T00:43:37Z</time>
      </trkpt>
      <trkpt lat="46.11216" lon="4.7115">
        <ele>210</ele>
        <time>2017-11-02T00:45:37Z</time>
      </trkpt>
      <trkpt lat="46.11198" lon="4.71157">
        <ele>209</ele>
        <time>2017-11-02T00:47:37Z</time>
      </trkpt>
      <trkpt lat="46.11195" lon="4.71158">
        <ele>209</ele>
        <time>2017-11-02T00:49:37Z</time>
      </trkpt>
      <trkpt lat="46.11182" lon="4.71163">
        <ele>209</ele>
        <time>2017-11-02T00:51:37Z</time>
      </trkpt>
      <trkpt lat="46.11167" lon="4.71165">
        <ele>208</ele>
        <time>2017-11-02T00:53:37Z</time>
      </trkpt>
      <trkpt lat="46.11122" lon="4.71166">
        <ele>207</ele>
        <time>2017-11-02T00:55:37Z</time>
      </trkpt>
      <trkpt lat="46.11092" lon="4.71165">
        <ele>206</ele>
        <time>2017-11-02T00:57:37Z</time>
      </trkpt>
      <trkpt lat="46.11073" lon="4.71165">
        <ele>206</ele>
        <time>2017-11-02T00:59:37Z</time>
      </trkpt>
      <trkpt lat="46.11045" lon="4.71162">
        <ele>205</ele>
        <time>2017-11-02T01:01:37Z</time>
      </trkpt>
      <trkpt lat="46.11024" lon="4.71158">
        <ele>205</ele>
        <time>2017-11-02T01:03:37Z</time>
      </trkpt>
      <trkpt lat="46.10999" lon="4.71147">
        <ele>204</ele>
        <time>2017-11-02T01:05:37Z</time>
      </trkpt>
      <trkpt lat="46.10988" lon="4.71142">
        <ele>204</ele>
        <time>2017-11-02T01:07:37Z</time>
      </trkpt>
      <trkpt lat="46.10984" lon="4.7114">
        <ele>204</ele>
        <time>2017-11-02T01:09:37Z</time>
      </trkpt>
      <trkpt lat="46.10942" lon="4.71117">
        <ele>203</ele>
        <time>2017-11-02T01:11:37Z</time>
      </trkpt>
      <trkpt lat="46.10925" lon="4.71111">
        <ele>202</ele>
        <time>2017-11-02T01:13:37Z</time>
      </trkpt>
      <trkpt lat="46.109" lon="4.71103">
        <ele>202</ele>
        <time>2017-11-02T01:15:37Z</time>
      </trkpt>
      <trkpt lat="46.10884" lon="4.71097">
        <ele>201</ele>
        <time>2017-11-02T01:17:37Z</time>
      </trkpt>
      <trkpt lat="46.10841" lon="4.7108">
        <ele>200</ele>
        <time>2017-11-02T01:19:37Z</time>
      </trkpt>
      <trkpt lat="46.10819" lon="4.71074">
        <ele>200</ele>
        <time>2017-11-02T01:21:37Z</time>
      </trkpt>
      <trkpt lat="46.10805" lon="4.71069">
        <ele>199</ele>
        <time>2017-11-02T01:23:37Z</time>
      </trkpt>
      <trkpt lat="46.10778" lon="4.71063">
        <ele>198</ele>
        <time>2017-11-02T01:25:37Z</time>
      </trkpt>
      <trkpt lat="46.10762" lon="4.71059">
        <ele>198</ele>
        <time>2017-11-02T01:27:37Z</time>
      </trkpt>
      <trkpt lat="46.10702" lon="4.71047">
        <ele>196</ele>
        <time>2017-11-02T01:29:37Z</time>
      </trkpt>
      <trkpt lat="46.10657" lon="4.71038">
        <ele>194</ele>
        <time>2017-11-02T01:31:37Z</time>
      </trkpt>
      <trkpt lat="46.10632" lon="4.71031">
        <ele>194</ele>
        <time>2017-11-02T01:33:37Z</time>
      </trkpt>
      <trkpt lat="46.10608" lon="4.71022">
        <ele>194</ele>
        <time>2017-11-02T01:35:37Z</time>
      </trkpt>
      <trkpt lat="46.10575" lon="4.7101">
        <ele>193</ele>
        <time>2017-11-02T01:37:37Z</time>
      </trkpt>
      <trkpt lat="46.10531" lon="4.70991">
        <ele>192</ele>
        <time>2017-11-02T01:39:37Z</time>
      </trkpt>
      <trkpt lat="46.10448" lon="4.70955">
        <ele>189</ele>
        <time>2017-11-02T01:41:37Z</time>
      </trkpt>
      <trkpt lat="46.10433" lon="4.70952">
        <ele>188</ele>
        <time>2017-11-02T01:43:37Z</time>
      </trkpt>
      <trkpt lat="46.10399" lon="4.70956">
        <ele>187</ele>
        <time>2017-11-02T01:45:37Z</time>
      </trkpt>
      <trkpt lat="46.10314" lon="4.70974">
        <ele>187</ele>
        <time>2017-11-02T01:47:37Z</time>
      </trkpt>
      <trkpt lat="46.10228" lon="4.70992">
        <ele>186</ele>
        <time>2017-11-02T01:49:37Z</time>
      </trkpt>
      <trkpt lat="46.10167" lon="4.71007">
        <ele>186</ele>
        <time>2017-11-02T01:51:37Z</time>
      </trkpt>
      <trkpt lat="46.10149" lon="4.71017">
        <ele>186</ele>
        <time>2017-11-02T01:53:37Z</time>
      </trkpt>
      <trkpt lat="46.10135" lon="4.71028">
        <ele>185</ele>
        <time>2017-11-02T01:55:37Z</time>
      </trkpt>
      <trkpt lat="46.10127" lon="4.71037">
        <ele>185</ele>
        <time>2017-11-02T01:57:37Z</time>
      </trkpt>
      <trkpt lat="46.10127" lon="4.71037">
        <ele>185</ele>
        <time>2017-11-02T01:59:37Z</time>
      </trkpt>
      <trkpt lat="46.1012" lon="4.71029">
        <ele>185</ele>
        <time>2017-11-02T02:01:37Z</time>
      </trkpt>
      <trkpt lat="46.10115" lon="4.71024">
        <ele>185</ele>
        <time>2017-11-02T02:03:37Z</time>
      </trkpt>
      <trkpt lat="46.10112" lon="4.71021">
        <ele>185</ele>
        <time>2017-11-02T02:05:37Z</time>
      </trkpt>
      <trkpt lat="46.1011" lon="4.71019">
        <ele>185</ele>
        <time>2017-11-02T02:07:37Z</time>
      </trkpt>
      <trkpt lat="46.10091" lon="4.70999">
        <ele>186</ele>
        <time>2017-11-02T02:09:37Z</time>
      </trkpt>
      <trkpt lat="46.10088" lon="4.70994">
        <ele>186</ele>
        <time>2017-11-02T02:11:37Z</time>
      </trkpt>
      <trkpt lat="46.10082" lon="4.70984">
        <ele>186</ele>
        <time>2017-11-02T02:13:37Z</time>
      </trkpt>
      <trkpt lat="46.10075" lon="4.70973">
        <ele>186</ele>
        <time>2017-11-02T02:15:37Z</time>
      </trkpt>
      <trkpt lat="46.10073" lon="4.70967">
        <ele>186</ele>
        <time>2017-11-02T02:17:37Z</time>
      </trkpt>
      <trkpt lat="46.1007" lon="4.70959">
        <ele>185</ele>
        <time>2017-11-02T02:19:37Z</time>
      </trkpt>
      <trkpt lat="46.10068" lon="4.70954">
        <ele>185</ele>
        <time>2017-11-02T02:21:37Z</time>
      </trkpt>
      <trkpt lat="46.10058" lon="4.70917">
        <ele>185</ele>
        <time>2017-11-02T02:23:37Z</time>
      </trkpt>
      <trkpt lat="46.10042" lon="4.70852">
        <ele>185</ele>
        <time>2017-11-02T02:25:37Z</time>
      </trkpt>
      <trkpt lat="46.10029" lon="4.70792">
        <ele>186</ele>
        <time>2017-11-02T02:27:37Z</time>
      </trkpt>
      <trkpt lat="46.10018" lon="4.70722">
        <ele>187</ele>
        <time>2017-11-02T02:29:37Z</time>
      </trkpt>
      <trkpt lat="46.10011" lon="4.70671">
        <ele>188</ele>
        <time>2017-11-02T02:31:37Z</time>
      </trkpt>
      <trkpt lat="46.10004" lon="4.70639">
        <ele>189</ele>
        <time>2017-11-02T02:33:37Z</time>
      </trkpt>
      <trkpt lat="46.09988" lon="4.70581">
        <ele>190</ele>
        <time>2017-11-02T02:35:37Z</time>
      </trkpt>
      <trkpt lat="46.09975" lon="4.70546">
        <ele>191</ele>
        <time>2017-11-02T02:37:37Z</time>
      </trkpt>
      <trkpt lat="46.09933" lon="4.70451">
        <ele>192</ele>
        <time>2017-11-02T02:39:37Z</time>
      </trkpt>
      <trkpt lat="46.09921" lon="4.70425">
        <ele>193</ele>
        <time>2017-11-02T02:41:37Z</time>
      </trkpt>
      <trkpt lat="46.09909" lon="4.70395">
        <ele>193</ele>
        <time>2017-11-02T02:43:37Z</time>
      </trkpt>
      <trkpt lat="46.09903" lon="4.70378">
        <ele>193</ele>
        <time>2017-11-02T02:45:37Z</time>
      </trkpt>
      <trkpt lat="46.09899" lon="4.7036">
        <ele>193</ele>
        <time>2017-11-02T02:47:37Z</time>
      </trkpt>
      <trkpt lat="46.09892" lon="4.70317">
        <ele>194</ele>
        <time>2017-11-02T02:49:37Z</time>
      </trkpt>
      <trkpt lat="46.09884" lon="4.70243">
        <ele>194</ele>
        <time>2017-11-02T02:51:37Z</time>
      </trkpt>
      <trkpt lat="46.09872" lon="4.70149">
        <ele>195</ele>
        <time>2017-11-02T02:53:37Z</time>
      </trkpt>
      <trkpt lat="46.09861" lon="4.7005">
        <ele>197</ele>
        <time>2017-11-02T02:55:37Z</time>
      </trkpt>
      <trkpt lat="46.09853" lon="4.69989">
        <ele>197</ele>
        <time>2017-11-02T02:57:37Z</time>
      </trkpt>
      <trkpt lat="46.09851" lon="4.69965">
        <ele>197</ele>
        <time>2017-11-02T02:59:37Z</time>
      </trkpt>
      <trkpt lat="46.09849" lon="4.69928">
        <ele>197</ele>
        <time>2017-11-02T03:01:37Z</time>
      </trkpt>
      <trkpt lat="46.09847" lon="4.69898">
        <ele>197</ele>
        <time>2017-11-02T03:03:37Z</time>
      </trkpt>
      <trkpt lat="46.09844" lon="4.69876">
        <ele>196</ele>
        <time>2017-11-02T03:05:37Z</time>
      </trkpt>
      <trkpt lat="46.09841" lon="4.69859">
        <ele>196</ele>
        <time>2017-11-02T03:07:37Z</time>
      </trkpt>
      <trkpt lat="46.09834" lon="4.69851">
        <ele>196</ele>
        <time>2017-11-02T03:09:37Z</time>
      </trkpt>
      <trkpt lat="46.09826" lon="4.69842">
        <ele>196</ele>
        <time>2017-11-02T03:11:37Z</time>
      </trkpt>
      <trkpt lat="46.09819" lon="4.69836">
        <ele>196</ele>
        <time>2017-11-02T03:13:37Z</time>
      </trkpt>
      <trkpt lat="46.09812" lon="4.6983">
        <ele>196</ele>
        <time>2017-11-02T03:15:37Z</time>
      </trkpt>
      <trkpt lat="46.09805" lon="4.69825">
        <ele>195</ele>
        <time>2017-11-02T03:17:37Z</time>
      </trkpt>
      <trkpt lat="46.09784" lon="4.69815">
        <ele>195</ele>
        <time>2017-11-02T03:19:37Z</time>
      </trkpt>
      <trkpt lat="46.0975" lon="4.69798">
        <ele>195</ele>
        <time>2017-11-02T03:21:37Z</time>
      </trkpt>
      <trkpt lat="46.09719" lon="4.6978">
        <ele>194</ele>
        <time>2017-11-02T03:23:37Z</time>
      </trkpt>
      <trkpt lat="46.09685" lon="4.69756">
        <ele>193</ele>
        <time>2017-11-02T03:25:37Z</time>
      </trkpt>
      <trkpt lat="46.0967" lon="4.69742">
        <ele>192</ele>
        <time>2017-11-02T03:27:37Z</time>
      </trkpt>
      <trkpt lat="46.09664" lon="4.69736">
        <ele>192</ele>
        <time>2017-11-02T03:29:37Z</time>
      </trkpt>
      <trkpt lat="46.09649" lon="4.69718">
        <ele>192</ele>
        <time>2017-11-02T03:31:37Z</time>
      </trkpt>
      <trkpt lat="46.09607" lon="4.69672">
        <ele>191</ele>
        <time>2017-11-02T03:33:37Z</time>
      </trkpt>
      <trkpt lat="46.09554" lon="4.69614">
        <ele>192</ele>
        <time>2017-11-02T03:35:37Z</time>
      </trkpt>
      <trkpt lat="46.09529" lon="4.69584">
        <ele>192</ele>
        <time>2017-11-02T03:37:37Z</time>
      </trkpt>
      <trkpt lat="46.09486" lon="4.69533">
        <ele>193</ele>
        <time>2017-11-02T03:39:37Z</time>
      </trkpt>
      <trkpt lat="46.09471" lon="4.69514">
        <ele>193</ele>
        <time>2017-11-02T03:41:37Z</time>
      </trkpt>
      <trkpt lat="46.09453" lon="4.69484">
        <ele>194</ele>
        <time>2017-11-02T03:43:37Z</time>
      </trkpt>
      <trkpt lat="46.09443" lon="4.69463">
        <ele>195</ele>
        <time>2017-11-02T03:45:37Z</time>
      </trkpt>
      <trkpt lat="46.09424" lon="4.69419">
        <ele>197</ele>
        <time>2017-11-02T03:47:37Z</time>
      </trkpt>
      <trkpt lat="46.09411" lon="4.69392">
        <ele>197</ele>
        <time>2017-11-02T03:49:37Z</time>
      </trkpt>
      <trkpt lat="46.09401" lon="4.69369">
        <ele>198</ele>
        <time>2017-11-02T03:51:37Z</time>
      </trkpt>
      <trkpt lat="46.09392" lon="4.69353">
        <ele>198</ele>
        <time>2017-11-02T03:53:37Z</time>
      </trkpt>
      <trkpt lat="46.09386" lon="4.69335">
        <ele>198</ele>
        <time>2017-11-02T03:55:37Z</time>
      </trkpt>
      <trkpt lat="46.0938" lon="4.69316">
        <ele>199</ele>
        <time>2017-11-02T03:57:37Z</time>
      </trkpt>
      <trkpt lat="46.09375" lon="4.69295">
        <ele>199</ele>
        <time>2017-11-02T03:59:37Z</time>
      </trkpt>
      <trkpt lat="46.09368" lon="4.69252">
        <ele>199</ele>
        <time>2017-11-02T04:01:37Z</time>
      </trkpt>
      <trkpt lat="46.09368" lon="4.69245">
        <ele>199</ele>
        <time>2017-11-02T04:03:37Z</time>
      </trkpt>
      <trkpt lat="46.09364" lon="4.69211">
        <ele>200</ele>
        <time>2017-11-02T04:05:37Z</time>
      </trkpt>
      <trkpt lat="46.09358" lon="4.69149">
        <ele>201</ele>
        <time>2017-11-02T04:07:37Z</time>
      </trkpt>
      <trkpt lat="46.09355" lon="4.69138">
        <ele>201</ele>
        <time>2017-11-02T04:09:37Z</time>
      </trkpt>
      <trkpt lat="46.09351" lon="4.69124">
        <ele>201</ele>
        <time>2017-11-02T04:11:37Z</time>
      </trkpt>
      <trkpt lat="46.09349" lon="4.69114">
        <ele>201</ele>
        <time>2017-11-02T04:13:37Z</time>
      </trkpt>
      <trkpt lat="46.09345" lon="4.69104">
        <ele>201</ele>
        <time>2017-11-02T04:15:37Z</time>
      </trkpt>
      <trkpt lat="46.09335" lon="4.69082">
        <ele>201</ele>
        <time>2017-11-02T04:17:37Z</time>
      </trkpt>
      <trkpt lat="46.09326" lon="4.69064">
        <ele>201</ele>
        <time>2017-11-02T04:19:37Z</time>
      </trkpt>
      <trkpt lat="46.09303" lon="4.69014">
        <ele>201</ele>
        <time>2017-11-02T04:21:37Z</time>
      </trkpt>
      <trkpt lat="46.09296" lon="4.69001">
        <ele>201</ele>
        <time>2017-11-02T04:23:37Z</time>
      </trkpt>
      <trkpt lat="46.09279" lon="4.68961">
        <ele>202</ele>
        <time>2017-11-02T04:25:37Z</time>
      </trkpt>
      <trkpt lat="46.09275" lon="4.68939">
        <ele>203</ele>
        <time>2017-11-02T04:27:37Z</time>
      </trkpt>
      <trkpt lat="46.09274" lon="4.68935">
        <ele>203</ele>
        <time>2017-11-02T04:29:37Z</time>
      </trkpt>
      <trkpt lat="46.09261" lon="4.68818">
        <ele>205</ele>
        <time>2017-11-02T04:31:37Z</time>
      </trkpt>
      <trkpt lat="46.09259" lon="4.68806">
        <ele>205</ele>
        <time>2017-11-02T04:33:37Z</time>
      </trkpt>
      <trkpt lat="46.09255" lon="4.68783">
        <ele>206</ele>
        <time>2017-11-02T04:35:37Z</time>
      </trkpt>
      <trkpt lat="46.09249" lon="4.68754">
        <ele>207</ele>
        <time>2017-11-02T04:37:37Z</time>
      </trkpt>
      <trkpt lat="46.09244" lon="4.68731">
        <ele>207</ele>
        <time>2017-11-02T04:39:37Z</time>
      </trkpt>
      <trkpt lat="46.0924" lon="4.6872">
        <ele>207</ele>
        <time>2017-11-02T04:41:37Z</time>
      </trkpt>
      <trkpt lat="46.09219" lon="4.68704">
        <ele>207</ele>
        <time>2017-11-02T04:43:37Z</time>
      </trkpt>
      <trkpt lat="46.09184" lon="4.68668">
        <ele>206</ele>
        <time>2017-11-02T04:45:37Z</time>
      </trkpt>
      <trkpt lat="46.09162" lon="4.68641">
        <ele>205</ele>
        <time>2017-11-02T04:47:37Z</time>
      </trkpt>
      <trkpt lat="46.09154" lon="4.68627">
        <ele>205</ele>
        <time>2017-11-02T04:49:37Z</time>
      </trkpt>
      <trkpt lat="46.09128" lon="4.6858">
        <ele>204</ele>
        <time>2017-11-02T04:51:37Z</time>
      </trkpt>
      <trkpt lat="46.09115" lon="4.68552">
        <ele>204</ele>
        <time>2017-11-02T04:53:37Z</time>
      </trkpt>
      <trkpt lat="46.09099" lon="4.68514">
        <ele>205</ele>
        <time>2017-11-02T04:55:37Z</time>
      </trkpt>
      <trkpt lat="46.09077" lon="4.68457">
        <ele>206</ele>
        <time>2017-11-02T04:57:37Z</time>
      </trkpt>
      <trkpt lat="46.0907" lon="4.68433">
        <ele>206</ele>
        <time>2017-11-02T04:59:37Z</time>
      </trkpt>
      <trkpt lat="46.09069" lon="4.6843">
        <ele>206</ele>
        <time>2017-11-02T05:01:37Z</time>
      </trkpt>
      <trkpt lat="46.09065" lon="4.68415">
        <ele>206</ele>
        <time>2017-11-02T05:03:37Z</time>
      </trkpt>
      <trkpt lat="46.09062" lon="4.68389">
        <ele>206</ele>
        <time>2017-11-02T05:05:37Z</time>
      </trkpt>
      <trkpt lat="46.09062" lon="4.68382">
        <ele>206</ele>
        <time>2017-11-02T05:07:37Z</time>
      </trkpt>
      <trkpt lat="46.09061" lon="4.68362">
        <ele>206</ele>
        <time>2017-11-02T05:09:37Z</time>
      </trkpt>
      <trkpt lat="46.09061" lon="4.68343">
        <ele>206</ele>
        <time>2017-11-02T05:11:37Z</time>
      </trkpt>
      <trkpt lat="46.09059" lon="4.68322">
        <ele>206</ele>
        <time>2017-11-02T05:13:37Z</time>
      </trkpt>
      <trkpt lat="46.09058" lon="4.68315">
        <ele>205</ele>
        <time>2017-11-02T05:15:37Z</time>
      </trkpt>
      <trkpt lat="46.09057" lon="4.6831">
        <ele>205</ele>
        <time>2017-11-02T05:17:37Z</time>
      </trkpt>
      <trkpt lat="46.09055" lon="4.68303">
        <ele>205</ele>
        <time>2017-11-02T05:19:37Z</time>
      </trkpt>
      <trkpt lat="46.09048" lon="4.68283">
        <ele>205</ele>
        <time>2017-11-02T05:21:37Z</time>
      </trkpt>
      <trkpt lat="46.09032" lon="4.68245">
        <ele>205</ele>
        <time>2017-11-02T05:23:37Z</time>
      </trkpt>
      <trkpt lat="46.09022" lon="4.68219">
        <ele>205</ele>
        <time>2017-11-02T05:25:37Z</time>
      </trkpt>
      <trkpt lat="46.09018" lon="4.68202">
        <ele>205</ele>
        <time>2017-11-02T05:27:37Z</time>
      </trkpt>
      <trkpt lat="46.09012" lon="4.68179">
        <ele>205</ele>
        <time>2017-11-02T05:29:37Z</time>
      </trkpt>
      <trkpt lat="46.09008" lon="4.68165">
        <ele>205</ele>
        <time>2017-11-02T05:31:37Z</time>
      </trkpt>
      <trkpt lat="46.08996" lon="4.68127">
        <ele>205</ele>
        <time>2017-11-02T05:33:37Z</time>
      </trkpt>
      <trkpt lat="46.08994" lon="4.68122">
        <ele>205</ele>
        <time>2017-11-02T05:35:37Z</time>
      </trkpt>
      <trkpt lat="46.08992" lon="4.68118">
        <ele>205</ele>
        <time>2017-11-02T05:37:37Z</time>
      </trkpt>
      <trkpt lat="46.08979" lon="4.68093">
        <ele>206</ele>
        <time>2017-11-02T05:39:37Z</time>
      </trkpt>
      <trkpt lat="46.08952" lon="4.68063">
        <ele>205</ele>
        <time>2017-11-02T05:41:37Z</time>
      </trkpt>
      <trkpt lat="46.08923" lon="4.68011">
        <ele>204</ele>
        <time>2017-11-02T05:43:37Z</time>
      </trkpt>
      <trkpt lat="46.08921" lon="4.68006">
        <ele>204</ele>
        <time>2017-11-02T05:45:37Z</time>
      </trkpt>
      <trkpt lat="46.08918" lon="4.67999">
        <ele>204</ele>
        <time>2017-11-02T05:47:37Z</time>
      </trkpt>
      <trkpt lat="46.08917" lon="4.67992">
        <ele>204</ele>
        <time>2017-11-02T05:49:37Z</time>
      </trkpt>
      <trkpt lat="46.08914" lon="4.67986">
        <ele>205</ele>
        <time>2017-11-02T05:51:37Z</time>
      </trkpt>
      <trkpt lat="46.08912" lon="4.6798">
        <ele>205</ele>
        <time>2017-11-02T05:53:37Z</time>
      </trkpt>
      <trkpt lat="46.0891" lon="4.67971">
        <ele>205</ele>
        <time>2017-11-02T05:55:37Z</time>
      </trkpt>
      <trkpt lat="46.08905" lon="4.67961">
        <ele>205</ele>
        <time>2017-11-02T05:57:37Z</time>
      </trkpt>
      <trkpt lat="46.08901" lon="4.67955">
        <ele>206</ele>
        <time>2017-11-02T05:59:37Z</time>
      </trkpt>
      <trkpt lat="46.08895" lon="4.67949">
        <ele>206</ele>
        <time>2017-11-02T06:01:37Z</time>
      </trkpt>
      <trkpt lat="46.08889" lon="4.67943">
        <ele>206</ele>
        <time>2017-11-02T06:03:37Z</time>
      </trkpt>
      <trkpt lat="46.0888" lon="4.67936">
        <ele>206</ele>
        <time>2017-11-02T06:05:37Z</time>
      </trkpt>
      <trkpt lat="46.08876" lon="4.67933">
        <ele>206</ele>
        <time>2017-11-02T06:07:37Z</time>
      </trkpt>
      <trkpt lat="46.08862" lon="4.67922">
        <ele>206</ele>
        <time>2017-11-02T06:09:37Z</time>
      </trkpt>
      <trkpt lat="46.08862" lon="4.67922">
        <ele>206</ele>
        <time>2017-11-02T06:11:37Z</time>
      </trkpt>
      <trkpt lat="46.08869" lon="4.6789">
        <ele>208</ele>
        <time>2017-11-02T06:13:37Z</time>
      </trkpt>
      <trkpt lat="46.08869" lon="4.6789">
        <ele>208</ele>
        <time>2017-11-02T06:15:37Z</time>
      </trkpt>
      <trkpt lat="46.0886" lon="4.67876">
        <ele>209</ele>
        <time>2017-11-02T06:17:37Z</time>
      </trkpt>
      <trkpt lat="46.08857" lon="4.67872">
        <ele>209</ele>
        <time>2017-11-02T06:19:37Z</time>
      </trkpt>
      <trkpt lat="46.08852" lon="4.67864">
        <ele>210</ele>
        <time>2017-11-02T06:21:37Z</time>
      </trkpt>
      <trkpt lat="46.08848" lon="4.67857">
        <ele>210</ele>
        <time>2017-11-02T06:23:37Z</time>
      </trkpt>
      <trkpt lat="46.08841" lon="4.6784">
        <ele>211</ele>
        <time>2017-11-02T06:25:37Z</time>
      </trkpt>
      <trkpt lat="46.0884" lon="4.6784">
        <ele>211</ele>
        <time>2017-11-02T06:27:37Z</time>
      </trkpt>
      <trkpt lat="46.08839" lon="4.6784">
        <ele>211</ele>
        <time>2017-11-02T06:29:37Z</time>
      </trkpt>
      <trkpt lat="46.08838" lon="4.6784">
        <ele>211</ele>
        <time>2017-11-02T06:31:37Z</time>
      </trkpt>
      <trkpt lat="46.08838" lon="4.67839">
        <ele>211</ele>
        <time>2017-11-02T06:33:37Z</time>
      </trkpt>
      <trkpt lat="46.08837" lon="4.67839">
        <ele>211</ele>
        <time>2017-11-02T06:35:37Z</time>
      </trkpt>
      <trkpt lat="46.08837" lon="4.67838">
        <ele>211</ele>
        <time>2017-11-02T06:37:37Z</time>
      </trkpt>
      <trkpt lat="46.08837" lon="4.67837">
        <ele>211</ele>
        <time>2017-11-02T06:39:37Z</time>
      </trkpt>
      <trkpt lat="46.08836" lon="4.67837">
        <ele>211</ele>
        <time>2017-11-02T06:41:37Z</time>
      </trkpt>
      <trkpt lat="46.08836" lon="4.67836">
        <ele>211</ele>
        <time>2017-11-02T06:43:37Z</time>
      </trkpt>
      <trkpt lat="46.08799" lon="4.67831">
        <ele>211</ele>
        <time>2017-11-02T06:45:37Z</time>
      </trkpt>
      <trkpt lat="46.08768" lon="4.67827">
        <ele>211</ele>
        <time>2017-11-02T06:47:37Z</time>
      </trkpt>
      <trkpt lat="46.0876" lon="4.67826">
        <ele>212</ele>
        <time>2017-11-02T06:49:37Z</time>
      </trkpt>
      <trkpt lat="46.08759" lon="4.67826">
        <ele>212</ele>
        <time>2017-11-02T06:51:37Z</time>
      </trkpt>
      <trkpt lat="46.08726" lon="4.67816">
        <ele>213</ele>
        <time>2017-11-02T06:53:37Z</time>
      </trkpt>
      <trkpt lat="46.08704" lon="4.67808">
        <ele>214</ele>
        <time>2017-11-02T06:55:37Z</time>
      </trkpt>
      <trkpt lat="46.08678" lon="4.678">
        <ele>215</ele>
        <time>2017-11-02T06:57:37Z</time>
      </trkpt>
      <trkpt lat="46.08614" lon="4.67777">
        <ele>219</ele>
        <time>2017-11-02T06:59:37Z</time>
      </trkpt>
      <trkpt lat="46.08578" lon="4.67763">
        <ele>221</ele>
        <time>2017-11-02T07:01:37Z</time>
      </trkpt>
      <trkpt lat="46.08556" lon="4.67751">
        <ele>222</ele>
        <time>2017-11-02T07:03:37Z</time>
      </trkpt>
      <trkpt lat="46.08551" lon="4.67747">
        <ele>222</ele>
        <time>2017-11-02T07:05:37Z</time>
      </trkpt>
      <trkpt lat="46.08547" lon="4.67744">
        <ele>222</ele>
        <time>2017-11-02T07:07:37Z</time>
      </trkpt>
      <trkpt lat="46.08542" lon="4.67739">
        <ele>223</ele>
        <time>2017-11-02T07:09:37Z</time>
      </trkpt>
      <trkpt lat="46.08526" lon="4.67722">
        <ele>224</ele>
        <time>2017-11-02T07:11:37Z</time>
      </trkpt>
      <trkpt lat="46.08519" lon="4.67713">
        <ele>225</ele>
        <time>2017-11-02T07:13:37Z</time>
      </trkpt>
      <trkpt lat="46.08515" lon="4.67707">
        <ele>225</ele>
        <time>2017-11-02T07:15:37Z</time>
      </trkpt>
      <trkpt lat="46.08508" lon="4.67699">
        <ele>225</ele>
        <time>2017-11-02T07:17:37Z</time>
      </trkpt>
      <trkpt lat="46.085" lon="4.6769">
        <ele>226</ele>
        <time>2017-11-02T07:19:37Z</time>
      </trkpt>
      <trkpt lat="46.08497" lon="4.67687">
        <ele>226</ele>
        <time>2017-11-02T07:21:37Z</time>
      </trkpt>
      <trkpt lat="46.08487" lon="4.67676">
        <ele>227</ele>
        <time>2017-11-02T07:23:37Z</time>
      </trkpt>
      <trkpt lat="46.08478" lon="4.67669">
        <ele>227</ele>
        <time>2017-11-02T07:25:37Z</time>
      </trkpt>
      <trkpt lat="46.08458" lon="4.67652">
        <ele>227</ele>
        <time>2017-11-02T07:27:37Z</time>
      </trkpt>
      <trkpt lat="46.08453" lon="4.67648">
        <ele>227</ele>
        <time>2017-11-02T07:29:37Z</time>
      </trkpt>
      <trkpt lat="46.08448" lon="4.67644">
        <ele>227</ele>
        <time>2017-11-02T07:31:37Z</time>
      </trkpt>
      <trkpt lat="46.08446" lon="4.67642">
        <ele>227</ele>
        <time>2017-11-02T07:33:37Z</time>
      </trkpt>
      <trkpt lat="46.08444" lon="4.6764">
        <ele>227</ele>
        <time>2017-11-02T07:35:37Z</time>
      </trkpt>
      <trkpt lat="46.08442" lon="4.67639">
        <ele>227</ele>
        <time>2017-11-02T07:37:37Z</time>
      </trkpt>
      <trkpt lat="46.0844" lon="4.67636">
        <ele>227</ele>
        <time>2017-11-02T07:39:37Z</time>
      </trkpt>
      <trkpt lat="46.08437" lon="4.67632">
        <ele>227</ele>
        <time>2017-11-02T07:41:37Z</time>
      </trkpt>
      <trkpt lat="46.08434" lon="4.67627">
        <ele>227</ele>
        <time>2017-11-02T07:43:37Z</time>
      </trkpt>
      <trkpt lat="46.08432" lon="4.67624">
        <ele>227</ele>
        <time>2017-11-02T07:45:37Z</time>
      </trkpt>
      <trkpt lat="46.08429" lon="4.67617">
        <ele>227</ele>
        <time>2017-11-02T07:47:37Z</time>
      </trkpt>
      <trkpt lat="46.08427" lon="4.67607">
        <ele>228</ele>
        <time>2017-11-02T07:49:37Z</time>
      </trkpt>
      <trkpt lat="46.08426" lon="4.67578">
        <ele>228</ele>
        <time>2017-11-02T07:51:37Z</time>
      </trkpt>
      <trkpt lat="46.08425" lon="4.67528">
        <ele>229</ele>
        <time>2017-11-02T07:53:37Z</time>
      </trkpt>
      <trkpt lat="46.08425" lon="4.67501">
        <ele>229</ele>
        <time>2017-11-02T07:55:37Z</time>
      </trkpt>
      <trkpt lat="46.08425" lon="4.67469">
        <ele>230</ele>
        <time>2017-11-02T07:57:37Z</time>
      </trkpt>
      <trkpt lat="46.08427" lon="4.6745">
        <ele>231</ele>
        <time>2017-11-02T07:59:37Z</time>
      </trkpt>
      <trkpt lat="46.0843" lon="4.67422">
        <ele>231</ele>
        <time>2017-11-02T08:01:37Z</time>
      </trkpt>
      <trkpt lat="46.08455" lon="4.67272">
        <ele>236</ele>
        <time>2017-11-02T08:03:37Z</time>
      </trkpt>
      <trkpt lat="46.08469" lon="4.67196">
        <ele>238</ele>
        <time>2017-11-02T08:05:37Z</time>
      </trkpt>
      <trkpt lat="46.08475" lon="4.67151">
        <ele>239</ele>
        <time>2017-11-02T08:07:37Z</time>
      </trkpt>
      <trkpt lat="46.08476" lon="4.6714">
        <ele>239</ele>
        <time>2017-11-02T08:09:37Z</time>
      </trkpt>
      <trkpt lat="46.08476" lon="4.67135">
        <ele>239</ele>
        <time>2017-11-02T08:11:37Z</time>
      </trkpt>
      <trkpt lat="46.08474" lon="4.67105">
        <ele>239</ele>
        <time>2017-11-02T08:13:37Z</time>
      </trkpt>
      <trkpt lat="46.08461" lon="4.67003">
        <ele>239</ele>
        <time>2017-11-02T08:15:37Z</time>
      </trkpt>
      <trkpt lat="46.08452" lon="4.66926">
        <ele>239</ele>
        <time>2017-11-02T08:17:37Z</time>
      </trkpt>
      <trkpt lat="46.08449" lon="4.66884">
        <ele>240</ele>
        <time>2017-11-02T08:19:37Z</time>
      </trkpt>
      <trkpt lat="46.08446" lon="4.66749">
        <ele>242</ele>
        <time>2017-11-02T08:21:37Z</time>
      </trkpt>
      <trkpt lat="46.08446" lon="4.66708">
        <ele>243</ele>
        <time>2017-11-02T08:23:37Z</time>
      </trkpt>
      <trkpt lat="46.08443" lon="4.66647">
        <ele>246</ele>
        <time>2017-11-02T08:25:37Z</time>
      </trkpt>
      <trkpt lat="46.08441" lon="4.66575">
        <ele>247</ele>
        <time>2017-11-02T08:27:37Z</time>
      </trkpt>
      <trkpt lat="46.08439" lon="4.66487">
        <ele>250</ele>
        <time>2017-11-02T08:29:37Z</time>
      </trkpt>
      <trkpt lat="46.08439" lon="4.66478">
        <ele>250</ele>
        <time>2017-11-02T08:31:37Z</time>
      </trkpt>
      <trkpt lat="46.0844" lon="4.6647">
        <ele>250</ele>
        <time>2017-11-02T08:33:37Z</time>
      </trkpt>
      <trkpt lat="46.08442" lon="4.66433">
        <ele>250</ele>
        <time>2017-11-02T08:35:37Z</time>
      </trkpt>
      <trkpt lat="46.08444" lon="4.66401">
        <ele>250</ele>
        <time>2017-11-02T08:37:37Z</time>
      </trkpt>
      <trkpt lat="46.08446" lon="4.66383">
        <ele>250</ele>
        <time>2017-11-02T08:39:37Z</time>
      </trkpt>
      <trkpt lat="46.08447" lon="4.66363">
        <ele>250</ele>
        <time>2017-11-02T08:41:37Z</time>
      </trkpt>
      <trkpt lat="46.08451" lon="4.66294">
        <ele>252</ele>
        <time>2017-11-02T08:43:37Z</time>
      </trkpt>
      <trkpt lat="46.08453" lon="4.66268">
        <ele>253</ele>
        <time>2017-11-02T08:45:37Z</time>
      </trkpt>
      <trkpt lat="46.08455" lon="4.66246">
        <ele>254</ele>
        <time>2017-11-02T08:47:37Z</time>
      </trkpt>
      <trkpt lat="46.08457" lon="4.66233">
        <ele>254</ele>
        <time>2017-11-02T08:49:37Z</time>
      </trkpt>
      <trkpt lat="46.08458" lon="4.66221">
        <ele>254</ele>
        <time>2017-11-02T08:51:37Z</time>
      </trkpt>
      <trkpt lat="46.08461" lon="4.66207">
        <ele>254</ele>
        <time>2017-11-02T08:53:37Z</time>
      </trkpt>
      <trkpt lat="46.08472" lon="4.66153">
        <ele>255</ele>
        <time>2017-11-02T08:55:37Z</time>
      </trkpt>
      <trkpt lat="46.08492" lon="4.66057">
        <ele>258</ele>
        <time>2017-11-02T08:57:37Z</time>
      </trkpt>
      <trkpt lat="46.08505" lon="4.65997">
        <ele>262</ele>
        <time>2017-11-02T08:59:37Z</time>
      </trkpt>
      <trkpt lat="46.08516" lon="4.65953">
        <ele>263</ele>
        <time>2017-11-02T09:01:37Z</time>
      </trkpt>
      <trkpt lat="46.08521" lon="4.65932">
        <ele>263</ele>
        <time>2017-11-02T09:03:37Z</time>
      </trkpt>
      <trkpt lat="46.08526" lon="4.65917">
        <ele>263</ele>
        <time>2017-11-02T09:05:37Z</time>
      </trkpt>
      <trkpt lat="46.08528" lon="4.65912">
        <ele>264</ele>
        <time>2017-11-02T09:07:37Z</time>
      </trkpt>
      <trkpt lat="46.0853" lon="4.65907">
        <ele>264</ele>
        <time>2017-11-02T09:09:37Z</time>
      </trkpt>
      <trkpt lat="46.08533" lon="4.65898">
        <ele>264</ele>
        <time>2017-11-02T09:11:37Z</time>
      </trkpt>
      <trkpt lat="46.08538" lon="4.6589">
        <ele>264</ele>
        <time>2017-11-02T09:13:37Z</time>
      </trkpt>
      <trkpt lat="46.086" lon="4.65795">
        <ele>266</ele>
        <time>2017-11-02T09:15:37Z</time>
      </trkpt>
      <trkpt lat="46.08608" lon="4.65781">
        <ele>266</ele>
        <time>2017-11-02T09:17:37Z</time>
      </trkpt>
      <trkpt lat="46.08637" lon="4.65729">
        <ele>269</ele>
        <time>2017-11-02T09:19:37Z</time>
      </trkpt>
      <trkpt lat="46.08655" lon="4.65695">
        <ele>269</ele>
        <time>2017-11-02T09:21:37Z</time>
      </trkpt>
      <trkpt lat="46.08685" lon="4.65641">
        <ele>270</ele>
        <time>2017-11-02T09:23:37Z</time>
      </trkpt>
      <trkpt lat="46.08712" lon="4.65592">
        <ele>272</ele>
        <time>2017-11-02T09:25:37Z</time>
      </trkpt>
      <trkpt lat="46.08734" lon="4.65552">
        <ele>274</ele>
        <time>2017-11-02T09:27:37Z</time>
      </trkpt>
      <trkpt lat="46.08743" lon="4.65535">
        <ele>274</ele>
        <time>2017-11-02T09:29:37Z</time>
      </trkpt>
      <trkpt lat="46.08748" lon="4.65524">
        <ele>274</ele>
        <time>2017-11-02T09:31:37Z</time>
      </trkpt>
      <trkpt lat="46.08751" lon="4.65517">
        <ele>275</ele>
        <time>2017-11-02T09:33:37Z</time>
      </trkpt>
      <trkpt lat="46.08757" lon="4.65503">
        <ele>275</ele>
        <time>2017-11-02T09:35:37Z</time>
      </trkpt>
      <trkpt lat="46.08762" lon="4.65489">
        <ele>275</ele>
        <time>2017-11-02T09:37:37Z</time>
      </trkpt>
      <trkpt lat="46.08765" lon="4.65479">
        <ele>275</ele>
        <time>2017-11-02T09:39:37Z</time>
      </trkpt>
      <trkpt lat="46.08768" lon="4.65471">
        <ele>275</ele>
        <time>2017-11-02T09:41:37Z</time>
      </trkpt>
      <trkpt lat="46.08769" lon="4.65464">
        <ele>275</ele>
        <time>2017-11-02T09:43:37Z</time>
      </trkpt>
      <trkpt lat="46.08771" lon="4.65455">
        <ele>275</ele>
        <time>2017-11-02T09:45:37Z</time>
      </trkpt>
      <trkpt lat="46.08777" lon="4.65435">
        <ele>275</ele>
        <time>2017-11-02T09:47:37Z</time>
      </trkpt>
      <trkpt lat="46.08782" lon="4.65418">
        <ele>275</ele>
        <time>2017-11-02T09:49:37Z</time>
      </trkpt>
      <trkpt lat="46.08786" lon="4.65404">
        <ele>276</ele>
        <time>2017-11-02T09:51:37Z</time>
      </trkpt>
      <trkpt lat="46.08814" lon="4.65294">
        <ele>279</ele>
        <time>2017-11-02T09:53:37Z</time>
      </trkpt>
      <trkpt lat="46.08853" lon="4.65152">
        <ele>282</ele>
        <time>2017-11-02T09:55:37Z</time>
      </trkpt>
      <trkpt lat="46.08865" lon="4.65108">
        <ele>283</ele>
        <time>2017-11-02T09:57:37Z</time>
      </trkpt>
      <trkpt lat="46.08873" lon="4.65079">
        <ele>284</ele>
        <time>2017-11-02T09:59:37Z</time>
      </trkpt>
      <trkpt lat="46.08876" lon="4.65069">
        <ele>284</ele>
        <time>2017-11-02T10:01:37Z</time>
      </trkpt>
      <trkpt lat="46.08881" lon="4.65046">
        <ele>285</ele>
        <time>2017-11-02T10:03:37Z</time>
      </trkpt>
      <trkpt lat="46.0889" lon="4.65002">
        <ele>286</ele>
        <time>2017-11-02T10:05:37Z</time>
      </trkpt>
      <trkpt lat="46.089" lon="4.64958">
        <ele>287</ele>
        <time>2017-11-02T10:07:37Z</time>
      </trkpt>
      <trkpt lat="46.08903" lon="4.64941">
        <ele>287</ele>
        <time>2017-11-02T10:09:37Z</time>
      </trkpt>
      <trkpt lat="46.08918" lon="4.64875">
        <ele>289</ele>
        <time>2017-11-02T10:11:37Z</time>
      </trkpt>
      <trkpt lat="46.08923" lon="4.64856">
        <ele>290</ele>
        <time>2017-11-02T10:13:37Z</time>
      </trkpt>
      <trkpt lat="46.08928" lon="4.6484">
        <ele>291</ele>
        <time>2017-11-02T10:15:37Z</time>
      </trkpt>
      <trkpt lat="46.08949" lon="4.64769">
        <ele>295</ele>
        <time>2017-11-02T10:17:37Z</time>
      </trkpt>
      <trkpt lat="46.08957" lon="4.64736">
        <ele>297</ele>
        <time>2017-11-02T10:19:37Z</time>
      </trkpt>
      <trkpt lat="46.08958" lon="4.64732">
        <ele>297</ele>
        <time>2017-11-02T10:21:37Z</time>
      </trkpt>
      <trkpt lat="46.08959" lon="4.6473">
        <ele>297</ele>
        <time>2017-11-02T10:23:37Z</time>
      </trkpt>
      <trkpt lat="46.08959" lon="4.6473">
        <ele>297</ele>
        <time>2017-11-02T10:25:37Z</time>
      </trkpt>
      <trkpt lat="46.08962" lon="4.64726">
        <ele>298</ele>
        <time>2017-11-02T10:27:37Z</time>
      </trkpt>
      <trkpt lat="46.08968" lon="4.6472">
        <ele>298</ele>
        <time>2017-11-02T10:29:37Z</time>
      </trkpt>
      <trkpt lat="46.08968" lon="4.6472">
        <ele>298</ele>
        <time>2017-11-02T10:31:37Z</time>
      </trkpt>
      <trkpt lat="46.08969" lon="4.6472">
        <ele>298</ele>
        <time>2017-11-02T10:33:37Z</time>
      </trkpt>
      <trkpt lat="46.0897" lon="4.6472">
        <ele>298</ele>
        <time>2017-11-02T10:35:37Z</time>
      </trkpt>
      <trkpt lat="46.0897" lon="4.64719">
        <ele>298</ele>
        <time>2017-11-02T10:37:37Z</time>
      </trkpt>
      <trkpt lat="46.08971" lon="4.64719">
        <ele>298</ele>
        <time>2017-11-02T10:39:37Z</time>
      </trkpt>
      <trkpt lat="46.08972" lon="4.64719">
        <ele>298</ele>
        <time>2017-11-02T10:41:37Z</time>
      </trkpt>
      <trkpt lat="46.08972" lon="4.64718">
        <ele>298</ele>
        <time>2017-11-02T10:43:37Z</time>
      </trkpt>
      <trkpt lat="46.08973" lon="4.64718">
        <ele>299</ele>
        <time>2017-11-02T10:45:37Z</time>
      </trkpt>
      <trkpt lat="46.08973" lon="4.64717">
        <ele>299</ele>
        <time>2017-11-02T10:47:37Z</time>
      </trkpt>
      <trkpt lat="46.08974" lon="4.64717">
        <ele>299</ele>
        <time>2017-11-02T10:49:37Z</time>
      </trkpt>
      <trkpt lat="46.08974" lon="4.64716">
        <ele>299</ele>
        <time>2017-11-02T10:51:37Z</time>
      </trkpt>
      <trkpt lat="46.08975" lon="4.64715">
        <ele>299</ele>
        <time>2017-11-02T10:53:37Z</time>
      </trkpt>
      <trkpt lat="46.08975" lon="4.64714">
        <ele>299</ele>
        <time>2017-11-02T10:55:37Z</time>
      </trkpt>
      <trkpt lat="46.08975" lon="4.64713">
        <ele>299</ele>
        <time>2017-11-02T10:57:37Z</time>
      </trkpt>
      <trkpt lat="46.08976" lon="4.64713">
        <ele>299</ele>
        <time>2017-11-02T10:59:37Z</time>
      </trkpt>
      <trkpt lat="46.08976" lon="4.64712">
        <ele>299</ele>
        <time>2017-11-02T11:01:37Z</time>
      </trkpt>
      <trkpt lat="46.08976" lon="4.64711">
        <ele>299</ele>
        <time>2017-11-02T11:03:37Z</time>
      </trkpt>
      <trkpt lat="46.08976" lon="4.6471">
        <ele>299</ele>
        <time>2017-11-02T11:05:37Z</time>
      </trkpt>
      <trkpt lat="46.08976" lon="4.64709">
        <ele>299</ele>
        <time>2017-11-02T11:07:37Z</time>
      </trkpt>
      <trkpt lat="46.08976" lon="4.64708">
        <ele>299</ele>
        <time>2017-11-02T11:09:37Z</time>
      </trkpt>
      <trkpt lat="46.08976" lon="4.64707">
        <ele>299</ele>
        <time>2017-11-02T11:11:37Z</time>
      </trkpt>
      <trkpt lat="46.08981" lon="4.64705">
        <ele>299</ele>
        <time>2017-11-02T11:13:37Z</time>
      </trkpt>
      <trkpt lat="46.08984" lon="4.64703">
        <ele>300</ele>
        <time>2017-11-02T11:15:37Z</time>
      </trkpt>
      <trkpt lat="46.08987" lon="4.64701">
        <ele>300</ele>
        <time>2017-11-02T11:17:37Z</time>
      </trkpt>
      <trkpt lat="46.0899" lon="4.64699">
        <ele>300</ele>
        <time>2017-11-02T11:19:37Z</time>
      </trkpt>
      <trkpt lat="46.08992" lon="4.64697">
        <ele>300</ele>
        <time>2017-11-02T11:21:37Z</time>
      </trkpt>
      <trkpt lat="46.08999" lon="4.64696">
        <ele>301</ele>
        <time>2017-11-02T11:23:37Z</time>
      </trkpt>
      <trkpt lat="46.09007" lon="4.64697">
        <ele>301</ele>
        <time>2017-11-02T11:25:37Z</time>
      </trkpt>
      <trkpt lat="46.09032" lon="4.64698">
        <ele>302</ele>
        <time>2017-11-02T11:27:37Z</time>
      </trkpt>
      <trkpt lat="46.09032" lon="4.64698">
        <ele>302</ele>
        <time>2017-11-02T11:29:37Z</time>
      </trkpt>
      <trkpt lat="46.09037" lon="4.647">
        <ele>302</ele>
        <time>2017-11-02T11:31:37Z</time>
      </trkpt>
      <trkpt lat="46.09042" lon="4.64701">
        <ele>303</ele>
        <time>2017-11-02T11:33:37Z</time>
      </trkpt>
      <trkpt lat="46.09056" lon="4.64702">
        <ele>303</ele>
        <time>2017-11-02T11:35:37Z</time>
      </trkpt>
      <trkpt lat="46.09081" lon="4.64704">
        <ele>304</ele>
        <time>2017-11-02T11:37:37Z</time>
      </trkpt>
      <trkpt lat="46.09101" lon="4.64705">
        <ele>305</ele>
        <time>2017-11-02T11:39:37Z</time>
      </trkpt>
      <trkpt lat="46.09142" lon="4.64706">
        <ele>306</ele>
        <time>2017-11-02T11:41:37Z</time>
      </trkpt>
      <trkpt lat="46.09169" lon="4.64706">
        <ele>307</ele>
        <time>2017-11-02T11:43:37Z</time>
      </trkpt>
      <trkpt lat="46.09191" lon="4.64706">
        <ele>308</ele>
        <time>2017-11-02T11:45:37Z</time>
      </trkpt>
      <trkpt lat="46.09202" lon="4.64706">
        <ele>309</ele>
        <time>2017-11-02T11:47:37Z</time>
      </trkpt>
      <trkpt lat="46.09209" lon="4.64705">
        <ele>309</ele>
        <time>2017-11-02T11:49:37Z</time>
      </trkpt>
      <trkpt lat="46.09215" lon="4.64704">
        <ele>309</ele>
        <time>2017-11-02T11:51:37Z</time>
      </trkpt>
      <trkpt lat="46.09226" lon="4.64703">
        <ele>310</ele>
        <time>2017-11-02T11:53:37Z</time>
      </trkpt>
      <trkpt lat="46.09234" lon="4.647">
        <ele>310</ele>
        <time>2017-11-02T11:55:37Z</time>
      </trkpt>
      <trkpt lat="46.09239" lon="4.647">
        <ele>311</ele>
        <time>2017-11-02T11:57:37Z</time>
      </trkpt>
      <trkpt lat="46.09267" lon="4.64695">
        <ele>312</ele>
        <time>2017-11-02T11:59:37Z</time>
      </trkpt>
      <trkpt lat="46.09287" lon="4.64691">
        <ele>313</ele>
        <time>2017-11-02T12:01:37Z</time>
      </trkpt>
      <trkpt lat="46.093" lon="4.64687">
        <ele>313</ele>
        <time>2017-11-02T12:03:37Z</time>
      </trkpt>
      <trkpt lat="46.09319" lon="4.64679">
        <ele>315</ele>
        <time>2017-11-02T12:05:37Z</time>
      </trkpt>
      <trkpt lat="46.09324" lon="4.64676">
        <ele>315</ele>
        <time>2017-11-02T12:07:37Z</time>
      </trkpt>
      <trkpt lat="46.09371" lon="4.64651">
        <ele>319</ele>
        <time>2017-11-02T12:09:37Z</time>
      </trkpt>
      <trkpt lat="46.09388" lon="4.64642">
        <ele>320</ele>
        <time>2017-11-02T12:11:37Z</time>
      </trkpt>
      <trkpt lat="46.09399" lon="4.64638">
        <ele>321</ele>
        <time>2017-11-02T12:13:37Z</time>
      </trkpt>
      <trkpt lat="46.09408" lon="4.64634">
        <ele>322</ele>
        <time>2017-11-02T12:15:37Z</time>
      </trkpt>
      <trkpt lat="46.09416" lon="4.64631">
        <ele>322</ele>
        <time>2017-11-02T12:17:37Z</time>
      </trkpt>
      <trkpt lat="46.09428" lon="4.64628">
        <ele>323</ele>
        <time>2017-11-02T12:19:37Z</time>
      </trkpt>
      <trkpt lat="46.09442" lon="4.64625">
        <ele>323</ele>
        <time>2017-11-02T12:21:37Z</time>
      </trkpt>
      <trkpt lat="46.09457" lon="4.64622">
        <ele>324</ele>
        <time>2017-11-02T12:23:37Z</time>
      </trkpt>
      <trkpt lat="46.09486" lon="4.64616">
        <ele>325</ele>
        <time>2017-11-02T12:25:37Z</time>
      </trkpt>
      <trkpt lat="46.09605" lon="4.64588">
        <ele>318</ele>
        <time>2017-11-02T12:27:37Z</time>
      </trkpt>
      <trkpt lat="46.09613" lon="4.64585">
        <ele>317</ele>
        <time>2017-11-02T12:29:37Z</time>
      </trkpt>
      <trkpt lat="46.09619" lon="4.64583">
        <ele>317</ele>
        <time>2017-11-02T12:31:37Z</time>
      </trkpt>
      <trkpt lat="46.09626" lon="4.64579">
        <ele>317</ele>
        <time>2017-11-02T12:33:37Z</time>
      </trkpt>
      <trkpt lat="46.09631" lon="4.64576">
        <ele>317</ele>
        <time>2017-11-02T12:35:37Z</time>
      </trkpt>
      <trkpt lat="46.09652" lon="4.64563">
        <ele>316</ele>
        <time>2017-11-02T12:37:37Z</time>
      </trkpt>
      <trkpt lat="46.09667" lon="4.64552">
        <ele>316</ele>
        <time>2017-11-02T12:39:37Z</time>
      </trkpt>
      <trkpt lat="46.097" lon="4.64528">
        <ele>314</ele>
        <time>2017-11-02T12:41:37Z</time>
      </trkpt>
      <trkpt lat="46.09714" lon="4.64514">
        <ele>312</ele>
        <time>2017-11-02T12:43:37Z</time>
      </trkpt>
      <trkpt lat="46.09722" lon="4.64505">
        <ele>312</ele>
        <time>2017-11-02T12:45:37Z</time>
      </trkpt>
      <trkpt lat="46.09731" lon="4.64494">
        <ele>311</ele>
        <time>2017-11-02T12:47:37Z</time>
      </trkpt>
      <trkpt lat="46.09739" lon="4.64483">
        <ele>310</ele>
        <time>2017-11-02T12:49:37Z</time>
      </trkpt>
      <trkpt lat="46.09744" lon="4.64473">
        <ele>310</ele>
        <time>2017-11-02T12:51:37Z</time>
      </trkpt>
      <trkpt lat="46.09749" lon="4.64464">
        <ele>310</ele>
        <time>2017-11-02T12:53:37Z</time>
      </trkpt>
      <trkpt lat="46.09753" lon="4.64455">
        <ele>310</ele>
        <time>2017-11-02T12:55:37Z</time>
      </trkpt>
      <trkpt lat="46.09753" lon="4.64455">
        <ele>310</ele>
        <time>2017-11-02T12:57:37Z</time>
      </trkpt>
      <trkpt lat="46.09761" lon="4.64444">
        <ele>309</ele>
        <time>2017-11-02T12:59:37Z</time>
      </trkpt>
      <trkpt lat="46.09766" lon="4.64436">
        <ele>309</ele>
        <time>2017-11-02T13:01:37Z</time>
      </trkpt>
      <trkpt lat="46.09779" lon="4.64411">
        <ele>309</ele>
        <time>2017-11-02T13:03:37Z</time>
      </trkpt>
      <trkpt lat="46.09787" lon="4.64394">
        <ele>309</ele>
        <time>2017-11-02T13:05:37Z</time>
      </trkpt>
      <trkpt lat="46.09805" lon="4.6435">
        <ele>308</ele>
        <time>2017-11-02T13:07:37Z</time>
      </trkpt>
      <trkpt lat="46.09832" lon="4.64283">
        <ele>305</ele>
        <time>2017-11-02T13:09:37Z</time>
      </trkpt>
      <trkpt lat="46.09842" lon="4.64265">
        <ele>306</ele>
        <time>2017-11-02T13:11:37Z</time>
      </trkpt>
      <trkpt lat="46.09846" lon="4.64258">
        <ele>306</ele>
        <time>2017-11-02T13:13:37Z</time>
      </trkpt>
      <trkpt lat="46.09848" lon="4.64255">
        <ele>306</ele>
        <time>2017-11-02T13:15:37Z</time>
      </trkpt>
      <trkpt lat="46.0985" lon="4.64253">
        <ele>307</ele>
        <time>2017-11-02T13:17:37Z</time>
      </trkpt>
      <trkpt lat="46.09854" lon="4.64251">
        <ele>307</ele>
        <time>2017-11-02T13:19:37Z</time>
      </trkpt>
      <trkpt lat="46.09857" lon="4.6425">
        <ele>307</ele>
        <time>2017-11-02T13:21:37Z</time>
      </trkpt>
      <trkpt lat="46.09871" lon="4.64251">
        <ele>307</ele>
        <time>2017-11-02T13:23:37Z</time>
      </trkpt>
      <trkpt lat="46.09882" lon="4.64251">
        <ele>308</ele>
        <time>2017-11-02T13:25:37Z</time>
      </trkpt>
      <trkpt lat="46.09887" lon="4.64252">
        <ele>308</ele>
        <time>2017-11-02T13:27:37Z</time>
      </trkpt>
      <trkpt lat="46.0989" lon="4.64254">
        <ele>308</ele>
        <time>2017-11-02T13:29:37Z</time>
      </trkpt>
      <trkpt lat="46.09893" lon="4.64256">
        <ele>308</ele>
        <time>2017-11-02T13:31:37Z</time>
      </trkpt>
      <trkpt lat="46.09896" lon="4.64259">
        <ele>308</ele>
        <time>2017-11-02T13:33:37Z</time>
      </trkpt>
      <trkpt lat="46.09898" lon="4.64262">
        <ele>308</ele>
        <time>2017-11-02T13:35:37Z</time>
      </trkpt>
      <trkpt lat="46.09901" lon="4.64268">
        <ele>308</ele>
        <time>2017-11-02T13:37:37Z</time>
      </trkpt>
      <trkpt lat="46.09905" lon="4.6428">
        <ele>308</ele>
        <time>2017-11-02T13:39:37Z</time>
      </trkpt>
      <trkpt lat="46.09908" lon="4.6429">
        <ele>309</ele>
        <time>2017-11-02T13:41:37Z</time>
      </trkpt>
      <trkpt lat="46.09909" lon="4.64297">
        <ele>309</ele>
        <time>2017-11-02T13:43:37Z</time>
      </trkpt>
      <trkpt lat="46.09909" lon="4.64306">
        <ele>309</ele>
        <time>2017-11-02T13:45:37Z</time>
      </trkpt>
      <trkpt lat="46.09909" lon="4.64324">
        <ele>309</ele>
        <time>2017-11-02T13:47:37Z</time>
      </trkpt>
      <trkpt lat="46.0991" lon="4.64332">
        <ele>309</ele>
        <time>2017-11-02T13:49:37Z</time>
      </trkpt>
      <trkpt lat="46.09911" lon="4.64339">
        <ele>309</ele>
        <time>2017-11-02T13:51:37Z</time>
      </trkpt>
      <trkpt lat="46.09916" lon="4.64353">
        <ele>309</ele>
        <time>2017-11-02T13:53:37Z</time>
      </trkpt>
      <trkpt lat="46.09919" lon="4.64358">
        <ele>309</ele>
        <time>2017-11-02T13:55:37Z</time>
      </trkpt>
      <trkpt lat="46.09923" lon="4.64362">
        <ele>309</ele>
        <time>2017-11-02T13:57:37Z</time>
      </trkpt>
      <trkpt lat="46.09926" lon="4.64366">
        <ele>310</ele>
        <time>2017-11-02T13:59:37Z</time>
      </trkpt>
      <trkpt lat="46.09942" lon="4.64379">
        <ele>311</ele>
        <time>2017-11-02T14:01:37Z</time>
      </trkpt>
      <trkpt lat="46.09942" lon="4.64379">
        <ele>311</ele>
        <time>2017-11-02T14:03:37Z</time>
      </trkpt>
      <trkpt lat="46.09944" lon="4.64374">
        <ele>311</ele>
        <time>2017-11-02T14:05:37Z</time>
      </trkpt>
      <trkpt lat="46.09947" lon="4.64371">
        <ele>312</ele>
        <time>2017-11-02T14:07:37Z</time>
      </trkpt>
      <trkpt lat="46.09949" lon="4.64368">
        <ele>312</ele>
        <time>2017-11-02T14:09:37Z</time>
      </trkpt>
      <trkpt lat="46.09964" lon="4.64356">
        <ele>314</ele>
        <time>2017-11-02T14:11:37Z</time>
      </trkpt>
      <trkpt lat="46.09967" lon="4.64353">
        <ele>315</ele>
        <time>2017-11-02T14:13:37Z</time>
      </trkpt>
      <trkpt lat="46.09969" lon="4.6435">
        <ele>315</ele>
        <time>2017-11-02T14:15:37Z</time>
      </trkpt>
      <trkpt lat="46.09971" lon="4.64347">
        <ele>315</ele>
        <time>2017-11-02T14:17:37Z</time>
      </trkpt>
      <trkpt lat="46.09972" lon="4.64344">
        <ele>315</ele>
        <time>2017-11-02T14:19:37Z</time>
      </trkpt>
      <trkpt lat="46.09974" lon="4.6434">
        <ele>316</ele>
        <time>2017-11-02T14:21:37Z</time>
      </trkpt>
      <trkpt lat="46.09976" lon="4.6433">
        <ele>316</ele>
        <time>2017-11-02T14:23:37Z</time>
      </trkpt>
      <trkpt lat="46.09979" lon="4.6432">
        <ele>317</ele>
        <time>2017-11-02T14:25:37Z</time>
      </trkpt>
      <trkpt lat="46.0998" lon="4.64314">
        <ele>317</ele>
        <time>2017-11-02T14:27:37Z</time>
      </trkpt>
      <trkpt lat="46.09982" lon="4.64306">
        <ele>318</ele>
        <time>2017-11-02T14:29:37Z</time>
      </trkpt>
      <trkpt lat="46.09982" lon="4.64303">
        <ele>318</ele>
        <time>2017-11-02T14:31:37Z</time>
      </trkpt>
      <trkpt lat="46.09982" lon="4.643">
        <ele>318</ele>
        <time>2017-11-02T14:33:37Z</time>
      </trkpt>
      <trkpt lat="46.09983" lon="4.64298">
        <ele>318</ele>
        <time>2017-11-02T14:35:37Z</time>
      </trkpt>
      <trkpt lat="46.09983" lon="4.64296">
        <ele>318</ele>
        <time>2017-11-02T14:37:37Z</time>
      </trkpt>
      <trkpt lat="46.09985" lon="4.64291">
        <ele>319</ele>
        <time>2017-11-02T14:39:37Z</time>
      </trkpt>
      <trkpt lat="46.09985" lon="4.64291">
        <ele>319</ele>
        <time>2017-11-02T14:41:37Z</time>
      </trkpt>
      <trkpt lat="46.09989" lon="4.64297">
        <ele>319</ele>
        <time>2017-11-02T14:43:37Z</time>
      </trkpt>
      <trkpt lat="46.09992" lon="4.64302">
        <ele>319</ele>
        <time>2017-11-02T14:45:37Z</time>
      </trkpt>
      <trkpt lat="46.09997" lon="4.64308">
        <ele>320</ele>
        <time>2017-11-02T14:47:37Z</time>
      </trkpt>
      <trkpt lat="46.10001" lon="4.64312">
        <ele>320</ele>
        <time>2017-11-02T14:49:37Z</time>
      </trkpt>
      <trkpt lat="46.10005" lon="4.64316">
        <ele>320</ele>
        <time>2017-11-02T14:51:37Z</time>
      </trkpt>
      <trkpt lat="46.10011" lon="4.6432">
        <ele>320</ele>
        <time>2017-11-02T14:53:37Z</time>
      </trkpt>
      <trkpt lat="46.10015" lon="4.64322">
        <ele>320</ele>
        <time>2017-11-02T14:55:37Z</time>
      </trkpt>
      <trkpt lat="46.10022" lon="4.64323">
        <ele>320</ele>
        <time>2017-11-02T14:57:37Z</time>
      </trkpt>
      <trkpt lat="46.10029" lon="4.64324">
        <ele>320</ele>
        <time>2017-11-02T14:59:37Z</time>
      </trkpt>
      <trkpt lat="46.10095" lon="4.64317">
        <ele>320</ele>
        <time>2017-11-02T15:01:37Z</time>
      </trkpt>
      <trkpt lat="46.10175" lon="4.64308">
        <ele>321</ele>
        <time>2017-11-02T15:03:37Z</time>
      </trkpt>
      <trkpt lat="46.10194" lon="4.64305">
        <ele>321</ele>
        <time>2017-11-02T15:05:37Z</time>
      </trkpt>
      <trkpt lat="46.10198" lon="4.64304">
        <ele>322</ele>
        <time>2017-11-02T15:07:37Z</time>
      </trkpt>
      <trkpt lat="46.10205" lon="4.64303">
        <ele>322</ele>
        <time>2017-11-02T15:09:37Z</time>
      </trkpt>
      <trkpt lat="46.10222" lon="4.64297">
        <ele>322</ele>
        <time>2017-11-02T15:11:37Z</time>
      </trkpt>
      <trkpt lat="46.10233" lon="4.64293">
        <ele>323</ele>
        <time>2017-11-02T15:13:37Z</time>
      </trkpt>
      <trkpt lat="46.10243" lon="4.64288">
        <ele>323</ele>
        <time>2017-11-02T15:15:37Z</time>
      </trkpt>
      <trkpt lat="46.10256" lon="4.64283">
        <ele>324</ele>
        <time>2017-11-02T15:17:37Z</time>
      </trkpt>
      <trkpt lat="46.10274" lon="4.64273">
        <ele>325</ele>
        <time>2017-11-02T15:19:37Z</time>
      </trkpt>
      <trkpt lat="46.10282" lon="4.6427">
        <ele>325</ele>
        <time>2017-11-02T15:21:37Z</time>
      </trkpt>
      <trkpt lat="46.10292" lon="4.64265">
        <ele>326</ele>
        <time>2017-11-02T15:23:37Z</time>
      </trkpt>
      <trkpt lat="46.10303" lon="4.6426">
        <ele>326</ele>
        <time>2017-11-02T15:25:37Z</time>
      </trkpt>
      <trkpt lat="46.10314" lon="4.64257">
        <ele>326</ele>
        <time>2017-11-02T15:27:37Z</time>
      </trkpt>
      <trkpt lat="46.10324" lon="4.64255">
        <ele>327</ele>
        <time>2017-11-02T15:29:37Z</time>
      </trkpt>
      <trkpt lat="46.10333" lon="4.64254">
        <ele>327</ele>
        <time>2017-11-02T15:31:37Z</time>
      </trkpt>
      <trkpt lat="46.10339" lon="4.64254">
        <ele>327</ele>
        <time>2017-11-02T15:33:37Z</time>
      </trkpt>
      <trkpt lat="46.10346" lon="4.64254">
        <ele>327</ele>
        <time>2017-11-02T15:35:37Z</time>
      </trkpt>
      <trkpt lat="46.10351" lon="4.64255">
        <ele>328</ele>
        <time>2017-11-02T15:37:37Z</time>
      </trkpt>
      <trkpt lat="46.10362" lon="4.64257">
        <ele>328</ele>
        <time>2017-11-02T15:39:37Z</time>
      </trkpt>
      <trkpt lat="46.10371" lon="4.64259">
        <ele>329</ele>
        <time>2017-11-02T15:41:37Z</time>
      </trkpt>
      <trkpt lat="46.10375" lon="4.64261">
        <ele>329</ele>
        <time>2017-11-02T15:43:37Z</time>
      </trkpt>
      <trkpt lat="46.10379" lon="4.64262">
        <ele>329</ele>
        <time>2017-11-02T15:45:37Z</time>
      </trkpt>
      <trkpt lat="46.10388" lon="4.64265">
        <ele>329</ele>
        <time>2017-11-02T15:47:37Z</time>
      </trkpt>
      <trkpt lat="46.10402" lon="4.64272">
        <ele>330</ele>
        <time>2017-11-02T15:49:37Z</time>
      </trkpt>
      <trkpt lat="46.10424" lon="4.64282">
        <ele>330</ele>
        <time>2017-11-02T15:51:37Z</time>
      </trkpt>
      <trkpt lat="46.10437" lon="4.64289">
        <ele>331</ele>
        <time>2017-11-02T15:53:37Z</time>
      </trkpt>
      <trkpt lat="46.10463" lon="4.64301">
        <ele>332</ele>
        <time>2017-11-02T15:55:37Z</time>
      </trkpt>
      <trkpt lat="46.10484" lon="4.64311">
        <ele>333</ele>
        <time>2017-11-02T15:57:37Z</time>
      </trkpt>
      <trkpt lat="46.10495" lon="4.64316">
        <ele>333</ele>
        <time>2017-11-02T15:59:37Z</time>
      </trkpt>
      <trkpt lat="46.10505" lon="4.6432">
        <ele>334</ele>
        <time>2017-11-02T16:01:37Z</time>
      </trkpt>
      <trkpt lat="46.10517" lon="4.64324">
        <ele>333</ele>
        <time>2017-11-02T16:03:37Z</time>
      </trkpt>
      <trkpt lat="46.10525" lon="4.64326">
        <ele>334</ele>
        <time>2017-11-02T16:05:37Z</time>
      </trkpt>
      <trkpt lat="46.10532" lon="4.64327">
        <ele>334</ele>
        <time>2017-11-02T16:07:37Z</time>
      </trkpt>
      <trkpt lat="46.10546" lon="4.64328">
        <ele>334</ele>
        <time>2017-11-02T16:09:37Z</time>
      </trkpt>
      <trkpt lat="46.10562" lon="4.64329">
        <ele>334</ele>
        <time>2017-11-02T16:11:37Z</time>
      </trkpt>
      <trkpt lat="46.10587" lon="4.64328">
        <ele>335</ele>
        <time>2017-11-02T16:13:37Z</time>
      </trkpt>
      <trkpt lat="46.106" lon="4.64327">
        <ele>334</ele>
        <time>2017-11-02T16:15:37Z</time>
      </trkpt>
      <trkpt lat="46.10621" lon="4.64323">
        <ele>333</ele>
        <time>2017-11-02T16:17:37Z</time>
      </trkpt>
      <trkpt lat="46.10629" lon="4.64322">
        <ele>333</ele>
        <time>2017-11-02T16:19:37Z</time>
      </trkpt>
      <trkpt lat="46.10643" lon="4.6432">
        <ele>332</ele>
        <time>2017-11-02T16:21:37Z</time>
      </trkpt>
      <trkpt lat="46.10648" lon="4.64319">
        <ele>332</ele>
        <time>2017-11-02T16:23:37Z</time>
      </trkpt>
      <trkpt lat="46.10653" lon="4.64318">
        <ele>332</ele>
        <time>2017-11-02T16:25:37Z</time>
      </trkpt>
      <trkpt lat="46.10659" lon="4.64317">
        <ele>331</ele>
        <time>2017-11-02T16:27:37Z</time>
      </trkpt>
      <trkpt lat="46.10669" lon="4.64317">
        <ele>331</ele>
        <time>2017-11-02T16:29:37Z</time>
      </trkpt>
      <trkpt lat="46.10676" lon="4.64318">
        <ele>330</ele>
        <time>2017-11-02T16:31:37Z</time>
      </trkpt>
      <trkpt lat="46.10773" lon="4.64327">
        <ele>323</ele>
        <time>2017-11-02T16:33:37Z</time>
      </trkpt>
      <trkpt lat="46.10786" lon="4.64328">
        <ele>323</ele>
        <time>2017-11-02T16:35:37Z</time>
      </trkpt>
      <trkpt lat="46.10796" lon="4.64329">
        <ele>322</ele>
        <time>2017-11-02T16:37:37Z</time>
      </trkpt>
      <trkpt lat="46.1082" lon="4.6433">
        <ele>321</ele>
        <time>2017-11-02T16:39:37Z</time>
      </trkpt>
      <trkpt lat="46.10858" lon="4.64327">
        <ele>318</ele>
        <time>2017-11-02T16:41:37Z</time>
      </trkpt>
      <trkpt lat="46.10874" lon="4.64327">
        <ele>316</ele>
        <time>2017-11-02T16:43:37Z</time>
      </trkpt>
      <trkpt lat="46.1088" lon="4.64327">
        <ele>315</ele>
        <time>2017-11-02T16:45:37Z</time>
      </trkpt>
      <trkpt lat="46.10886" lon="4.64329">
        <ele>315</ele>
        <time>2017-11-02T16:47:37Z</time>
      </trkpt>
      <trkpt lat="46.1089" lon="4.64331">
        <ele>315</ele>
        <time>2017-11-02T16:49:37Z</time>
      </trkpt>
      <trkpt lat="46.10896" lon="4.64333">
        <ele>314</ele>
        <time>2017-11-02T16:51:37Z</time>
      </trkpt>
      <trkpt lat="46.10901" lon="4.64336">
        <ele>314</ele>
        <time>2017-11-02T16:53:37Z</time>
      </trkpt>
      <trkpt lat="46.10906" lon="4.6434">
        <ele>313</ele>
        <time>2017-11-02T16:55:37Z</time>
      </trkpt>
      <trkpt lat="46.10911" lon="4.64344">
        <ele>313</ele>
        <time>2017-11-02T16:57:37Z</time>
      </trkpt>
      <trkpt lat="46.10915" lon="4.64348">
        <ele>313</ele>
        <time>2017-11-02T16:59:37Z</time>
      </trkpt>
      <trkpt lat="46.1092" lon="4.64353">
        <ele>312</ele>
        <time>2017-11-02T17:01:37Z</time>
      </trkpt>
      <trkpt lat="46.10924" lon="4.64359">
        <ele>312</ele>
        <time>2017-11-02T17:03:37Z</time>
      </trkpt>
      <trkpt lat="46.10927" lon="4.64364">
        <ele>312</ele>
        <time>2017-11-02T17:05:37Z</time>
      </trkpt>
      <trkpt lat="46.10932" lon="4.64373">
        <ele>312</ele>
        <time>2017-11-02T17:07:37Z</time>
      </trkpt>
      <trkpt lat="46.10936" lon="4.6438">
        <ele>311</ele>
        <time>2017-11-02T17:09:37Z</time>
      </trkpt>
      <trkpt lat="46.10938" lon="4.64384">
        <ele>311</ele>
        <time>2017-11-02T17:11:37Z</time>
      </trkpt>
      <trkpt lat="46.10941" lon="4.64389">
        <ele>311</ele>
        <time>2017-11-02T17:13:37Z</time>
      </trkpt>
      <trkpt lat="46.10943" lon="4.64392">
        <ele>310</ele>
        <time>2017-11-02T17:15:37Z</time>
      </trkpt>
      <trkpt lat="46.10945" lon="4.64394">
        <ele>310</ele>
        <time>2017-11-02T17:17:37Z</time>
      </trkpt>
      <trkpt lat="46.10946" lon="4.64395">
        <ele>310</ele>
        <time>2017-11-02T17:19:37Z</time>
      </trkpt>
      <trkpt lat="46.10948" lon="4.64396">
        <ele>310</ele>
        <time>2017-11-02T17:21:37Z</time>
      </trkpt>
      <trkpt lat="46.1095" lon="4.64397">
        <ele>310</ele>
        <time>2017-11-02T17:23:37Z</time>
      </trkpt>
      <trkpt lat="46.10953" lon="4.64398">
        <ele>309</ele>
        <time>2017-11-02T17:25:37Z</time>
      </trkpt>
      <trkpt lat="46.10955" lon="4.64398">
        <ele>309</ele>
        <time>2017-11-02T17:27:37Z</time>
      </trkpt>
      <trkpt lat="46.10958" lon="4.64398">
        <ele>308</ele>
        <time>2017-11-02T17:29:37Z</time>
      </trkpt>
      <trkpt lat="46.1096" lon="4.64398">
        <ele>308</ele>
        <time>2017-11-02T17:31:37Z</time>
      </trkpt>
      <trkpt lat="46.10963" lon="4.64397">
        <ele>308</ele>
        <time>2017-11-02T17:33:37Z</time>
      </trkpt>
      <trkpt lat="46.10965" lon="4.64396">
        <ele>307</ele>
        <time>2017-11-02T17:35:37Z</time>
      </trkpt>
      <trkpt lat="46.10967" lon="4.64395">
        <ele>307</ele>
        <time>2017-11-02T17:37:37Z</time>
      </trkpt>
      <trkpt lat="46.10977" lon="4.64386">
        <ele>306</ele>
        <time>2017-11-02T17:39:37Z</time>
      </trkpt>
      <trkpt lat="46.1098" lon="4.64374">
        <ele>306</ele>
        <time>2017-11-02T17:41:37Z</time>
      </trkpt>
      <trkpt lat="46.10983" lon="4.64364">
        <ele>305</ele>
        <time>2017-11-02T17:43:37Z</time>
      </trkpt>
      <trkpt lat="46.10986" lon="4.64348">
        <ele>305</ele>
        <time>2017-11-02T17:45:37Z</time>
      </trkpt>
      <trkpt lat="46.10992" lon="4.64319">
        <ele>304</ele>
        <time>2017-11-02T17:47:37Z</time>
      </trkpt>
      <trkpt lat="46.10994" lon="4.64308">
        <ele>304</ele>
        <time>2017-11-02T17:49:37Z</time>
      </trkpt>
      <trkpt lat="46.10996" lon="4.64298">
        <ele>304</ele>
        <time>2017-11-02T17:51:37Z</time>
      </trkpt>
      <trkpt lat="46.10996" lon="4.64298">
        <ele>304</ele>
        <time>2017-11-02T17:53:37Z</time>
      </trkpt>
      <trkpt lat="46.11" lon="4.64299">
        <ele>304</ele>
        <time>2017-11-02T17:55:37Z</time>
      </trkpt>
      <trkpt lat="46.11002" lon="4.64299">
        <ele>303</ele>
        <time>2017-11-02T17:57:37Z</time>
      </trkpt>
      <trkpt lat="46.11004" lon="4.64299">
        <ele>303</ele>
        <time>2017-11-02T17:59:37Z</time>
      </trkpt>
      <trkpt lat="46.11007" lon="4.64299">
        <ele>303</ele>
        <time>2017-11-02T18:01:37Z</time>
      </trkpt>
      <trkpt lat="46.11009" lon="4.64299">
        <ele>303</ele>
        <time>2017-11-02T18:03:37Z</time>
      </trkpt>
      <trkpt lat="46.11011" lon="4.64299">
        <ele>303</ele>
        <time>2017-11-02T18:05:37Z</time>
      </trkpt>
      <trkpt lat="46.11013" lon="4.64299">
        <ele>303</ele>
        <time>2017-11-02T18:07:37Z</time>
      </trkpt>
      <trkpt lat="46.11016" lon="4.64299">
        <ele>302</ele>
        <time>2017-11-02T18:09:37Z</time>
      </trkpt>
      <trkpt lat="46.11027" lon="4.64301">
        <ele>301</ele>
        <time>2017-11-02T18:11:37Z</time>
      </trkpt>
      <trkpt lat="46.11033" lon="4.64302">
        <ele>301</ele>
        <time>2017-11-02T18:13:37Z</time>
      </trkpt>
      <trkpt lat="46.11036" lon="4.64303">
        <ele>301</ele>
        <time>2017-11-02T18:15:37Z</time>
      </trkpt>
      <trkpt lat="46.1104" lon="4.64304">
        <ele>300</ele>
        <time>2017-11-02T18:17:37Z</time>
      </trkpt>
      <trkpt lat="46.11045" lon="4.64305">
        <ele>300</ele>
        <time>2017-11-02T18:19:37Z</time>
      </trkpt>
      <trkpt lat="46.11052" lon="4.64306">
        <ele>299</ele>
        <time>2017-11-02T18:21:37Z</time>
      </trkpt>
      <trkpt lat="46.11077" lon="4.64305">
        <ele>297</ele>
        <time>2017-11-02T18:23:37Z</time>
      </trkpt>
      <trkpt lat="46.11085" lon="4.64306">
        <ele>296</ele>
        <time>2017-11-02T18:25:37Z</time>
      </trkpt>
      <trkpt lat="46.11087" lon="4.64306">
        <ele>296</ele>
        <time>2017-11-02T18:27:37Z</time>
      </trkpt>
      <trkpt lat="46.11088" lon="4.64307">
        <ele>296</ele>
        <time>2017-11-02T18:29:37Z</time>
      </trkpt>
      <trkpt lat="46.11088" lon="4.64308">
        <ele>296</ele>
        <time>2017-11-02T18:31:37Z</time>
      </trkpt>
      <trkpt lat="46.11089" lon="4.64308">
        <ele>296</ele>
        <time>2017-11-02T18:33:37Z</time>
      </trkpt>
      <trkpt lat="46.11089" lon="4.6431">
        <ele>296</ele>
        <time>2017-11-02T18:35:37Z</time>
      </trkpt>
      <trkpt lat="46.11089" lon="4.64312">
        <ele>296</ele>
        <time>2017-11-02T18:37:37Z</time>
      </trkpt>
      <trkpt lat="46.11088" lon="4.6433">
        <ele>296</ele>
        <time>2017-11-02T18:39:37Z</time>
      </trkpt>
      <trkpt lat="46.11089" lon="4.64332">
        <ele>295</ele>
        <time>2017-11-02T18:41:37Z</time>
      </trkpt>
      <trkpt lat="46.1109" lon="4.64336">
        <ele>295</ele>
        <time>2017-11-02T18:43:37Z</time>
      </trkpt>
      <trkpt lat="46.11092" lon="4.64338">
        <ele>295</ele>
        <time>2017-11-02T18:45:37Z</time>
      </trkpt>
      <trkpt lat="46.11093" lon="4.64339">
        <ele>295</ele>
        <time>2017-11-02T18:47:37Z</time>
      </trkpt>
      <trkpt lat="46.111" lon="4.64341">
        <ele>294</ele>
        <time>2017-11-02T18:49:37Z</time>
      </trkpt>
      <trkpt lat="46.11102" lon="4.64342">
        <ele>293</ele>
        <time>2017-11-02T18:51:37Z</time>
      </trkpt>
      <trkpt lat="46.11105" lon="4.64344">
        <ele>293</ele>
        <time>2017-11-02T18:53:37Z</time>
      </trkpt>
      <trkpt lat="46.11119" lon="4.64355">
        <ele>291</ele>
        <time>2017-11-02T18:55:37Z</time>
      </trkpt>
      <trkpt lat="46.11122" lon="4.64357">
        <ele>290</ele>
        <time>2017-11-02T18:57:37Z</time>
      </trkpt>
      <trkpt lat="46.11125" lon="4.64357">
        <ele>290</ele>
        <time>2017-11-02T18:59:37Z</time>
      </trkpt>
      <trkpt lat="46.11128" lon="4.64357">
        <ele>289</ele>
        <time>2017-11-02T19:01:37Z</time>
      </trkpt>
      <trkpt lat="46.1113" lon="4.64355">
        <ele>289</ele>
        <time>2017-11-02T19:03:37Z</time>
      </trkpt>
      <trkpt lat="46.11132" lon="4.64353">
        <ele>289</ele>
        <time>2017-11-02T19:05:37Z</time>
      </trkpt>
      <trkpt lat="46.11135" lon="4.64349">
        <ele>289</ele>
        <time>2017-11-02T19:07:37Z</time>
      </trkpt>
      <trkpt lat="46.11135" lon="4.64349">
        <ele>289</ele>
        <time>2017-11-02T19:09:37Z</time>
      </trkpt>
      <trkpt lat="46.11137" lon="4.64366">
        <ele>288</ele>
        <time>2017-11-02T19:11:37Z</time>
      </trkpt>
      <trkpt lat="46.11137" lon="4.64378">
        <ele>287</ele>
        <time>2017-11-02T19:13:37Z</time>
      </trkpt>
      <trkpt lat="46.11137" lon="4.64384">
        <ele>287</ele>
        <time>2017-11-02T19:15:37Z</time>
      </trkpt>
      <trkpt lat="46.11136" lon="4.64389">
        <ele>286</ele>
        <time>2017-11-02T19:17:37Z</time>
      </trkpt>
      <trkpt lat="46.11136" lon="4.64394">
        <ele>286</ele>
        <time>2017-11-02T19:19:37Z</time>
      </trkpt>
      <trkpt lat="46.11133" lon="4.64405">
        <ele>285</ele>
        <time>2017-11-02T19:21:37Z</time>
      </trkpt>
      <trkpt lat="46.11132" lon="4.64408">
        <ele>285</ele>
        <time>2017-11-02T19:23:37Z</time>
      </trkpt>
      <trkpt lat="46.11133" lon="4.64412">
        <ele>285</ele>
        <time>2017-11-02T19:25:37Z</time>
      </trkpt>
      <trkpt lat="46.11145" lon="4.64455">
        <ele>284</ele>
        <time>2017-11-02T19:27:37Z</time>
      </trkpt>
      <trkpt lat="46.11147" lon="4.64459">
        <ele>284</ele>
        <time>2017-11-02T19:29:37Z</time>
      </trkpt>
      <trkpt lat="46.11148" lon="4.64462">
        <ele>283</ele>
        <time>2017-11-02T19:31:37Z</time>
      </trkpt>
      <trkpt lat="46.11151" lon="4.64465">
        <ele>283</ele>
        <time>2017-11-02T19:33:37Z</time>
      </trkpt>
      <trkpt lat="46.11154" lon="4.64468">
        <ele>283</ele>
        <time>2017-11-02T19:35:37Z</time>
      </trkpt>
      <trkpt lat="46.11205" lon="4.64494">
        <ele>277</ele>
        <time>2017-11-02T19:37:37Z</time>
      </trkpt>
      <trkpt lat="46.11224" lon="4.64503">
        <ele>275</ele>
        <time>2017-11-02T19:39:37Z</time>
      </trkpt>
      <trkpt lat="46.11242" lon="4.64513">
        <ele>274</ele>
        <time>2017-11-02T19:41:37Z</time>
      </trkpt>
      <trkpt lat="46.11272" lon="4.64536">
        <ele>272</ele>
        <time>2017-11-02T19:43:37Z</time>
      </trkpt>
      <trkpt lat="46.11281" lon="4.64542">
        <ele>271</ele>
        <time>2017-11-02T19:45:37Z</time>
      </trkpt>
      <trkpt lat="46.11285" lon="4.64544">
        <ele>271</ele>
        <time>2017-11-02T19:47:37Z</time>
      </trkpt>
      <trkpt lat="46.11292" lon="4.64546">
        <ele>271</ele>
        <time>2017-11-02T19:49:37Z</time>
      </trkpt>
      <trkpt lat="46.11296" lon="4.64546">
        <ele>270</ele>
        <time>2017-11-02T19:51:37Z</time>
      </trkpt>
      <trkpt lat="46.11373" lon="4.64544">
        <ele>264</ele>
        <time>2017-11-02T19:53:37Z</time>
      </trkpt>
      <trkpt lat="46.11373" lon="4.64544">
        <ele>264</ele>
        <time>2017-11-02T19:55:37Z</time>
      </trkpt>
      <trkpt lat="46.11379" lon="4.64533">
        <ele>264</ele>
        <time>2017-11-02T19:57:37Z</time>
      </trkpt>
      <trkpt lat="46.11379" lon="4.64533">
        <ele>264</ele>
        <time>2017-11-02T19:59:37Z</time>
      </trkpt>
      <trkpt lat="46.11385" lon="4.64544">
        <ele>264</ele>
        <time>2017-11-02T20:01:37Z</time>
      </trkpt>
      <trkpt lat="46.11388" lon="4.64549">
        <ele>264</ele>
        <time>2017-11-02T20:03:37Z</time>
      </trkpt>
      <trkpt lat="46.11391" lon="4.64552">
        <ele>264</ele>
        <time>2017-11-02T20:05:37Z</time>
      </trkpt>
      <trkpt lat="46.11394" lon="4.64556">
        <ele>264</ele>
        <time>2017-11-02T20:07:37Z</time>
      </trkpt>
      <trkpt lat="46.11402" lon="4.64562">
        <ele>264</ele>
        <time>2017-11-02T20:09:37Z</time>
      </trkpt>
      <trkpt lat="46.11407" lon="4.64565">
        <ele>263</ele>
        <time>2017-11-02T20:11:37Z</time>
      </trkpt>
      <trkpt lat="46.11434" lon="4.64578">
        <ele>263</ele>
        <time>2017-11-02T20:13:37Z</time>
      </trkpt>
      <trkpt lat="46.11472" lon="4.64594">
        <ele>263</ele>
        <time>2017-11-02T20:15:37Z</time>
      </trkpt>
      <trkpt lat="46.11487" lon="4.646">
        <ele>263</ele>
        <time>2017-11-02T20:17:37Z</time>
      </trkpt>
      <trkpt lat="46.11492" lon="4.64601">
        <ele>263</ele>
        <time>2017-11-02T20:19:37Z</time>
      </trkpt>
      <trkpt lat="46.11497" lon="4.64601">
        <ele>262</ele>
        <time>2017-11-02T20:21:37Z</time>
      </trkpt>
      <trkpt lat="46.11501" lon="4.64601">
        <ele>262</ele>
        <time>2017-11-02T20:23:37Z</time>
      </trkpt>
      <trkpt lat="46.11513" lon="4.646">
        <ele>262</ele>
        <time>2017-11-02T20:25:37Z</time>
      </trkpt>
      <trkpt lat="46.11575" lon="4.64588">
        <ele>260</ele>
        <time>2017-11-02T20:27:37Z</time>
      </trkpt>
      <trkpt lat="46.11589" lon="4.64584">
        <ele>260</ele>
        <time>2017-11-02T20:29:37Z</time>
      </trkpt>
      <trkpt lat="46.1161" lon="4.64576">
        <ele>258</ele>
        <time>2017-11-02T20:31:37Z</time>
      </trkpt>
      <trkpt lat="46.11613" lon="4.64574">
        <ele>258</ele>
        <time>2017-11-02T20:33:37Z</time>
      </trkpt>
      <trkpt lat="46.11622" lon="4.64567">
        <ele>257</ele>
        <time>2017-11-02T20:35:37Z</time>
      </trkpt>
      <trkpt lat="46.11634" lon="4.64554">
        <ele>255</ele>
        <time>2017-11-02T20:37:37Z</time>
      </trkpt>
      <trkpt lat="46.1166" lon="4.6452">
        <ele>252</ele>
        <time>2017-11-02T20:39:37Z</time>
      </trkpt>
      <trkpt lat="46.11674" lon="4.64501">
        <ele>251</ele>
        <time>2017-11-02T20:41:37Z</time>
      </trkpt>
      <trkpt lat="46.11684" lon="4.6449">
        <ele>249</ele>
        <time>2017-11-02T20:43:37Z</time>
      </trkpt>
      <trkpt lat="46.11695" lon="4.64481">
        <ele>248</ele>
        <time>2017-11-02T20:45:37Z</time>
      </trkpt>
      <trkpt lat="46.117" lon="4.64478">
        <ele>248</ele>
        <time>2017-11-02T20:47:37Z</time>
      </trkpt>
      <trkpt lat="46.11716" lon="4.64471">
        <ele>246</ele>
        <time>2017-11-02T20:49:37Z</time>
      </trkpt>
      <trkpt lat="46.11738" lon="4.64465">
        <ele>245</ele>
        <time>2017-11-02T20:51:37Z</time>
      </trkpt>
      <trkpt lat="46.11753" lon="4.64461">
        <ele>244</ele>
        <time>2017-11-02T20:53:37Z</time>
      </trkpt>
      <trkpt lat="46.11758" lon="4.64461">
        <ele>244</ele>
        <time>2017-11-02T20:55:37Z</time>
      </trkpt>
      <trkpt lat="46.11768" lon="4.64456">
        <ele>243</ele>
        <time>2017-11-02T20:57:37Z</time>
      </trkpt>
      <trkpt lat="46.11773" lon="4.64455">
        <ele>243</ele>
        <time>2017-11-02T20:59:37Z</time>
      </trkpt>
      <trkpt lat="46.11778" lon="4.64456">
        <ele>242</ele>
        <time>2017-11-02T21:01:37Z</time>
      </trkpt>
      <trkpt lat="46.11783" lon="4.64456">
        <ele>242</ele>
        <time>2017-11-02T21:03:37Z</time>
      </trkpt>
      <trkpt lat="46.11787" lon="4.64458">
        <ele>242</ele>
        <time>2017-11-02T21:05:37Z</time>
      </trkpt>
      <trkpt lat="46.11795" lon="4.6446">
        <ele>242</ele>
        <time>2017-11-02T21:07:37Z</time>
      </trkpt>
      <trkpt lat="46.118" lon="4.64463">
        <ele>241</ele>
        <time>2017-11-02T21:09:37Z</time>
      </trkpt>
      <trkpt lat="46.11804" lon="4.64466">
        <ele>241</ele>
        <time>2017-11-02T21:11:37Z</time>
      </trkpt>
      <trkpt lat="46.11809" lon="4.6447">
        <ele>241</ele>
        <time>2017-11-02T21:13:37Z</time>
      </trkpt>
      <trkpt lat="46.11809" lon="4.6447">
        <ele>241</ele>
        <time>2017-11-02T21:15:37Z</time>
      </trkpt>
      <trkpt lat="46.11812" lon="4.64461">
        <ele>241</ele>
        <time>2017-11-02T21:17:37Z</time>
      </trkpt>
      <trkpt lat="46.11815" lon="4.64452">
        <ele>240</ele>
        <time>2017-11-02T21:19:37Z</time>
      </trkpt>
      <trkpt lat="46.11815" lon="4.64452">
        <ele>240</ele>
        <time>2017-11-02T21:21:37Z</time>
      </trkpt>
      <trkpt lat="46.11809" lon="4.64437">
        <ele>240</ele>
        <time>2017-11-02T21:23:37Z</time>
      </trkpt>
      <trkpt lat="46.11786" lon="4.64386">
        <ele>240</ele>
        <time>2017-11-02T21:25:37Z</time>
      </trkpt>
      <trkpt lat="46.11773" lon="4.64353">
        <ele>240</ele>
        <time>2017-11-02T21:27:37Z</time>
      </trkpt>
      <trkpt lat="46.11764" lon="4.64332">
        <ele>240</ele>
        <time>2017-11-02T21:29:37Z</time>
      </trkpt>
      <trkpt lat="46.1174" lon="4.64278">
        <ele>240</ele>
        <time>2017-11-02T21:31:37Z</time>
      </trkpt>
      <trkpt lat="46.11733" lon="4.64267">
        <ele>241</ele>
        <time>2017-11-02T21:33:37Z</time>
      </trkpt>
      <trkpt lat="46.11706" lon="4.64226">
        <ele>242</ele>
        <time>2017-11-02T21:35:37Z</time>
      </trkpt>
      <trkpt lat="46.11701" lon="4.64215">
        <ele>243</ele>
        <time>2017-11-02T21:37:37Z</time>
      </trkpt>
      <trkpt lat="46.11699" lon="4.64202">
        <ele>243</ele>
        <time>2017-11-02T21:39:37Z</time>
      </trkpt>
      <trkpt lat="46.11697" lon="4.64185">
        <ele>243</ele>
        <time>2017-11-02T21:41:37Z</time>
      </trkpt>
      <trkpt lat="46.11695" lon="4.6417">
        <ele>243</ele>
        <time>2017-11-02T21:43:37Z</time>
      </trkpt>
      <trkpt lat="46.11693" lon="4.64158">
        <ele>243</ele>
        <time>2017-11-02T21:45:37Z</time>
      </trkpt>
      <trkpt lat="46.11688" lon="4.64144">
        <ele>244</ele>
        <time>2017-11-02T21:47:37Z</time>
      </trkpt>
      <trkpt lat="46.11684" lon="4.64134">
        <ele>244</ele>
        <time>2017-11-02T21:49:37Z</time>
      </trkpt>
      <trkpt lat="46.11679" lon="4.64124">
        <ele>244</ele>
        <time>2017-11-02T21:51:37Z</time>
      </trkpt>
      <trkpt lat="46.11674" lon="4.64114">
        <ele>245</ele>
        <time>2017-11-02T21:53:37Z</time>
      </trkpt>
      <trkpt lat="46.11671" lon="4.64109">
        <ele>245</ele>
        <time>2017-11-02T21:55:37Z</time>
      </trkpt>
      <trkpt lat="46.1167" lon="4.64103">
        <ele>245</ele>
        <time>2017-11-02T21:57:37Z</time>
      </trkpt>
      <trkpt lat="46.11667" lon="4.64093">
        <ele>245</ele>
        <time>2017-11-02T21:59:37Z</time>
      </trkpt>
      <trkpt lat="46.11662" lon="4.64064">
        <ele>245</ele>
        <time>2017-11-02T22:01:37Z</time>
      </trkpt>
      <trkpt lat="46.11659" lon="4.64044">
        <ele>245</ele>
        <time>2017-11-02T22:03:37Z</time>
      </trkpt>
      <trkpt lat="46.11654" lon="4.64023">
        <ele>245</ele>
        <time>2017-11-02T22:05:37Z</time>
      </trkpt>
      <trkpt lat="46.11647" lon="4.64002">
        <ele>246</ele>
        <time>2017-11-02T22:07:37Z</time>
      </trkpt>
      <trkpt lat="46.11641" lon="4.63982">
        <ele>247</ele>
        <time>2017-11-02T22:09:37Z</time>
      </trkpt>
      <trkpt lat="46.11615" lon="4.63918">
        <ele>249</ele>
        <time>2017-11-02T22:11:37Z</time>
      </trkpt>
      <trkpt lat="46.11575" lon="4.63805">
        <ele>253</ele>
        <time>2017-11-02T22:13:37Z</time>
      </trkpt>
      <trkpt lat="46.11569" lon="4.6378">
        <ele>254</ele>
        <time>2017-11-02T22:15:37Z</time>
      </trkpt>
      <trkpt lat="46.11562" lon="4.63749">
        <ele>255</ele>
        <time>2017-11-02T22:17:37Z</time>
      </trkpt>
      <trkpt lat="46.11561" lon="4.63747">
        <ele>255</ele>
        <time>2017-11-02T22:19:37Z</time>
      </trkpt>
      <trkpt lat="46.11561" lon="4.63741">
        <ele>255</ele>
        <time>2017-11-02T22:21:37Z</time>
      </trkpt>
      <trkpt lat="46.11561" lon="4.63741">
        <ele>255</ele>
        <time>2017-11-02T22:23:37Z</time>
      </trkpt>
      <trkpt lat="46.11558" lon="4.637">
        <ele>256</ele>
        <time>2017-11-02T22:25:37Z</time>
      </trkpt>
      <trkpt lat="46.11546" lon="4.63578">
        <ele>258</ele>
        <time>2017-11-02T22:27:37Z</time>
      </trkpt>
      <trkpt lat="46.11544" lon="4.63556">
        <ele>259</ele>
        <time>2017-11-02T22:29:37Z</time>
      </trkpt>
      <trkpt lat="46.11536" lon="4.63485">
        <ele>261</ele>
        <time>2017-11-02T22:31:37Z</time>
      </trkpt>
      <trkpt lat="46.11532" lon="4.63461">
        <ele>261</ele>
        <time>2017-11-02T22:33:37Z</time>
      </trkpt>
      <trkpt lat="46.11524" lon="4.63425">
        <ele>262</ele>
        <time>2017-11-02T22:35:37Z</time>
      </trkpt>
      <trkpt lat="46.11512" lon="4.6337">
        <ele>262</ele>
        <time>2017-11-02T22:37:37Z</time>
      </trkpt>
      <trkpt lat="46.11468" lon="4.63157">
        <ele>261</ele>
        <time>2017-11-02T22:39:37Z</time>
      </trkpt>
      <trkpt lat="46.1145" lon="4.63084">
        <ele>260</ele>
        <time>2017-11-02T22:41:37Z</time>
      </trkpt>
      <trkpt lat="46.11431" lon="4.63011">
        <ele>260</ele>
        <time>2017-11-02T22:43:37Z</time>
      </trkpt>
      <trkpt lat="46.11421" lon="4.62932">
        <ele>258</ele>
        <time>2017-11-02T22:45:37Z</time>
      </trkpt>
      <trkpt lat="46.11416" lon="4.62908">
        <ele>258</ele>
        <time>2017-11-02T22:47:37Z</time>
      </trkpt>
      <trkpt lat="46.1141" lon="4.62888">
        <ele>259</ele>
        <time>2017-11-02T22:49:37Z</time>
      </trkpt>
      <trkpt lat="46.11399" lon="4.62861">
        <ele>261</ele>
        <time>2017-11-02T22:51:37Z</time>
      </trkpt>
      <trkpt lat="46.11363" lon="4.62821">
        <ele>265</ele>
        <time>2017-11-02T22:53:37Z</time>
      </trkpt>
      <trkpt lat="46.11363" lon="4.62821">
        <ele>265</ele>
        <time>2017-11-02T22:55:37Z</time>
      </trkpt>
      <trkpt lat="46.1136" lon="4.6281">
        <ele>265</ele>
        <time>2017-11-02T22:57:37Z</time>
      </trkpt>
      <trkpt lat="46.11349" lon="4.6277">
        <ele>265</ele>
        <time>2017-11-02T22:59:37Z</time>
      </trkpt>
      <trkpt lat="46.11352" lon="4.62762">
        <ele>264</ele>
        <time>2017-11-02T23:01:37Z</time>
      </trkpt>
      <trkpt lat="46.11368" lon="4.6275">
        <ele>262</ele>
        <time>2017-11-02T23:03:37Z</time>
      </trkpt>
      <trkpt lat="46.11379" lon="4.6274">
        <ele>260</ele>
        <time>2017-11-02T23:05:37Z</time>
      </trkpt>
      <trkpt lat="46.11385" lon="4.62736">
        <ele>260</ele>
        <time>2017-11-02T23:07:37Z</time>
      </trkpt>
      <trkpt lat="46.11389" lon="4.62733">
        <ele>259</ele>
        <time>2017-11-02T23:09:37Z</time>
      </trkpt>
      <trkpt lat="46.11396" lon="4.62728">
        <ele>259</ele>
        <time>2017-11-02T23:11:37Z</time>
      </trkpt>
      <trkpt lat="46.11425" lon="4.62707">
        <ele>257</ele>
        <time>2017-11-02T23:13:37Z</time>
      </trkpt>
      <trkpt lat="46.11431" lon="4.62703">
        <ele>257</ele>
        <time>2017-11-02T23:15:37Z</time>
      </trkpt>
      <trkpt lat="46.11437" lon="4.62698">
        <ele>257</ele>
        <time>2017-11-02T23:17:37Z</time>
      </trkpt>
      <trkpt lat="46.11463" lon="4.62679">
        <ele>257</ele>
        <time>2017-11-02T23:19:37Z</time>
      </trkpt>
      <trkpt lat="46.11499" lon="4.62654">
        <ele>257</ele>
        <time>2017-11-02T23:21:37Z</time>
      </trkpt>
      <trkpt lat="46.1153" lon="4.62634">
        <ele>258</ele>
        <time>2017-11-02T23:23:37Z</time>
      </trkpt>
      <trkpt lat="46.11546" lon="4.62628">
        <ele>259</ele>
        <time>2017-11-02T23:25:37Z</time>
      </trkpt>
      <trkpt lat="46.11566" lon="4.6262">
        <ele>259</ele>
        <time>2017-11-02T23:27:37Z</time>
      </trkpt>
      <trkpt lat="46.11574" lon="4.62622">
        <ele>259</ele>
        <time>2017-11-02T23:29:37Z</time>
      </trkpt>
      <trkpt lat="46.11592" lon="4.62625">
        <ele>260</ele>
        <time>2017-11-02T23:31:37Z</time>
      </trkpt>
      <trkpt lat="46.11598" lon="4.62626">
        <ele>261</ele>
        <time>2017-11-02T23:33:37Z</time>
      </trkpt>
      <trkpt lat="46.11609" lon="4.62624">
        <ele>261</ele>
        <time>2017-11-02T23:35:37Z</time>
      </trkpt>
      <trkpt lat="46.1161" lon="4.62622">
        <ele>262</ele>
        <time>2017-11-02T23:37:37Z</time>
      </trkpt>
      <trkpt lat="46.11618" lon="4.62617">
        <ele>262</ele>
        <time>2017-11-02T23:39:37Z</time>
      </trkpt>
      <trkpt lat="46.1164" lon="4.6259">
        <ele>264</ele>
        <time>2017-11-02T23:41:37Z</time>
      </trkpt>
      <trkpt lat="46.11715" lon="4.62494">
        <ele>274</ele>
        <time>2017-11-02T23:43:37Z</time>
      </trkpt>
      <trkpt lat="46.11753" lon="4.62447">
        <ele>277</ele>
        <time>2017-11-02T23:45:37Z</time>
      </trkpt>
      <trkpt lat="46.1177" lon="4.6243">
        <ele>278</ele>
        <time>2017-11-02T23:47:37Z</time>
      </trkpt>
      <trkpt lat="46.11784" lon="4.62422">
        <ele>280</ele>
        <time>2017-11-02T23:49:37Z</time>
      </trkpt>
      <trkpt lat="46.11805" lon="4.62412">
        <ele>282</ele>
        <time>2017-11-02T23:51:37Z</time>
      </trkpt>
      <trkpt lat="46.1187" lon="4.62383">
        <ele>283</ele>
        <time>2017-11-02T23:53:37Z</time>
      </trkpt>
      <trkpt lat="46.11893" lon="4.62374">
        <ele>284</ele>
        <time>2017-11-02T23:55:37Z</time>
      </trkpt>
      <trkpt lat="46.11931" lon="4.62335">
        <ele>284</ele>
        <time>2017-11-02T23:57:37Z</time>
      </trkpt>
      <trkpt lat="46.11975" lon="4.62296">
        <ele>286</ele>
        <time>2017-11-02T23:59:37Z</time>
      </trkpt>
      <trkpt lat="46.11984" lon="4.62288">
        <ele>286</ele>
        <time>2017-11-03T00:01:37Z</time>
      </trkpt>
      <trkpt lat="46.11984" lon="4.62288">
        <ele>286</ele>
        <time>2017-11-03T00:03:37Z</time>
      </trkpt>
      <trkpt lat="46.11984" lon="4.62281">
        <ele>286</ele>
        <time>2017-11-03T00:05:37Z</time>
      </trkpt>
      <trkpt lat="46.11984" lon="4.62271">
        <ele>286</ele>
        <time>2017-11-03T00:07:37Z</time>
      </trkpt>
      <trkpt lat="46.11987" lon="4.62257">
        <ele>286</ele>
        <time>2017-11-03T00:09:37Z</time>
      </trkpt>
      <trkpt lat="46.11989" lon="4.62246">
        <ele>287</ele>
        <time>2017-11-03T00:11:37Z</time>
      </trkpt>
      <trkpt lat="46.11995" lon="4.62223">
        <ele>288</ele>
        <time>2017-11-03T00:13:37Z</time>
      </trkpt>
      <trkpt lat="46.12005" lon="4.62178">
        <ele>290</ele>
        <time>2017-11-03T00:15:37Z</time>
      </trkpt>
      <trkpt lat="46.1201" lon="4.6216">
        <ele>290</ele>
        <time>2017-11-03T00:17:37Z</time>
      </trkpt>
      <trkpt lat="46.12016" lon="4.62132">
        <ele>291</ele>
        <time>2017-11-03T00:19:37Z</time>
      </trkpt>
      <trkpt lat="46.12029" lon="4.62074">
        <ele>292</ele>
        <time>2017-11-03T00:21:37Z</time>
      </trkpt>
      <trkpt lat="46.12036" lon="4.62037">
        <ele>294</ele>
        <time>2017-11-03T00:23:37Z</time>
      </trkpt>
      <trkpt lat="46.12042" lon="4.61997">
        <ele>295</ele>
        <time>2017-11-03T00:25:37Z</time>
      </trkpt>
      <trkpt lat="46.12053" lon="4.61922">
        <ele>299</ele>
        <time>2017-11-03T00:27:37Z</time>
      </trkpt>
      <trkpt lat="46.12054" lon="4.6191">
        <ele>300</ele>
        <time>2017-11-03T00:29:37Z</time>
      </trkpt>
      <trkpt lat="46.12056" lon="4.61891">
        <ele>301</ele>
        <time>2017-11-03T00:31:37Z</time>
      </trkpt>
      <trkpt lat="46.12056" lon="4.61873">
        <ele>301</ele>
        <time>2017-11-03T00:33:37Z</time>
      </trkpt>
      <trkpt lat="46.12055" lon="4.61856">
        <ele>302</ele>
        <time>2017-11-03T00:35:37Z</time>
      </trkpt>
      <trkpt lat="46.12053" lon="4.61839">
        <ele>303</ele>
        <time>2017-11-03T00:37:37Z</time>
      </trkpt>
      <trkpt lat="46.1205" lon="4.61821">
        <ele>304</ele>
        <time>2017-11-03T00:39:37Z</time>
      </trkpt>
      <trkpt lat="46.12047" lon="4.61797">
        <ele>305</ele>
        <time>2017-11-03T00:41:37Z</time>
      </trkpt>
      <trkpt lat="46.12044" lon="4.61783">
        <ele>306</ele>
        <time>2017-11-03T00:43:37Z</time>
      </trkpt>
      <trkpt lat="46.12036" lon="4.61731">
        <ele>308</ele>
        <time>2017-11-03T00:45:37Z</time>
      </trkpt>
      <trkpt lat="46.12032" lon="4.61706">
        <ele>310</ele>
        <time>2017-11-03T00:47:37Z</time>
      </trkpt>
      <trkpt lat="46.12028" lon="4.61691">
        <ele>310</ele>
        <time>2017-11-03T00:49:37Z</time>
      </trkpt>
      <trkpt lat="46.12024" lon="4.61678">
        <ele>311</ele>
        <time>2017-11-03T00:51:37Z</time>
      </trkpt>
      <trkpt lat="46.1202" lon="4.61671">
        <ele>311</ele>
        <time>2017-11-03T00:53:37Z</time>
      </trkpt>
      <trkpt lat="46.12017" lon="4.61666">
        <ele>311</ele>
        <time>2017-11-03T00:55:37Z</time>
      </trkpt>
      <trkpt lat="46.12013" lon="4.61662">
        <ele>312</ele>
        <time>2017-11-03T00:57:37Z</time>
      </trkpt>
      <trkpt lat="46.12008" lon="4.61658">
        <ele>312</ele>
        <time>2017-11-03T00:59:37Z</time>
      </trkpt>
      <trkpt lat="46.12003" lon="4.61654">
        <ele>312</ele>
        <time>2017-11-03T01:01:37Z</time>
      </trkpt>
      <trkpt lat="46.11998" lon="4.61651">
        <ele>312</ele>
        <time>2017-11-03T01:03:37Z</time>
      </trkpt>
      <trkpt lat="46.11987" lon="4.61645">
        <ele>313</ele>
        <time>2017-11-03T01:05:37Z</time>
      </trkpt>
      <trkpt lat="46.1197" lon="4.61637">
        <ele>313</ele>
        <time>2017-11-03T01:07:37Z</time>
      </trkpt>
      <trkpt lat="46.1196" lon="4.61631">
        <ele>314</ele>
        <time>2017-11-03T01:09:37Z</time>
      </trkpt>
      <trkpt lat="46.11935" lon="4.61616">
        <ele>315</ele>
        <time>2017-11-03T01:11:37Z</time>
      </trkpt>
      <trkpt lat="46.11902" lon="4.61599">
        <ele>316</ele>
        <time>2017-11-03T01:13:37Z</time>
      </trkpt>
      <trkpt lat="46.11892" lon="4.61593">
        <ele>317</ele>
        <time>2017-11-03T01:15:37Z</time>
      </trkpt>
      <trkpt lat="46.11879" lon="4.61586">
        <ele>318</ele>
        <time>2017-11-03T01:17:37Z</time>
      </trkpt>
      <trkpt lat="46.11877" lon="4.61584">
        <ele>318</ele>
        <time>2017-11-03T01:19:37Z</time>
      </trkpt>
      <trkpt lat="46.11859" lon="4.61566">
        <ele>319</ele>
        <time>2017-11-03T01:21:37Z</time>
      </trkpt>
      <trkpt lat="46.11855" lon="4.61562">
        <ele>320</ele>
        <time>2017-11-03T01:23:37Z</time>
      </trkpt>
      <trkpt lat="46.11848" lon="4.61556">
        <ele>320</ele>
        <time>2017-11-03T01:25:37Z</time>
      </trkpt>
      <trkpt lat="46.11833" lon="4.61541">
        <ele>321</ele>
        <time>2017-11-03T01:27:37Z</time>
      </trkpt>
      <trkpt lat="46.11827" lon="4.61535">
        <ele>321</ele>
        <time>2017-11-03T01:29:37Z</time>
      </trkpt>
      <trkpt lat="46.1182" lon="4.6153">
        <ele>321</ele>
        <time>2017-11-03T01:31:37Z</time>
      </trkpt>
      <trkpt lat="46.11812" lon="4.61523">
        <ele>321</ele>
        <time>2017-11-03T01:33:37Z</time>
      </trkpt>
      <trkpt lat="46.11808" lon="4.61518">
        <ele>321</ele>
        <time>2017-11-03T01:35:37Z</time>
      </trkpt>
      <trkpt lat="46.11805" lon="4.61514">
        <ele>321</ele>
        <time>2017-11-03T01:37:37Z</time>
      </trkpt>
      <trkpt lat="46.11802" lon="4.61508">
        <ele>321</ele>
        <time>2017-11-03T01:39:37Z</time>
      </trkpt>
      <trkpt lat="46.11799" lon="4.61502">
        <ele>322</ele>
        <time>2017-11-03T01:41:37Z</time>
      </trkpt>
      <trkpt lat="46.11793" lon="4.6149">
        <ele>322</ele>
        <time>2017-11-03T01:43:37Z</time>
      </trkpt>
      <trkpt lat="46.11785" lon="4.61472">
        <ele>323</ele>
        <time>2017-11-03T01:45:37Z</time>
      </trkpt>
      <trkpt lat="46.11782" lon="4.61465">
        <ele>324</ele>
        <time>2017-11-03T01:47:37Z</time>
      </trkpt>
      <trkpt lat="46.11773" lon="4.61444">
        <ele>325</ele>
        <time>2017-11-03T01:49:37Z</time>
      </trkpt>
      <trkpt lat="46.1176" lon="4.61416">
        <ele>326</ele>
        <time>2017-11-03T01:51:37Z</time>
      </trkpt>
      <trkpt lat="46.11749" lon="4.61397">
        <ele>327</ele>
        <time>2017-11-03T01:53:37Z</time>
      </trkpt>
      <trkpt lat="46.11743" lon="4.61386">
        <ele>326</ele>
        <time>2017-11-03T01:55:37Z</time>
      </trkpt>
      <trkpt lat="46.11732" lon="4.61369">
        <ele>326</ele>
        <time>2017-11-03T01:57:37Z</time>
      </trkpt>
      <trkpt lat="46.11716" lon="4.61343">
        <ele>325</ele>
        <time>2017-11-03T01:59:37Z</time>
      </trkpt>
      <trkpt lat="46.11713" lon="4.61338">
        <ele>324</ele>
        <time>2017-11-03T02:01:37Z</time>
      </trkpt>
      <trkpt lat="46.11707" lon="4.61328">
        <ele>324</ele>
        <time>2017-11-03T02:03:37Z</time>
      </trkpt>
      <trkpt lat="46.117" lon="4.61317">
        <ele>323</ele>
        <time>2017-11-03T02:05:37Z</time>
      </trkpt>
      <trkpt lat="46.11698" lon="4.61312">
        <ele>323</ele>
        <time>2017-11-03T02:07:37Z</time>
      </trkpt>
      <trkpt lat="46.11693" lon="4.613">
        <ele>323</ele>
        <time>2017-11-03T02:09:37Z</time>
      </trkpt>
      <trkpt lat="46.11688" lon="4.6128">
        <ele>322</ele>
        <time>2017-11-03T02:11:37Z</time>
      </trkpt>
      <trkpt lat="46.11685" lon="4.61269">
        <ele>322</ele>
        <time>2017-11-03T02:13:37Z</time>
      </trkpt>
      <trkpt lat="46.11677" lon="4.61236">
        <ele>321</ele>
        <time>2017-11-03T02:15:37Z</time>
      </trkpt>
      <trkpt lat="46.11666" lon="4.61196">
        <ele>320</ele>
        <time>2017-11-03T02:17:37Z</time>
      </trkpt>
      <trkpt lat="46.11657" lon="4.61158">
        <ele>320</ele>
        <time>2017-11-03T02:19:37Z</time>
      </trkpt>
      <trkpt lat="46.11651" lon="4.6114">
        <ele>320</ele>
        <time>2017-11-03T02:21:37Z</time>
      </trkpt>
      <trkpt lat="46.11635" lon="4.61079">
        <ele>323</ele>
        <time>2017-11-03T02:23:37Z</time>
      </trkpt>
      <trkpt lat="46.11629" lon="4.61064">
        <ele>324</ele>
        <time>2017-11-03T02:25:37Z</time>
      </trkpt>
      <trkpt lat="46.11619" lon="4.61047">
        <ele>324</ele>
        <time>2017-11-03T02:27:37Z</time>
      </trkpt>
      <trkpt lat="46.11615" lon="4.61042">
        <ele>325</ele>
        <time>2017-11-03T02:29:37Z</time>
      </trkpt>
      <trkpt lat="46.11598" lon="4.61029">
        <ele>325</ele>
        <time>2017-11-03T02:31:37Z</time>
      </trkpt>
      <trkpt lat="46.11567" lon="4.6101">
        <ele>327</ele>
        <time>2017-11-03T02:33:37Z</time>
      </trkpt>
      <trkpt lat="46.11557" lon="4.61003">
        <ele>327</ele>
        <time>2017-11-03T02:35:37Z</time>
      </trkpt>
      <trkpt lat="46.11552" lon="4.60999">
        <ele>328</ele>
        <time>2017-11-03T02:37:37Z</time>
      </trkpt>
      <trkpt lat="46.11548" lon="4.60993">
        <ele>328</ele>
        <time>2017-11-03T02:39:37Z</time>
      </trkpt>
      <trkpt lat="46.11542" lon="4.60985">
        <ele>328</ele>
        <time>2017-11-03T02:41:37Z</time>
      </trkpt>
      <trkpt lat="46.11535" lon="4.60976">
        <ele>329</ele>
        <time>2017-11-03T02:43:37Z</time>
      </trkpt>
      <trkpt lat="46.11529" lon="4.60966">
        <ele>329</ele>
        <time>2017-11-03T02:45:37Z</time>
      </trkpt>
      <trkpt lat="46.11525" lon="4.60957">
        <ele>330</ele>
        <time>2017-11-03T02:47:37Z</time>
      </trkpt>
      <trkpt lat="46.11516" lon="4.60938">
        <ele>330</ele>
        <time>2017-11-03T02:49:37Z</time>
      </trkpt>
      <trkpt lat="46.1151" lon="4.60921">
        <ele>331</ele>
        <time>2017-11-03T02:51:37Z</time>
      </trkpt>
      <trkpt lat="46.11508" lon="4.60914">
        <ele>331</ele>
        <time>2017-11-03T02:53:37Z</time>
      </trkpt>
      <trkpt lat="46.11503" lon="4.60897">
        <ele>332</ele>
        <time>2017-11-03T02:55:37Z</time>
      </trkpt>
      <trkpt lat="46.115" lon="4.60879">
        <ele>333</ele>
        <time>2017-11-03T02:57:37Z</time>
      </trkpt>
      <trkpt lat="46.11497" lon="4.60849">
        <ele>335</ele>
        <time>2017-11-03T02:59:37Z</time>
      </trkpt>
      <trkpt lat="46.11495" lon="4.60828">
        <ele>336</ele>
        <time>2017-11-03T03:01:37Z</time>
      </trkpt>
      <trkpt lat="46.11495" lon="4.60815">
        <ele>337</ele>
        <time>2017-11-03T03:03:37Z</time>
      </trkpt>
      <trkpt lat="46.11494" lon="4.60791">
        <ele>339</ele>
        <time>2017-11-03T03:05:37Z</time>
      </trkpt>
      <trkpt lat="46.11494" lon="4.60782">
        <ele>340</ele>
        <time>2017-11-03T03:07:37Z</time>
      </trkpt>
      <trkpt lat="46.11492" lon="4.60774">
        <ele>340</ele>
        <time>2017-11-03T03:09:37Z</time>
      </trkpt>
      <trkpt lat="46.1149" lon="4.60765">
        <ele>341</ele>
        <time>2017-11-03T03:11:37Z</time>
      </trkpt>
      <trkpt lat="46.11487" lon="4.60758">
        <ele>341</ele>
        <time>2017-11-03T03:13:37Z</time>
      </trkpt>
      <trkpt lat="46.11484" lon="4.60751">
        <ele>342</ele>
        <time>2017-11-03T03:15:37Z</time>
      </trkpt>
      <trkpt lat="46.11476" lon="4.60738">
        <ele>343</ele>
        <time>2017-11-03T03:17:37Z</time>
      </trkpt>
      <trkpt lat="46.11443" lon="4.60701">
        <ele>345</ele>
        <time>2017-11-03T03:19:37Z</time>
      </trkpt>
      <trkpt lat="46.11435" lon="4.60692">
        <ele>345</ele>
        <time>2017-11-03T03:21:37Z</time>
      </trkpt>
      <trkpt lat="46.11425" lon="4.6068">
        <ele>345</ele>
        <time>2017-11-03T03:23:37Z</time>
      </trkpt>
      <trkpt lat="46.11415" lon="4.60664">
        <ele>346</ele>
        <time>2017-11-03T03:25:37Z</time>
      </trkpt>
      <trkpt lat="46.11409" lon="4.60649">
        <ele>345</ele>
        <time>2017-11-03T03:27:37Z</time>
      </trkpt>
      <trkpt lat="46.11405" lon="4.6064">
        <ele>345</ele>
        <time>2017-11-03T03:29:37Z</time>
      </trkpt>
      <trkpt lat="46.11401" lon="4.60625">
        <ele>345</ele>
        <time>2017-11-03T03:31:37Z</time>
      </trkpt>
      <trkpt lat="46.11399" lon="4.60617">
        <ele>345</ele>
        <time>2017-11-03T03:33:37Z</time>
      </trkpt>
      <trkpt lat="46.11395" lon="4.60599">
        <ele>345</ele>
        <time>2017-11-03T03:35:37Z</time>
      </trkpt>
      <trkpt lat="46.11393" lon="4.60579">
        <ele>346</ele>
        <time>2017-11-03T03:37:37Z</time>
      </trkpt>
      <trkpt lat="46.11392" lon="4.60561">
        <ele>346</ele>
        <time>2017-11-03T03:39:37Z</time>
      </trkpt>
      <trkpt lat="46.11391" lon="4.60558">
        <ele>346</ele>
        <time>2017-11-03T03:41:37Z</time>
      </trkpt>
      <trkpt lat="46.11391" lon="4.60548">
        <ele>347</ele>
        <time>2017-11-03T03:43:37Z</time>
      </trkpt>
      <trkpt lat="46.11391" lon="4.60521">
        <ele>348</ele>
        <time>2017-11-03T03:45:37Z</time>
      </trkpt>
      <trkpt lat="46.11392" lon="4.60494">
        <ele>348</ele>
        <time>2017-11-03T03:47:37Z</time>
      </trkpt>
      <trkpt lat="46.11395" lon="4.60468">
        <ele>348</ele>
        <time>2017-11-03T03:49:37Z</time>
      </trkpt>
      <trkpt lat="46.11401" lon="4.60432">
        <ele>348</ele>
        <time>2017-11-03T03:51:37Z</time>
      </trkpt>
      <trkpt lat="46.11406" lon="4.60406">
        <ele>348</ele>
        <time>2017-11-03T03:53:37Z</time>
      </trkpt>
      <trkpt lat="46.1141" lon="4.60393">
        <ele>348</ele>
        <time>2017-11-03T03:55:37Z</time>
      </trkpt>
      <trkpt lat="46.11421" lon="4.60363">
        <ele>349</ele>
        <time>2017-11-03T03:57:37Z</time>
      </trkpt>
      <trkpt lat="46.11441" lon="4.60306">
        <ele>350</ele>
        <time>2017-11-03T03:59:37Z</time>
      </trkpt>
      <trkpt lat="46.11453" lon="4.60272">
        <ele>350</ele>
        <time>2017-11-03T04:01:37Z</time>
      </trkpt>
      <trkpt lat="46.11458" lon="4.60259">
        <ele>350</ele>
        <time>2017-11-03T04:03:37Z</time>
      </trkpt>
      <trkpt lat="46.11462" lon="4.60241">
        <ele>351</ele>
        <time>2017-11-03T04:05:37Z</time>
      </trkpt>
      <trkpt lat="46.11465" lon="4.60227">
        <ele>352</ele>
        <time>2017-11-03T04:07:37Z</time>
      </trkpt>
      <trkpt lat="46.11468" lon="4.60187">
        <ele>353</ele>
        <time>2017-11-03T04:09:37Z</time>
      </trkpt>
      <trkpt lat="46.11468" lon="4.60167">
        <ele>353</ele>
        <time>2017-11-03T04:11:37Z</time>
      </trkpt>
      <trkpt lat="46.11466" lon="4.60143">
        <ele>354</ele>
        <time>2017-11-03T04:13:37Z</time>
      </trkpt>
      <trkpt lat="46.11461" lon="4.6012">
        <ele>354</ele>
        <time>2017-11-03T04:15:37Z</time>
      </trkpt>
      <trkpt lat="46.11453" lon="4.60093">
        <ele>355</ele>
        <time>2017-11-03T04:17:37Z</time>
      </trkpt>
      <trkpt lat="46.11449" lon="4.60083">
        <ele>355</ele>
        <time>2017-11-03T04:19:37Z</time>
      </trkpt>
      <trkpt lat="46.11447" lon="4.60077">
        <ele>356</ele>
        <time>2017-11-03T04:21:37Z</time>
      </trkpt>
      <trkpt lat="46.11443" lon="4.60069">
        <ele>356</ele>
        <time>2017-11-03T04:23:37Z</time>
      </trkpt>
      <trkpt lat="46.1142" lon="4.60022">
        <ele>357</ele>
        <time>2017-11-03T04:25:37Z</time>
      </trkpt>
      <trkpt lat="46.11385" lon="4.59946">
        <ele>355</ele>
        <time>2017-11-03T04:27:37Z</time>
      </trkpt>
      <trkpt lat="46.11381" lon="4.59939">
        <ele>354</ele>
        <time>2017-11-03T04:29:37Z</time>
      </trkpt>
      <trkpt lat="46.11373" lon="4.5992">
        <ele>353</ele>
        <time>2017-11-03T04:31:37Z</time>
      </trkpt>
      <trkpt lat="46.11363" lon="4.59889">
        <ele>353</ele>
        <time>2017-11-03T04:33:37Z</time>
      </trkpt>
      <trkpt lat="46.11355" lon="4.59857">
        <ele>353</ele>
        <time>2017-11-03T04:35:37Z</time>
      </trkpt>
      <trkpt lat="46.11353" lon="4.5984">
        <ele>353</ele>
        <time>2017-11-03T04:37:37Z</time>
      </trkpt>
      <trkpt lat="46.1135" lon="4.59803">
        <ele>354</ele>
        <time>2017-11-03T04:39:37Z</time>
      </trkpt>
      <trkpt lat="46.11351" lon="4.59776">
        <ele>355</ele>
        <time>2017-11-03T04:41:37Z</time>
      </trkpt>
      <trkpt lat="46.11354" lon="4.5974">
        <ele>357</ele>
        <time>2017-11-03T04:43:37Z</time>
      </trkpt>
      <trkpt lat="46.11355" lon="4.59693">
        <ele>359</ele>
        <time>2017-11-03T04:45:37Z</time>
      </trkpt>
      <trkpt lat="46.11352" lon="4.59673">
        <ele>359</ele>
        <time>2017-11-03T04:47:37Z</time>
      </trkpt>
      <trkpt lat="46.11348" lon="4.59661">
        <ele>359</ele>
        <time>2017-11-03T04:49:37Z</time>
      </trkpt>
      <trkpt lat="46.1133" lon="4.59631">
        <ele>359</ele>
        <time>2017-11-03T04:51:37Z</time>
      </trkpt>
      <trkpt lat="46.11295" lon="4.59579">
        <ele>360</ele>
        <time>2017-11-03T04:53:37Z</time>
      </trkpt>
      <trkpt lat="46.11285" lon="4.59557">
        <ele>359</ele>
        <time>2017-11-03T04:55:37Z</time>
      </trkpt>
      <trkpt lat="46.11275" lon="4.59527">
        <ele>360</ele>
        <time>2017-11-03T04:57:37Z</time>
      </trkpt>
      <trkpt lat="46.1127" lon="4.59499">
        <ele>362</ele>
        <time>2017-11-03T04:59:37Z</time>
      </trkpt>
      <trkpt lat="46.11267" lon="4.59469">
        <ele>362</ele>
        <time>2017-11-03T05:01:37Z</time>
      </trkpt>
      <trkpt lat="46.11267" lon="4.59439">
        <ele>363</ele>
        <time>2017-11-03T05:03:37Z</time>
      </trkpt>
      <trkpt lat="46.11268" lon="4.59407">
        <ele>364</ele>
        <time>2017-11-03T05:05:37Z</time>
      </trkpt>
      <trkpt lat="46.11271" lon="4.59375">
        <ele>364</ele>
        <time>2017-11-03T05:07:37Z</time>
      </trkpt>
      <trkpt lat="46.11276" lon="4.59348">
        <ele>364</ele>
        <time>2017-11-03T05:09:37Z</time>
      </trkpt>
      <trkpt lat="46.11285" lon="4.59316">
        <ele>365</ele>
        <time>2017-11-03T05:11:37Z</time>
      </trkpt>
      <trkpt lat="46.11291" lon="4.59302">
        <ele>365</ele>
        <time>2017-11-03T05:13:37Z</time>
      </trkpt>
      <trkpt lat="46.11297" lon="4.5929">
        <ele>365</ele>
        <time>2017-11-03T05:15:37Z</time>
      </trkpt>
      <trkpt lat="46.11334" lon="4.59236">
        <ele>368</ele>
        <time>2017-11-03T05:17:37Z</time>
      </trkpt>
      <trkpt lat="46.11344" lon="4.59221">
        <ele>369</ele>
        <time>2017-11-03T05:19:37Z</time>
      </trkpt>
      <trkpt lat="46.11353" lon="4.59207">
        <ele>369</ele>
        <time>2017-11-03T05:21:37Z</time>
      </trkpt>
      <trkpt lat="46.11367" lon="4.59183">
        <ele>369</ele>
        <time>2017-11-03T05:23:37Z</time>
      </trkpt>
      <trkpt lat="46.11407" lon="4.59115">
        <ele>368</ele>
        <time>2017-11-03T05:25:37Z</time>
      </trkpt>
      <trkpt lat="46.11411" lon="4.59107">
        <ele>368</ele>
        <time>2017-11-03T05:27:37Z</time>
      </trkpt>
      <trkpt lat="46.1143" lon="4.59073">
        <ele>368</ele>
        <time>2017-11-03T05:29:37Z</time>
      </trkpt>
      <trkpt lat="46.11434" lon="4.5906">
        <ele>369</ele>
        <time>2017-11-03T05:31:37Z</time>
      </trkpt>
      <trkpt lat="46.11435" lon="4.59055">
        <ele>369</ele>
        <time>2017-11-03T05:33:37Z</time>
      </trkpt>
      <trkpt lat="46.11434" lon="4.59048">
        <ele>369</ele>
        <time>2017-11-03T05:35:37Z</time>
      </trkpt>
      <trkpt lat="46.11433" lon="4.59043">
        <ele>369</ele>
        <time>2017-11-03T05:37:37Z</time>
      </trkpt>
      <trkpt lat="46.11433" lon="4.5904">
        <ele>369</ele>
        <time>2017-11-03T05:39:37Z</time>
      </trkpt>
      <trkpt lat="46.11432" lon="4.59038">
        <ele>369</ele>
        <time>2017-11-03T05:41:37Z</time>
      </trkpt>
      <trkpt lat="46.11429" lon="4.59035">
        <ele>369</ele>
        <time>2017-11-03T05:43:37Z</time>
      </trkpt>
      <trkpt lat="46.11426" lon="4.59033">
        <ele>369</ele>
        <time>2017-11-03T05:45:37Z</time>
      </trkpt>
      <trkpt lat="46.11422" lon="4.5903">
        <ele>368</ele>
        <time>2017-11-03T05:47:37Z</time>
      </trkpt>
      <trkpt lat="46.11416" lon="4.59029">
        <ele>368</ele>
        <time>2017-11-03T05:49:37Z</time>
      </trkpt>
      <trkpt lat="46.11382" lon="4.59033">
        <ele>364</ele>
        <time>2017-11-03T05:51:37Z</time>
      </trkpt>
      <trkpt lat="46.11372" lon="4.59029">
        <ele>363</ele>
        <time>2017-11-03T05:53:37Z</time>
      </trkpt>
      <trkpt lat="46.11363" lon="4.59023">
        <ele>363</ele>
        <time>2017-11-03T05:55:37Z</time>
      </trkpt>
      <trkpt lat="46.11356" lon="4.59018">
        <ele>362</ele>
        <time>2017-11-03T05:57:37Z</time>
      </trkpt>
      <trkpt lat="46.11322" lon="4.58989">
        <ele>362</ele>
        <time>2017-11-03T05:59:37Z</time>
      </trkpt>
      <trkpt lat="46.11263" lon="4.5894">
        <ele>364</ele>
        <time>2017-11-03T06:01:37Z</time>
      </trkpt>
      <trkpt lat="46.11222" lon="4.58905">
        <ele>366</ele>
        <time>2017-11-03T06:03:37Z</time>
      </trkpt>
      <trkpt lat="46.11195" lon="4.5888">
        <ele>365</ele>
        <time>2017-11-03T06:05:37Z</time>
      </trkpt>
      <trkpt lat="46.11186" lon="4.58867">
        <ele>365</ele>
        <time>2017-11-03T06:07:37Z</time>
      </trkpt>
      <trkpt lat="46.11182" lon="4.58857">
        <ele>365</ele>
        <time>2017-11-03T06:09:37Z</time>
      </trkpt>
      <trkpt lat="46.11179" lon="4.58844">
        <ele>365</ele>
        <time>2017-11-03T06:11:37Z</time>
      </trkpt>
      <trkpt lat="46.11171" lon="4.58793">
        <ele>366</ele>
        <time>2017-11-03T06:13:37Z</time>
      </trkpt>
      <trkpt lat="46.11164" lon="4.58747">
        <ele>366</ele>
        <time>2017-11-03T06:15:37Z</time>
      </trkpt>
      <trkpt lat="46.11163" lon="4.58741">
        <ele>366</ele>
        <time>2017-11-03T06:17:37Z</time>
      </trkpt>
      <trkpt lat="46.11154" lon="4.5868">
        <ele>368</ele>
        <time>2017-11-03T06:19:37Z</time>
      </trkpt>
      <trkpt lat="46.11149" lon="4.58653">
        <ele>369</ele>
        <time>2017-11-03T06:21:37Z</time>
      </trkpt>
      <trkpt lat="46.11143" lon="4.5862">
        <ele>370</ele>
        <time>2017-11-03T06:23:37Z</time>
      </trkpt>
      <trkpt lat="46.11142" lon="4.58608">
        <ele>370</ele>
        <time>2017-11-03T06:25:37Z</time>
      </trkpt>
      <trkpt lat="46.1114" lon="4.58594">
        <ele>370</ele>
        <time>2017-11-03T06:27:37Z</time>
      </trkpt>
      <trkpt lat="46.11139" lon="4.58587">
        <ele>371</ele>
        <time>2017-11-03T06:29:37Z</time>
      </trkpt>
      <trkpt lat="46.11138" lon="4.58571">
        <ele>371</ele>
        <time>2017-11-03T06:31:37Z</time>
      </trkpt>
      <trkpt lat="46.11137" lon="4.58543">
        <ele>372</ele>
        <time>2017-11-03T06:33:37Z</time>
      </trkpt>
      <trkpt lat="46.11137" lon="4.58515">
        <ele>373</ele>
        <time>2017-11-03T06:35:37Z</time>
      </trkpt>
      <trkpt lat="46.11136" lon="4.58449">
        <ele>373</ele>
        <time>2017-11-03T06:37:37Z</time>
      </trkpt>
      <trkpt lat="46.11139" lon="4.58415">
        <ele>373</ele>
        <time>2017-11-03T06:39:37Z</time>
      </trkpt>
      <trkpt lat="46.11145" lon="4.5838">
        <ele>372</ele>
        <time>2017-11-03T06:41:37Z</time>
      </trkpt>
      <trkpt lat="46.11148" lon="4.58367">
        <ele>372</ele>
        <time>2017-11-03T06:43:37Z</time>
      </trkpt>
      <trkpt lat="46.11151" lon="4.5836">
        <ele>372</ele>
        <time>2017-11-03T06:45:37Z</time>
      </trkpt>
      <trkpt lat="46.1116" lon="4.58344">
        <ele>373</ele>
        <time>2017-11-03T06:47:37Z</time>
      </trkpt>
      <trkpt lat="46.11173" lon="4.58329">
        <ele>375</ele>
        <time>2017-11-03T06:49:37Z</time>
      </trkpt>
      <trkpt lat="46.11187" lon="4.58315">
        <ele>377</ele>
        <time>2017-11-03T06:51:37Z</time>
      </trkpt>
      <trkpt lat="46.112" lon="4.58298">
        <ele>378</ele>
        <time>2017-11-03T06:53:37Z</time>
      </trkpt>
      <trkpt lat="46.11206" lon="4.58285">
        <ele>378</ele>
        <time>2017-11-03T06:55:37Z</time>
      </trkpt>
      <trkpt lat="46.11208" lon="4.58279">
        <ele>378</ele>
        <time>2017-11-03T06:57:37Z</time>
      </trkpt>
      <trkpt lat="46.11211" lon="4.58268">
        <ele>378</ele>
        <time>2017-11-03T06:59:37Z</time>
      </trkpt>
      <trkpt lat="46.11213" lon="4.58259">
        <ele>378</ele>
        <time>2017-11-03T07:01:37Z</time>
      </trkpt>
      <trkpt lat="46.11214" lon="4.58249">
        <ele>378</ele>
        <time>2017-11-03T07:03:37Z</time>
      </trkpt>
      <trkpt lat="46.11215" lon="4.5824">
        <ele>379</ele>
        <time>2017-11-03T07:05:37Z</time>
      </trkpt>
      <trkpt lat="46.11214" lon="4.58223">
        <ele>379</ele>
        <time>2017-11-03T07:07:37Z</time>
      </trkpt>
      <trkpt lat="46.11208" lon="4.58176">
        <ele>380</ele>
        <time>2017-11-03T07:09:37Z</time>
      </trkpt>
      <trkpt lat="46.11204" lon="4.58152">
        <ele>380</ele>
        <time>2017-11-03T07:11:37Z</time>
      </trkpt>
      <trkpt lat="46.11198" lon="4.58122">
        <ele>381</ele>
        <time>2017-11-03T07:13:37Z</time>
      </trkpt>
      <trkpt lat="46.11191" lon="4.58094">
        <ele>380</ele>
        <time>2017-11-03T07:15:37Z</time>
      </trkpt>
      <trkpt lat="46.11177" lon="4.58045">
        <ele>377</ele>
        <time>2017-11-03T07:17:37Z</time>
      </trkpt>
      <trkpt lat="46.11176" lon="4.58024">
        <ele>378</ele>
        <time>2017-11-03T07:19:37Z</time>
      </trkpt>
      <trkpt lat="46.11176" lon="4.57999">
        <ele>378</ele>
        <time>2017-11-03T07:21:37Z</time>
      </trkpt>
      <trkpt lat="46.11179" lon="4.57975">
        <ele>379</ele>
        <time>2017-11-03T07:23:37Z</time>
      </trkpt>
      <trkpt lat="46.11183" lon="4.5795">
        <ele>379</ele>
        <time>2017-11-03T07:25:37Z</time>
      </trkpt>
      <trkpt lat="46.11202" lon="4.57833">
        <ele>378</ele>
        <time>2017-11-03T07:27:37Z</time>
      </trkpt>
      <trkpt lat="46.11212" lon="4.57775">
        <ele>376</ele>
        <time>2017-11-03T07:29:37Z</time>
      </trkpt>
      <trkpt lat="46.11221" lon="4.57741">
        <ele>376</ele>
        <time>2017-11-03T07:31:37Z</time>
      </trkpt>
      <trkpt lat="46.1123" lon="4.57714">
        <ele>375</ele>
        <time>2017-11-03T07:33:37Z</time>
      </trkpt>
      <trkpt lat="46.1124" lon="4.57686">
        <ele>374</ele>
        <time>2017-11-03T07:35:37Z</time>
      </trkpt>
      <trkpt lat="46.11246" lon="4.5767">
        <ele>373</ele>
        <time>2017-11-03T07:37:37Z</time>
      </trkpt>
      <trkpt lat="46.11256" lon="4.57642">
        <ele>375</ele>
        <time>2017-11-03T07:39:37Z</time>
      </trkpt>
      <trkpt lat="46.11259" lon="4.57625">
        <ele>375</ele>
        <time>2017-11-03T07:41:37Z</time>
      </trkpt>
      <trkpt lat="46.1126" lon="4.57609">
        <ele>375</ele>
        <time>2017-11-03T07:43:37Z</time>
      </trkpt>
      <trkpt lat="46.11262" lon="4.57578">
        <ele>374</ele>
        <time>2017-11-03T07:45:37Z</time>
      </trkpt>
      <trkpt lat="46.11261" lon="4.57563">
        <ele>373</ele>
        <time>2017-11-03T07:47:37Z</time>
      </trkpt>
      <trkpt lat="46.11261" lon="4.57502">
        <ele>372</ele>
        <time>2017-11-03T07:49:37Z</time>
      </trkpt>
      <trkpt lat="46.11261" lon="4.57495">
        <ele>372</ele>
        <time>2017-11-03T07:51:37Z</time>
      </trkpt>
      <trkpt lat="46.11261" lon="4.57489">
        <ele>372</ele>
        <time>2017-11-03T07:53:37Z</time>
      </trkpt>
      <trkpt lat="46.1126" lon="4.57454">
        <ele>372</ele>
        <time>2017-11-03T07:55:37Z</time>
      </trkpt>
      <trkpt lat="46.11263" lon="4.57439">
        <ele>373</ele>
        <time>2017-11-03T07:57:37Z</time>
      </trkpt>
      <trkpt lat="46.11266" lon="4.5742">
        <ele>374</ele>
        <time>2017-11-03T07:59:37Z</time>
      </trkpt>
      <trkpt lat="46.11274" lon="4.57385">
        <ele>376</ele>
        <time>2017-11-03T08:01:37Z</time>
      </trkpt>
      <trkpt lat="46.11275" lon="4.57377">
        <ele>376</ele>
        <time>2017-11-03T08:03:37Z</time>
      </trkpt>
      <trkpt lat="46.11284" lon="4.57348">
        <ele>378</ele>
        <time>2017-11-03T08:05:37Z</time>
      </trkpt>
      <trkpt lat="46.11297" lon="4.5731">
        <ele>380</ele>
        <time>2017-11-03T08:07:37Z</time>
      </trkpt>
      <trkpt lat="46.11313" lon="4.57266">
        <ele>382</ele>
        <time>2017-11-03T08:09:37Z</time>
      </trkpt>
      <trkpt lat="46.11319" lon="4.57246">
        <ele>383</ele>
        <time>2017-11-03T08:11:37Z</time>
      </trkpt>
      <trkpt lat="46.11325" lon="4.5723">
        <ele>383</ele>
        <time>2017-11-03T08:13:37Z</time>
      </trkpt>
      <trkpt lat="46.11338" lon="4.57196">
        <ele>382</ele>
        <time>2017-11-03T08:15:37Z</time>
      </trkpt>
      <trkpt lat="46.11345" lon="4.57181">
        <ele>382</ele>
        <time>2017-11-03T08:17:37Z</time>
      </trkpt>
      <trkpt lat="46.11352" lon="4.57166">
        <ele>382</ele>
        <time>2017-11-03T08:19:37Z</time>
      </trkpt>
      <trkpt lat="46.11354" lon="4.57163">
        <ele>382</ele>
        <time>2017-11-03T08:21:37Z</time>
      </trkpt>
      <trkpt lat="46.11354" lon="4.57163">
        <ele>382</ele>
        <time>2017-11-03T08:23:37Z</time>
      </trkpt>
      <trkpt lat="46.11359" lon="4.57152">
        <ele>382</ele>
        <time>2017-11-03T08:25:37Z</time>
      </trkpt>
      <trkpt lat="46.1137" lon="4.57136">
        <ele>382</ele>
        <time>2017-11-03T08:27:37Z</time>
      </trkpt>
      <trkpt lat="46.11379" lon="4.57127">
        <ele>383</ele>
        <time>2017-11-03T08:29:37Z</time>
      </trkpt>
      <trkpt lat="46.11389" lon="4.57119">
        <ele>384</ele>
        <time>2017-11-03T08:31:37Z</time>
      </trkpt>
      <trkpt lat="46.11399" lon="4.57113">
        <ele>385</ele>
        <time>2017-11-03T08:33:37Z</time>
      </trkpt>
      <trkpt lat="46.11409" lon="4.57108">
        <ele>386</ele>
        <time>2017-11-03T08:35:37Z</time>
      </trkpt>
      <trkpt lat="46.11422" lon="4.57103">
        <ele>387</ele>
        <time>2017-11-03T08:37:37Z</time>
      </trkpt>
      <trkpt lat="46.11433" lon="4.571">
        <ele>388</ele>
        <time>2017-11-03T08:39:37Z</time>
      </trkpt>
      <trkpt lat="46.11443" lon="4.57099">
        <ele>389</ele>
        <time>2017-11-03T08:41:37Z</time>
      </trkpt>
      <trkpt lat="46.11451" lon="4.571">
        <ele>390</ele>
        <time>2017-11-03T08:43:37Z</time>
      </trkpt>
      <trkpt lat="46.11465" lon="4.571">
        <ele>391</ele>
        <time>2017-11-03T08:45:37Z</time>
      </trkpt>
      <trkpt lat="46.11472" lon="4.57102">
        <ele>392</ele>
        <time>2017-11-03T08:47:37Z</time>
      </trkpt>
      <trkpt lat="46.11477" lon="4.57103">
        <ele>393</ele>
        <time>2017-11-03T08:49:37Z</time>
      </trkpt>
      <trkpt lat="46.11492" lon="4.57106">
        <ele>395</ele>
        <time>2017-11-03T08:51:37Z</time>
      </trkpt>
      <trkpt lat="46.11503" lon="4.57109">
        <ele>397</ele>
        <time>2017-11-03T08:53:37Z</time>
      </trkpt>
      <trkpt lat="46.11512" lon="4.57111">
        <ele>398</ele>
        <time>2017-11-03T08:55:37Z</time>
      </trkpt>
      <trkpt lat="46.11522" lon="4.57111">
        <ele>399</ele>
        <time>2017-11-03T08:57:37Z</time>
      </trkpt>
      <trkpt lat="46.1153" lon="4.57107">
        <ele>400</ele>
        <time>2017-11-03T08:59:37Z</time>
      </trkpt>
      <trkpt lat="46.11535" lon="4.57102">
        <ele>400</ele>
        <time>2017-11-03T09:01:37Z</time>
      </trkpt>
      <trkpt lat="46.11539" lon="4.57098">
        <ele>400</ele>
        <time>2017-11-03T09:03:37Z</time>
      </trkpt>
      <trkpt lat="46.11542" lon="4.57092">
        <ele>399</ele>
        <time>2017-11-03T09:05:37Z</time>
      </trkpt>
      <trkpt lat="46.11544" lon="4.57086">
        <ele>399</ele>
        <time>2017-11-03T09:07:37Z</time>
      </trkpt>
      <trkpt lat="46.11548" lon="4.57055">
        <ele>399</ele>
        <time>2017-11-03T09:09:37Z</time>
      </trkpt>
      <trkpt lat="46.11557" lon="4.56976">
        <ele>400</ele>
        <time>2017-11-03T09:11:37Z</time>
      </trkpt>
      <trkpt lat="46.11559" lon="4.56949">
        <ele>400</ele>
        <time>2017-11-03T09:13:37Z</time>
      </trkpt>
      <trkpt lat="46.11564" lon="4.56912">
        <ele>401</ele>
        <time>2017-11-03T09:15:37Z</time>
      </trkpt>
      <trkpt lat="46.11567" lon="4.56895">
        <ele>401</ele>
        <time>2017-11-03T09:17:37Z</time>
      </trkpt>
      <trkpt lat="46.11571" lon="4.56881">
        <ele>402</ele>
        <time>2017-11-03T09:19:37Z</time>
      </trkpt>
      <trkpt lat="46.11575" lon="4.56867">
        <ele>402</ele>
        <time>2017-11-03T09:21:37Z</time>
      </trkpt>
      <trkpt lat="46.11586" lon="4.56833">
        <ele>404</ele>
        <time>2017-11-03T09:23:37Z</time>
      </trkpt>
      <trkpt lat="46.11597" lon="4.568">
        <ele>405</ele>
        <time>2017-11-03T09:25:37Z</time>
      </trkpt>
      <trkpt lat="46.11625" lon="4.56718">
        <ele>407</ele>
        <time>2017-11-03T09:27:37Z</time>
      </trkpt>
      <trkpt lat="46.11634" lon="4.56697">
        <ele>408</ele>
        <time>2017-11-03T09:29:37Z</time>
      </trkpt>
      <trkpt lat="46.11639" lon="4.56688">
        <ele>408</ele>
        <time>2017-11-03T09:31:37Z</time>
      </trkpt>
      <trkpt lat="46.11655" lon="4.56666">
        <ele>409</ele>
        <time>2017-11-03T09:33:37Z</time>
      </trkpt>
      <trkpt lat="46.11701" lon="4.56611">
        <ele>413</ele>
        <time>2017-11-03T09:35:37Z</time>
      </trkpt>
      <trkpt lat="46.11712" lon="4.56597">
        <ele>414</ele>
        <time>2017-11-03T09:37:37Z</time>
      </trkpt>
      <trkpt lat="46.11722" lon="4.56586">
        <ele>415</ele>
        <time>2017-11-03T09:39:37Z</time>
      </trkpt>
      <trkpt lat="46.11734" lon="4.56571">
        <ele>416</ele>
        <time>2017-11-03T09:41:37Z</time>
      </trkpt>
      <trkpt lat="46.11748" lon="4.56557">
        <ele>417</ele>
        <time>2017-11-03T09:43:37Z</time>
      </trkpt>
      <trkpt lat="46.11767" lon="4.56538">
        <ele>419</ele>
        <time>2017-11-03T09:45:37Z</time>
      </trkpt>
      <trkpt lat="46.11785" lon="4.56521">
        <ele>420</ele>
        <time>2017-11-03T09:47:37Z</time>
      </trkpt>
      <trkpt lat="46.11797" lon="4.5651">
        <ele>421</ele>
        <time>2017-11-03T09:49:37Z</time>
      </trkpt>
      <trkpt lat="46.11809" lon="4.56497">
        <ele>422</ele>
        <time>2017-11-03T09:51:37Z</time>
      </trkpt>
      <trkpt lat="46.11823" lon="4.56468">
        <ele>423</ele>
        <time>2017-11-03T09:53:37Z</time>
      </trkpt>
      <trkpt lat="46.11831" lon="4.56454">
        <ele>423</ele>
        <time>2017-11-03T09:55:37Z</time>
      </trkpt>
      <trkpt lat="46.1184" lon="4.56439">
        <ele>424</ele>
        <time>2017-11-03T09:57:37Z</time>
      </trkpt>
      <trkpt lat="46.1185" lon="4.56427">
        <ele>425</ele>
        <time>2017-11-03T09:59:37Z</time>
      </trkpt>
      <trkpt lat="46.11873" lon="4.56405">
        <ele>427</ele>
        <time>2017-11-03T10:01:37Z</time>
      </trkpt>
      <trkpt lat="46.11886" lon="4.56395">
        <ele>430</ele>
        <time>2017-11-03T10:03:37Z</time>
      </trkpt>
      <trkpt lat="46.11901" lon="4.5638">
        <ele>432</ele>
        <time>2017-11-03T10:05:37Z</time>
      </trkpt>
      <trkpt lat="46.11908" lon="4.56375">
        <ele>434</ele>
        <time>2017-11-03T10:07:37Z</time>
      </trkpt>
      <trkpt lat="46.1191" lon="4.56371">
        <ele>434</ele>
        <time>2017-11-03T10:09:37Z</time>
      </trkpt>
      <trkpt lat="46.11912" lon="4.56368">
        <ele>434</ele>
        <time>2017-11-03T10:11:37Z</time>
      </trkpt>
      <trkpt lat="46.11913" lon="4.56365">
        <ele>435</ele>
        <time>2017-11-03T10:13:37Z</time>
      </trkpt>
      <trkpt lat="46.11914" lon="4.56362">
        <ele>435</ele>
        <time>2017-11-03T10:15:37Z</time>
      </trkpt>
      <trkpt lat="46.11914" lon="4.56359">
        <ele>435</ele>
        <time>2017-11-03T10:17:37Z</time>
      </trkpt>
      <trkpt lat="46.11915" lon="4.56356">
        <ele>435</ele>
        <time>2017-11-03T10:19:37Z</time>
      </trkpt>
      <trkpt lat="46.11914" lon="4.56352">
        <ele>435</ele>
        <time>2017-11-03T10:21:37Z</time>
      </trkpt>
      <trkpt lat="46.11913" lon="4.56347">
        <ele>435</ele>
        <time>2017-11-03T10:23:37Z</time>
      </trkpt>
      <trkpt lat="46.11911" lon="4.56343">
        <ele>435</ele>
        <time>2017-11-03T10:25:37Z</time>
      </trkpt>
      <trkpt lat="46.11907" lon="4.56336">
        <ele>434</ele>
        <time>2017-11-03T10:27:37Z</time>
      </trkpt>
      <trkpt lat="46.11889" lon="4.56315">
        <ele>433</ele>
        <time>2017-11-03T10:29:37Z</time>
      </trkpt>
      <trkpt lat="46.1187" lon="4.5629">
        <ele>431</ele>
        <time>2017-11-03T10:31:37Z</time>
      </trkpt>
      <trkpt lat="46.11862" lon="4.56281">
        <ele>429</ele>
        <time>2017-11-03T10:33:37Z</time>
      </trkpt>
      <trkpt lat="46.11861" lon="4.56279">
        <ele>429</ele>
        <time>2017-11-03T10:35:37Z</time>
      </trkpt>
      <trkpt lat="46.11859" lon="4.56276">
        <ele>429</ele>
        <time>2017-11-03T10:37:37Z</time>
      </trkpt>
      <trkpt lat="46.11858" lon="4.56274">
        <ele>429</ele>
        <time>2017-11-03T10:39:37Z</time>
      </trkpt>
      <trkpt lat="46.11858" lon="4.56272">
        <ele>429</ele>
        <time>2017-11-03T10:41:37Z</time>
      </trkpt>
      <trkpt lat="46.11857" lon="4.56269">
        <ele>429</ele>
        <time>2017-11-03T10:43:37Z</time>
      </trkpt>
      <trkpt lat="46.11856" lon="4.56265">
        <ele>429</ele>
        <time>2017-11-03T10:45:37Z</time>
      </trkpt>
      <trkpt lat="46.11856" lon="4.56262">
        <ele>429</ele>
        <time>2017-11-03T10:47:37Z</time>
      </trkpt>
      <trkpt lat="46.11856" lon="4.56258">
        <ele>429</ele>
        <time>2017-11-03T10:49:37Z</time>
      </trkpt>
      <trkpt lat="46.11856" lon="4.56252">
        <ele>429</ele>
        <time>2017-11-03T10:51:37Z</time>
      </trkpt>
      <trkpt lat="46.11857" lon="4.56243">
        <ele>430</ele>
        <time>2017-11-03T10:53:37Z</time>
      </trkpt>
      <trkpt lat="46.11859" lon="4.56235">
        <ele>430</ele>
        <time>2017-11-03T10:55:37Z</time>
      </trkpt>
      <trkpt lat="46.11862" lon="4.56223">
        <ele>431</ele>
        <time>2017-11-03T10:57:37Z</time>
      </trkpt>
      <trkpt lat="46.11871" lon="4.56194">
        <ele>434</ele>
        <time>2017-11-03T10:59:37Z</time>
      </trkpt>
      <trkpt lat="46.11881" lon="4.56156">
        <ele>437</ele>
        <time>2017-11-03T11:01:37Z</time>
      </trkpt>
      <trkpt lat="46.11891" lon="4.56118">
        <ele>440</ele>
        <time>2017-11-03T11:03:37Z</time>
      </trkpt>
      <trkpt lat="46.11896" lon="4.56089">
        <ele>441</ele>
        <time>2017-11-03T11:05:37Z</time>
      </trkpt>
      <trkpt lat="46.11898" lon="4.5607">
        <ele>442</ele>
        <time>2017-11-03T11:07:37Z</time>
      </trkpt>
      <trkpt lat="46.119" lon="4.5605">
        <ele>443</ele>
        <time>2017-11-03T11:09:37Z</time>
      </trkpt>
      <trkpt lat="46.11901" lon="4.5603">
        <ele>443</ele>
        <time>2017-11-03T11:11:37Z</time>
      </trkpt>
      <trkpt lat="46.11903" lon="4.56016">
        <ele>444</ele>
        <time>2017-11-03T11:13:37Z</time>
      </trkpt>
      <trkpt lat="46.11907" lon="4.55996">
        <ele>445</ele>
        <time>2017-11-03T11:15:37Z</time>
      </trkpt>
      <trkpt lat="46.11911" lon="4.55977">
        <ele>446</ele>
        <time>2017-11-03T11:17:37Z</time>
      </trkpt>
      <trkpt lat="46.11914" lon="4.55964">
        <ele>447</ele>
        <time>2017-11-03T11:19:37Z</time>
      </trkpt>
      <trkpt lat="46.11923" lon="4.55919">
        <ele>449</ele>
        <time>2017-11-03T11:21:37Z</time>
      </trkpt>
      <trkpt lat="46.11931" lon="4.55881">
        <ele>452</ele>
        <time>2017-11-03T11:23:37Z</time>
      </trkpt>
      <trkpt lat="46.11938" lon="4.55848">
        <ele>454</ele>
        <time>2017-11-03T11:25:37Z</time>
      </trkpt>
      <trkpt lat="46.11945" lon="4.55813">
        <ele>456</ele>
        <time>2017-11-03T11:27:37Z</time>
      </trkpt>
      <trkpt lat="46.1195" lon="4.5579">
        <ele>457</ele>
        <time>2017-11-03T11:29:37Z</time>
      </trkpt>
      <trkpt lat="46.11961" lon="4.55744">
        <ele>457</ele>
        <time>2017-11-03T11:31:37Z</time>
      </trkpt>
      <trkpt lat="46.11971" lon="4.55702">
        <ele>460</ele>
        <time>2017-11-03T11:33:37Z</time>
      </trkpt>
      <trkpt lat="46.11977" lon="4.55674">
        <ele>462</ele>
        <time>2017-11-03T11:35:37Z</time>
      </trkpt>
      <trkpt lat="46.11981" lon="4.55656">
        <ele>463</ele>
        <time>2017-11-03T11:37:37Z</time>
      </trkpt>
      <trkpt lat="46.1199" lon="4.55612">
        <ele>466</ele>
        <time>2017-11-03T11:39:37Z</time>
      </trkpt>
      <trkpt lat="46.12005" lon="4.55533">
        <ele>470</ele>
        <time>2017-11-03T11:41:37Z</time>
      </trkpt>
      <trkpt lat="46.12014" lon="4.55476">
        <ele>473</ele>
        <time>2017-11-03T11:43:37Z</time>
      </trkpt>
      <trkpt lat="46.12018" lon="4.55456">
        <ele>475</ele>
        <time>2017-11-03T11:45:37Z</time>
      </trkpt>
      <trkpt lat="46.12019" lon="4.55443">
        <ele>476</ele>
        <time>2017-11-03T11:47:37Z</time>
      </trkpt>
      <trkpt lat="46.12017" lon="4.55429">
        <ele>476</ele>
        <time>2017-11-03T11:49:37Z</time>
      </trkpt>
      <trkpt lat="46.12015" lon="4.55416">
        <ele>476</ele>
        <time>2017-11-03T11:51:37Z</time>
      </trkpt>
      <trkpt lat="46.12013" lon="4.55411">
        <ele>476</ele>
        <time>2017-11-03T11:53:37Z</time>
      </trkpt>
      <trkpt lat="46.1201" lon="4.55408">
        <ele>475</ele>
        <time>2017-11-03T11:55:37Z</time>
      </trkpt>
      <trkpt lat="46.12009" lon="4.55406">
        <ele>475</ele>
        <time>2017-11-03T11:57:37Z</time>
      </trkpt>
      <trkpt lat="46.12004" lon="4.554">
        <ele>474</ele>
        <time>2017-11-03T11:59:37Z</time>
      </trkpt>
      <trkpt lat="46.11998" lon="4.55394">
        <ele>474</ele>
        <time>2017-11-03T12:01:37Z</time>
      </trkpt>
      <trkpt lat="46.11989" lon="4.5539">
        <ele>476</ele>
        <time>2017-11-03T12:03:37Z</time>
      </trkpt>
      <trkpt lat="46.11984" lon="4.5539">
        <ele>477</ele>
        <time>2017-11-03T12:05:37Z</time>
      </trkpt>
      <trkpt lat="46.1198" lon="4.5539">
        <ele>478</ele>
        <time>2017-11-03T12:07:37Z</time>
      </trkpt>
      <trkpt lat="46.11972" lon="4.55394">
        <ele>480</ele>
        <time>2017-11-03T12:09:37Z</time>
      </trkpt>
      <trkpt lat="46.11969" lon="4.55397">
        <ele>480</ele>
        <time>2017-11-03T12:11:37Z</time>
      </trkpt>
      <trkpt lat="46.11959" lon="4.55408">
        <ele>481</ele>
        <time>2017-11-03T12:13:37Z</time>
      </trkpt>
      <trkpt lat="46.11944" lon="4.55435">
        <ele>481</ele>
        <time>2017-11-03T12:15:37Z</time>
      </trkpt>
      <trkpt lat="46.11925" lon="4.55469">
        <ele>480</ele>
        <time>2017-11-03T12:17:37Z</time>
      </trkpt>
      <trkpt lat="46.11913" lon="4.55499">
        <ele>478</ele>
        <time>2017-11-03T12:19:37Z</time>
      </trkpt>
      <trkpt lat="46.11899" lon="4.5554">
        <ele>479</ele>
        <time>2017-11-03T12:21:37Z</time>
      </trkpt>
      <trkpt lat="46.11888" lon="4.55575">
        <ele>479</ele>
        <time>2017-11-03T12:23:37Z</time>
      </trkpt>
      <trkpt lat="46.11873" lon="4.55626">
        <ele>480</ele>
        <time>2017-11-03T12:25:37Z</time>
      </trkpt>
      <trkpt lat="46.11868" lon="4.55643">
        <ele>480</ele>
        <time>2017-11-03T12:27:37Z</time>
      </trkpt>
      <trkpt lat="46.11861" lon="4.55661">
        <ele>481</ele>
        <time>2017-11-03T12:29:37Z</time>
      </trkpt>
      <trkpt lat="46.11849" lon="4.55696">
        <ele>481</ele>
        <time>2017-11-03T12:31:37Z</time>
      </trkpt>
      <trkpt lat="46.11843" lon="4.55711">
        <ele>481</ele>
        <time>2017-11-03T12:33:37Z</time>
      </trkpt>
      <trkpt lat="46.11837" lon="4.55722">
        <ele>481</ele>
        <time>2017-11-03T12:35:37Z</time>
      </trkpt>
      <trkpt lat="46.1183" lon="4.5573">
        <ele>481</ele>
        <time>2017-11-03T12:37:37Z</time>
      </trkpt>
      <trkpt lat="46.1182" lon="4.55739">
        <ele>479</ele>
        <time>2017-11-03T12:39:37Z</time>
      </trkpt>
      <trkpt lat="46.11813" lon="4.55744">
        <ele>478</ele>
        <time>2017-11-03T12:41:37Z</time>
      </trkpt>
      <trkpt lat="46.11811" lon="4.55745">
        <ele>478</ele>
        <time>2017-11-03T12:43:37Z</time>
      </trkpt>
      <trkpt lat="46.11801" lon="4.55745">
        <ele>478</ele>
        <time>2017-11-03T12:45:37Z</time>
      </trkpt>
      <trkpt lat="46.11794" lon="4.55742">
        <ele>478</ele>
        <time>2017-11-03T12:47:37Z</time>
      </trkpt>
      <trkpt lat="46.11781" lon="4.55735">
        <ele>480</ele>
        <time>2017-11-03T12:49:37Z</time>
      </trkpt>
      <trkpt lat="46.11772" lon="4.55728">
        <ele>481</ele>
        <time>2017-11-03T12:51:37Z</time>
      </trkpt>
      <trkpt lat="46.11766" lon="4.55723">
        <ele>482</ele>
        <time>2017-11-03T12:53:37Z</time>
      </trkpt>
      <trkpt lat="46.11757" lon="4.55714">
        <ele>485</ele>
        <time>2017-11-03T12:55:37Z</time>
      </trkpt>
      <trkpt lat="46.11741" lon="4.55701">
        <ele>487</ele>
        <time>2017-11-03T12:57:37Z</time>
      </trkpt>
      <trkpt lat="46.11671" lon="4.5563">
        <ele>498</ele>
        <time>2017-11-03T12:59:37Z</time>
      </trkpt>
      <trkpt lat="46.11657" lon="4.55614">
        <ele>501</ele>
        <time>2017-11-03T13:01:37Z</time>
      </trkpt>
      <trkpt lat="46.11641" lon="4.55598">
        <ele>503</ele>
        <time>2017-11-03T13:03:37Z</time>
      </trkpt>
      <trkpt lat="46.11588" lon="4.55544">
        <ele>505</ele>
        <time>2017-11-03T13:05:37Z</time>
      </trkpt>
      <trkpt lat="46.1158" lon="4.55533">
        <ele>506</ele>
        <time>2017-11-03T13:07:37Z</time>
      </trkpt>
      <trkpt lat="46.11565" lon="4.55509">
        <ele>508</ele>
        <time>2017-11-03T13:09:37Z</time>
      </trkpt>
      <trkpt lat="46.11552" lon="4.55486">
        <ele>510</ele>
        <time>2017-11-03T13:11:37Z</time>
      </trkpt>
      <trkpt lat="46.1154" lon="4.55473">
        <ele>511</ele>
        <time>2017-11-03T13:13:37Z</time>
      </trkpt>
      <trkpt lat="46.1153" lon="4.55466">
        <ele>510</ele>
        <time>2017-11-03T13:15:37Z</time>
      </trkpt>
      <trkpt lat="46.11518" lon="4.5546">
        <ele>509</ele>
        <time>2017-11-03T13:17:37Z</time>
      </trkpt>
      <trkpt lat="46.11477" lon="4.55444">
        <ele>508</ele>
        <time>2017-11-03T13:19:37Z</time>
      </trkpt>
      <trkpt lat="46.11472" lon="4.5544">
        <ele>509</ele>
        <time>2017-11-03T13:21:37Z</time>
      </trkpt>
      <trkpt lat="46.11458" lon="4.5543">
        <ele>510</ele>
        <time>2017-11-03T13:23:37Z</time>
      </trkpt>
      <trkpt lat="46.11408" lon="4.55383">
        <ele>517</ele>
        <time>2017-11-03T13:25:37Z</time>
      </trkpt>
      <trkpt lat="46.11398" lon="4.55378">
        <ele>518</ele>
        <time>2017-11-03T13:27:37Z</time>
      </trkpt>
      <trkpt lat="46.11371" lon="4.5535">
        <ele>521</ele>
        <time>2017-11-03T13:29:37Z</time>
      </trkpt>
      <trkpt lat="46.11359" lon="4.55339">
        <ele>521</ele>
        <time>2017-11-03T13:31:37Z</time>
      </trkpt>
      <trkpt lat="46.11344" lon="4.5532">
        <ele>523</ele>
        <time>2017-11-03T13:33:37Z</time>
      </trkpt>
      <trkpt lat="46.11339" lon="4.55313">
        <ele>523</ele>
        <time>2017-11-03T13:35:37Z</time>
      </trkpt>
      <trkpt lat="46.11327" lon="4.55297">
        <ele>527</ele>
        <time>2017-11-03T13:37:37Z</time>
      </trkpt>
      <trkpt lat="46.11319" lon="4.55287">
        <ele>529</ele>
        <time>2017-11-03T13:39:37Z</time>
      </trkpt>
      <trkpt lat="46.11308" lon="4.55271">
        <ele>532</ele>
        <time>2017-11-03T13:41:37Z</time>
      </trkpt>
      <trkpt lat="46.11293" lon="4.55241">
        <ele>536</ele>
        <time>2017-11-03T13:43:37Z</time>
      </trkpt>
      <trkpt lat="46.11288" lon="4.5523">
        <ele>538</ele>
        <time>2017-11-03T13:45:37Z</time>
      </trkpt>
      <trkpt lat="46.11271" lon="4.55197">
        <ele>540</ele>
        <time>2017-11-03T13:47:37Z</time>
      </trkpt>
      <trkpt lat="46.11265" lon="4.55191">
        <ele>540</ele>
        <time>2017-11-03T13:49:37Z</time>
      </trkpt>
      <trkpt lat="46.11258" lon="4.55185">
        <ele>539</ele>
        <time>2017-11-03T13:51:37Z</time>
      </trkpt>
      <trkpt lat="46.11254" lon="4.55183">
        <ele>538</ele>
        <time>2017-11-03T13:53:37Z</time>
      </trkpt>
      <trkpt lat="46.1125" lon="4.55183">
        <ele>537</ele>
        <time>2017-11-03T13:55:37Z</time>
      </trkpt>
      <trkpt lat="46.11246" lon="4.55185">
        <ele>538</ele>
        <time>2017-11-03T13:57:37Z</time>
      </trkpt>
      <trkpt lat="46.11242" lon="4.55189">
        <ele>538</ele>
        <time>2017-11-03T13:59:37Z</time>
      </trkpt>
      <trkpt lat="46.11237" lon="4.55196">
        <ele>538</ele>
        <time>2017-11-03T14:01:37Z</time>
      </trkpt>
      <trkpt lat="46.11232" lon="4.55208">
        <ele>538</ele>
        <time>2017-11-03T14:03:37Z</time>
      </trkpt>
      <trkpt lat="46.11226" lon="4.55237">
        <ele>538</ele>
        <time>2017-11-03T14:05:37Z</time>
      </trkpt>
      <trkpt lat="46.11223" lon="4.55252">
        <ele>538</ele>
        <time>2017-11-03T14:07:37Z</time>
      </trkpt>
      <trkpt lat="46.11221" lon="4.55268">
        <ele>538</ele>
        <time>2017-11-03T14:09:37Z</time>
      </trkpt>
      <trkpt lat="46.11218" lon="4.55284">
        <ele>538</ele>
        <time>2017-11-03T14:11:37Z</time>
      </trkpt>
      <trkpt lat="46.11214" lon="4.5531">
        <ele>539</ele>
        <time>2017-11-03T14:13:37Z</time>
      </trkpt>
      <trkpt lat="46.1121" lon="4.55336">
        <ele>539</ele>
        <time>2017-11-03T14:15:37Z</time>
      </trkpt>
      <trkpt lat="46.11208" lon="4.55356">
        <ele>541</ele>
        <time>2017-11-03T14:17:37Z</time>
      </trkpt>
      <trkpt lat="46.11208" lon="4.55375">
        <ele>541</ele>
        <time>2017-11-03T14:19:37Z</time>
      </trkpt>
      <trkpt lat="46.11209" lon="4.55396">
        <ele>542</ele>
        <time>2017-11-03T14:21:37Z</time>
      </trkpt>
      <trkpt lat="46.11212" lon="4.55416">
        <ele>541</ele>
        <time>2017-11-03T14:23:37Z</time>
      </trkpt>
      <trkpt lat="46.11217" lon="4.55448">
        <ele>542</ele>
        <time>2017-11-03T14:25:37Z</time>
      </trkpt>
      <trkpt lat="46.1122" lon="4.55468">
        <ele>542</ele>
        <time>2017-11-03T14:27:37Z</time>
      </trkpt>
      <trkpt lat="46.11227" lon="4.55512">
        <ele>544</ele>
        <time>2017-11-03T14:29:37Z</time>
      </trkpt>
      <trkpt lat="46.11237" lon="4.55569">
        <ele>547</ele>
        <time>2017-11-03T14:31:37Z</time>
      </trkpt>
      <trkpt lat="46.11238" lon="4.55574">
        <ele>548</ele>
        <time>2017-11-03T14:33:37Z</time>
      </trkpt>
      <trkpt lat="46.11239" lon="4.55586">
        <ele>549</ele>
        <time>2017-11-03T14:35:37Z</time>
      </trkpt>
      <trkpt lat="46.1124" lon="4.55598">
        <ele>549</ele>
        <time>2017-11-03T14:37:37Z</time>
      </trkpt>
      <trkpt lat="46.11241" lon="4.55612">
        <ele>550</ele>
        <time>2017-11-03T14:39:37Z</time>
      </trkpt>
      <trkpt lat="46.11242" lon="4.55628">
        <ele>551</ele>
        <time>2017-11-03T14:41:37Z</time>
      </trkpt>
      <trkpt lat="46.11242" lon="4.55647">
        <ele>552</ele>
        <time>2017-11-03T14:43:37Z</time>
      </trkpt>
      <trkpt lat="46.11241" lon="4.5567">
        <ele>554</ele>
        <time>2017-11-03T14:45:37Z</time>
      </trkpt>
      <trkpt lat="46.11238" lon="4.55708">
        <ele>555</ele>
        <time>2017-11-03T14:47:37Z</time>
      </trkpt>
      <trkpt lat="46.11236" lon="4.55743">
        <ele>556</ele>
        <time>2017-11-03T14:49:37Z</time>
      </trkpt>
      <trkpt lat="46.11233" lon="4.55793">
        <ele>554</ele>
        <time>2017-11-03T14:51:37Z</time>
      </trkpt>
      <trkpt lat="46.11231" lon="4.55806">
        <ele>553</ele>
        <time>2017-11-03T14:53:37Z</time>
      </trkpt>
      <trkpt lat="46.11227" lon="4.5582">
        <ele>553</ele>
        <time>2017-11-03T14:55:37Z</time>
      </trkpt>
      <trkpt lat="46.11221" lon="4.55832">
        <ele>553</ele>
        <time>2017-11-03T14:57:37Z</time>
      </trkpt>
      <trkpt lat="46.11216" lon="4.55841">
        <ele>552</ele>
        <time>2017-11-03T14:59:37Z</time>
      </trkpt>
      <trkpt lat="46.11209" lon="4.55847">
        <ele>552</ele>
        <time>2017-11-03T15:01:37Z</time>
      </trkpt>
      <trkpt lat="46.11202" lon="4.5585">
        <ele>553</ele>
        <time>2017-11-03T15:03:37Z</time>
      </trkpt>
      <trkpt lat="46.11196" lon="4.55851">
        <ele>553</ele>
        <time>2017-11-03T15:05:37Z</time>
      </trkpt>
      <trkpt lat="46.11194" lon="4.55851">
        <ele>553</ele>
        <time>2017-11-03T15:07:37Z</time>
      </trkpt>
      <trkpt lat="46.1119" lon="4.55849">
        <ele>554</ele>
        <time>2017-11-03T15:09:37Z</time>
      </trkpt>
      <trkpt lat="46.11173" lon="4.55841">
        <ele>558</ele>
        <time>2017-11-03T15:11:37Z</time>
      </trkpt>
      <trkpt lat="46.11157" lon="4.55826">
        <ele>560</ele>
        <time>2017-11-03T15:13:37Z</time>
      </trkpt>
      <trkpt lat="46.11153" lon="4.55822">
        <ele>560</ele>
        <time>2017-11-03T15:15:37Z</time>
      </trkpt>
      <trkpt lat="46.11125" lon="4.55792">
        <ele>560</ele>
        <time>2017-11-03T15:17:37Z</time>
      </trkpt>
      <trkpt lat="46.11112" lon="4.55774">
        <ele>561</ele>
        <time>2017-11-03T15:19:37Z</time>
      </trkpt>
      <trkpt lat="46.11099" lon="4.55756">
        <ele>563</ele>
        <time>2017-11-03T15:21:37Z</time>
      </trkpt>
      <trkpt lat="46.11074" lon="4.55715">
        <ele>566</ele>
        <time>2017-11-03T15:23:37Z</time>
      </trkpt>
      <trkpt lat="46.11066" lon="4.55701">
        <ele>566</ele>
        <time>2017-11-03T15:25:37Z</time>
      </trkpt>
      <trkpt lat="46.1106" lon="4.5569">
        <ele>567</ele>
        <time>2017-11-03T15:27:37Z</time>
      </trkpt>
      <trkpt lat="46.11055" lon="4.55678">
        <ele>567</ele>
        <time>2017-11-03T15:29:37Z</time>
      </trkpt>
      <trkpt lat="46.11055" lon="4.55677">
        <ele>568</ele>
        <time>2017-11-03T15:31:37Z</time>
      </trkpt>
      <trkpt lat="46.11048" lon="4.55664">
        <ele>568</ele>
        <time>2017-11-03T15:33:37Z</time>
      </trkpt>
      <trkpt lat="46.11037" lon="4.55642">
        <ele>570</ele>
        <time>2017-11-03T15:35:37Z</time>
      </trkpt>
      <trkpt lat="46.11022" lon="4.55612">
        <ele>573</ele>
        <time>2017-11-03T15:37:37Z</time>
      </trkpt>
      <trkpt lat="46.11014" lon="4.55599">
        <ele>575</ele>
        <time>2017-11-03T15:39:37Z</time>
      </trkpt>
      <trkpt lat="46.11006" lon="4.55584">
        <ele>577</ele>
        <time>2017-11-03T15:41:37Z</time>
      </trkpt>
      <trkpt lat="46.10975" lon="4.55539">
        <ele>579</ele>
        <time>2017-11-03T15:43:37Z</time>
      </trkpt>
      <trkpt lat="46.10954" lon="4.5551">
        <ele>581</ele>
        <time>2017-11-03T15:45:37Z</time>
      </trkpt>
      <trkpt lat="46.10939" lon="4.55489">
        <ele>582</ele>
        <time>2017-11-03T15:47:37Z</time>
      </trkpt>
      <trkpt lat="46.10932" lon="4.55478">
        <ele>583</ele>
        <time>2017-11-03T15:49:37Z</time>
      </trkpt>
      <trkpt lat="46.10921" lon="4.55455">
        <ele>584</ele>
        <time>2017-11-03T15:51:37Z</time>
      </trkpt>
      <trkpt lat="46.10916" lon="4.55441">
        <ele>586</ele>
        <time>2017-11-03T15:53:37Z</time>
      </trkpt>
      <trkpt lat="46.10898" lon="4.55377">
        <ele>587</ele>
        <time>2017-11-03T15:55:37Z</time>
      </trkpt>
      <trkpt lat="46.10891" lon="4.55354">
        <ele>587</ele>
        <time>2017-11-03T15:57:37Z</time>
      </trkpt>
      <trkpt lat="46.1088" lon="4.55313">
        <ele>588</ele>
        <time>2017-11-03T15:59:37Z</time>
      </trkpt>
      <trkpt lat="46.10874" lon="4.55292">
        <ele>589</ele>
        <time>2017-11-03T16:01:37Z</time>
      </trkpt>
      <trkpt lat="46.10865" lon="4.55261">
        <ele>591</ele>
        <time>2017-11-03T16:03:37Z</time>
      </trkpt>
      <trkpt lat="46.10856" lon="4.55239">
        <ele>592</ele>
        <time>2017-11-03T16:05:37Z</time>
      </trkpt>
      <trkpt lat="46.10851" lon="4.55229">
        <ele>593</ele>
        <time>2017-11-03T16:07:37Z</time>
      </trkpt>
      <trkpt lat="46.1084" lon="4.55206">
        <ele>596</ele>
        <time>2017-11-03T16:09:37Z</time>
      </trkpt>
      <trkpt lat="46.10827" lon="4.55182">
        <ele>599</ele>
        <time>2017-11-03T16:11:37Z</time>
      </trkpt>
      <trkpt lat="46.10795" lon="4.55125">
        <ele>603</ele>
        <time>2017-11-03T16:13:37Z</time>
      </trkpt>
      <trkpt lat="46.10764" lon="4.55064">
        <ele>606</ele>
        <time>2017-11-03T16:15:37Z</time>
      </trkpt>
      <trkpt lat="46.10758" lon="4.55051">
        <ele>607</ele>
        <time>2017-11-03T16:17:37Z</time>
      </trkpt>
      <trkpt lat="46.10754" lon="4.55038">
        <ele>608</ele>
        <time>2017-11-03T16:19:37Z</time>
      </trkpt>
      <trkpt lat="46.10731" lon="4.54959">
        <ele>615</ele>
        <time>2017-11-03T16:21:37Z</time>
      </trkpt>
      <trkpt lat="46.10724" lon="4.54935">
        <ele>618</ele>
        <time>2017-11-03T16:23:37Z</time>
      </trkpt>
      <trkpt lat="46.1072" lon="4.54924">
        <ele>619</ele>
        <time>2017-11-03T16:25:37Z</time>
      </trkpt>
      <trkpt lat="46.10718" lon="4.54918">
        <ele>619</ele>
        <time>2017-11-03T16:27:37Z</time>
      </trkpt>
      <trkpt lat="46.10714" lon="4.5491">
        <ele>620</ele>
        <time>2017-11-03T16:29:37Z</time>
      </trkpt>
      <trkpt lat="46.10709" lon="4.54898">
        <ele>621</ele>
        <time>2017-11-03T16:31:37Z</time>
      </trkpt>
      <trkpt lat="46.10707" lon="4.54896">
        <ele>621</ele>
        <time>2017-11-03T16:33:37Z</time>
      </trkpt>
      <trkpt lat="46.10702" lon="4.5489">
        <ele>622</ele>
        <time>2017-11-03T16:35:37Z</time>
      </trkpt>
      <trkpt lat="46.10694" lon="4.54879">
        <ele>622</ele>
        <time>2017-11-03T16:37:37Z</time>
      </trkpt>
      <trkpt lat="46.10688" lon="4.54874">
        <ele>622</ele>
        <time>2017-11-03T16:39:37Z</time>
      </trkpt>
      <trkpt lat="46.10683" lon="4.54871">
        <ele>621</ele>
        <time>2017-11-03T16:41:37Z</time>
      </trkpt>
      <trkpt lat="46.10671" lon="4.54864">
        <ele>620</ele>
        <time>2017-11-03T16:43:37Z</time>
      </trkpt>
      <trkpt lat="46.10659" lon="4.54859">
        <ele>620</ele>
        <time>2017-11-03T16:45:37Z</time>
      </trkpt>
      <trkpt lat="46.10647" lon="4.54855">
        <ele>619</ele>
        <time>2017-11-03T16:47:37Z</time>
      </trkpt>
      <trkpt lat="46.10641" lon="4.54853">
        <ele>619</ele>
        <time>2017-11-03T16:49:37Z</time>
      </trkpt>
      <trkpt lat="46.1063" lon="4.5485">
        <ele>618</ele>
        <time>2017-11-03T16:51:37Z</time>
      </trkpt>
      <trkpt lat="46.1062" lon="4.54847">
        <ele>618</ele>
        <time>2017-11-03T16:53:37Z</time>
      </trkpt>
      <trkpt lat="46.1061" lon="4.54845">
        <ele>617</ele>
        <time>2017-11-03T16:55:37Z</time>
      </trkpt>
      <trkpt lat="46.10601" lon="4.54842">
        <ele>616</ele>
        <time>2017-11-03T16:57:37Z</time>
      </trkpt>
      <trkpt lat="46.10597" lon="4.5484">
        <ele>616</ele>
        <time>2017-11-03T16:59:37Z</time>
      </trkpt>
      <trkpt lat="46.10593" lon="4.54837">
        <ele>616</ele>
        <time>2017-11-03T17:01:37Z</time>
      </trkpt>
      <trkpt lat="46.1059" lon="4.54834">
        <ele>617</ele>
        <time>2017-11-03T17:03:37Z</time>
      </trkpt>
      <trkpt lat="46.10587" lon="4.5483">
        <ele>617</ele>
        <time>2017-11-03T17:05:37Z</time>
      </trkpt>
      <trkpt lat="46.10582" lon="4.54824">
        <ele>618</ele>
        <time>2017-11-03T17:07:37Z</time>
      </trkpt>
      <trkpt lat="46.10577" lon="4.54815">
        <ele>619</ele>
        <time>2017-11-03T17:09:37Z</time>
      </trkpt>
      <trkpt lat="46.10547" lon="4.54762">
        <ele>624</ele>
        <time>2017-11-03T17:11:37Z</time>
      </trkpt>
      <trkpt lat="46.10539" lon="4.54749">
        <ele>625</ele>
        <time>2017-11-03T17:13:37Z</time>
      </trkpt>
      <trkpt lat="46.10537" lon="4.54745">
        <ele>626</ele>
        <time>2017-11-03T17:15:37Z</time>
      </trkpt>
      <trkpt lat="46.10527" lon="4.54728">
        <ele>629</ele>
        <time>2017-11-03T17:17:37Z</time>
      </trkpt>
      <trkpt lat="46.10519" lon="4.54712">
        <ele>632</ele>
        <time>2017-11-03T17:19:37Z</time>
      </trkpt>
      <trkpt lat="46.10508" lon="4.54692">
        <ele>636</ele>
        <time>2017-11-03T17:21:37Z</time>
      </trkpt>
      <trkpt lat="46.10502" lon="4.54683">
        <ele>638</ele>
        <time>2017-11-03T17:23:37Z</time>
      </trkpt>
      <trkpt lat="46.10497" lon="4.54677">
        <ele>639</ele>
        <time>2017-11-03T17:25:37Z</time>
      </trkpt>
      <trkpt lat="46.10492" lon="4.5467">
        <ele>641</ele>
        <time>2017-11-03T17:27:37Z</time>
      </trkpt>
      <trkpt lat="46.10485" lon="4.54663">
        <ele>643</ele>
        <time>2017-11-03T17:29:37Z</time>
      </trkpt>
      <trkpt lat="46.10481" lon="4.5466">
        <ele>643</ele>
        <time>2017-11-03T17:31:37Z</time>
      </trkpt>
      <trkpt lat="46.10475" lon="4.54656">
        <ele>644</ele>
        <time>2017-11-03T17:33:37Z</time>
      </trkpt>
      <trkpt lat="46.10469" lon="4.54652">
        <ele>645</ele>
        <time>2017-11-03T17:35:37Z</time>
      </trkpt>
      <trkpt lat="46.10462" lon="4.54649">
        <ele>646</ele>
        <time>2017-11-03T17:37:37Z</time>
      </trkpt>
      <trkpt lat="46.10455" lon="4.54647">
        <ele>646</ele>
        <time>2017-11-03T17:39:37Z</time>
      </trkpt>
      <trkpt lat="46.10448" lon="4.54645">
        <ele>646</ele>
        <time>2017-11-03T17:41:37Z</time>
      </trkpt>
      <trkpt lat="46.10433" lon="4.54644">
        <ele>645</ele>
        <time>2017-11-03T17:43:37Z</time>
      </trkpt>
      <trkpt lat="46.10356" lon="4.5464">
        <ele>643</ele>
        <time>2017-11-03T17:45:37Z</time>
      </trkpt>
      <trkpt lat="46.10344" lon="4.54637">
        <ele>644</ele>
        <time>2017-11-03T17:47:37Z</time>
      </trkpt>
      <trkpt lat="46.1033" lon="4.54634">
        <ele>644</ele>
        <time>2017-11-03T17:49:37Z</time>
      </trkpt>
      <trkpt lat="46.10319" lon="4.54628">
        <ele>644</ele>
        <time>2017-11-03T17:51:37Z</time>
      </trkpt>
      <trkpt lat="46.10307" lon="4.54622">
        <ele>645</ele>
        <time>2017-11-03T17:53:37Z</time>
      </trkpt>
      <trkpt lat="46.10295" lon="4.54613">
        <ele>645</ele>
        <time>2017-11-03T17:55:37Z</time>
      </trkpt>
      <trkpt lat="46.10285" lon="4.54606">
        <ele>646</ele>
        <time>2017-11-03T17:57:37Z</time>
      </trkpt>
      <trkpt lat="46.10271" lon="4.54593">
        <ele>647</ele>
        <time>2017-11-03T17:59:37Z</time>
      </trkpt>
      <trkpt lat="46.10254" lon="4.54577">
        <ele>649</ele>
        <time>2017-11-03T18:01:37Z</time>
      </trkpt>
      <trkpt lat="46.1024" lon="4.54562">
        <ele>651</ele>
        <time>2017-11-03T18:03:37Z</time>
      </trkpt>
      <trkpt lat="46.10204" lon="4.54524">
        <ele>653</ele>
        <time>2017-11-03T18:05:37Z</time>
      </trkpt>
      <trkpt lat="46.10188" lon="4.54504">
        <ele>655</ele>
        <time>2017-11-03T18:07:37Z</time>
      </trkpt>
      <trkpt lat="46.10178" lon="4.5449">
        <ele>656</ele>
        <time>2017-11-03T18:09:37Z</time>
      </trkpt>
      <trkpt lat="46.10168" lon="4.54473">
        <ele>658</ele>
        <time>2017-11-03T18:11:37Z</time>
      </trkpt>
      <trkpt lat="46.10161" lon="4.54458">
        <ele>661</ele>
        <time>2017-11-03T18:13:37Z</time>
      </trkpt>
      <trkpt lat="46.10152" lon="4.54436">
        <ele>665</ele>
        <time>2017-11-03T18:15:37Z</time>
      </trkpt>
      <trkpt lat="46.1014" lon="4.54404">
        <ele>672</ele>
        <time>2017-11-03T18:17:37Z</time>
      </trkpt>
      <trkpt lat="46.10133" lon="4.54389">
        <ele>674</ele>
        <time>2017-11-03T18:19:37Z</time>
      </trkpt>
      <trkpt lat="46.10127" lon="4.54378">
        <ele>676</ele>
        <time>2017-11-03T18:21:37Z</time>
      </trkpt>
      <trkpt lat="46.10119" lon="4.54369">
        <ele>677</ele>
        <time>2017-11-03T18:23:37Z</time>
      </trkpt>
      <trkpt lat="46.10114" lon="4.54364">
        <ele>677</ele>
        <time>2017-11-03T18:25:37Z</time>
      </trkpt>
      <trkpt lat="46.10108" lon="4.5436">
        <ele>677</ele>
        <time>2017-11-03T18:27:37Z</time>
      </trkpt>
      <trkpt lat="46.101" lon="4.54355">
        <ele>677</ele>
        <time>2017-11-03T18:29:37Z</time>
      </trkpt>
      <trkpt lat="46.10089" lon="4.54352">
        <ele>676</ele>
        <time>2017-11-03T18:31:37Z</time>
      </trkpt>
      <trkpt lat="46.10078" lon="4.5435">
        <ele>676</ele>
        <time>2017-11-03T18:33:37Z</time>
      </trkpt>
      <trkpt lat="46.10031" lon="4.54347">
        <ele>676</ele>
        <time>2017-11-03T18:35:37Z</time>
      </trkpt>
      <trkpt lat="46.09994" lon="4.54346">
        <ele>675</ele>
        <time>2017-11-03T18:37:37Z</time>
      </trkpt>
      <trkpt lat="46.0997" lon="4.54344">
        <ele>674</ele>
        <time>2017-11-03T18:39:37Z</time>
      </trkpt>
      <trkpt lat="46.0996" lon="4.54342">
        <ele>674</ele>
        <time>2017-11-03T18:41:37Z</time>
      </trkpt>
      <trkpt lat="46.09944" lon="4.54338">
        <ele>674</ele>
        <time>2017-11-03T18:43:37Z</time>
      </trkpt>
      <trkpt lat="46.09929" lon="4.54332">
        <ele>675</ele>
        <time>2017-11-03T18:45:37Z</time>
      </trkpt>
      <trkpt lat="46.09899" lon="4.54318">
        <ele>678</ele>
        <time>2017-11-03T18:47:37Z</time>
      </trkpt>
      <trkpt lat="46.0987" lon="4.54303">
        <ele>682</ele>
        <time>2017-11-03T18:49:37Z</time>
      </trkpt>
      <trkpt lat="46.09849" lon="4.54292">
        <ele>685</ele>
        <time>2017-11-03T18:51:37Z</time>
      </trkpt>
      <trkpt lat="46.09833" lon="4.54283">
        <ele>686</ele>
        <time>2017-11-03T18:53:37Z</time>
      </trkpt>
      <trkpt lat="46.09817" lon="4.54274">
        <ele>687</ele>
        <time>2017-11-03T18:55:37Z</time>
      </trkpt>
      <trkpt lat="46.09772" lon="4.54254">
        <ele>687</ele>
        <time>2017-11-03T18:57:37Z</time>
      </trkpt>
      <trkpt lat="46.09765" lon="4.54251">
        <ele>687</ele>
        <time>2017-11-03T18:59:37Z</time>
      </trkpt>
      <trkpt lat="46.09748" lon="4.5424">
        <ele>686</ele>
        <time>2017-11-03T19:01:37Z</time>
      </trkpt>
      <trkpt lat="46.09739" lon="4.54231">
        <ele>687</ele>
        <time>2017-11-03T19:03:37Z</time>
      </trkpt>
      <trkpt lat="46.09734" lon="4.54222">
        <ele>688</ele>
        <time>2017-11-03T19:05:37Z</time>
      </trkpt>
      <trkpt lat="46.09731" lon="4.54216">
        <ele>688</ele>
        <time>2017-11-03T19:07:37Z</time>
      </trkpt>
      <trkpt lat="46.09729" lon="4.54213">
        <ele>689</ele>
        <time>2017-11-03T19:09:37Z</time>
      </trkpt>
      <trkpt lat="46.09726" lon="4.54203">
        <ele>689</ele>
        <time>2017-11-03T19:11:37Z</time>
      </trkpt>
      <trkpt lat="46.09725" lon="4.54194">
        <ele>690</ele>
        <time>2017-11-03T19:13:37Z</time>
      </trkpt>
      <trkpt lat="46.09725" lon="4.54187">
        <ele>690</ele>
        <time>2017-11-03T19:15:37Z</time>
      </trkpt>
      <trkpt lat="46.09726" lon="4.54179">
        <ele>690</ele>
        <time>2017-11-03T19:17:37Z</time>
      </trkpt>
      <trkpt lat="46.09728" lon="4.54163">
        <ele>691</ele>
        <time>2017-11-03T19:19:37Z</time>
      </trkpt>
      <trkpt lat="46.09732" lon="4.54139">
        <ele>690</ele>
        <time>2017-11-03T19:21:37Z</time>
      </trkpt>
      <trkpt lat="46.09739" lon="4.54097">
        <ele>690</ele>
        <time>2017-11-03T19:23:37Z</time>
      </trkpt>
      <trkpt lat="46.09749" lon="4.54025">
        <ele>686</ele>
        <time>2017-11-03T19:25:37Z</time>
      </trkpt>
      <trkpt lat="46.0975" lon="4.54016">
        <ele>685</ele>
        <time>2017-11-03T19:27:37Z</time>
      </trkpt>
      <trkpt lat="46.0975" lon="4.54014">
        <ele>685</ele>
        <time>2017-11-03T19:29:37Z</time>
      </trkpt>
      <trkpt lat="46.09752" lon="4.54001">
        <ele>685</ele>
        <time>2017-11-03T19:31:37Z</time>
      </trkpt>
      <trkpt lat="46.09754" lon="4.53983">
        <ele>684</ele>
        <time>2017-11-03T19:33:37Z</time>
      </trkpt>
      <trkpt lat="46.09758" lon="4.53953">
        <ele>682</ele>
        <time>2017-11-03T19:35:37Z</time>
      </trkpt>
      <trkpt lat="46.0976" lon="4.53941">
        <ele>681</ele>
        <time>2017-11-03T19:37:37Z</time>
      </trkpt>
      <trkpt lat="46.09761" lon="4.53934">
        <ele>681</ele>
        <time>2017-11-03T19:39:37Z</time>
      </trkpt>
      <trkpt lat="46.09763" lon="4.53925">
        <ele>680</ele>
        <time>2017-11-03T19:41:37Z</time>
      </trkpt>
      <trkpt lat="46.09765" lon="4.53918">
        <ele>680</ele>
        <time>2017-11-03T19:43:37Z</time>
      </trkpt>
      <trkpt lat="46.09767" lon="4.53906">
        <ele>679</ele>
        <time>2017-11-03T19:45:37Z</time>
      </trkpt>
      <trkpt lat="46.09769" lon="4.53898">
        <ele>678</ele>
        <time>2017-11-03T19:47:37Z</time>
      </trkpt>
      <trkpt lat="46.09772" lon="4.53891">
        <ele>678</ele>
        <time>2017-11-03T19:49:37Z</time>
      </trkpt>
      <trkpt lat="46.09774" lon="4.53884">
        <ele>677</ele>
        <time>2017-11-03T19:51:37Z</time>
      </trkpt>
      <trkpt lat="46.09777" lon="4.53877">
        <ele>677</ele>
        <time>2017-11-03T19:53:37Z</time>
      </trkpt>
      <trkpt lat="46.09781" lon="4.53867">
        <ele>677</ele>
        <time>2017-11-03T19:55:37Z</time>
      </trkpt>
      <trkpt lat="46.09785" lon="4.53858">
        <ele>676</ele>
        <time>2017-11-03T19:57:37Z</time>
      </trkpt>
      <trkpt lat="46.09791" lon="4.53846">
        <ele>676</ele>
        <time>2017-11-03T19:59:37Z</time>
      </trkpt>
      <trkpt lat="46.09799" lon="4.53831">
        <ele>676</ele>
        <time>2017-11-03T20:01:37Z</time>
      </trkpt>
      <trkpt lat="46.09804" lon="4.53824">
        <ele>676</ele>
        <time>2017-11-03T20:03:37Z</time>
      </trkpt>
      <trkpt lat="46.09808" lon="4.53816">
        <ele>676</ele>
        <time>2017-11-03T20:05:37Z</time>
      </trkpt>
      <trkpt lat="46.09827" lon="4.53783">
        <ele>676</ele>
        <time>2017-11-03T20:07:37Z</time>
      </trkpt>
      <trkpt lat="46.09838" lon="4.53761">
        <ele>676</ele>
        <time>2017-11-03T20:09:37Z</time>
      </trkpt>
      <trkpt lat="46.09847" lon="4.53741">
        <ele>674</ele>
        <time>2017-11-03T20:11:37Z</time>
      </trkpt>
      <trkpt lat="46.09859" lon="4.53718">
        <ele>672</ele>
        <time>2017-11-03T20:13:37Z</time>
      </trkpt>
      <trkpt lat="46.09873" lon="4.53696">
        <ele>671</ele>
        <time>2017-11-03T20:15:37Z</time>
      </trkpt>
      <trkpt lat="46.09888" lon="4.53677">
        <ele>670</ele>
        <time>2017-11-03T20:17:37Z</time>
      </trkpt>
      <trkpt lat="46.09915" lon="4.53646">
        <ele>668</ele>
        <time>2017-11-03T20:19:37Z</time>
      </trkpt>
      <trkpt lat="46.09929" lon="4.53635">
        <ele>666</ele>
        <time>2017-11-03T20:21:37Z</time>
      </trkpt>
      <trkpt lat="46.09948" lon="4.53623">
        <ele>665</ele>
        <time>2017-11-03T20:23:37Z</time>
      </trkpt>
      <trkpt lat="46.10013" lon="4.53586">
        <ele>663</ele>
        <time>2017-11-03T20:25:37Z</time>
      </trkpt>
      <trkpt lat="46.10048" lon="4.53565">
        <ele>662</ele>
        <time>2017-11-03T20:27:37Z</time>
      </trkpt>
      <trkpt lat="46.10073" lon="4.53548">
        <ele>662</ele>
        <time>2017-11-03T20:29:37Z</time>
      </trkpt>
      <trkpt lat="46.10093" lon="4.5353">
        <ele>662</ele>
        <time>2017-11-03T20:31:37Z</time>
      </trkpt>
      <trkpt lat="46.10108" lon="4.53514">
        <ele>663</ele>
        <time>2017-11-03T20:33:37Z</time>
      </trkpt>
      <trkpt lat="46.10112" lon="4.53508">
        <ele>663</ele>
        <time>2017-11-03T20:35:37Z</time>
      </trkpt>
      <trkpt lat="46.10119" lon="4.53498">
        <ele>663</ele>
        <time>2017-11-03T20:37:37Z</time>
      </trkpt>
      <trkpt lat="46.10124" lon="4.53489">
        <ele>664</ele>
        <time>2017-11-03T20:39:37Z</time>
      </trkpt>
      <trkpt lat="46.10126" lon="4.53484">
        <ele>665</ele>
        <time>2017-11-03T20:41:37Z</time>
      </trkpt>
      <trkpt lat="46.10127" lon="4.53478">
        <ele>665</ele>
        <time>2017-11-03T20:43:37Z</time>
      </trkpt>
      <trkpt lat="46.10127" lon="4.53471">
        <ele>665</ele>
        <time>2017-11-03T20:45:37Z</time>
      </trkpt>
      <trkpt lat="46.10128" lon="4.53465">
        <ele>665</ele>
        <time>2017-11-03T20:47:37Z</time>
      </trkpt>
      <trkpt lat="46.10127" lon="4.53459">
        <ele>665</ele>
        <time>2017-11-03T20:49:37Z</time>
      </trkpt>
      <trkpt lat="46.10127" lon="4.53451">
        <ele>665</ele>
        <time>2017-11-03T20:51:37Z</time>
      </trkpt>
      <trkpt lat="46.10125" lon="4.53443">
        <ele>665</ele>
        <time>2017-11-03T20:53:37Z</time>
      </trkpt>
      <trkpt lat="46.10123" lon="4.53435">
        <ele>665</ele>
        <time>2017-11-03T20:55:37Z</time>
      </trkpt>
      <trkpt lat="46.1012" lon="4.53425">
        <ele>664</ele>
        <time>2017-11-03T20:57:37Z</time>
      </trkpt>
      <trkpt lat="46.10112" lon="4.53404">
        <ele>663</ele>
        <time>2017-11-03T20:59:37Z</time>
      </trkpt>
      <trkpt lat="46.10107" lon="4.53392">
        <ele>663</ele>
        <time>2017-11-03T21:01:37Z</time>
      </trkpt>
      <trkpt lat="46.10102" lon="4.53376">
        <ele>662</ele>
        <time>2017-11-03T21:03:37Z</time>
      </trkpt>
      <trkpt lat="46.10098" lon="4.53363">
        <ele>662</ele>
        <time>2017-11-03T21:05:37Z</time>
      </trkpt>
      <trkpt lat="46.10093" lon="4.53345">
        <ele>662</ele>
        <time>2017-11-03T21:07:37Z</time>
      </trkpt>
      <trkpt lat="46.10088" lon="4.53328">
        <ele>661</ele>
        <time>2017-11-03T21:09:37Z</time>
      </trkpt>
      <trkpt lat="46.10085" lon="4.53313">
        <ele>661</ele>
        <time>2017-11-03T21:11:37Z</time>
      </trkpt>
      <trkpt lat="46.10083" lon="4.53299">
        <ele>662</ele>
        <time>2017-11-03T21:13:37Z</time>
      </trkpt>
      <trkpt lat="46.10081" lon="4.5329">
        <ele>662</ele>
        <time>2017-11-03T21:15:37Z</time>
      </trkpt>
      <trkpt lat="46.10079" lon="4.53286">
        <ele>662</ele>
        <time>2017-11-03T21:17:37Z</time>
      </trkpt>
      <trkpt lat="46.10077" lon="4.53282">
        <ele>662</ele>
        <time>2017-11-03T21:19:37Z</time>
      </trkpt>
      <trkpt lat="46.10075" lon="4.53279">
        <ele>662</ele>
        <time>2017-11-03T21:21:37Z</time>
      </trkpt>
      <trkpt lat="46.10072" lon="4.53276">
        <ele>662</ele>
        <time>2017-11-03T21:23:37Z</time>
      </trkpt>
      <trkpt lat="46.10069" lon="4.53275">
        <ele>662</ele>
        <time>2017-11-03T21:25:37Z</time>
      </trkpt>
      <trkpt lat="46.10069" lon="4.53275">
        <ele>662</ele>
        <time>2017-11-03T21:27:37Z</time>
      </trkpt>
      <trkpt lat="46.10067" lon="4.5327">
        <ele>663</ele>
        <time>2017-11-03T21:29:37Z</time>
      </trkpt>
      <trkpt lat="46.10065" lon="4.53266">
        <ele>663</ele>
        <time>2017-11-03T21:31:37Z</time>
      </trkpt>
      <trkpt lat="46.10063" lon="4.53263">
        <ele>663</ele>
        <time>2017-11-03T21:33:37Z</time>
      </trkpt>
      <trkpt lat="46.10062" lon="4.53262">
        <ele>663</ele>
        <time>2017-11-03T21:35:37Z</time>
      </trkpt>
      <trkpt lat="46.10059" lon="4.53261">
        <ele>663</ele>
        <time>2017-11-03T21:37:37Z</time>
      </trkpt>
      <trkpt lat="46.10055" lon="4.53262">
        <ele>663</ele>
        <time>2017-11-03T21:39:37Z</time>
      </trkpt>
      <trkpt lat="46.10051" lon="4.53263">
        <ele>663</ele>
        <time>2017-11-03T21:41:37Z</time>
      </trkpt>
      <trkpt lat="46.10043" lon="4.53266">
        <ele>662</ele>
        <time>2017-11-03T21:43:37Z</time>
      </trkpt>
      <trkpt lat="46.10036" lon="4.53269">
        <ele>662</ele>
        <time>2017-11-03T21:45:37Z</time>
      </trkpt>
      <trkpt lat="46.10027" lon="4.53272">
        <ele>661</ele>
        <time>2017-11-03T21:47:37Z</time>
      </trkpt>
      <trkpt lat="46.10018" lon="4.53273">
        <ele>661</ele>
        <time>2017-11-03T21:49:37Z</time>
      </trkpt>
      <trkpt lat="46.10011" lon="4.53271">
        <ele>661</ele>
        <time>2017-11-03T21:51:37Z</time>
      </trkpt>
      <trkpt lat="46.10005" lon="4.53268">
        <ele>661</ele>
        <time>2017-11-03T21:53:37Z</time>
      </trkpt>
      <trkpt lat="46.09997" lon="4.5326">
        <ele>662</ele>
        <time>2017-11-03T21:55:37Z</time>
      </trkpt>
      <trkpt lat="46.0999" lon="4.53247">
        <ele>665</ele>
        <time>2017-11-03T21:57:37Z</time>
      </trkpt>
      <trkpt lat="46.09988" lon="4.53236">
        <ele>667</ele>
        <time>2017-11-03T21:59:37Z</time>
      </trkpt>
      <trkpt lat="46.09984" lon="4.53226">
        <ele>669</ele>
        <time>2017-11-03T22:01:37Z</time>
      </trkpt>
      <trkpt lat="46.09976" lon="4.53213">
        <ele>672</ele>
        <time>2017-11-03T22:03:37Z</time>
      </trkpt>
      <trkpt lat="46.09967" lon="4.53203">
        <ele>674</ele>
        <time>2017-11-03T22:05:37Z</time>
      </trkpt>
      <trkpt lat="46.09956" lon="4.53195">
        <ele>676</ele>
        <time>2017-11-03T22:07:37Z</time>
      </trkpt>
      <trkpt lat="46.0994" lon="4.53191">
        <ele>676</ele>
        <time>2017-11-03T22:09:37Z</time>
      </trkpt>
      <trkpt lat="46.09927" lon="4.53188">
        <ele>676</ele>
        <time>2017-11-03T22:11:37Z</time>
      </trkpt>
      <trkpt lat="46.09914" lon="4.53183">
        <ele>677</ele>
        <time>2017-11-03T22:13:37Z</time>
      </trkpt>
      <trkpt lat="46.09902" lon="4.53177">
        <ele>677</ele>
        <time>2017-11-03T22:15:37Z</time>
      </trkpt>
      <trkpt lat="46.0989" lon="4.53166">
        <ele>679</ele>
        <time>2017-11-03T22:17:37Z</time>
      </trkpt>
      <trkpt lat="46.09879" lon="4.53151">
        <ele>681</ele>
        <time>2017-11-03T22:19:37Z</time>
      </trkpt>
      <trkpt lat="46.09873" lon="4.53141">
        <ele>683</ele>
        <time>2017-11-03T22:21:37Z</time>
      </trkpt>
      <trkpt lat="46.09853" lon="4.53108">
        <ele>689</ele>
        <time>2017-11-03T22:23:37Z</time>
      </trkpt>
      <trkpt lat="46.09845" lon="4.53092">
        <ele>693</ele>
        <time>2017-11-03T22:25:37Z</time>
      </trkpt>
      <trkpt lat="46.09837" lon="4.53074">
        <ele>694</ele>
        <time>2017-11-03T22:27:37Z</time>
      </trkpt>
      <trkpt lat="46.09834" lon="4.53062">
        <ele>695</ele>
        <time>2017-11-03T22:29:37Z</time>
      </trkpt>
      <trkpt lat="46.09833" lon="4.53055">
        <ele>695</ele>
        <time>2017-11-03T22:31:37Z</time>
      </trkpt>
      <trkpt lat="46.09833" lon="4.53048">
        <ele>695</ele>
        <time>2017-11-03T22:33:37Z</time>
      </trkpt>
      <trkpt lat="46.09834" lon="4.53041">
        <ele>695</ele>
        <time>2017-11-03T22:35:37Z</time>
      </trkpt>
      <trkpt lat="46.09835" lon="4.53035">
        <ele>695</ele>
        <time>2017-11-03T22:37:37Z</time>
      </trkpt>
      <trkpt lat="46.09837" lon="4.5303">
        <ele>696</ele>
        <time>2017-11-03T22:39:37Z</time>
      </trkpt>
      <trkpt lat="46.09841" lon="4.53025">
        <ele>696</ele>
        <time>2017-11-03T22:41:37Z</time>
      </trkpt>
      <trkpt lat="46.09863" lon="4.53">
        <ele>701</ele>
        <time>2017-11-03T22:43:37Z</time>
      </trkpt>
      <trkpt lat="46.09875" lon="4.52985">
        <ele>701</ele>
        <time>2017-11-03T22:45:37Z</time>
      </trkpt>
      <trkpt lat="46.09886" lon="4.52968">
        <ele>702</ele>
        <time>2017-11-03T22:47:37Z</time>
      </trkpt>
      <trkpt lat="46.09896" lon="4.52948">
        <ele>702</ele>
        <time>2017-11-03T22:49:37Z</time>
      </trkpt>
      <trkpt lat="46.09906" lon="4.52925">
        <ele>703</ele>
        <time>2017-11-03T22:51:37Z</time>
      </trkpt>
      <trkpt lat="46.09913" lon="4.52909">
        <ele>703</ele>
        <time>2017-11-03T22:53:37Z</time>
      </trkpt>
      <trkpt lat="46.0992" lon="4.52891">
        <ele>703</ele>
        <time>2017-11-03T22:55:37Z</time>
      </trkpt>
      <trkpt lat="46.0993" lon="4.52867">
        <ele>704</ele>
        <time>2017-11-03T22:57:37Z</time>
      </trkpt>
      <trkpt lat="46.09936" lon="4.52851">
        <ele>705</ele>
        <time>2017-11-03T22:59:37Z</time>
      </trkpt>
      <trkpt lat="46.09945" lon="4.52831">
        <ele>707</ele>
        <time>2017-11-03T23:01:37Z</time>
      </trkpt>
      <trkpt lat="46.09958" lon="4.52811">
        <ele>712</ele>
        <time>2017-11-03T23:03:37Z</time>
      </trkpt>
      <trkpt lat="46.09987" lon="4.52753">
        <ele>721</ele>
        <time>2017-11-03T23:05:37Z</time>
      </trkpt>
      <trkpt lat="46.09988" lon="4.52749">
        <ele>722</ele>
        <time>2017-11-03T23:07:37Z</time>
      </trkpt>
      <trkpt lat="46.09993" lon="4.52741">
        <ele>724</ele>
        <time>2017-11-03T23:09:37Z</time>
      </trkpt>
      <trkpt lat="46.10015" lon="4.52683">
        <ele>733</ele>
        <time>2017-11-03T23:11:37Z</time>
      </trkpt>
      <trkpt lat="46.10029" lon="4.5264">
        <ele>739</ele>
        <time>2017-11-03T23:13:37Z</time>
      </trkpt>
      <trkpt lat="46.10042" lon="4.52602">
        <ele>744</ele>
        <time>2017-11-03T23:15:37Z</time>
      </trkpt>
      <trkpt lat="46.10047" lon="4.52585">
        <ele>745</ele>
        <time>2017-11-03T23:17:37Z</time>
      </trkpt>
      <trkpt lat="46.10052" lon="4.52568">
        <ele>747</ele>
        <time>2017-11-03T23:19:37Z</time>
      </trkpt>
      <trkpt lat="46.10057" lon="4.5255">
        <ele>748</ele>
        <time>2017-11-03T23:21:37Z</time>
      </trkpt>
      <trkpt lat="46.10059" lon="4.52534">
        <ele>749</ele>
        <time>2017-11-03T23:23:37Z</time>
      </trkpt>
      <trkpt lat="46.1006" lon="4.52522">
        <ele>749</ele>
        <time>2017-11-03T23:25:37Z</time>
      </trkpt>
      <trkpt lat="46.1006" lon="4.52513">
        <ele>749</ele>
        <time>2017-11-03T23:27:37Z</time>
      </trkpt>
      <trkpt lat="46.1006" lon="4.52503">
        <ele>749</ele>
        <time>2017-11-03T23:29:37Z</time>
      </trkpt>
      <trkpt lat="46.10061" lon="4.52491">
        <ele>749</ele>
        <time>2017-11-03T23:31:37Z</time>
      </trkpt>
      <trkpt lat="46.10062" lon="4.52479">
        <ele>750</ele>
        <time>2017-11-03T23:33:37Z</time>
      </trkpt>
      <trkpt lat="46.10064" lon="4.52465">
        <ele>751</ele>
        <time>2017-11-03T23:35:37Z</time>
      </trkpt>
      <trkpt lat="46.10065" lon="4.52455">
        <ele>751</ele>
        <time>2017-11-03T23:37:37Z</time>
      </trkpt>
      <trkpt lat="46.10065" lon="4.52455">
        <ele>751</ele>
        <time>2017-11-03T23:39:37Z</time>
      </trkpt>
      <trkpt lat="46.10073" lon="4.52457">
        <ele>752</ele>
        <time>2017-11-03T23:41:37Z</time>
      </trkpt>
      <trkpt lat="46.10078" lon="4.5246">
        <ele>752</ele>
        <time>2017-11-03T23:43:37Z</time>
      </trkpt>
      <trkpt lat="46.10086" lon="4.52466">
        <ele>753</ele>
        <time>2017-11-03T23:45:37Z</time>
      </trkpt>
      <trkpt lat="46.1009" lon="4.52471">
        <ele>752</ele>
        <time>2017-11-03T23:47:37Z</time>
      </trkpt>
      <trkpt lat="46.10094" lon="4.52472">
        <ele>752</ele>
        <time>2017-11-03T23:49:37Z</time>
      </trkpt>
      <trkpt lat="46.101" lon="4.52474">
        <ele>751</ele>
        <time>2017-11-03T23:51:37Z</time>
      </trkpt>
      <trkpt lat="46.10106" lon="4.52474">
        <ele>750</ele>
        <time>2017-11-03T23:53:37Z</time>
      </trkpt>
      <trkpt lat="46.10115" lon="4.52478">
        <ele>750</ele>
        <time>2017-11-03T23:55:37Z</time>
      </trkpt>
      <trkpt lat="46.10129" lon="4.52485">
        <ele>749</ele>
        <time>2017-11-03T23:57:37Z</time>
      </trkpt>
      <trkpt lat="46.10155" lon="4.52504">
        <ele>749</ele>
        <time>2017-11-03T23:59:37Z</time>
      </trkpt>
      <trkpt lat="46.1019" lon="4.52521">
        <ele>747</ele>
        <time>2017-11-04T00:01:37Z</time>
      </trkpt>
      <trkpt lat="46.1023" lon="4.52538">
        <ele>743</ele>
        <time>2017-11-04T00:03:37Z</time>
      </trkpt>
      <trkpt lat="46.1024" lon="4.52542">
        <ele>743</ele>
        <time>2017-11-04T00:05:37Z</time>
      </trkpt>
      <trkpt lat="46.1025" lon="4.52548">
        <ele>742</ele>
        <time>2017-11-04T00:07:37Z</time>
      </trkpt>
      <trkpt lat="46.10269" lon="4.52562">
        <ele>741</ele>
        <time>2017-11-04T00:09:37Z</time>
      </trkpt>
      <trkpt lat="46.10288" lon="4.52578">
        <ele>740</ele>
        <time>2017-11-04T00:11:37Z</time>
      </trkpt>
      <trkpt lat="46.10304" lon="4.52594">
        <ele>740</ele>
        <time>2017-11-04T00:13:37Z</time>
      </trkpt>
      <trkpt lat="46.10316" lon="4.52608">
        <ele>739</ele>
        <time>2017-11-04T00:15:37Z</time>
      </trkpt>
      <trkpt lat="46.10325" lon="4.52623">
        <ele>740</ele>
        <time>2017-11-04T00:17:37Z</time>
      </trkpt>
      <trkpt lat="46.10335" lon="4.52638">
        <ele>741</ele>
        <time>2017-11-04T00:19:37Z</time>
      </trkpt>
      <trkpt lat="46.10342" lon="4.52648">
        <ele>743</ele>
        <time>2017-11-04T00:21:37Z</time>
      </trkpt>
      <trkpt lat="46.10352" lon="4.5266">
        <ele>745</ele>
        <time>2017-11-04T00:23:37Z</time>
      </trkpt>
      <trkpt lat="46.10364" lon="4.52672">
        <ele>747</ele>
        <time>2017-11-04T00:25:37Z</time>
      </trkpt>
      <trkpt lat="46.10379" lon="4.52678">
        <ele>748</ele>
        <time>2017-11-04T00:27:37Z</time>
      </trkpt>
      <trkpt lat="46.10393" lon="4.52682">
        <ele>748</ele>
        <time>2017-11-04T00:29:37Z</time>
      </trkpt>
      <trkpt lat="46.10406" lon="4.52683">
        <ele>747</ele>
        <time>2017-11-04T00:31:37Z</time>
      </trkpt>
      <trkpt lat="46.1042" lon="4.52683">
        <ele>746</ele>
        <time>2017-11-04T00:33:37Z</time>
      </trkpt>
      <trkpt lat="46.10462" lon="4.5268">
        <ele>738</ele>
        <time>2017-11-04T00:35:37Z</time>
      </trkpt>
      <trkpt lat="46.10474" lon="4.52681">
        <ele>736</ele>
        <time>2017-11-04T00:37:37Z</time>
      </trkpt>
      <trkpt lat="46.10491" lon="4.52684">
        <ele>734</ele>
        <time>2017-11-04T00:39:37Z</time>
      </trkpt>
      <trkpt lat="46.10499" lon="4.52687">
        <ele>733</ele>
        <time>2017-11-04T00:41:37Z</time>
      </trkpt>
      <trkpt lat="46.10512" lon="4.52692">
        <ele>732</ele>
        <time>2017-11-04T00:43:37Z</time>
      </trkpt>
      <trkpt lat="46.10539" lon="4.52705">
        <ele>731</ele>
        <time>2017-11-04T00:45:37Z</time>
      </trkpt>
      <trkpt lat="46.10558" lon="4.52711">
        <ele>729</ele>
        <time>2017-11-04T00:47:37Z</time>
      </trkpt>
      <trkpt lat="46.10579" lon="4.52717">
        <ele>726</ele>
        <time>2017-11-04T00:49:37Z</time>
      </trkpt>
      <trkpt lat="46.10586" lon="4.52717">
        <ele>726</ele>
        <time>2017-11-04T00:51:37Z</time>
      </trkpt>
      <trkpt lat="46.10615" lon="4.52719">
        <ele>729</ele>
        <time>2017-11-04T00:53:37Z</time>
      </trkpt>
      <trkpt lat="46.10659" lon="4.52717">
        <ele>734</ele>
        <time>2017-11-04T00:55:37Z</time>
      </trkpt>
      <trkpt lat="46.1067" lon="4.52708">
        <ele>735</ele>
        <time>2017-11-04T00:57:37Z</time>
      </trkpt>
      <trkpt lat="46.10675" lon="4.52699">
        <ele>735</ele>
        <time>2017-11-04T00:59:37Z</time>
      </trkpt>
      <trkpt lat="46.1068" lon="4.52685">
        <ele>735</ele>
        <time>2017-11-04T01:01:37Z</time>
      </trkpt>
      <trkpt lat="46.10692" lon="4.52644">
        <ele>736</ele>
        <time>2017-11-04T01:03:37Z</time>
      </trkpt>
      <trkpt lat="46.10701" lon="4.52615">
        <ele>737</ele>
        <time>2017-11-04T01:05:37Z</time>
      </trkpt>
      <trkpt lat="46.10712" lon="4.52587">
        <ele>738</ele>
        <time>2017-11-04T01:07:37Z</time>
      </trkpt>
      <trkpt lat="46.10722" lon="4.52546">
        <ele>741</ele>
        <time>2017-11-04T01:09:37Z</time>
      </trkpt>
      <trkpt lat="46.10728" lon="4.5251">
        <ele>743</ele>
        <time>2017-11-04T01:11:37Z</time>
      </trkpt>
      <trkpt lat="46.10728" lon="4.525">
        <ele>743</ele>
        <time>2017-11-04T01:13:37Z</time>
      </trkpt>
      <trkpt lat="46.10728" lon="4.5249">
        <ele>742</ele>
        <time>2017-11-04T01:15:37Z</time>
      </trkpt>
      <trkpt lat="46.10728" lon="4.5248">
        <ele>742</ele>
        <time>2017-11-04T01:17:37Z</time>
      </trkpt>
      <trkpt lat="46.10727" lon="4.52473">
        <ele>742</ele>
        <time>2017-11-04T01:19:37Z</time>
      </trkpt>
      <trkpt lat="46.10728" lon="4.52466">
        <ele>742</ele>
        <time>2017-11-04T01:21:37Z</time>
      </trkpt>
      <trkpt lat="46.10729" lon="4.52463">
        <ele>742</ele>
        <time>2017-11-04T01:23:37Z</time>
      </trkpt>
      <trkpt lat="46.10732" lon="4.52457">
        <ele>743</ele>
        <time>2017-11-04T01:25:37Z</time>
      </trkpt>
      <trkpt lat="46.10732" lon="4.52457">
        <ele>743</ele>
        <time>2017-11-04T01:27:37Z</time>
      </trkpt>
      <trkpt lat="46.10737" lon="4.52456">
        <ele>744</ele>
        <time>2017-11-04T01:29:37Z</time>
      </trkpt>
      <trkpt lat="46.10747" lon="4.5246">
        <ele>746</ele>
        <time>2017-11-04T01:31:37Z</time>
      </trkpt>
      <trkpt lat="46.10754" lon="4.52463">
        <ele>747</ele>
        <time>2017-11-04T01:33:37Z</time>
      </trkpt>
      <trkpt lat="46.10791" lon="4.52468">
        <ele>747</ele>
        <time>2017-11-04T01:35:37Z</time>
      </trkpt>
      <trkpt lat="46.10829" lon="4.52482">
        <ele>748</ele>
        <time>2017-11-04T01:37:37Z</time>
      </trkpt>
      <trkpt lat="46.10854" lon="4.52493">
        <ele>746</ele>
        <time>2017-11-04T01:39:37Z</time>
      </trkpt>
      <trkpt lat="46.10858" lon="4.52495">
        <ele>746</ele>
        <time>2017-11-04T01:41:37Z</time>
      </trkpt>
      <trkpt lat="46.10897" lon="4.52522">
        <ele>746</ele>
        <time>2017-11-04T01:43:37Z</time>
      </trkpt>
      <trkpt lat="46.10913" lon="4.52529">
        <ele>745</ele>
        <time>2017-11-04T01:45:37Z</time>
      </trkpt>
      <trkpt lat="46.10932" lon="4.52529">
        <ele>745</ele>
        <time>2017-11-04T01:47:37Z</time>
      </trkpt>
      <trkpt lat="46.1095" lon="4.52528">
        <ele>746</ele>
        <time>2017-11-04T01:49:37Z</time>
      </trkpt>
      <trkpt lat="46.10963" lon="4.52523">
        <ele>745</ele>
        <time>2017-11-04T01:51:37Z</time>
      </trkpt>
      <trkpt lat="46.10973" lon="4.52514">
        <ele>743</ele>
        <time>2017-11-04T01:53:37Z</time>
      </trkpt>
      <trkpt lat="46.10979" lon="4.52508">
        <ele>742</ele>
        <time>2017-11-04T01:55:37Z</time>
      </trkpt>
      <trkpt lat="46.10984" lon="4.52501">
        <ele>740</ele>
        <time>2017-11-04T01:57:37Z</time>
      </trkpt>
      <trkpt lat="46.10992" lon="4.52492">
        <ele>739</ele>
        <time>2017-11-04T01:59:37Z</time>
      </trkpt>
      <trkpt lat="46.10999" lon="4.52488">
        <ele>738</ele>
        <time>2017-11-04T02:01:37Z</time>
      </trkpt>
      <trkpt lat="46.11007" lon="4.52484">
        <ele>736</ele>
        <time>2017-11-04T02:03:37Z</time>
      </trkpt>
      <trkpt lat="46.11018" lon="4.52483">
        <ele>734</ele>
        <time>2017-11-04T02:05:37Z</time>
      </trkpt>
      <trkpt lat="46.1103" lon="4.52484">
        <ele>732</ele>
        <time>2017-11-04T02:07:37Z</time>
      </trkpt>
      <trkpt lat="46.11037" lon="4.52486">
        <ele>731</ele>
        <time>2017-11-04T02:09:37Z</time>
      </trkpt>
      <trkpt lat="46.11046" lon="4.52492">
        <ele>731</ele>
        <time>2017-11-04T02:11:37Z</time>
      </trkpt>
      <trkpt lat="46.11052" lon="4.52501">
        <ele>732</ele>
        <time>2017-11-04T02:13:37Z</time>
      </trkpt>
      <trkpt lat="46.1106" lon="4.52508">
        <ele>732</ele>
        <time>2017-11-04T02:15:37Z</time>
      </trkpt>
      <trkpt lat="46.11082" lon="4.52524">
        <ele>731</ele>
        <time>2017-11-04T02:17:37Z</time>
      </trkpt>
      <trkpt lat="46.11101" lon="4.52537">
        <ele>727</ele>
        <time>2017-11-04T02:19:37Z</time>
      </trkpt>
      <trkpt lat="46.11123" lon="4.52547">
        <ele>721</ele>
        <time>2017-11-04T02:21:37Z</time>
      </trkpt>
      <trkpt lat="46.11132" lon="4.52553">
        <ele>719</ele>
        <time>2017-11-04T02:23:37Z</time>
      </trkpt>
      <trkpt lat="46.1115" lon="4.52564">
        <ele>714</ele>
        <time>2017-11-04T02:25:37Z</time>
      </trkpt>
      <trkpt lat="46.11172" lon="4.5258">
        <ele>710</ele>
        <time>2017-11-04T02:27:37Z</time>
      </trkpt>
      <trkpt lat="46.11199" lon="4.52603">
        <ele>709</ele>
        <time>2017-11-04T02:29:37Z</time>
      </trkpt>
      <trkpt lat="46.11215" lon="4.52616">
        <ele>709</ele>
        <time>2017-11-04T02:31:37Z</time>
      </trkpt>
      <trkpt lat="46.11227" lon="4.52629">
        <ele>710</ele>
        <time>2017-11-04T02:33:37Z</time>
      </trkpt>
      <trkpt lat="46.11239" lon="4.52636">
        <ele>709</ele>
        <time>2017-11-04T02:35:37Z</time>
      </trkpt>
      <trkpt lat="46.11274" lon="4.52647">
        <ele>706</ele>
        <time>2017-11-04T02:37:37Z</time>
      </trkpt>
      <trkpt lat="46.11286" lon="4.5265">
        <ele>704</ele>
        <time>2017-11-04T02:39:37Z</time>
      </trkpt>
      <trkpt lat="46.11297" lon="4.52655">
        <ele>704</ele>
        <time>2017-11-04T02:41:37Z</time>
      </trkpt>
      <trkpt lat="46.11314" lon="4.52658">
        <ele>702</ele>
        <time>2017-11-04T02:43:37Z</time>
      </trkpt>
      <trkpt lat="46.11352" lon="4.52656">
        <ele>698</ele>
        <time>2017-11-04T02:45:37Z</time>
      </trkpt>
      <trkpt lat="46.11357" lon="4.52657">
        <ele>699</ele>
        <time>2017-11-04T02:47:37Z</time>
      </trkpt>
      <trkpt lat="46.11382" lon="4.52662">
        <ele>699</ele>
        <time>2017-11-04T02:49:37Z</time>
      </trkpt>
      <trkpt lat="46.11401" lon="4.52667">
        <ele>700</ele>
        <time>2017-11-04T02:51:37Z</time>
      </trkpt>
      <trkpt lat="46.11413" lon="4.52666">
        <ele>700</ele>
        <time>2017-11-04T02:53:37Z</time>
      </trkpt>
      <trkpt lat="46.11424" lon="4.52662">
        <ele>699</ele>
        <time>2017-11-04T02:55:37Z</time>
      </trkpt>
      <trkpt lat="46.11447" lon="4.52654">
        <ele>699</ele>
        <time>2017-11-04T02:57:37Z</time>
      </trkpt>
      <trkpt lat="46.11474" lon="4.52647">
        <ele>700</ele>
        <time>2017-11-04T02:59:37Z</time>
      </trkpt>
      <trkpt lat="46.11508" lon="4.52634">
        <ele>700</ele>
        <time>2017-11-04T03:01:37Z</time>
      </trkpt>
      <trkpt lat="46.11527" lon="4.5263">
        <ele>700</ele>
        <time>2017-11-04T03:03:37Z</time>
      </trkpt>
      <trkpt lat="46.11542" lon="4.52629">
        <ele>700</ele>
        <time>2017-11-04T03:05:37Z</time>
      </trkpt>
      <trkpt lat="46.11546" lon="4.5263">
        <ele>700</ele>
        <time>2017-11-04T03:07:37Z</time>
      </trkpt>
      <trkpt lat="46.11577" lon="4.52636">
        <ele>701</ele>
        <time>2017-11-04T03:09:37Z</time>
      </trkpt>
      <trkpt lat="46.11588" lon="4.52637">
        <ele>701</ele>
        <time>2017-11-04T03:11:37Z</time>
      </trkpt>
      <trkpt lat="46.11599" lon="4.52636">
        <ele>701</ele>
        <time>2017-11-04T03:13:37Z</time>
      </trkpt>
      <trkpt lat="46.11604" lon="4.52636">
        <ele>701</ele>
        <time>2017-11-04T03:15:37Z</time>
      </trkpt>
      <trkpt lat="46.11629" lon="4.52628">
        <ele>699</ele>
        <time>2017-11-04T03:17:37Z</time>
      </trkpt>
      <trkpt lat="46.1164" lon="4.52624">
        <ele>699</ele>
        <time>2017-11-04T03:19:37Z</time>
      </trkpt>
      <trkpt lat="46.11656" lon="4.52616">
        <ele>698</ele>
        <time>2017-11-04T03:21:37Z</time>
      </trkpt>
      <trkpt lat="46.11664" lon="4.5261">
        <ele>697</ele>
        <time>2017-11-04T03:23:37Z</time>
      </trkpt>
      <trkpt lat="46.11668" lon="4.52604">
        <ele>696</ele>
        <time>2017-11-04T03:25:37Z</time>
      </trkpt>
      <trkpt lat="46.11675" lon="4.52596">
        <ele>695</ele>
        <time>2017-11-04T03:27:37Z</time>
      </trkpt>
      <trkpt lat="46.11679" lon="4.52591">
        <ele>695</ele>
        <time>2017-11-04T03:29:37Z</time>
      </trkpt>
      <trkpt lat="46.11684" lon="4.52582">
        <ele>694</ele>
        <time>2017-11-04T03:31:37Z</time>
      </trkpt>
      <trkpt lat="46.11696" lon="4.5256">
        <ele>692</ele>
        <time>2017-11-04T03:33:37Z</time>
      </trkpt>
      <trkpt lat="46.11702" lon="4.52556">
        <ele>691</ele>
        <time>2017-11-04T03:35:37Z</time>
      </trkpt>
      <trkpt lat="46.11707" lon="4.52552">
        <ele>691</ele>
        <time>2017-11-04T03:37:37Z</time>
      </trkpt>
      <trkpt lat="46.11712" lon="4.52556">
        <ele>691</ele>
        <time>2017-11-04T03:39:37Z</time>
      </trkpt>
      <trkpt lat="46.11715" lon="4.52561">
        <ele>691</ele>
        <time>2017-11-04T03:41:37Z</time>
      </trkpt>
      <trkpt lat="46.1172" lon="4.52574">
        <ele>693</ele>
        <time>2017-11-04T03:43:37Z</time>
      </trkpt>
      <trkpt lat="46.11734" lon="4.52627">
        <ele>698</ele>
        <time>2017-11-04T03:45:37Z</time>
      </trkpt>
      <trkpt lat="46.11742" lon="4.52662">
        <ele>703</ele>
        <time>2017-11-04T03:47:37Z</time>
      </trkpt>
      <trkpt lat="46.11754" lon="4.52695">
        <ele>705</ele>
        <time>2017-11-04T03:49:37Z</time>
      </trkpt>
      <trkpt lat="46.11759" lon="4.52703">
        <ele>705</ele>
        <time>2017-11-04T03:51:37Z</time>
      </trkpt>
      <trkpt lat="46.11767" lon="4.52705">
        <ele>705</ele>
        <time>2017-11-04T03:53:37Z</time>
      </trkpt>
      <trkpt lat="46.11786" lon="4.52705">
        <ele>703</ele>
        <time>2017-11-04T03:55:37Z</time>
      </trkpt>
      <trkpt lat="46.11809" lon="4.52702">
        <ele>701</ele>
        <time>2017-11-04T03:57:37Z</time>
      </trkpt>
      <trkpt lat="46.1183" lon="4.527">
        <ele>699</ele>
        <time>2017-11-04T03:59:37Z</time>
      </trkpt>
      <trkpt lat="46.11845" lon="4.52699">
        <ele>700</ele>
        <time>2017-11-04T04:01:37Z</time>
      </trkpt>
      <trkpt lat="46.11863" lon="4.52694">
        <ele>700</ele>
        <time>2017-11-04T04:03:37Z</time>
      </trkpt>
      <trkpt lat="46.11869" lon="4.5269">
        <ele>700</ele>
        <time>2017-11-04T04:05:37Z</time>
      </trkpt>
      <trkpt lat="46.11878" lon="4.5268">
        <ele>700</ele>
        <time>2017-11-04T04:07:37Z</time>
      </trkpt>
      <trkpt lat="46.11894" lon="4.5266">
        <ele>699</ele>
        <time>2017-11-04T04:09:37Z</time>
      </trkpt>
      <trkpt lat="46.11906" lon="4.52644">
        <ele>699</ele>
        <time>2017-11-04T04:11:37Z</time>
      </trkpt>
      <trkpt lat="46.11928" lon="4.52614">
        <ele>700</ele>
        <time>2017-11-04T04:13:37Z</time>
      </trkpt>
      <trkpt lat="46.1194" lon="4.52595">
        <ele>702</ele>
        <time>2017-11-04T04:15:37Z</time>
      </trkpt>
      <trkpt lat="46.11948" lon="4.52575">
        <ele>703</ele>
        <time>2017-11-04T04:17:37Z</time>
      </trkpt>
      <trkpt lat="46.11958" lon="4.52545">
        <ele>705</ele>
        <time>2017-11-04T04:19:37Z</time>
      </trkpt>
      <trkpt lat="46.11961" lon="4.5253">
        <ele>705</ele>
        <time>2017-11-04T04:21:37Z</time>
      </trkpt>
      <trkpt lat="46.11963" lon="4.52513">
        <ele>704</ele>
        <time>2017-11-04T04:23:37Z</time>
      </trkpt>
      <trkpt lat="46.11966" lon="4.52496">
        <ele>705</ele>
        <time>2017-11-04T04:25:37Z</time>
      </trkpt>
      <trkpt lat="46.11968" lon="4.52485">
        <ele>705</ele>
        <time>2017-11-04T04:27:37Z</time>
      </trkpt>
      <trkpt lat="46.11969" lon="4.52479">
        <ele>705</ele>
        <time>2017-11-04T04:29:37Z</time>
      </trkpt>
      <trkpt lat="46.11969" lon="4.52475">
        <ele>705</ele>
        <time>2017-11-04T04:31:37Z</time>
      </trkpt>
      <trkpt lat="46.1197" lon="4.52471">
        <ele>705</ele>
        <time>2017-11-04T04:33:37Z</time>
      </trkpt>
      <trkpt lat="46.1197" lon="4.52467">
        <ele>705</ele>
        <time>2017-11-04T04:35:37Z</time>
      </trkpt>
      <trkpt lat="46.11971" lon="4.52458">
        <ele>705</ele>
        <time>2017-11-04T04:37:37Z</time>
      </trkpt>
      <trkpt lat="46.11971" lon="4.52458">
        <ele>705</ele>
        <time>2017-11-04T04:39:37Z</time>
      </trkpt>
      <trkpt lat="46.11969" lon="4.52443">
        <ele>704</ele>
        <time>2017-11-04T04:41:37Z</time>
      </trkpt>
      <trkpt lat="46.11954" lon="4.52343">
        <ele>697</ele>
        <time>2017-11-04T04:43:37Z</time>
      </trkpt>
      <trkpt lat="46.11928" lon="4.52155">
        <ele>686</ele>
        <time>2017-11-04T04:45:37Z</time>
      </trkpt>
      <trkpt lat="46.11926" lon="4.52135">
        <ele>685</ele>
        <time>2017-11-04T04:47:37Z</time>
      </trkpt>
      <trkpt lat="46.11926" lon="4.52123">
        <ele>684</ele>
        <time>2017-11-04T04:49:37Z</time>
      </trkpt>
      <trkpt lat="46.11927" lon="4.52107">
        <ele>683</ele>
        <time>2017-11-04T04:51:37Z</time>
      </trkpt>
      <trkpt lat="46.11931" lon="4.52087">
        <ele>683</ele>
        <time>2017-11-04T04:53:37Z</time>
      </trkpt>
      <trkpt lat="46.1194" lon="4.52055">
        <ele>682</ele>
        <time>2017-11-04T04:55:37Z</time>
      </trkpt>
      <trkpt lat="46.11985" lon="4.51893">
        <ele>676</ele>
        <time>2017-11-04T04:57:37Z</time>
      </trkpt>
      <trkpt lat="46.11993" lon="4.51866">
        <ele>677</ele>
        <time>2017-11-04T04:59:37Z</time>
      </trkpt>
      <trkpt lat="46.11997" lon="4.51852">
        <ele>677</ele>
        <time>2017-11-04T05:01:37Z</time>
      </trkpt>
      <trkpt lat="46.11999" lon="4.51844">
        <ele>677</ele>
        <time>2017-11-04T05:03:37Z</time>
      </trkpt>
      <trkpt lat="46.12002" lon="4.51831">
        <ele>678</ele>
        <time>2017-11-04T05:05:37Z</time>
      </trkpt>
      <trkpt lat="46.12004" lon="4.51823">
        <ele>678</ele>
        <time>2017-11-04T05:07:37Z</time>
      </trkpt>
      <trkpt lat="46.12005" lon="4.51817">
        <ele>679</ele>
        <time>2017-11-04T05:09:37Z</time>
      </trkpt>
      <trkpt lat="46.12005" lon="4.51812">
        <ele>679</ele>
        <time>2017-11-04T05:11:37Z</time>
      </trkpt>
      <trkpt lat="46.12004" lon="4.51807">
        <ele>679</ele>
        <time>2017-11-04T05:13:37Z</time>
      </trkpt>
      <trkpt lat="46.12004" lon="4.51802">
        <ele>679</ele>
        <time>2017-11-04T05:15:37Z</time>
      </trkpt>
      <trkpt lat="46.12003" lon="4.51798">
        <ele>679</ele>
        <time>2017-11-04T05:17:37Z</time>
      </trkpt>
      <trkpt lat="46.12001" lon="4.51793">
        <ele>678</ele>
        <time>2017-11-04T05:19:37Z</time>
      </trkpt>
      <trkpt lat="46.11999" lon="4.5179">
        <ele>678</ele>
        <time>2017-11-04T05:21:37Z</time>
      </trkpt>
      <trkpt lat="46.11997" lon="4.51785">
        <ele>678</ele>
        <time>2017-11-04T05:23:37Z</time>
      </trkpt>
      <trkpt lat="46.11995" lon="4.51782">
        <ele>678</ele>
        <time>2017-11-04T05:25:37Z</time>
      </trkpt>
      <trkpt lat="46.11992" lon="4.51779">
        <ele>678</ele>
        <time>2017-11-04T05:27:37Z</time>
      </trkpt>
      <trkpt lat="46.11987" lon="4.51774">
        <ele>678</ele>
        <time>2017-11-04T05:29:37Z</time>
      </trkpt>
      <trkpt lat="46.11984" lon="4.51772">
        <ele>678</ele>
        <time>2017-11-04T05:31:37Z</time>
      </trkpt>
      <trkpt lat="46.11981" lon="4.51771">
        <ele>678</ele>
        <time>2017-11-04T05:33:37Z</time>
      </trkpt>
      <trkpt lat="46.11978" lon="4.51771">
        <ele>678</ele>
        <time>2017-11-04T05:35:37Z</time>
      </trkpt>
      <trkpt lat="46.11975" lon="4.5177">
        <ele>678</ele>
        <time>2017-11-04T05:37:37Z</time>
      </trkpt>
      <trkpt lat="46.11971" lon="4.51771">
        <ele>677</ele>
        <time>2017-11-04T05:39:37Z</time>
      </trkpt>
      <trkpt lat="46.11963" lon="4.51773">
        <ele>677</ele>
        <time>2017-11-04T05:41:37Z</time>
      </trkpt>
      <trkpt lat="46.11954" lon="4.51778">
        <ele>676</ele>
        <time>2017-11-04T05:43:37Z</time>
      </trkpt>
      <trkpt lat="46.11949" lon="4.51781">
        <ele>675</ele>
        <time>2017-11-04T05:45:37Z</time>
      </trkpt>
      <trkpt lat="46.11946" lon="4.51783">
        <ele>674</ele>
        <time>2017-11-04T05:47:37Z</time>
      </trkpt>
      <trkpt lat="46.11923" lon="4.51797">
        <ele>669</ele>
        <time>2017-11-04T05:49:37Z</time>
      </trkpt>
      <trkpt lat="46.11917" lon="4.51801">
        <ele>667</ele>
        <time>2017-11-04T05:51:37Z</time>
      </trkpt>
      <trkpt lat="46.11912" lon="4.51804">
        <ele>665</ele>
        <time>2017-11-04T05:53:37Z</time>
      </trkpt>
      <trkpt lat="46.11906" lon="4.51807">
        <ele>663</ele>
        <time>2017-11-04T05:55:37Z</time>
      </trkpt>
      <trkpt lat="46.119" lon="4.51809">
        <ele>662</ele>
        <time>2017-11-04T05:57:37Z</time>
      </trkpt>
      <trkpt lat="46.11897" lon="4.5181">
        <ele>661</ele>
        <time>2017-11-04T05:59:37Z</time>
      </trkpt>
      <trkpt lat="46.11893" lon="4.51811">
        <ele>660</ele>
        <time>2017-11-04T06:01:37Z</time>
      </trkpt>
      <trkpt lat="46.11888" lon="4.51812">
        <ele>659</ele>
        <time>2017-11-04T06:03:37Z</time>
      </trkpt>
      <trkpt lat="46.11883" lon="4.51812">
        <ele>658</ele>
        <time>2017-11-04T06:05:37Z</time>
      </trkpt>
      <trkpt lat="46.11875" lon="4.51811">
        <ele>657</ele>
        <time>2017-11-04T06:07:37Z</time>
      </trkpt>
      <trkpt lat="46.11866" lon="4.5181">
        <ele>656</ele>
        <time>2017-11-04T06:09:37Z</time>
      </trkpt>
      <trkpt lat="46.11857" lon="4.51808">
        <ele>655</ele>
        <time>2017-11-04T06:11:37Z</time>
      </trkpt>
      <trkpt lat="46.1185" lon="4.51807">
        <ele>654</ele>
        <time>2017-11-04T06:13:37Z</time>
      </trkpt>
      <trkpt lat="46.11844" lon="4.51805">
        <ele>653</ele>
        <time>2017-11-04T06:15:37Z</time>
      </trkpt>
      <trkpt lat="46.11838" lon="4.51803">
        <ele>653</ele>
        <time>2017-11-04T06:17:37Z</time>
      </trkpt>
      <trkpt lat="46.11831" lon="4.518">
        <ele>652</ele>
        <time>2017-11-04T06:19:37Z</time>
      </trkpt>
      <trkpt lat="46.11826" lon="4.51797">
        <ele>652</ele>
        <time>2017-11-04T06:21:37Z</time>
      </trkpt>
      <trkpt lat="46.1182" lon="4.51793">
        <ele>652</ele>
        <time>2017-11-04T06:23:37Z</time>
      </trkpt>
      <trkpt lat="46.11814" lon="4.51788">
        <ele>652</ele>
        <time>2017-11-04T06:25:37Z</time>
      </trkpt>
      <trkpt lat="46.11809" lon="4.51783">
        <ele>652</ele>
        <time>2017-11-04T06:27:37Z</time>
      </trkpt>
      <trkpt lat="46.11797" lon="4.51769">
        <ele>652</ele>
        <time>2017-11-04T06:29:37Z</time>
      </trkpt>
      <trkpt lat="46.1179" lon="4.51759">
        <ele>652</ele>
        <time>2017-11-04T06:31:37Z</time>
      </trkpt>
      <trkpt lat="46.11782" lon="4.51745">
        <ele>653</ele>
        <time>2017-11-04T06:33:37Z</time>
      </trkpt>
      <trkpt lat="46.11776" lon="4.51735">
        <ele>653</ele>
        <time>2017-11-04T06:35:37Z</time>
      </trkpt>
      <trkpt lat="46.11772" lon="4.51726">
        <ele>653</ele>
        <time>2017-11-04T06:37:37Z</time>
      </trkpt>
      <trkpt lat="46.11768" lon="4.51717">
        <ele>653</ele>
        <time>2017-11-04T06:39:37Z</time>
      </trkpt>
      <trkpt lat="46.11764" lon="4.51709">
        <ele>652</ele>
        <time>2017-11-04T06:41:37Z</time>
      </trkpt>
      <trkpt lat="46.11761" lon="4.517">
        <ele>653</ele>
        <time>2017-11-04T06:43:37Z</time>
      </trkpt>
      <trkpt lat="46.11756" lon="4.51686">
        <ele>653</ele>
        <time>2017-11-04T06:45:37Z</time>
      </trkpt>
      <trkpt lat="46.11751" lon="4.51669">
        <ele>653</ele>
        <time>2017-11-04T06:47:37Z</time>
      </trkpt>
      <trkpt lat="46.11732" lon="4.51598">
        <ele>651</ele>
        <time>2017-11-04T06:49:37Z</time>
      </trkpt>
      <trkpt lat="46.11725" lon="4.51572">
        <ele>649</ele>
        <time>2017-11-04T06:51:37Z</time>
      </trkpt>
      <trkpt lat="46.11719" lon="4.51552">
        <ele>648</ele>
        <time>2017-11-04T06:53:37Z</time>
      </trkpt>
      <trkpt lat="46.11716" lon="4.51539">
        <ele>647</ele>
        <time>2017-11-04T06:55:37Z</time>
      </trkpt>
      <trkpt lat="46.11711" lon="4.51524">
        <ele>646</ele>
        <time>2017-11-04T06:57:37Z</time>
      </trkpt>
      <trkpt lat="46.11706" lon="4.5151">
        <ele>644</ele>
        <time>2017-11-04T06:59:37Z</time>
      </trkpt>
      <trkpt lat="46.11702" lon="4.51502">
        <ele>643</ele>
        <time>2017-11-04T07:01:37Z</time>
      </trkpt>
      <trkpt lat="46.11698" lon="4.51493">
        <ele>642</ele>
        <time>2017-11-04T07:03:37Z</time>
      </trkpt>
      <trkpt lat="46.11685" lon="4.51466">
        <ele>638</ele>
        <time>2017-11-04T07:05:37Z</time>
      </trkpt>
      <trkpt lat="46.11675" lon="4.51444">
        <ele>636</ele>
        <time>2017-11-04T07:07:37Z</time>
      </trkpt>
      <trkpt lat="46.11672" lon="4.51434">
        <ele>635</ele>
        <time>2017-11-04T07:09:37Z</time>
      </trkpt>
      <trkpt lat="46.11667" lon="4.5142">
        <ele>635</ele>
        <time>2017-11-04T07:11:37Z</time>
      </trkpt>
      <trkpt lat="46.11665" lon="4.51412">
        <ele>635</ele>
        <time>2017-11-04T07:13:37Z</time>
      </trkpt>
      <trkpt lat="46.11662" lon="4.51401">
        <ele>634</ele>
        <time>2017-11-04T07:15:37Z</time>
      </trkpt>
      <trkpt lat="46.11661" lon="4.51392">
        <ele>633</ele>
        <time>2017-11-04T07:17:37Z</time>
      </trkpt>
      <trkpt lat="46.11659" lon="4.51384">
        <ele>633</ele>
        <time>2017-11-04T07:19:37Z</time>
      </trkpt>
      <trkpt lat="46.11656" lon="4.51364">
        <ele>632</ele>
        <time>2017-11-04T07:21:37Z</time>
      </trkpt>
      <trkpt lat="46.11653" lon="4.51339">
        <ele>631</ele>
        <time>2017-11-04T07:23:37Z</time>
      </trkpt>
      <trkpt lat="46.11649" lon="4.51305">
        <ele>630</ele>
        <time>2017-11-04T07:25:37Z</time>
      </trkpt>
      <trkpt lat="46.11647" lon="4.51289">
        <ele>629</ele>
        <time>2017-11-04T07:27:37Z</time>
      </trkpt>
      <trkpt lat="46.11638" lon="4.51214">
        <ele>631</ele>
        <time>2017-11-04T07:29:37Z</time>
      </trkpt>
      <trkpt lat="46.11635" lon="4.51205">
        <ele>632</ele>
        <time>2017-11-04T07:31:37Z</time>
      </trkpt>
      <trkpt lat="46.11633" lon="4.51199">
        <ele>632</ele>
        <time>2017-11-04T07:33:37Z</time>
      </trkpt>
      <trkpt lat="46.11628" lon="4.51192">
        <ele>632</ele>
        <time>2017-11-04T07:35:37Z</time>
      </trkpt>
      <trkpt lat="46.11625" lon="4.5119">
        <ele>631</ele>
        <time>2017-11-04T07:37:37Z</time>
      </trkpt>
      <trkpt lat="46.1162" lon="4.51186">
        <ele>630</ele>
        <time>2017-11-04T07:39:37Z</time>
      </trkpt>
      <trkpt lat="46.11615" lon="4.51185">
        <ele>629</ele>
        <time>2017-11-04T07:41:37Z</time>
      </trkpt>
      <trkpt lat="46.11603" lon="4.51185">
        <ele>626</ele>
        <time>2017-11-04T07:43:37Z</time>
      </trkpt>
      <trkpt lat="46.11589" lon="4.51189">
        <ele>622</ele>
        <time>2017-11-04T07:45:37Z</time>
      </trkpt>
      <trkpt lat="46.11549" lon="4.51209">
        <ele>613</ele>
        <time>2017-11-04T07:47:37Z</time>
      </trkpt>
      <trkpt lat="46.11532" lon="4.51216">
        <ele>610</ele>
        <time>2017-11-04T07:49:37Z</time>
      </trkpt>
      <trkpt lat="46.11529" lon="4.51216">
        <ele>610</ele>
        <time>2017-11-04T07:51:37Z</time>
      </trkpt>
      <trkpt lat="46.11523" lon="4.51217">
        <ele>609</ele>
        <time>2017-11-04T07:53:37Z</time>
      </trkpt>
      <trkpt lat="46.11515" lon="4.51216">
        <ele>608</ele>
        <time>2017-11-04T07:55:37Z</time>
      </trkpt>
      <trkpt lat="46.1151" lon="4.51215">
        <ele>607</ele>
        <time>2017-11-04T07:57:37Z</time>
      </trkpt>
      <trkpt lat="46.11503" lon="4.51211">
        <ele>607</ele>
        <time>2017-11-04T07:59:37Z</time>
      </trkpt>
      <trkpt lat="46.11497" lon="4.51208">
        <ele>607</ele>
        <time>2017-11-04T08:01:37Z</time>
      </trkpt>
      <trkpt lat="46.11492" lon="4.51203">
        <ele>607</ele>
        <time>2017-11-04T08:03:37Z</time>
      </trkpt>
      <trkpt lat="46.11486" lon="4.51196">
        <ele>607</ele>
        <time>2017-11-04T08:05:37Z</time>
      </trkpt>
      <trkpt lat="46.11481" lon="4.51186">
        <ele>607</ele>
        <time>2017-11-04T08:07:37Z</time>
      </trkpt>
      <trkpt lat="46.11477" lon="4.51178">
        <ele>608</ele>
        <time>2017-11-04T08:09:37Z</time>
      </trkpt>
      <trkpt lat="46.11474" lon="4.51167">
        <ele>608</ele>
        <time>2017-11-04T08:11:37Z</time>
      </trkpt>
      <trkpt lat="46.11471" lon="4.51157">
        <ele>609</ele>
        <time>2017-11-04T08:13:37Z</time>
      </trkpt>
      <trkpt lat="46.11468" lon="4.51131">
        <ele>611</ele>
        <time>2017-11-04T08:15:37Z</time>
      </trkpt>
      <trkpt lat="46.11467" lon="4.51114">
        <ele>612</ele>
        <time>2017-11-04T08:17:37Z</time>
      </trkpt>
      <trkpt lat="46.11464" lon="4.511">
        <ele>613</ele>
        <time>2017-11-04T08:19:37Z</time>
      </trkpt>
      <trkpt lat="46.11463" lon="4.51095">
        <ele>614</ele>
        <time>2017-11-04T08:21:37Z</time>
      </trkpt>
      <trkpt lat="46.11462" lon="4.51091">
        <ele>614</ele>
        <time>2017-11-04T08:23:37Z</time>
      </trkpt>
      <trkpt lat="46.11458" lon="4.51085">
        <ele>614</ele>
        <time>2017-11-04T08:25:37Z</time>
      </trkpt>
      <trkpt lat="46.11453" lon="4.51079">
        <ele>614</ele>
        <time>2017-11-04T08:27:37Z</time>
      </trkpt>
      <trkpt lat="46.11449" lon="4.51076">
        <ele>614</ele>
        <time>2017-11-04T08:29:37Z</time>
      </trkpt>
      <trkpt lat="46.11444" lon="4.51074">
        <ele>614</ele>
        <time>2017-11-04T08:31:37Z</time>
      </trkpt>
      <trkpt lat="46.11437" lon="4.51073">
        <ele>613</ele>
        <time>2017-11-04T08:33:37Z</time>
      </trkpt>
      <trkpt lat="46.11434" lon="4.51073">
        <ele>612</ele>
        <time>2017-11-04T08:35:37Z</time>
      </trkpt>
      <trkpt lat="46.11429" lon="4.51074">
        <ele>611</ele>
        <time>2017-11-04T08:37:37Z</time>
      </trkpt>
      <trkpt lat="46.11424" lon="4.51075">
        <ele>610</ele>
        <time>2017-11-04T08:39:37Z</time>
      </trkpt>
      <trkpt lat="46.11418" lon="4.51078">
        <ele>608</ele>
        <time>2017-11-04T08:41:37Z</time>
      </trkpt>
      <trkpt lat="46.11406" lon="4.51084">
        <ele>606</ele>
        <time>2017-11-04T08:43:37Z</time>
      </trkpt>
      <trkpt lat="46.11392" lon="4.51091">
        <ele>604</ele>
        <time>2017-11-04T08:45:37Z</time>
      </trkpt>
      <trkpt lat="46.11384" lon="4.51096">
        <ele>603</ele>
        <time>2017-11-04T08:47:37Z</time>
      </trkpt>
      <trkpt lat="46.11376" lon="4.511">
        <ele>602</ele>
        <time>2017-11-04T08:49:37Z</time>
      </trkpt>
      <trkpt lat="46.11369" lon="4.51103">
        <ele>601</ele>
        <time>2017-11-04T08:51:37Z</time>
      </trkpt>
      <trkpt lat="46.11352" lon="4.51107">
        <ele>600</ele>
        <time>2017-11-04T08:53:37Z</time>
      </trkpt>
      <trkpt lat="46.11336" lon="4.51105">
        <ele>599</ele>
        <time>2017-11-04T08:55:37Z</time>
      </trkpt>
      <trkpt lat="46.11322" lon="4.51101">
        <ele>598</ele>
        <time>2017-11-04T08:57:37Z</time>
      </trkpt>
      <trkpt lat="46.11309" lon="4.51095">
        <ele>597</ele>
        <time>2017-11-04T08:59:37Z</time>
      </trkpt>
      <trkpt lat="46.11297" lon="4.51086">
        <ele>596</ele>
        <time>2017-11-04T09:01:37Z</time>
      </trkpt>
      <trkpt lat="46.11292" lon="4.51079">
        <ele>597</ele>
        <time>2017-11-04T09:03:37Z</time>
      </trkpt>
      <trkpt lat="46.11289" lon="4.51071">
        <ele>598</ele>
        <time>2017-11-04T09:05:37Z</time>
      </trkpt>
      <trkpt lat="46.11279" lon="4.51053">
        <ele>600</ele>
        <time>2017-11-04T09:07:37Z</time>
      </trkpt>
      <trkpt lat="46.1127" lon="4.51034">
        <ele>603</ele>
        <time>2017-11-04T09:09:37Z</time>
      </trkpt>
      <trkpt lat="46.11267" lon="4.51027">
        <ele>604</ele>
        <time>2017-11-04T09:11:37Z</time>
      </trkpt>
      <trkpt lat="46.11263" lon="4.51022">
        <ele>604</ele>
        <time>2017-11-04T09:13:37Z</time>
      </trkpt>
      <trkpt lat="46.1126" lon="4.51018">
        <ele>604</ele>
        <time>2017-11-04T09:15:37Z</time>
      </trkpt>
      <trkpt lat="46.11256" lon="4.51014">
        <ele>604</ele>
        <time>2017-11-04T09:17:37Z</time>
      </trkpt>
      <trkpt lat="46.11251" lon="4.51011">
        <ele>604</ele>
        <time>2017-11-04T09:19:37Z</time>
      </trkpt>
      <trkpt lat="46.11245" lon="4.51008">
        <ele>603</ele>
        <time>2017-11-04T09:21:37Z</time>
      </trkpt>
      <trkpt lat="46.11236" lon="4.51005">
        <ele>602</ele>
        <time>2017-11-04T09:23:37Z</time>
      </trkpt>
      <trkpt lat="46.11197" lon="4.50993">
        <ele>597</ele>
        <time>2017-11-04T09:25:37Z</time>
      </trkpt>
      <trkpt lat="46.11167" lon="4.50984">
        <ele>594</ele>
        <time>2017-11-04T09:27:37Z</time>
      </trkpt>
      <trkpt lat="46.11139" lon="4.50974">
        <ele>590</ele>
        <time>2017-11-04T09:29:37Z</time>
      </trkpt>
      <trkpt lat="46.11115" lon="4.5096">
        <ele>588</ele>
        <time>2017-11-04T09:31:37Z</time>
      </trkpt>
      <trkpt lat="46.11095" lon="4.50947">
        <ele>586</ele>
        <time>2017-11-04T09:33:37Z</time>
      </trkpt>
      <trkpt lat="46.11077" lon="4.50937">
        <ele>584</ele>
        <time>2017-11-04T09:35:37Z</time>
      </trkpt>
      <trkpt lat="46.11058" lon="4.50923">
        <ele>582</ele>
        <time>2017-11-04T09:37:37Z</time>
      </trkpt>
      <trkpt lat="46.11051" lon="4.50918">
        <ele>582</ele>
        <time>2017-11-04T09:39:37Z</time>
      </trkpt>
      <trkpt lat="46.11044" lon="4.50913">
        <ele>581</ele>
        <time>2017-11-04T09:41:37Z</time>
      </trkpt>
      <trkpt lat="46.11038" lon="4.50908">
        <ele>580</ele>
        <time>2017-11-04T09:43:37Z</time>
      </trkpt>
      <trkpt lat="46.11033" lon="4.50902">
        <ele>579</ele>
        <time>2017-11-04T09:45:37Z</time>
      </trkpt>
      <trkpt lat="46.11029" lon="4.50895">
        <ele>579</ele>
        <time>2017-11-04T09:47:37Z</time>
      </trkpt>
      <trkpt lat="46.11026" lon="4.50889">
        <ele>579</ele>
        <time>2017-11-04T09:49:37Z</time>
      </trkpt>
      <trkpt lat="46.11023" lon="4.50882">
        <ele>579</ele>
        <time>2017-11-04T09:51:37Z</time>
      </trkpt>
      <trkpt lat="46.1102" lon="4.50876">
        <ele>578</ele>
        <time>2017-11-04T09:53:37Z</time>
      </trkpt>
      <trkpt lat="46.11018" lon="4.50868">
        <ele>579</ele>
        <time>2017-11-04T09:55:37Z</time>
      </trkpt>
      <trkpt lat="46.11017" lon="4.50862">
        <ele>579</ele>
        <time>2017-11-04T09:57:37Z</time>
      </trkpt>
      <trkpt lat="46.11015" lon="4.50853">
        <ele>579</ele>
        <time>2017-11-04T09:59:37Z</time>
      </trkpt>
      <trkpt lat="46.11015" lon="4.50845">
        <ele>580</ele>
        <time>2017-11-04T10:01:37Z</time>
      </trkpt>
      <trkpt lat="46.11015" lon="4.50837">
        <ele>581</ele>
        <time>2017-11-04T10:03:37Z</time>
      </trkpt>
      <trkpt lat="46.11016" lon="4.50818">
        <ele>583</ele>
        <time>2017-11-04T10:05:37Z</time>
      </trkpt>
      <trkpt lat="46.11017" lon="4.50798">
        <ele>585</ele>
        <time>2017-11-04T10:07:37Z</time>
      </trkpt>
      <trkpt lat="46.11017" lon="4.50791">
        <ele>585</ele>
        <time>2017-11-04T10:09:37Z</time>
      </trkpt>
      <trkpt lat="46.11017" lon="4.50784">
        <ele>586</ele>
        <time>2017-11-04T10:11:37Z</time>
      </trkpt>
      <trkpt lat="46.11017" lon="4.50776">
        <ele>586</ele>
        <time>2017-11-04T10:13:37Z</time>
      </trkpt>
      <trkpt lat="46.11016" lon="4.5077">
        <ele>586</ele>
        <time>2017-11-04T10:15:37Z</time>
      </trkpt>
      <trkpt lat="46.11015" lon="4.50765">
        <ele>586</ele>
        <time>2017-11-04T10:17:37Z</time>
      </trkpt>
      <trkpt lat="46.11014" lon="4.50762">
        <ele>586</ele>
        <time>2017-11-04T10:19:37Z</time>
      </trkpt>
      <trkpt lat="46.11012" lon="4.50758">
        <ele>585</ele>
        <time>2017-11-04T10:21:37Z</time>
      </trkpt>
      <trkpt lat="46.1101" lon="4.50753">
        <ele>585</ele>
        <time>2017-11-04T10:23:37Z</time>
      </trkpt>
      <trkpt lat="46.11007" lon="4.50749">
        <ele>584</ele>
        <time>2017-11-04T10:25:37Z</time>
      </trkpt>
      <trkpt lat="46.11001" lon="4.50742">
        <ele>583</ele>
        <time>2017-11-04T10:27:37Z</time>
      </trkpt>
      <trkpt lat="46.10953" lon="4.50707">
        <ele>575</ele>
        <time>2017-11-04T10:29:37Z</time>
      </trkpt>
      <trkpt lat="46.10933" lon="4.50693">
        <ele>571</ele>
        <time>2017-11-04T10:31:37Z</time>
      </trkpt>
      <trkpt lat="46.10915" lon="4.50684">
        <ele>567</ele>
        <time>2017-11-04T10:33:37Z</time>
      </trkpt>
      <trkpt lat="46.10909" lon="4.50682">
        <ele>566</ele>
        <time>2017-11-04T10:35:37Z</time>
      </trkpt>
      <trkpt lat="46.10902" lon="4.50681">
        <ele>565</ele>
        <time>2017-11-04T10:37:37Z</time>
      </trkpt>
      <trkpt lat="46.10894" lon="4.50681">
        <ele>563</ele>
        <time>2017-11-04T10:39:37Z</time>
      </trkpt>
      <trkpt lat="46.10882" lon="4.50684">
        <ele>560</ele>
        <time>2017-11-04T10:41:37Z</time>
      </trkpt>
      <trkpt lat="46.10873" lon="4.50688">
        <ele>557</ele>
        <time>2017-11-04T10:43:37Z</time>
      </trkpt>
      <trkpt lat="46.10864" lon="4.5069">
        <ele>554</ele>
        <time>2017-11-04T10:45:37Z</time>
      </trkpt>
      <trkpt lat="46.10858" lon="4.50692">
        <ele>553</ele>
        <time>2017-11-04T10:47:37Z</time>
      </trkpt>
      <trkpt lat="46.10849" lon="4.50691">
        <ele>551</ele>
        <time>2017-11-04T10:49:37Z</time>
      </trkpt>
      <trkpt lat="46.1084" lon="4.5069">
        <ele>549</ele>
        <time>2017-11-04T10:51:37Z</time>
      </trkpt>
      <trkpt lat="46.10838" lon="4.50688">
        <ele>549</ele>
        <time>2017-11-04T10:53:37Z</time>
      </trkpt>
      <trkpt lat="46.10835" lon="4.50687">
        <ele>548</ele>
        <time>2017-11-04T10:55:37Z</time>
      </trkpt>
      <trkpt lat="46.1083" lon="4.50682">
        <ele>547</ele>
        <time>2017-11-04T10:57:37Z</time>
      </trkpt>
      <trkpt lat="46.10825" lon="4.50678">
        <ele>546</ele>
        <time>2017-11-04T10:59:37Z</time>
      </trkpt>
      <trkpt lat="46.10821" lon="4.50672">
        <ele>546</ele>
        <time>2017-11-04T11:01:37Z</time>
      </trkpt>
      <trkpt lat="46.10816" lon="4.50666">
        <ele>545</ele>
        <time>2017-11-04T11:03:37Z</time>
      </trkpt>
      <trkpt lat="46.10812" lon="4.50658">
        <ele>544</ele>
        <time>2017-11-04T11:05:37Z</time>
      </trkpt>
      <trkpt lat="46.10808" lon="4.50651">
        <ele>544</ele>
        <time>2017-11-04T11:07:37Z</time>
      </trkpt>
      <trkpt lat="46.10803" lon="4.5064">
        <ele>544</ele>
        <time>2017-11-04T11:09:37Z</time>
      </trkpt>
      <trkpt lat="46.10794" lon="4.50621">
        <ele>544</ele>
        <time>2017-11-04T11:11:37Z</time>
      </trkpt>
      <trkpt lat="46.10776" lon="4.50582">
        <ele>543</ele>
        <time>2017-11-04T11:13:37Z</time>
      </trkpt>
      <trkpt lat="46.10767" lon="4.50564">
        <ele>544</ele>
        <time>2017-11-04T11:15:37Z</time>
      </trkpt>
      <trkpt lat="46.10761" lon="4.50557">
        <ele>543</ele>
        <time>2017-11-04T11:17:37Z</time>
      </trkpt>
      <trkpt lat="46.1076" lon="4.50556">
        <ele>543</ele>
        <time>2017-11-04T11:19:37Z</time>
      </trkpt>
      <trkpt lat="46.10746" lon="4.5054">
        <ele>541</ele>
        <time>2017-11-04T11:21:37Z</time>
      </trkpt>
      <trkpt lat="46.10687" lon="4.50495">
        <ele>534</ele>
        <time>2017-11-04T11:23:37Z</time>
      </trkpt>
      <trkpt lat="46.1063" lon="4.5045">
        <ele>525</ele>
        <time>2017-11-04T11:25:37Z</time>
      </trkpt>
      <trkpt lat="46.10594" lon="4.50418">
        <ele>521</ele>
        <time>2017-11-04T11:27:37Z</time>
      </trkpt>
      <trkpt lat="46.10592" lon="4.50417">
        <ele>521</ele>
        <time>2017-11-04T11:29:37Z</time>
      </trkpt>
      <trkpt lat="46.10588" lon="4.50409">
        <ele>520</ele>
        <time>2017-11-04T11:31:37Z</time>
      </trkpt>
      <trkpt lat="46.10583" lon="4.50398">
        <ele>518</ele>
        <time>2017-11-04T11:33:37Z</time>
      </trkpt>
      <trkpt lat="46.1058" lon="4.50387">
        <ele>517</ele>
        <time>2017-11-04T11:35:37Z</time>
      </trkpt>
      <trkpt lat="46.10579" lon="4.50377">
        <ele>517</ele>
        <time>2017-11-04T11:37:37Z</time>
      </trkpt>
      <trkpt lat="46.10578" lon="4.50366">
        <ele>517</ele>
        <time>2017-11-04T11:39:37Z</time>
      </trkpt>
      <trkpt lat="46.10579" lon="4.50355">
        <ele>517</ele>
        <time>2017-11-04T11:41:37Z</time>
      </trkpt>
      <trkpt lat="46.10581" lon="4.50343">
        <ele>517</ele>
        <time>2017-11-04T11:43:37Z</time>
      </trkpt>
      <trkpt lat="46.10585" lon="4.50329">
        <ele>517</ele>
        <time>2017-11-04T11:45:37Z</time>
      </trkpt>
      <trkpt lat="46.1059" lon="4.50315">
        <ele>518</ele>
        <time>2017-11-04T11:47:37Z</time>
      </trkpt>
      <trkpt lat="46.10596" lon="4.50302">
        <ele>518</ele>
        <time>2017-11-04T11:49:37Z</time>
      </trkpt>
      <trkpt lat="46.10601" lon="4.50289">
        <ele>519</ele>
        <time>2017-11-04T11:51:37Z</time>
      </trkpt>
      <trkpt lat="46.10604" lon="4.50278">
        <ele>519</ele>
        <time>2017-11-04T11:53:37Z</time>
      </trkpt>
      <trkpt lat="46.10606" lon="4.50267">
        <ele>519</ele>
        <time>2017-11-04T11:55:37Z</time>
      </trkpt>
      <trkpt lat="46.10606" lon="4.50256">
        <ele>519</ele>
        <time>2017-11-04T11:57:37Z</time>
      </trkpt>
      <trkpt lat="46.10605" lon="4.50252">
        <ele>518</ele>
        <time>2017-11-04T11:59:37Z</time>
      </trkpt>
      <trkpt lat="46.10604" lon="4.50247">
        <ele>518</ele>
        <time>2017-11-04T12:01:37Z</time>
      </trkpt>
      <trkpt lat="46.10601" lon="4.5024">
        <ele>518</ele>
        <time>2017-11-04T12:03:37Z</time>
      </trkpt>
      <trkpt lat="46.10598" lon="4.50233">
        <ele>518</ele>
        <time>2017-11-04T12:05:37Z</time>
      </trkpt>
      <trkpt lat="46.10594" lon="4.50228">
        <ele>518</ele>
        <time>2017-11-04T12:07:37Z</time>
      </trkpt>
      <trkpt lat="46.10586" lon="4.50223">
        <ele>517</ele>
        <time>2017-11-04T12:09:37Z</time>
      </trkpt>
      <trkpt lat="46.1058" lon="4.5022">
        <ele>516</ele>
        <time>2017-11-04T12:11:37Z</time>
      </trkpt>
      <trkpt lat="46.10576" lon="4.5022">
        <ele>516</ele>
        <time>2017-11-04T12:13:37Z</time>
      </trkpt>
      <trkpt lat="46.1057" lon="4.5022">
        <ele>515</ele>
        <time>2017-11-04T12:15:37Z</time>
      </trkpt>
      <trkpt lat="46.10554" lon="4.50224">
        <ele>513</ele>
        <time>2017-11-04T12:17:37Z</time>
      </trkpt>
      <trkpt lat="46.10519" lon="4.50237">
        <ele>509</ele>
        <time>2017-11-04T12:19:37Z</time>
      </trkpt>
      <trkpt lat="46.10486" lon="4.50249">
        <ele>504</ele>
        <time>2017-11-04T12:21:37Z</time>
      </trkpt>
      <trkpt lat="46.10462" lon="4.50257">
        <ele>501</ele>
        <time>2017-11-04T12:23:37Z</time>
      </trkpt>
      <trkpt lat="46.10455" lon="4.50258">
        <ele>500</ele>
        <time>2017-11-04T12:25:37Z</time>
      </trkpt>
      <trkpt lat="46.10451" lon="4.50257">
        <ele>500</ele>
        <time>2017-11-04T12:27:37Z</time>
      </trkpt>
      <trkpt lat="46.10445" lon="4.50256">
        <ele>499</ele>
        <time>2017-11-04T12:29:37Z</time>
      </trkpt>
      <trkpt lat="46.10441" lon="4.50254">
        <ele>499</ele>
        <time>2017-11-04T12:31:37Z</time>
      </trkpt>
      <trkpt lat="46.10435" lon="4.50251">
        <ele>498</ele>
        <time>2017-11-04T12:33:37Z</time>
      </trkpt>
      <trkpt lat="46.1043" lon="4.50246">
        <ele>498</ele>
        <time>2017-11-04T12:35:37Z</time>
      </trkpt>
      <trkpt lat="46.10427" lon="4.50242">
        <ele>497</ele>
        <time>2017-11-04T12:37:37Z</time>
      </trkpt>
      <trkpt lat="46.10423" lon="4.50237">
        <ele>497</ele>
        <time>2017-11-04T12:39:37Z</time>
      </trkpt>
      <trkpt lat="46.1042" lon="4.50233">
        <ele>496</ele>
        <time>2017-11-04T12:41:37Z</time>
      </trkpt>
      <trkpt lat="46.10416" lon="4.50226">
        <ele>496</ele>
        <time>2017-11-04T12:43:37Z</time>
      </trkpt>
      <trkpt lat="46.10414" lon="4.50219">
        <ele>495</ele>
        <time>2017-11-04T12:45:37Z</time>
      </trkpt>
      <trkpt lat="46.10412" lon="4.50212">
        <ele>495</ele>
        <time>2017-11-04T12:47:37Z</time>
      </trkpt>
      <trkpt lat="46.1041" lon="4.50204">
        <ele>494</ele>
        <time>2017-11-04T12:49:37Z</time>
      </trkpt>
      <trkpt lat="46.10409" lon="4.50195">
        <ele>494</ele>
        <time>2017-11-04T12:51:37Z</time>
      </trkpt>
      <trkpt lat="46.10404" lon="4.50156">
        <ele>493</ele>
        <time>2017-11-04T12:53:37Z</time>
      </trkpt>
      <trkpt lat="46.10405" lon="4.5014">
        <ele>492</ele>
        <time>2017-11-04T12:55:37Z</time>
      </trkpt>
      <trkpt lat="46.10405" lon="4.50137">
        <ele>492</ele>
        <time>2017-11-04T12:57:37Z</time>
      </trkpt>
      <trkpt lat="46.10407" lon="4.50127">
        <ele>491</ele>
        <time>2017-11-04T12:59:37Z</time>
      </trkpt>
      <trkpt lat="46.10408" lon="4.50121">
        <ele>491</ele>
        <time>2017-11-04T13:01:37Z</time>
      </trkpt>
      <trkpt lat="46.10409" lon="4.50119">
        <ele>491</ele>
        <time>2017-11-04T13:03:37Z</time>
      </trkpt>
      <trkpt lat="46.1041" lon="4.50116">
        <ele>491</ele>
        <time>2017-11-04T13:05:37Z</time>
      </trkpt>
      <trkpt lat="46.10412" lon="4.50114">
        <ele>491</ele>
        <time>2017-11-04T13:07:37Z</time>
      </trkpt>
      <trkpt lat="46.10414" lon="4.5011">
        <ele>492</ele>
        <time>2017-11-04T13:09:37Z</time>
      </trkpt>
      <trkpt lat="46.10419" lon="4.50104">
        <ele>492</ele>
        <time>2017-11-04T13:11:37Z</time>
      </trkpt>
      <trkpt lat="46.10422" lon="4.50099">
        <ele>492</ele>
        <time>2017-11-04T13:13:37Z</time>
      </trkpt>
      <trkpt lat="46.10429" lon="4.50085">
        <ele>493</ele>
        <time>2017-11-04T13:15:37Z</time>
      </trkpt>
      <trkpt lat="46.10434" lon="4.50073">
        <ele>494</ele>
        <time>2017-11-04T13:17:37Z</time>
      </trkpt>
      <trkpt lat="46.10435" lon="4.50065">
        <ele>494</ele>
        <time>2017-11-04T13:19:37Z</time>
      </trkpt>
      <trkpt lat="46.10435" lon="4.50055">
        <ele>494</ele>
        <time>2017-11-04T13:21:37Z</time>
      </trkpt>
      <trkpt lat="46.10433" lon="4.50044">
        <ele>494</ele>
        <time>2017-11-04T13:23:37Z</time>
      </trkpt>
      <trkpt lat="46.10431" lon="4.50037">
        <ele>493</ele>
        <time>2017-11-04T13:25:37Z</time>
      </trkpt>
      <trkpt lat="46.10421" lon="4.50021">
        <ele>492</ele>
        <time>2017-11-04T13:27:37Z</time>
      </trkpt>
      <trkpt lat="46.10408" lon="4.50005">
        <ele>490</ele>
        <time>2017-11-04T13:29:37Z</time>
      </trkpt>
      <trkpt lat="46.1039" lon="4.49986">
        <ele>487</ele>
        <time>2017-11-04T13:31:37Z</time>
      </trkpt>
      <trkpt lat="46.1037" lon="4.49963">
        <ele>484</ele>
        <time>2017-11-04T13:33:37Z</time>
      </trkpt>
      <trkpt lat="46.10355" lon="4.49947">
        <ele>482</ele>
        <time>2017-11-04T13:35:37Z</time>
      </trkpt>
      <trkpt lat="46.10348" lon="4.49939">
        <ele>481</ele>
        <time>2017-11-04T13:37:37Z</time>
      </trkpt>
      <trkpt lat="46.10338" lon="4.49928">
        <ele>480</ele>
        <time>2017-11-04T13:39:37Z</time>
      </trkpt>
      <trkpt lat="46.10333" lon="4.49925">
        <ele>479</ele>
        <time>2017-11-04T13:41:37Z</time>
      </trkpt>
      <trkpt lat="46.10327" lon="4.49923">
        <ele>478</ele>
        <time>2017-11-04T13:43:37Z</time>
      </trkpt>
      <trkpt lat="46.10322" lon="4.49922">
        <ele>478</ele>
        <time>2017-11-04T13:45:37Z</time>
      </trkpt>
      <trkpt lat="46.10319" lon="4.49921">
        <ele>478</ele>
        <time>2017-11-04T13:47:37Z</time>
      </trkpt>
      <trkpt lat="46.10291" lon="4.49924">
        <ele>475</ele>
        <time>2017-11-04T13:49:37Z</time>
      </trkpt>
      <trkpt lat="46.10281" lon="4.49924">
        <ele>474</ele>
        <time>2017-11-04T13:51:37Z</time>
      </trkpt>
      <trkpt lat="46.10276" lon="4.49924">
        <ele>473</ele>
        <time>2017-11-04T13:53:37Z</time>
      </trkpt>
      <trkpt lat="46.10271" lon="4.49921">
        <ele>473</ele>
        <time>2017-11-04T13:55:37Z</time>
      </trkpt>
      <trkpt lat="46.10263" lon="4.49913">
        <ele>473</ele>
        <time>2017-11-04T13:57:37Z</time>
      </trkpt>
      <trkpt lat="46.10234" lon="4.49877">
        <ele>474</ele>
        <time>2017-11-04T13:59:37Z</time>
      </trkpt>
      <trkpt lat="46.10174" lon="4.49802">
        <ele>471</ele>
        <time>2017-11-04T14:01:37Z</time>
      </trkpt>
      <trkpt lat="46.10166" lon="4.49793">
        <ele>470</ele>
        <time>2017-11-04T14:03:37Z</time>
      </trkpt>
      <trkpt lat="46.10149" lon="4.49769">
        <ele>471</ele>
        <time>2017-11-04T14:05:37Z</time>
      </trkpt>
      <trkpt lat="46.10114" lon="4.49728">
        <ele>465</ele>
        <time>2017-11-04T14:07:37Z</time>
      </trkpt>
      <trkpt lat="46.10085" lon="4.49689">
        <ele>457</ele>
        <time>2017-11-04T14:09:37Z</time>
      </trkpt>
      <trkpt lat="46.10066" lon="4.49666">
        <ele>454</ele>
        <time>2017-11-04T14:11:37Z</time>
      </trkpt>
      <trkpt lat="46.1006" lon="4.49658">
        <ele>454</ele>
        <time>2017-11-04T14:13:37Z</time>
      </trkpt>
      <trkpt lat="46.10059" lon="4.49657">
        <ele>453</ele>
        <time>2017-11-04T14:15:37Z</time>
      </trkpt>
      <trkpt lat="46.10058" lon="4.49655">
        <ele>453</ele>
        <time>2017-11-04T14:17:37Z</time>
      </trkpt>
      <trkpt lat="46.10056" lon="4.49651">
        <ele>453</ele>
        <time>2017-11-04T14:19:37Z</time>
      </trkpt>
      <trkpt lat="46.10055" lon="4.49644">
        <ele>453</ele>
        <time>2017-11-04T14:21:37Z</time>
      </trkpt>
      <trkpt lat="46.10052" lon="4.49632">
        <ele>452</ele>
        <time>2017-11-04T14:23:37Z</time>
      </trkpt>
      <trkpt lat="46.10052" lon="4.49632">
        <ele>452</ele>
        <time>2017-11-04T14:25:37Z</time>
      </trkpt>
      <trkpt lat="46.10039" lon="4.49633">
        <ele>451</ele>
        <time>2017-11-04T14:27:37Z</time>
      </trkpt>
      <trkpt lat="46.10016" lon="4.49636">
        <ele>450</ele>
        <time>2017-11-04T14:29:37Z</time>
      </trkpt>
      <trkpt lat="46.10009" lon="4.49637">
        <ele>450</ele>
        <time>2017-11-04T14:31:37Z</time>
      </trkpt>
      <trkpt lat="46.10005" lon="4.49638">
        <ele>450</ele>
        <time>2017-11-04T14:33:37Z</time>
      </trkpt>
      <trkpt lat="46.09967" lon="4.49644">
        <ele>449</ele>
        <time>2017-11-04T14:35:37Z</time>
      </trkpt>
      <trkpt lat="46.09938" lon="4.49654">
        <ele>448</ele>
        <time>2017-11-04T14:37:37Z</time>
      </trkpt>
      <trkpt lat="46.09882" lon="4.49684">
        <ele>450</ele>
        <time>2017-11-04T14:39:37Z</time>
      </trkpt>
      <trkpt lat="46.09853" lon="4.497">
        <ele>452</ele>
        <time>2017-11-04T14:41:37Z</time>
      </trkpt>
      <trkpt lat="46.09824" lon="4.49717">
        <ele>453</ele>
        <time>2017-11-04T14:43:37Z</time>
      </trkpt>
      <trkpt lat="46.09804" lon="4.49728">
        <ele>454</ele>
        <time>2017-11-04T14:45:37Z</time>
      </trkpt>
      <trkpt lat="46.09789" lon="4.49736">
        <ele>454</ele>
        <time>2017-11-04T14:47:37Z</time>
      </trkpt>
      <trkpt lat="46.09783" lon="4.49739">
        <ele>454</ele>
        <time>2017-11-04T14:49:37Z</time>
      </trkpt>
      <trkpt lat="46.09732" lon="4.49752">
        <ele>451</ele>
        <time>2017-11-04T14:51:37Z</time>
      </trkpt>
      <trkpt lat="46.09714" lon="4.49756">
        <ele>451</ele>
        <time>2017-11-04T14:53:37Z</time>
      </trkpt>
      <trkpt lat="46.09693" lon="4.49763">
        <ele>451</ele>
        <time>2017-11-04T14:55:37Z</time>
      </trkpt>
      <trkpt lat="46.09677" lon="4.49767">
        <ele>450</ele>
        <time>2017-11-04T14:57:37Z</time>
      </trkpt>
      <trkpt lat="46.09656" lon="4.49774">
        <ele>450</ele>
        <time>2017-11-04T14:59:37Z</time>
      </trkpt>
      <trkpt lat="46.09644" lon="4.49779">
        <ele>449</ele>
        <time>2017-11-04T15:01:37Z</time>
      </trkpt>
      <trkpt lat="46.09618" lon="4.4979">
        <ele>449</ele>
        <time>2017-11-04T15:03:37Z</time>
      </trkpt>
      <trkpt lat="46.09605" lon="4.49797">
        <ele>449</ele>
        <time>2017-11-04T15:05:37Z</time>
      </trkpt>
      <trkpt lat="46.09592" lon="4.49804">
        <ele>449</ele>
        <time>2017-11-04T15:07:37Z</time>
      </trkpt>
      <trkpt lat="46.09574" lon="4.49816">
        <ele>449</ele>
        <time>2017-11-04T15:09:37Z</time>
      </trkpt>
      <trkpt lat="46.09561" lon="4.49827">
        <ele>449</ele>
        <time>2017-11-04T15:11:37Z</time>
      </trkpt>
      <trkpt lat="46.09532" lon="4.49855">
        <ele>448</ele>
        <time>2017-11-04T15:13:37Z</time>
      </trkpt>
      <trkpt lat="46.09523" lon="4.49863">
        <ele>448</ele>
        <time>2017-11-04T15:15:37Z</time>
      </trkpt>
      <trkpt lat="46.09517" lon="4.49868">
        <ele>448</ele>
        <time>2017-11-04T15:17:37Z</time>
      </trkpt>
      <trkpt lat="46.09509" lon="4.49873">
        <ele>447</ele>
        <time>2017-11-04T15:19:37Z</time>
      </trkpt>
      <trkpt lat="46.09501" lon="4.49876">
        <ele>446</ele>
        <time>2017-11-04T15:21:37Z</time>
      </trkpt>
      <trkpt lat="46.09494" lon="4.49878">
        <ele>446</ele>
        <time>2017-11-04T15:23:37Z</time>
      </trkpt>
      <trkpt lat="46.09485" lon="4.49878">
        <ele>447</ele>
        <time>2017-11-04T15:25:37Z</time>
      </trkpt>
      <trkpt lat="46.09478" lon="4.49879">
        <ele>447</ele>
        <time>2017-11-04T15:27:37Z</time>
      </trkpt>
      <trkpt lat="46.09436" lon="4.49875">
        <ele>447</ele>
        <time>2017-11-04T15:29:37Z</time>
      </trkpt>
      <trkpt lat="46.09426" lon="4.49874">
        <ele>447</ele>
        <time>2017-11-04T15:31:37Z</time>
      </trkpt>
      <trkpt lat="46.09421" lon="4.49873">
        <ele>447</ele>
        <time>2017-11-04T15:33:37Z</time>
      </trkpt>
      <trkpt lat="46.09415" lon="4.49871">
        <ele>447</ele>
        <time>2017-11-04T15:35:37Z</time>
      </trkpt>
      <trkpt lat="46.09406" lon="4.49868">
        <ele>448</ele>
        <time>2017-11-04T15:37:37Z</time>
      </trkpt>
      <trkpt lat="46.09393" lon="4.49861">
        <ele>449</ele>
        <time>2017-11-04T15:39:37Z</time>
      </trkpt>
      <trkpt lat="46.09381" lon="4.49851">
        <ele>449</ele>
        <time>2017-11-04T15:41:37Z</time>
      </trkpt>
      <trkpt lat="46.09371" lon="4.4984">
        <ele>449</ele>
        <time>2017-11-04T15:43:37Z</time>
      </trkpt>
      <trkpt lat="46.09364" lon="4.4983">
        <ele>449</ele>
        <time>2017-11-04T15:45:37Z</time>
      </trkpt>
      <trkpt lat="46.09354" lon="4.49819">
        <ele>449</ele>
        <time>2017-11-04T15:47:37Z</time>
      </trkpt>
      <trkpt lat="46.09342" lon="4.49805">
        <ele>448</ele>
        <time>2017-11-04T15:49:37Z</time>
      </trkpt>
      <trkpt lat="46.09332" lon="4.49796">
        <ele>448</ele>
        <time>2017-11-04T15:51:37Z</time>
      </trkpt>
      <trkpt lat="46.09313" lon="4.49783">
        <ele>445</ele>
        <time>2017-11-04T15:53:37Z</time>
      </trkpt>
      <trkpt lat="46.0931" lon="4.49781">
        <ele>445</ele>
        <time>2017-11-04T15:55:37Z</time>
      </trkpt>
      <trkpt lat="46.09299" lon="4.49776">
        <ele>444</ele>
        <time>2017-11-04T15:57:37Z</time>
      </trkpt>
      <trkpt lat="46.09288" lon="4.49773">
        <ele>443</ele>
        <time>2017-11-04T15:59:37Z</time>
      </trkpt>
      <trkpt lat="46.09279" lon="4.49772">
        <ele>442</ele>
        <time>2017-11-04T16:01:37Z</time>
      </trkpt>
      <trkpt lat="46.09269" lon="4.49772">
        <ele>442</ele>
        <time>2017-11-04T16:03:37Z</time>
      </trkpt>
      <trkpt lat="46.09258" lon="4.49777">
        <ele>443</ele>
        <time>2017-11-04T16:05:37Z</time>
      </trkpt>
      <trkpt lat="46.09249" lon="4.49782">
        <ele>443</ele>
        <time>2017-11-04T16:07:37Z</time>
      </trkpt>
      <trkpt lat="46.09227" lon="4.498">
        <ele>444</ele>
        <time>2017-11-04T16:09:37Z</time>
      </trkpt>
      <trkpt lat="46.09212" lon="4.49817">
        <ele>444</ele>
        <time>2017-11-04T16:11:37Z</time>
      </trkpt>
      <trkpt lat="46.0921" lon="4.49819">
        <ele>444</ele>
        <time>2017-11-04T16:13:37Z</time>
      </trkpt>
      <trkpt lat="46.0919" lon="4.4984">
        <ele>444</ele>
        <time>2017-11-04T16:15:37Z</time>
      </trkpt>
      <trkpt lat="46.09185" lon="4.49845">
        <ele>444</ele>
        <time>2017-11-04T16:17:37Z</time>
      </trkpt>
      <trkpt lat="46.09139" lon="4.49897">
        <ele>444</ele>
        <time>2017-11-04T16:19:37Z</time>
      </trkpt>
      <trkpt lat="46.09115" lon="4.49924">
        <ele>442</ele>
        <time>2017-11-04T16:21:37Z</time>
      </trkpt>
      <trkpt lat="46.0911" lon="4.49929">
        <ele>442</ele>
        <time>2017-11-04T16:23:37Z</time>
      </trkpt>
      <trkpt lat="46.09094" lon="4.49948">
        <ele>440</ele>
        <time>2017-11-04T16:25:37Z</time>
      </trkpt>
      <trkpt lat="46.09078" lon="4.49965">
        <ele>438</ele>
        <time>2017-11-04T16:27:37Z</time>
      </trkpt>
      <trkpt lat="46.09074" lon="4.4997">
        <ele>438</ele>
        <time>2017-11-04T16:29:37Z</time>
      </trkpt>
      <trkpt lat="46.09066" lon="4.49979">
        <ele>438</ele>
        <time>2017-11-04T16:31:37Z</time>
      </trkpt>
      <trkpt lat="46.09056" lon="4.49989">
        <ele>438</ele>
        <time>2017-11-04T16:33:37Z</time>
      </trkpt>
      <trkpt lat="46.09039" lon="4.50004">
        <ele>437</ele>
        <time>2017-11-04T16:35:37Z</time>
      </trkpt>
      <trkpt lat="46.09012" lon="4.50026">
        <ele>437</ele>
        <time>2017-11-04T16:37:37Z</time>
      </trkpt>
      <trkpt lat="46.08973" lon="4.50062">
        <ele>439</ele>
        <time>2017-11-04T16:39:37Z</time>
      </trkpt>
      <trkpt lat="46.08955" lon="4.50074">
        <ele>440</ele>
        <time>2017-11-04T16:41:37Z</time>
      </trkpt>
      <trkpt lat="46.08947" lon="4.50078">
        <ele>440</ele>
        <time>2017-11-04T16:43:37Z</time>
      </trkpt>
      <trkpt lat="46.08934" lon="4.50082">
        <ele>439</ele>
        <time>2017-11-04T16:45:37Z</time>
      </trkpt>
      <trkpt lat="46.08921" lon="4.50086">
        <ele>439</ele>
        <time>2017-11-04T16:47:37Z</time>
      </trkpt>
      <trkpt lat="46.08886" lon="4.5009">
        <ele>438</ele>
        <time>2017-11-04T16:49:37Z</time>
      </trkpt>
      <trkpt lat="46.08863" lon="4.50091">
        <ele>436</ele>
        <time>2017-11-04T16:51:37Z</time>
      </trkpt>
      <trkpt lat="46.08838" lon="4.50091">
        <ele>434</ele>
        <time>2017-11-04T16:53:37Z</time>
      </trkpt>
      <trkpt lat="46.08794" lon="4.50089">
        <ele>431</ele>
        <time>2017-11-04T16:55:37Z</time>
      </trkpt>
      <trkpt lat="46.08775" lon="4.50087">
        <ele>429</ele>
        <time>2017-11-04T16:57:37Z</time>
      </trkpt>
      <trkpt lat="46.0876" lon="4.50088">
        <ele>428</ele>
        <time>2017-11-04T16:59:37Z</time>
      </trkpt>
      <trkpt lat="46.08752" lon="4.50089">
        <ele>428</ele>
        <time>2017-11-04T17:01:37Z</time>
      </trkpt>
      <trkpt lat="46.08752" lon="4.50089">
        <ele>428</ele>
        <time>2017-11-04T17:03:37Z</time>
      </trkpt>
      <trkpt lat="46.08742" lon="4.50086">
        <ele>427</ele>
        <time>2017-11-04T17:05:37Z</time>
      </trkpt>
      <trkpt lat="46.08735" lon="4.50082">
        <ele>427</ele>
        <time>2017-11-04T17:07:37Z</time>
      </trkpt>
      <trkpt lat="46.0873" lon="4.50078">
        <ele>427</ele>
        <time>2017-11-04T17:09:37Z</time>
      </trkpt>
      <trkpt lat="46.08723" lon="4.5007">
        <ele>428</ele>
        <time>2017-11-04T17:11:37Z</time>
      </trkpt>
      <trkpt lat="46.08721" lon="4.50066">
        <ele>428</ele>
        <time>2017-11-04T17:13:37Z</time>
      </trkpt>
      <trkpt lat="46.08717" lon="4.50061">
        <ele>428</ele>
        <time>2017-11-04T17:15:37Z</time>
      </trkpt>
      <trkpt lat="46.08712" lon="4.50056">
        <ele>429</ele>
        <time>2017-11-04T17:17:37Z</time>
      </trkpt>
      <trkpt lat="46.08708" lon="4.50054">
        <ele>429</ele>
        <time>2017-11-04T17:19:37Z</time>
      </trkpt>
      <trkpt lat="46.08705" lon="4.50052">
        <ele>429</ele>
        <time>2017-11-04T17:21:37Z</time>
      </trkpt>
      <trkpt lat="46.08694" lon="4.50051">
        <ele>429</ele>
        <time>2017-11-04T17:23:37Z</time>
      </trkpt>
      <trkpt lat="46.08689" lon="4.50047">
        <ele>430</ele>
        <time>2017-11-04T17:25:37Z</time>
      </trkpt>
      <trkpt lat="46.08686" lon="4.50046">
        <ele>430</ele>
        <time>2017-11-04T17:27:37Z</time>
      </trkpt>
      <trkpt lat="46.08642" lon="4.50032">
        <ele>430</ele>
        <time>2017-11-04T17:29:37Z</time>
      </trkpt>
      <trkpt lat="46.08628" lon="4.50027">
        <ele>430</ele>
        <time>2017-11-04T17:31:37Z</time>
      </trkpt>
      <trkpt lat="46.08628" lon="4.50027">
        <ele>430</ele>
        <time>2017-11-04T17:33:37Z</time>
      </trkpt>
      <trkpt lat="46.08629" lon="4.49991">
        <ele>432</ele>
        <time>2017-11-04T17:35:37Z</time>
      </trkpt>
      <trkpt lat="46.08628" lon="4.49984">
        <ele>433</ele>
        <time>2017-11-04T17:37:37Z</time>
      </trkpt>
      <trkpt lat="46.08623" lon="4.49976">
        <ele>434</ele>
        <time>2017-11-04T17:39:37Z</time>
      </trkpt>
      <trkpt lat="46.0862" lon="4.49973">
        <ele>434</ele>
        <time>2017-11-04T17:41:37Z</time>
      </trkpt>
      <trkpt lat="46.08616" lon="4.4997">
        <ele>434</ele>
        <time>2017-11-04T17:43:37Z</time>
      </trkpt>
      <trkpt lat="46.08608" lon="4.49966">
        <ele>435</ele>
        <time>2017-11-04T17:45:37Z</time>
      </trkpt>
      <trkpt lat="46.08601" lon="4.49962">
        <ele>435</ele>
        <time>2017-11-04T17:47:37Z</time>
      </trkpt>
      <trkpt lat="46.08594" lon="4.4996">
        <ele>435</ele>
        <time>2017-11-04T17:49:37Z</time>
      </trkpt>
      <trkpt lat="46.08584" lon="4.49957">
        <ele>436</ele>
        <time>2017-11-04T17:51:37Z</time>
      </trkpt>
      <trkpt lat="46.08578" lon="4.49954">
        <ele>436</ele>
        <time>2017-11-04T17:53:37Z</time>
      </trkpt>
      <trkpt lat="46.08576" lon="4.49951">
        <ele>436</ele>
        <time>2017-11-04T17:55:37Z</time>
      </trkpt>
      <trkpt lat="46.08574" lon="4.49947">
        <ele>436</ele>
        <time>2017-11-04T17:57:37Z</time>
      </trkpt>
      <trkpt lat="46.08573" lon="4.49944">
        <ele>437</ele>
        <time>2017-11-04T17:59:37Z</time>
      </trkpt>
      <trkpt lat="46.08573" lon="4.49941">
        <ele>437</ele>
        <time>2017-11-04T18:01:37Z</time>
      </trkpt>
      <trkpt lat="46.08573" lon="4.49935">
        <ele>438</ele>
        <time>2017-11-04T18:03:37Z</time>
      </trkpt>
      <trkpt lat="46.08574" lon="4.4993">
        <ele>439</ele>
        <time>2017-11-04T18:05:37Z</time>
      </trkpt>
      <trkpt lat="46.08574" lon="4.49928">
        <ele>439</ele>
        <time>2017-11-04T18:07:37Z</time>
      </trkpt>
      <trkpt lat="46.08576" lon="4.49921">
        <ele>440</ele>
        <time>2017-11-04T18:09:37Z</time>
      </trkpt>
      <trkpt lat="46.08578" lon="4.49912">
        <ele>441</ele>
        <time>2017-11-04T18:11:37Z</time>
      </trkpt>
      <trkpt lat="46.08578" lon="4.4991">
        <ele>441</ele>
        <time>2017-11-04T18:13:37Z</time>
      </trkpt>
      <trkpt lat="46.08579" lon="4.49902">
        <ele>442</ele>
        <time>2017-11-04T18:15:37Z</time>
      </trkpt>
      <trkpt lat="46.08578" lon="4.49896">
        <ele>443</ele>
        <time>2017-11-04T18:17:37Z</time>
      </trkpt>
      <trkpt lat="46.08576" lon="4.49892">
        <ele>443</ele>
        <time>2017-11-04T18:19:37Z</time>
      </trkpt>
      <trkpt lat="46.08572" lon="4.49888">
        <ele>444</ele>
        <time>2017-11-04T18:21:37Z</time>
      </trkpt>
      <trkpt lat="46.08567" lon="4.49886">
        <ele>444</ele>
        <time>2017-11-04T18:23:37Z</time>
      </trkpt>
      <trkpt lat="46.0856" lon="4.49883">
        <ele>443</ele>
        <time>2017-11-04T18:25:37Z</time>
      </trkpt>
      <trkpt lat="46.08556" lon="4.49881">
        <ele>443</ele>
        <time>2017-11-04T18:27:37Z</time>
      </trkpt>
      <trkpt lat="46.08524" lon="4.4987">
        <ele>442</ele>
        <time>2017-11-04T18:29:37Z</time>
      </trkpt>
      <trkpt lat="46.08505" lon="4.49859">
        <ele>442</ele>
        <time>2017-11-04T18:31:37Z</time>
      </trkpt>
      <trkpt lat="46.08475" lon="4.49841">
        <ele>442</ele>
        <time>2017-11-04T18:33:37Z</time>
      </trkpt>
      <trkpt lat="46.08461" lon="4.4983">
        <ele>441</ele>
        <time>2017-11-04T18:35:37Z</time>
      </trkpt>
      <trkpt lat="46.08454" lon="4.49822">
        <ele>441</ele>
        <time>2017-11-04T18:37:37Z</time>
      </trkpt>
      <trkpt lat="46.08448" lon="4.4981">
        <ele>441</ele>
        <time>2017-11-04T18:39:37Z</time>
      </trkpt>
      <trkpt lat="46.08444" lon="4.49795">
        <ele>441</ele>
        <time>2017-11-04T18:41:37Z</time>
      </trkpt>
      <trkpt lat="46.08441" lon="4.49779">
        <ele>441</ele>
        <time>2017-11-04T18:43:37Z</time>
      </trkpt>
      <trkpt lat="46.0844" lon="4.49762">
        <ele>441</ele>
        <time>2017-11-04T18:45:37Z</time>
      </trkpt>
      <trkpt lat="46.08441" lon="4.49746">
        <ele>441</ele>
        <time>2017-11-04T18:47:37Z</time>
      </trkpt>
      <trkpt lat="46.08443" lon="4.49718">
        <ele>443</ele>
        <time>2017-11-04T18:49:37Z</time>
      </trkpt>
      <trkpt lat="46.08442" lon="4.49703">
        <ele>443</ele>
        <time>2017-11-04T18:51:37Z</time>
      </trkpt>
      <trkpt lat="46.08437" lon="4.49693">
        <ele>443</ele>
        <time>2017-11-04T18:53:37Z</time>
      </trkpt>
      <trkpt lat="46.0843" lon="4.49685">
        <ele>443</ele>
        <time>2017-11-04T18:55:37Z</time>
      </trkpt>
      <trkpt lat="46.08422" lon="4.49679">
        <ele>443</ele>
        <time>2017-11-04T18:57:37Z</time>
      </trkpt>
      <trkpt lat="46.08412" lon="4.49677">
        <ele>442</ele>
        <time>2017-11-04T18:59:37Z</time>
      </trkpt>
      <trkpt lat="46.08401" lon="4.49677">
        <ele>442</ele>
        <time>2017-11-04T19:01:37Z</time>
      </trkpt>
      <trkpt lat="46.08372" lon="4.49682">
        <ele>442</ele>
        <time>2017-11-04T19:03:37Z</time>
      </trkpt>
      <trkpt lat="46.08359" lon="4.49682">
        <ele>442</ele>
        <time>2017-11-04T19:05:37Z</time>
      </trkpt>
      <trkpt lat="46.08347" lon="4.4968">
        <ele>442</ele>
        <time>2017-11-04T19:07:37Z</time>
      </trkpt>
      <trkpt lat="46.08335" lon="4.49676">
        <ele>442</ele>
        <time>2017-11-04T19:09:37Z</time>
      </trkpt>
      <trkpt lat="46.08324" lon="4.4967">
        <ele>442</ele>
        <time>2017-11-04T19:11:37Z</time>
      </trkpt>
      <trkpt lat="46.083" lon="4.4965">
        <ele>443</ele>
        <time>2017-11-04T19:13:37Z</time>
      </trkpt>
      <trkpt lat="46.08291" lon="4.49638">
        <ele>444</ele>
        <time>2017-11-04T19:15:37Z</time>
      </trkpt>
      <trkpt lat="46.08283" lon="4.49624">
        <ele>446</ele>
        <time>2017-11-04T19:17:37Z</time>
      </trkpt>
      <trkpt lat="46.08276" lon="4.49612">
        <ele>447</ele>
        <time>2017-11-04T19:19:37Z</time>
      </trkpt>
      <trkpt lat="46.08266" lon="4.49604">
        <ele>448</ele>
        <time>2017-11-04T19:21:37Z</time>
      </trkpt>
      <trkpt lat="46.08259" lon="4.496">
        <ele>449</ele>
        <time>2017-11-04T19:23:37Z</time>
      </trkpt>
      <trkpt lat="46.0825" lon="4.49599">
        <ele>449</ele>
        <time>2017-11-04T19:25:37Z</time>
      </trkpt>
      <trkpt lat="46.08242" lon="4.496">
        <ele>449</ele>
        <time>2017-11-04T19:27:37Z</time>
      </trkpt>
      <trkpt lat="46.08236" lon="4.49604">
        <ele>448</ele>
        <time>2017-11-04T19:29:37Z</time>
      </trkpt>
      <trkpt lat="46.08225" lon="4.49613">
        <ele>447</ele>
        <time>2017-11-04T19:31:37Z</time>
      </trkpt>
      <trkpt lat="46.08208" lon="4.49622">
        <ele>447</ele>
        <time>2017-11-04T19:33:37Z</time>
      </trkpt>
      <trkpt lat="46.08203" lon="4.49621">
        <ele>447</ele>
        <time>2017-11-04T19:35:37Z</time>
      </trkpt>
      <trkpt lat="46.08192" lon="4.49614">
        <ele>448</ele>
        <time>2017-11-04T19:37:37Z</time>
      </trkpt>
      <trkpt lat="46.0817" lon="4.49601">
        <ele>451</ele>
        <time>2017-11-04T19:39:37Z</time>
      </trkpt>
      <trkpt lat="46.08155" lon="4.49588">
        <ele>451</ele>
        <time>2017-11-04T19:41:37Z</time>
      </trkpt>
      <trkpt lat="46.08127" lon="4.49564">
        <ele>452</ele>
        <time>2017-11-04T19:43:37Z</time>
      </trkpt>
      <trkpt lat="46.08113" lon="4.4955">
        <ele>452</ele>
        <time>2017-11-04T19:45:37Z</time>
      </trkpt>
      <trkpt lat="46.08103" lon="4.49536">
        <ele>453</ele>
        <time>2017-11-04T19:47:37Z</time>
      </trkpt>
      <trkpt lat="46.08097" lon="4.49527">
        <ele>453</ele>
        <time>2017-11-04T19:49:37Z</time>
      </trkpt>
      <trkpt lat="46.08086" lon="4.49496">
        <ele>454</ele>
        <time>2017-11-04T19:51:37Z</time>
      </trkpt>
      <trkpt lat="46.08079" lon="4.4948">
        <ele>457</ele>
        <time>2017-11-04T19:53:37Z</time>
      </trkpt>
      <trkpt lat="46.08071" lon="4.49468">
        <ele>459</ele>
        <time>2017-11-04T19:55:37Z</time>
      </trkpt>
      <trkpt lat="46.08064" lon="4.49459">
        <ele>460</ele>
        <time>2017-11-04T19:57:37Z</time>
      </trkpt>
      <trkpt lat="46.08048" lon="4.49443">
        <ele>463</ele>
        <time>2017-11-04T19:59:37Z</time>
      </trkpt>
      <trkpt lat="46.0804" lon="4.49434">
        <ele>464</ele>
        <time>2017-11-04T20:01:37Z</time>
      </trkpt>
      <trkpt lat="46.08028" lon="4.49422">
        <ele>465</ele>
        <time>2017-11-04T20:03:37Z</time>
      </trkpt>
      <trkpt lat="46.08015" lon="4.49413">
        <ele>466</ele>
        <time>2017-11-04T20:05:37Z</time>
      </trkpt>
      <trkpt lat="46.08001" lon="4.49405">
        <ele>467</ele>
        <time>2017-11-04T20:07:37Z</time>
      </trkpt>
      <trkpt lat="46.07997" lon="4.49405">
        <ele>467</ele>
        <time>2017-11-04T20:09:37Z</time>
      </trkpt>
      <trkpt lat="46.07971" lon="4.494">
        <ele>467</ele>
        <time>2017-11-04T20:11:37Z</time>
      </trkpt>
      <trkpt lat="46.0796" lon="4.49395">
        <ele>468</ele>
        <time>2017-11-04T20:13:37Z</time>
      </trkpt>
      <trkpt lat="46.07959" lon="4.49395">
        <ele>468</ele>
        <time>2017-11-04T20:15:37Z</time>
      </trkpt>
      <trkpt lat="46.0794" lon="4.49381">
        <ele>470</ele>
        <time>2017-11-04T20:17:37Z</time>
      </trkpt>
      <trkpt lat="46.07933" lon="4.49371">
        <ele>472</ele>
        <time>2017-11-04T20:19:37Z</time>
      </trkpt>
      <trkpt lat="46.07918" lon="4.49344">
        <ele>477</ele>
        <time>2017-11-04T20:21:37Z</time>
      </trkpt>
      <trkpt lat="46.07912" lon="4.49338">
        <ele>478</ele>
        <time>2017-11-04T20:23:37Z</time>
      </trkpt>
      <trkpt lat="46.07912" lon="4.49338">
        <ele>478</ele>
        <time>2017-11-04T20:25:37Z</time>
      </trkpt>
      <trkpt lat="46.07896" lon="4.49315">
        <ele>478</ele>
        <time>2017-11-04T20:27:37Z</time>
      </trkpt>
      <trkpt lat="46.07889" lon="4.49302">
        <ele>477</ele>
        <time>2017-11-04T20:29:37Z</time>
      </trkpt>
      <trkpt lat="46.07887" lon="4.49295">
        <ele>477</ele>
        <time>2017-11-04T20:31:37Z</time>
      </trkpt>
      <trkpt lat="46.07884" lon="4.49278">
        <ele>476</ele>
        <time>2017-11-04T20:33:37Z</time>
      </trkpt>
      <trkpt lat="46.07881" lon="4.49272">
        <ele>476</ele>
        <time>2017-11-04T20:35:37Z</time>
      </trkpt>
      <trkpt lat="46.07878" lon="4.49268">
        <ele>475</ele>
        <time>2017-11-04T20:37:37Z</time>
      </trkpt>
      <trkpt lat="46.07863" lon="4.49263">
        <ele>474</ele>
        <time>2017-11-04T20:39:37Z</time>
      </trkpt>
      <trkpt lat="46.07832" lon="4.49262">
        <ele>473</ele>
        <time>2017-11-04T20:41:37Z</time>
      </trkpt>
      <trkpt lat="46.07824" lon="4.49259">
        <ele>471</ele>
        <time>2017-11-04T20:43:37Z</time>
      </trkpt>
      <trkpt lat="46.07816" lon="4.49254">
        <ele>470</ele>
        <time>2017-11-04T20:45:37Z</time>
      </trkpt>
      <trkpt lat="46.07806" lon="4.4925">
        <ele>469</ele>
        <time>2017-11-04T20:47:37Z</time>
      </trkpt>
      <trkpt lat="46.07797" lon="4.49244">
        <ele>467</ele>
        <time>2017-11-04T20:49:37Z</time>
      </trkpt>
      <trkpt lat="46.0779" lon="4.49239">
        <ele>466</ele>
        <time>2017-11-04T20:51:37Z</time>
      </trkpt>
      <trkpt lat="46.07787" lon="4.49234">
        <ele>465</ele>
        <time>2017-11-04T20:53:37Z</time>
      </trkpt>
      <trkpt lat="46.07782" lon="4.4922">
        <ele>462</ele>
        <time>2017-11-04T20:55:37Z</time>
      </trkpt>
      <trkpt lat="46.07773" lon="4.492">
        <ele>459</ele>
        <time>2017-11-04T20:57:37Z</time>
      </trkpt>
      <trkpt lat="46.07773" lon="4.492">
        <ele>459</ele>
        <time>2017-11-04T20:59:37Z</time>
      </trkpt>
      <trkpt lat="46.0777" lon="4.49194">
        <ele>458</ele>
        <time>2017-11-04T21:01:37Z</time>
      </trkpt>
      <trkpt lat="46.07766" lon="4.49191">
        <ele>457</ele>
        <time>2017-11-04T21:03:37Z</time>
      </trkpt>
      <trkpt lat="46.0776" lon="4.49189">
        <ele>456</ele>
        <time>2017-11-04T21:05:37Z</time>
      </trkpt>
      <trkpt lat="46.07747" lon="4.49187">
        <ele>455</ele>
        <time>2017-11-04T21:07:37Z</time>
      </trkpt>
      <trkpt lat="46.07714" lon="4.49191">
        <ele>449</ele>
        <time>2017-11-04T21:09:37Z</time>
      </trkpt>
      <trkpt lat="46.077" lon="4.49194">
        <ele>447</ele>
        <time>2017-11-04T21:11:37Z</time>
      </trkpt>
      <trkpt lat="46.0769" lon="4.49197">
        <ele>446</ele>
        <time>2017-11-04T21:13:37Z</time>
      </trkpt>
      <trkpt lat="46.07628" lon="4.4923">
        <ele>435</ele>
        <time>2017-11-04T21:15:37Z</time>
      </trkpt>
      <trkpt lat="46.0761" lon="4.49245">
        <ele>433</ele>
        <time>2017-11-04T21:17:37Z</time>
      </trkpt>
      <trkpt lat="46.07603" lon="4.49255">
        <ele>432</ele>
        <time>2017-11-04T21:19:37Z</time>
      </trkpt>
      <trkpt lat="46.07599" lon="4.49267">
        <ele>432</ele>
        <time>2017-11-04T21:21:37Z</time>
      </trkpt>
      <trkpt lat="46.07592" lon="4.4928">
        <ele>431</ele>
        <time>2017-11-04T21:23:37Z</time>
      </trkpt>
      <trkpt lat="46.07584" lon="4.49288">
        <ele>429</ele>
        <time>2017-11-04T21:25:37Z</time>
      </trkpt>
      <trkpt lat="46.07573" lon="4.49295">
        <ele>428</ele>
        <time>2017-11-04T21:27:37Z</time>
      </trkpt>
      <trkpt lat="46.0756" lon="4.493">
        <ele>426</ele>
        <time>2017-11-04T21:29:37Z</time>
      </trkpt>
      <trkpt lat="46.07547" lon="4.49303">
        <ele>424</ele>
        <time>2017-11-04T21:31:37Z</time>
      </trkpt>
      <trkpt lat="46.07531" lon="4.49305">
        <ele>421</ele>
        <time>2017-11-04T21:33:37Z</time>
      </trkpt>
      <trkpt lat="46.07517" lon="4.49305">
        <ele>419</ele>
        <time>2017-11-04T21:35:37Z</time>
      </trkpt>
      <trkpt lat="46.07495" lon="4.49297">
        <ele>414</ele>
        <time>2017-11-04T21:37:37Z</time>
      </trkpt>
      <trkpt lat="46.07484" lon="4.49291">
        <ele>413</ele>
        <time>2017-11-04T21:39:37Z</time>
      </trkpt>
      <trkpt lat="46.07477" lon="4.49285">
        <ele>411</ele>
        <time>2017-11-04T21:41:37Z</time>
      </trkpt>
      <trkpt lat="46.07464" lon="4.49273">
        <ele>409</ele>
        <time>2017-11-04T21:43:37Z</time>
      </trkpt>
      <trkpt lat="46.07455" lon="4.49266">
        <ele>408</ele>
        <time>2017-11-04T21:45:37Z</time>
      </trkpt>
      <trkpt lat="46.07446" lon="4.4926">
        <ele>406</ele>
        <time>2017-11-04T21:47:37Z</time>
      </trkpt>
      <trkpt lat="46.07438" lon="4.49258">
        <ele>405</ele>
        <time>2017-11-04T21:49:37Z</time>
      </trkpt>
      <trkpt lat="46.07427" lon="4.49258">
        <ele>404</ele>
        <time>2017-11-04T21:51:37Z</time>
      </trkpt>
      <trkpt lat="46.07414" lon="4.49261">
        <ele>403</ele>
        <time>2017-11-04T21:53:37Z</time>
      </trkpt>
      <trkpt lat="46.07404" lon="4.49267">
        <ele>403</ele>
        <time>2017-11-04T21:55:37Z</time>
      </trkpt>
      <trkpt lat="46.07395" lon="4.49273">
        <ele>402</ele>
        <time>2017-11-04T21:57:37Z</time>
      </trkpt>
      <trkpt lat="46.07377" lon="4.49288">
        <ele>401</ele>
        <time>2017-11-04T21:59:37Z</time>
      </trkpt>
      <trkpt lat="46.07367" lon="4.49296">
        <ele>400</ele>
        <time>2017-11-04T22:01:37Z</time>
      </trkpt>
      <trkpt lat="46.07351" lon="4.49315">
        <ele>398</ele>
        <time>2017-11-04T22:03:37Z</time>
      </trkpt>
      <trkpt lat="46.07346" lon="4.4932">
        <ele>398</ele>
        <time>2017-11-04T22:05:37Z</time>
      </trkpt>
      <trkpt lat="46.07346" lon="4.4932">
        <ele>398</ele>
        <time>2017-11-04T22:07:37Z</time>
      </trkpt>
      <trkpt lat="46.07342" lon="4.49314">
        <ele>397</ele>
        <time>2017-11-04T22:09:37Z</time>
      </trkpt>
      <trkpt lat="46.0734" lon="4.4931">
        <ele>397</ele>
        <time>2017-11-04T22:11:37Z</time>
      </trkpt>
      <trkpt lat="46.07337" lon="4.49303">
        <ele>397</ele>
        <time>2017-11-04T22:13:37Z</time>
      </trkpt>
      <trkpt lat="46.07333" lon="4.49296">
        <ele>396</ele>
        <time>2017-11-04T22:15:37Z</time>
      </trkpt>
      <trkpt lat="46.0733" lon="4.49289">
        <ele>396</ele>
        <time>2017-11-04T22:17:37Z</time>
      </trkpt>
      <trkpt lat="46.07328" lon="4.49285">
        <ele>396</ele>
        <time>2017-11-04T22:19:37Z</time>
      </trkpt>
      <trkpt lat="46.07327" lon="4.4928">
        <ele>396</ele>
        <time>2017-11-04T22:21:37Z</time>
      </trkpt>
      <trkpt lat="46.07326" lon="4.49273">
        <ele>396</ele>
        <time>2017-11-04T22:23:37Z</time>
      </trkpt>
      <trkpt lat="46.07325" lon="4.49263">
        <ele>396</ele>
        <time>2017-11-04T22:25:37Z</time>
      </trkpt>
      <trkpt lat="46.07326" lon="4.49255">
        <ele>397</ele>
        <time>2017-11-04T22:27:37Z</time>
      </trkpt>
      <trkpt lat="46.07327" lon="4.49247">
        <ele>396</ele>
        <time>2017-11-04T22:29:37Z</time>
      </trkpt>
      <trkpt lat="46.0733" lon="4.4924">
        <ele>396</ele>
        <time>2017-11-04T22:31:37Z</time>
      </trkpt>
      <trkpt lat="46.07336" lon="4.49228">
        <ele>396</ele>
        <time>2017-11-04T22:33:37Z</time>
      </trkpt>
      <trkpt lat="46.07347" lon="4.49212">
        <ele>396</ele>
        <time>2017-11-04T22:35:37Z</time>
      </trkpt>
      <trkpt lat="46.07363" lon="4.49195">
        <ele>396</ele>
        <time>2017-11-04T22:37:37Z</time>
      </trkpt>
      <trkpt lat="46.07381" lon="4.49182">
        <ele>395</ele>
        <time>2017-11-04T22:39:37Z</time>
      </trkpt>
      <trkpt lat="46.07408" lon="4.49165">
        <ele>395</ele>
        <time>2017-11-04T22:41:37Z</time>
      </trkpt>
      <trkpt lat="46.0743" lon="4.49154">
        <ele>396</ele>
        <time>2017-11-04T22:43:37Z</time>
      </trkpt>
      <trkpt lat="46.07447" lon="4.49144">
        <ele>397</ele>
        <time>2017-11-04T22:45:37Z</time>
      </trkpt>
      <trkpt lat="46.07455" lon="4.49138">
        <ele>397</ele>
        <time>2017-11-04T22:47:37Z</time>
      </trkpt>
      <trkpt lat="46.0746" lon="4.49131">
        <ele>397</ele>
        <time>2017-11-04T22:49:37Z</time>
      </trkpt>
      <trkpt lat="46.07463" lon="4.49122">
        <ele>397</ele>
        <time>2017-11-04T22:51:37Z</time>
      </trkpt>
      <trkpt lat="46.07464" lon="4.49115">
        <ele>396</ele>
        <time>2017-11-04T22:53:37Z</time>
      </trkpt>
      <trkpt lat="46.07464" lon="4.49108">
        <ele>396</ele>
        <time>2017-11-04T22:55:37Z</time>
      </trkpt>
      <trkpt lat="46.07465" lon="4.49105">
        <ele>396</ele>
        <time>2017-11-04T22:57:37Z</time>
      </trkpt>
      <trkpt lat="46.07465" lon="4.49101">
        <ele>396</ele>
        <time>2017-11-04T22:59:37Z</time>
      </trkpt>
      <trkpt lat="46.07465" lon="4.49097">
        <ele>395</ele>
        <time>2017-11-04T23:01:37Z</time>
      </trkpt>
      <trkpt lat="46.07464" lon="4.49091">
        <ele>395</ele>
        <time>2017-11-04T23:03:37Z</time>
      </trkpt>
      <trkpt lat="46.07462" lon="4.49075">
        <ele>395</ele>
        <time>2017-11-04T23:05:37Z</time>
      </trkpt>
      <trkpt lat="46.07462" lon="4.49069">
        <ele>395</ele>
        <time>2017-11-04T23:07:37Z</time>
      </trkpt>
      <trkpt lat="46.07461" lon="4.49063">
        <ele>396</ele>
        <time>2017-11-04T23:09:37Z</time>
      </trkpt>
      <trkpt lat="46.0746" lon="4.49057">
        <ele>396</ele>
        <time>2017-11-04T23:11:37Z</time>
      </trkpt>
      <trkpt lat="46.0746" lon="4.49056">
        <ele>396</ele>
        <time>2017-11-04T23:13:37Z</time>
      </trkpt>
      <trkpt lat="46.0746" lon="4.49056">
        <ele>396</ele>
        <time>2017-11-04T23:15:37Z</time>
      </trkpt>
      <trkpt lat="46.07465" lon="4.49054">
        <ele>396</ele>
        <time>2017-11-04T23:17:37Z</time>
      </trkpt>
      <trkpt lat="46.0747" lon="4.49052">
        <ele>397</ele>
        <time>2017-11-04T23:19:37Z</time>
      </trkpt>
      <trkpt lat="46.07477" lon="4.49049">
        <ele>397</ele>
        <time>2017-11-04T23:21:37Z</time>
      </trkpt>
      <trkpt lat="46.07483" lon="4.49046">
        <ele>397</ele>
        <time>2017-11-04T23:23:37Z</time>
      </trkpt>
      <trkpt lat="46.07488" lon="4.49042">
        <ele>397</ele>
        <time>2017-11-04T23:25:37Z</time>
      </trkpt>
      <trkpt lat="46.07493" lon="4.49037">
        <ele>397</ele>
        <time>2017-11-04T23:27:37Z</time>
      </trkpt>
      <trkpt lat="46.07496" lon="4.49033">
        <ele>397</ele>
        <time>2017-11-04T23:29:37Z</time>
      </trkpt>
      <trkpt lat="46.07498" lon="4.49029">
        <ele>398</ele>
        <time>2017-11-04T23:31:37Z</time>
      </trkpt>
      <trkpt lat="46.075" lon="4.49023">
        <ele>398</ele>
        <time>2017-11-04T23:33:37Z</time>
      </trkpt>
      <trkpt lat="46.07502" lon="4.4902">
        <ele>398</ele>
        <time>2017-11-04T23:35:37Z</time>
      </trkpt>
      <trkpt lat="46.07503" lon="4.49017">
        <ele>398</ele>
        <time>2017-11-04T23:37:37Z</time>
      </trkpt>
      <trkpt lat="46.07503" lon="4.49013">
        <ele>398</ele>
        <time>2017-11-04T23:39:37Z</time>
      </trkpt>
      <trkpt lat="46.07502" lon="4.49008">
        <ele>399</ele>
        <time>2017-11-04T23:41:37Z</time>
      </trkpt>
      <trkpt lat="46.07498" lon="4.49003">
        <ele>399</ele>
        <time>2017-11-04T23:43:37Z</time>
      </trkpt>
      <trkpt lat="46.07498" lon="4.49003">
        <ele>399</ele>
        <time>2017-11-04T23:45:37Z</time>
      </trkpt>
      <trkpt lat="46.07512" lon="4.48989">
        <ele>400</ele>
        <time>2017-11-04T23:47:37Z</time>
      </trkpt>
      <trkpt lat="46.0756" lon="4.48935">
        <ele>400</ele>
        <time>2017-11-04T23:49:37Z</time>
      </trkpt>
      <trkpt lat="46.07563" lon="4.4893">
        <ele>400</ele>
        <time>2017-11-04T23:51:37Z</time>
      </trkpt>
      <trkpt lat="46.07592" lon="4.48896">
        <ele>401</ele>
        <time>2017-11-04T23:53:37Z</time>
      </trkpt>
      <trkpt lat="46.07687" lon="4.4879">
        <ele>404</ele>
        <time>2017-11-04T23:55:37Z</time>
      </trkpt>
      <trkpt lat="46.07721" lon="4.48755">
        <ele>405</ele>
        <time>2017-11-04T23:57:37Z</time>
      </trkpt>
      <trkpt lat="46.07758" lon="4.48718">
        <ele>406</ele>
        <time>2017-11-04T23:59:37Z</time>
      </trkpt>
      <trkpt lat="46.0779" lon="4.48686">
        <ele>408</ele>
        <time>2017-11-05T00:01:37Z</time>
      </trkpt>
      <trkpt lat="46.07811" lon="4.48666">
        <ele>408</ele>
        <time>2017-11-05T00:03:37Z</time>
      </trkpt>
      <trkpt lat="46.07835" lon="4.48644">
        <ele>409</ele>
        <time>2017-11-05T00:05:37Z</time>
      </trkpt>
      <trkpt lat="46.07847" lon="4.48632">
        <ele>410</ele>
        <time>2017-11-05T00:07:37Z</time>
      </trkpt>
      <trkpt lat="46.0786" lon="4.48619">
        <ele>410</ele>
        <time>2017-11-05T00:09:37Z</time>
      </trkpt>
      <trkpt lat="46.07869" lon="4.48609">
        <ele>411</ele>
        <time>2017-11-05T00:11:37Z</time>
      </trkpt>
      <trkpt lat="46.07878" lon="4.48597">
        <ele>411</ele>
        <time>2017-11-05T00:13:37Z</time>
      </trkpt>
      <trkpt lat="46.07886" lon="4.48586">
        <ele>411</ele>
        <time>2017-11-05T00:15:37Z</time>
      </trkpt>
      <trkpt lat="46.07895" lon="4.48572">
        <ele>411</ele>
        <time>2017-11-05T00:17:37Z</time>
      </trkpt>
      <trkpt lat="46.07901" lon="4.48561">
        <ele>411</ele>
        <time>2017-11-05T00:19:37Z</time>
      </trkpt>
      <trkpt lat="46.07912" lon="4.48536">
        <ele>411</ele>
        <time>2017-11-05T00:21:37Z</time>
      </trkpt>
      <trkpt lat="46.07916" lon="4.48525">
        <ele>411</ele>
        <time>2017-11-05T00:23:37Z</time>
      </trkpt>
      <trkpt lat="46.07929" lon="4.48486">
        <ele>412</ele>
        <time>2017-11-05T00:25:37Z</time>
      </trkpt>
      <trkpt lat="46.07935" lon="4.48472">
        <ele>413</ele>
        <time>2017-11-05T00:27:37Z</time>
      </trkpt>
      <trkpt lat="46.07938" lon="4.48466">
        <ele>413</ele>
        <time>2017-11-05T00:29:37Z</time>
      </trkpt>
      <trkpt lat="46.07954" lon="4.48434">
        <ele>414</ele>
        <time>2017-11-05T00:31:37Z</time>
      </trkpt>
      <trkpt lat="46.0796" lon="4.48424">
        <ele>414</ele>
        <time>2017-11-05T00:33:37Z</time>
      </trkpt>
      <trkpt lat="46.07976" lon="4.48401">
        <ele>412</ele>
        <time>2017-11-05T00:35:37Z</time>
      </trkpt>
      <trkpt lat="46.07983" lon="4.48391">
        <ele>412</ele>
        <time>2017-11-05T00:37:37Z</time>
      </trkpt>
      <trkpt lat="46.07995" lon="4.48376">
        <ele>411</ele>
        <time>2017-11-05T00:39:37Z</time>
      </trkpt>
      <trkpt lat="46.08003" lon="4.48368">
        <ele>411</ele>
        <time>2017-11-05T00:41:37Z</time>
      </trkpt>
      <trkpt lat="46.08017" lon="4.48353">
        <ele>412</ele>
        <time>2017-11-05T00:43:37Z</time>
      </trkpt>
      <trkpt lat="46.08025" lon="4.48347">
        <ele>411</ele>
        <time>2017-11-05T00:45:37Z</time>
      </trkpt>
      <trkpt lat="46.08038" lon="4.48337">
        <ele>411</ele>
        <time>2017-11-05T00:47:37Z</time>
      </trkpt>
      <trkpt lat="46.08054" lon="4.48326">
        <ele>411</ele>
        <time>2017-11-05T00:49:37Z</time>
      </trkpt>
      <trkpt lat="46.08065" lon="4.48319">
        <ele>411</ele>
        <time>2017-11-05T00:51:37Z</time>
      </trkpt>
      <trkpt lat="46.08077" lon="4.48313">
        <ele>412</ele>
        <time>2017-11-05T00:53:37Z</time>
      </trkpt>
      <trkpt lat="46.08088" lon="4.48308">
        <ele>412</ele>
        <time>2017-11-05T00:55:37Z</time>
      </trkpt>
      <trkpt lat="46.081" lon="4.48302">
        <ele>412</ele>
        <time>2017-11-05T00:57:37Z</time>
      </trkpt>
      <trkpt lat="46.0811" lon="4.48299">
        <ele>412</ele>
        <time>2017-11-05T00:59:37Z</time>
      </trkpt>
      <trkpt lat="46.08127" lon="4.48293">
        <ele>412</ele>
        <time>2017-11-05T01:01:37Z</time>
      </trkpt>
      <trkpt lat="46.08127" lon="4.48293">
        <ele>412</ele>
        <time>2017-11-05T01:03:37Z</time>
      </trkpt>
      <trkpt lat="46.08136" lon="4.4829">
        <ele>412</ele>
        <time>2017-11-05T01:05:37Z</time>
      </trkpt>
      <trkpt lat="46.08142" lon="4.48288">
        <ele>412</ele>
        <time>2017-11-05T01:07:37Z</time>
      </trkpt>
      <trkpt lat="46.0815" lon="4.48287">
        <ele>412</ele>
        <time>2017-11-05T01:09:37Z</time>
      </trkpt>
      <trkpt lat="46.0816" lon="4.48286">
        <ele>411</ele>
        <time>2017-11-05T01:11:37Z</time>
      </trkpt>
      <trkpt lat="46.08176" lon="4.48285">
        <ele>411</ele>
        <time>2017-11-05T01:13:37Z</time>
      </trkpt>
      <trkpt lat="46.08203" lon="4.48287">
        <ele>410</ele>
        <time>2017-11-05T01:15:37Z</time>
      </trkpt>
      <trkpt lat="46.08212" lon="4.48286">
        <ele>410</ele>
        <time>2017-11-05T01:17:37Z</time>
      </trkpt>
      <trkpt lat="46.08218" lon="4.48286">
        <ele>410</ele>
        <time>2017-11-05T01:19:37Z</time>
      </trkpt>
      <trkpt lat="46.08232" lon="4.48284">
        <ele>409</ele>
        <time>2017-11-05T01:21:37Z</time>
      </trkpt>
      <trkpt lat="46.08245" lon="4.48282">
        <ele>409</ele>
        <time>2017-11-05T01:23:37Z</time>
      </trkpt>
      <trkpt lat="46.08253" lon="4.4828">
        <ele>409</ele>
        <time>2017-11-05T01:25:37Z</time>
      </trkpt>
      <trkpt lat="46.08277" lon="4.48273">
        <ele>410</ele>
        <time>2017-11-05T01:27:37Z</time>
      </trkpt>
      <trkpt lat="46.08307" lon="4.48264">
        <ele>411</ele>
        <time>2017-11-05T01:29:37Z</time>
      </trkpt>
      <trkpt lat="46.08307" lon="4.48264">
        <ele>411</ele>
        <time>2017-11-05T01:31:37Z</time>
      </trkpt>
      <trkpt lat="46.08316" lon="4.48246">
        <ele>412</ele>
        <time>2017-11-05T01:33:37Z</time>
      </trkpt>
      <trkpt lat="46.08322" lon="4.48238">
        <ele>414</ele>
        <time>2017-11-05T01:35:37Z</time>
      </trkpt>
      <trkpt lat="46.08332" lon="4.48232">
        <ele>415</ele>
        <time>2017-11-05T01:37:37Z</time>
      </trkpt>
      <trkpt lat="46.08332" lon="4.48232">
        <ele>415</ele>
        <time>2017-11-05T01:39:37Z</time>
      </trkpt>
      <trkpt lat="46.08338" lon="4.48228">
        <ele>415</ele>
        <time>2017-11-05T01:41:37Z</time>
      </trkpt>
      <trkpt lat="46.0834" lon="4.48226">
        <ele>416</ele>
        <time>2017-11-05T01:43:37Z</time>
      </trkpt>
      <trkpt lat="46.08345" lon="4.48225">
        <ele>416</ele>
        <time>2017-11-05T01:45:37Z</time>
      </trkpt>
      <trkpt lat="46.08348" lon="4.48224">
        <ele>416</ele>
        <time>2017-11-05T01:47:37Z</time>
      </trkpt>
      <trkpt lat="46.08352" lon="4.48223">
        <ele>416</ele>
        <time>2017-11-05T01:49:37Z</time>
      </trkpt>
      <trkpt lat="46.08356" lon="4.48224">
        <ele>416</ele>
        <time>2017-11-05T01:51:37Z</time>
      </trkpt>
      <trkpt lat="46.08362" lon="4.48221">
        <ele>417</ele>
        <time>2017-11-05T01:53:37Z</time>
      </trkpt>
      <trkpt lat="46.08378" lon="4.48216">
        <ele>417</ele>
        <time>2017-11-05T01:55:37Z</time>
      </trkpt>
      <trkpt lat="46.08427" lon="4.48203">
        <ele>419</ele>
        <time>2017-11-05T01:57:37Z</time>
      </trkpt>
      <trkpt lat="46.08449" lon="4.48196">
        <ele>419</ele>
        <time>2017-11-05T01:59:37Z</time>
      </trkpt>
      <trkpt lat="46.08464" lon="4.4819">
        <ele>419</ele>
        <time>2017-11-05T02:01:37Z</time>
      </trkpt>
      <trkpt lat="46.08475" lon="4.48181">
        <ele>419</ele>
        <time>2017-11-05T02:03:37Z</time>
      </trkpt>
      <trkpt lat="46.08486" lon="4.48169">
        <ele>419</ele>
        <time>2017-11-05T02:05:37Z</time>
      </trkpt>
      <trkpt lat="46.08491" lon="4.48161">
        <ele>419</ele>
        <time>2017-11-05T02:07:37Z</time>
      </trkpt>
      <trkpt lat="46.08493" lon="4.48156">
        <ele>419</ele>
        <time>2017-11-05T02:09:37Z</time>
      </trkpt>
      <trkpt lat="46.085" lon="4.4814">
        <ele>420</ele>
        <time>2017-11-05T02:11:37Z</time>
      </trkpt>
      <trkpt lat="46.08503" lon="4.48127">
        <ele>421</ele>
        <time>2017-11-05T02:13:37Z</time>
      </trkpt>
      <trkpt lat="46.08508" lon="4.48099">
        <ele>423</ele>
        <time>2017-11-05T02:15:37Z</time>
      </trkpt>
      <trkpt lat="46.08512" lon="4.48046">
        <ele>426</ele>
        <time>2017-11-05T02:17:37Z</time>
      </trkpt>
      <trkpt lat="46.08514" lon="4.48023">
        <ele>427</ele>
        <time>2017-11-05T02:19:37Z</time>
      </trkpt>
      <trkpt lat="46.08516" lon="4.48003">
        <ele>428</ele>
        <time>2017-11-05T02:21:37Z</time>
      </trkpt>
      <trkpt lat="46.08517" lon="4.47965">
        <ele>431</ele>
        <time>2017-11-05T02:23:37Z</time>
      </trkpt>
      <trkpt lat="46.08516" lon="4.47946">
        <ele>433</ele>
        <time>2017-11-05T02:25:37Z</time>
      </trkpt>
      <trkpt lat="46.08513" lon="4.4791">
        <ele>437</ele>
        <time>2017-11-05T02:27:37Z</time>
      </trkpt>
      <trkpt lat="46.08512" lon="4.4789">
        <ele>439</ele>
        <time>2017-11-05T02:29:37Z</time>
      </trkpt>
      <trkpt lat="46.08513" lon="4.4787">
        <ele>441</ele>
        <time>2017-11-05T02:31:37Z</time>
      </trkpt>
      <trkpt lat="46.08515" lon="4.47851">
        <ele>443</ele>
        <time>2017-11-05T02:33:37Z</time>
      </trkpt>
      <trkpt lat="46.08525" lon="4.47792">
        <ele>445</ele>
        <time>2017-11-05T02:35:37Z</time>
      </trkpt>
      <trkpt lat="46.08526" lon="4.47775">
        <ele>446</ele>
        <time>2017-11-05T02:37:37Z</time>
      </trkpt>
      <trkpt lat="46.08527" lon="4.47759">
        <ele>447</ele>
        <time>2017-11-05T02:39:37Z</time>
      </trkpt>
      <trkpt lat="46.08527" lon="4.47742">
        <ele>447</ele>
        <time>2017-11-05T02:41:37Z</time>
      </trkpt>
      <trkpt lat="46.08526" lon="4.47725">
        <ele>447</ele>
        <time>2017-11-05T02:43:37Z</time>
      </trkpt>
      <trkpt lat="46.08525" lon="4.47716">
        <ele>448</ele>
        <time>2017-11-05T02:45:37Z</time>
      </trkpt>
      <trkpt lat="46.08507" lon="4.47566">
        <ele>451</ele>
        <time>2017-11-05T02:47:37Z</time>
      </trkpt>
      <trkpt lat="46.08503" lon="4.47522">
        <ele>452</ele>
        <time>2017-11-05T02:49:37Z</time>
      </trkpt>
      <trkpt lat="46.08502" lon="4.47511">
        <ele>453</ele>
        <time>2017-11-05T02:51:37Z</time>
      </trkpt>
      <trkpt lat="46.08501" lon="4.47502">
        <ele>453</ele>
        <time>2017-11-05T02:53:37Z</time>
      </trkpt>
      <trkpt lat="46.08502" lon="4.47494">
        <ele>453</ele>
        <time>2017-11-05T02:55:37Z</time>
      </trkpt>
      <trkpt lat="46.08502" lon="4.47485">
        <ele>454</ele>
        <time>2017-11-05T02:57:37Z</time>
      </trkpt>
      <trkpt lat="46.08502" lon="4.47476">
        <ele>455</ele>
        <time>2017-11-05T02:59:37Z</time>
      </trkpt>
      <trkpt lat="46.08504" lon="4.47466">
        <ele>456</ele>
        <time>2017-11-05T03:01:37Z</time>
      </trkpt>
      <trkpt lat="46.08505" lon="4.47461">
        <ele>456</ele>
        <time>2017-11-05T03:03:37Z</time>
      </trkpt>
      <trkpt lat="46.08509" lon="4.47441">
        <ele>457</ele>
        <time>2017-11-05T03:05:37Z</time>
      </trkpt>
      <trkpt lat="46.08515" lon="4.47424">
        <ele>458</ele>
        <time>2017-11-05T03:07:37Z</time>
      </trkpt>
      <trkpt lat="46.0852" lon="4.47414">
        <ele>458</ele>
        <time>2017-11-05T03:09:37Z</time>
      </trkpt>
      <trkpt lat="46.0855" lon="4.47357">
        <ele>465</ele>
        <time>2017-11-05T03:11:37Z</time>
      </trkpt>
      <trkpt lat="46.08574" lon="4.47312">
        <ele>469</ele>
        <time>2017-11-05T03:13:37Z</time>
      </trkpt>
      <trkpt lat="46.08587" lon="4.47278">
        <ele>472</ele>
        <time>2017-11-05T03:15:37Z</time>
      </trkpt>
      <trkpt lat="46.08598" lon="4.47243">
        <ele>475</ele>
        <time>2017-11-05T03:17:37Z</time>
      </trkpt>
      <trkpt lat="46.08604" lon="4.47223">
        <ele>477</ele>
        <time>2017-11-05T03:19:37Z</time>
      </trkpt>
      <trkpt lat="46.0861" lon="4.47192">
        <ele>479</ele>
        <time>2017-11-05T03:21:37Z</time>
      </trkpt>
      <trkpt lat="46.08624" lon="4.47132">
        <ele>481</ele>
        <time>2017-11-05T03:23:37Z</time>
      </trkpt>
      <trkpt lat="46.0863" lon="4.47097">
        <ele>482</ele>
        <time>2017-11-05T03:25:37Z</time>
      </trkpt>
      <trkpt lat="46.08635" lon="4.47072">
        <ele>482</ele>
        <time>2017-11-05T03:27:37Z</time>
      </trkpt>
      <trkpt lat="46.08636" lon="4.47064">
        <ele>482</ele>
        <time>2017-11-05T03:29:37Z</time>
      </trkpt>
      <trkpt lat="46.0864" lon="4.47026">
        <ele>483</ele>
        <time>2017-11-05T03:31:37Z</time>
      </trkpt>
      <trkpt lat="46.08642" lon="4.46969">
        <ele>486</ele>
        <time>2017-11-05T03:33:37Z</time>
      </trkpt>
      <trkpt lat="46.08644" lon="4.46956">
        <ele>486</ele>
        <time>2017-11-05T03:35:37Z</time>
      </trkpt>
      <trkpt lat="46.08645" lon="4.46914">
        <ele>487</ele>
        <time>2017-11-05T03:37:37Z</time>
      </trkpt>
      <trkpt lat="46.08645" lon="4.46888">
        <ele>488</ele>
        <time>2017-11-05T03:39:37Z</time>
      </trkpt>
      <trkpt lat="46.0864" lon="4.46842">
        <ele>492</ele>
        <time>2017-11-05T03:41:37Z</time>
      </trkpt>
      <trkpt lat="46.08637" lon="4.46815">
        <ele>493</ele>
        <time>2017-11-05T03:43:37Z</time>
      </trkpt>
      <trkpt lat="46.08634" lon="4.46799">
        <ele>493</ele>
        <time>2017-11-05T03:45:37Z</time>
      </trkpt>
      <trkpt lat="46.08622" lon="4.46766">
        <ele>495</ele>
        <time>2017-11-05T03:47:37Z</time>
      </trkpt>
      <trkpt lat="46.08617" lon="4.46756">
        <ele>496</ele>
        <time>2017-11-05T03:49:37Z</time>
      </trkpt>
      <trkpt lat="46.08606" lon="4.46736">
        <ele>496</ele>
        <time>2017-11-05T03:51:37Z</time>
      </trkpt>
      <trkpt lat="46.08599" lon="4.46726">
        <ele>497</ele>
        <time>2017-11-05T03:53:37Z</time>
      </trkpt>
      <trkpt lat="46.08576" lon="4.46702">
        <ele>497</ele>
        <time>2017-11-05T03:55:37Z</time>
      </trkpt>
      <trkpt lat="46.0855" lon="4.46673">
        <ele>502</ele>
        <time>2017-11-05T03:57:37Z</time>
      </trkpt>
      <trkpt lat="46.08538" lon="4.46659">
        <ele>504</ele>
        <time>2017-11-05T03:59:37Z</time>
      </trkpt>
      <trkpt lat="46.08521" lon="4.46634">
        <ele>506</ele>
        <time>2017-11-05T04:01:37Z</time>
      </trkpt>
      <trkpt lat="46.08515" lon="4.46626">
        <ele>507</ele>
        <time>2017-11-05T04:03:37Z</time>
      </trkpt>
      <trkpt lat="46.08475" lon="4.46573">
        <ele>510</ele>
        <time>2017-11-05T04:05:37Z</time>
      </trkpt>
      <trkpt lat="46.08469" lon="4.46563">
        <ele>511</ele>
        <time>2017-11-05T04:07:37Z</time>
      </trkpt>
      <trkpt lat="46.08458" lon="4.46543">
        <ele>512</ele>
        <time>2017-11-05T04:09:37Z</time>
      </trkpt>
      <trkpt lat="46.08443" lon="4.46513">
        <ele>512</ele>
        <time>2017-11-05T04:11:37Z</time>
      </trkpt>
      <trkpt lat="46.08438" lon="4.46499">
        <ele>511</ele>
        <time>2017-11-05T04:13:37Z</time>
      </trkpt>
      <trkpt lat="46.08437" lon="4.46486">
        <ele>511</ele>
        <time>2017-11-05T04:15:37Z</time>
      </trkpt>
      <trkpt lat="46.08437" lon="4.46477">
        <ele>512</ele>
        <time>2017-11-05T04:17:37Z</time>
      </trkpt>
      <trkpt lat="46.08439" lon="4.46468">
        <ele>512</ele>
        <time>2017-11-05T04:19:37Z</time>
      </trkpt>
      <trkpt lat="46.08442" lon="4.46457">
        <ele>512</ele>
        <time>2017-11-05T04:21:37Z</time>
      </trkpt>
      <trkpt lat="46.08444" lon="4.46453">
        <ele>512</ele>
        <time>2017-11-05T04:23:37Z</time>
      </trkpt>
      <trkpt lat="46.08446" lon="4.4645">
        <ele>512</ele>
        <time>2017-11-05T04:25:37Z</time>
      </trkpt>
      <trkpt lat="46.08452" lon="4.46443">
        <ele>512</ele>
        <time>2017-11-05T04:27:37Z</time>
      </trkpt>
      <trkpt lat="46.08455" lon="4.46442">
        <ele>512</ele>
        <time>2017-11-05T04:29:37Z</time>
      </trkpt>
      <trkpt lat="46.08457" lon="4.4644">
        <ele>512</ele>
        <time>2017-11-05T04:31:37Z</time>
      </trkpt>
      <trkpt lat="46.08462" lon="4.46438">
        <ele>512</ele>
        <time>2017-11-05T04:33:37Z</time>
      </trkpt>
      <trkpt lat="46.08467" lon="4.46438">
        <ele>512</ele>
        <time>2017-11-05T04:35:37Z</time>
      </trkpt>
      <trkpt lat="46.08474" lon="4.46438">
        <ele>512</ele>
        <time>2017-11-05T04:37:37Z</time>
      </trkpt>
      <trkpt lat="46.08486" lon="4.46441">
        <ele>511</ele>
        <time>2017-11-05T04:39:37Z</time>
      </trkpt>
      <trkpt lat="46.08493" lon="4.46444">
        <ele>510</ele>
        <time>2017-11-05T04:41:37Z</time>
      </trkpt>
      <trkpt lat="46.08499" lon="4.46448">
        <ele>510</ele>
        <time>2017-11-05T04:43:37Z</time>
      </trkpt>
      <trkpt lat="46.08508" lon="4.46451">
        <ele>510</ele>
        <time>2017-11-05T04:45:37Z</time>
      </trkpt>
      <trkpt lat="46.08539" lon="4.46467">
        <ele>511</ele>
        <time>2017-11-05T04:47:37Z</time>
      </trkpt>
      <trkpt lat="46.0857" lon="4.46484">
        <ele>511</ele>
        <time>2017-11-05T04:49:37Z</time>
      </trkpt>
      <trkpt lat="46.08582" lon="4.46491">
        <ele>511</ele>
        <time>2017-11-05T04:51:37Z</time>
      </trkpt>
      <trkpt lat="46.08615" lon="4.46516">
        <ele>512</ele>
        <time>2017-11-05T04:53:37Z</time>
      </trkpt>
      <trkpt lat="46.08639" lon="4.46539">
        <ele>512</ele>
        <time>2017-11-05T04:55:37Z</time>
      </trkpt>
      <trkpt lat="46.08653" lon="4.46551">
        <ele>513</ele>
        <time>2017-11-05T04:57:37Z</time>
      </trkpt>
      <trkpt lat="46.08677" lon="4.46576">
        <ele>513</ele>
        <time>2017-11-05T04:59:37Z</time>
      </trkpt>
      <trkpt lat="46.08688" lon="4.46584">
        <ele>513</ele>
        <time>2017-11-05T05:01:37Z</time>
      </trkpt>
      <trkpt lat="46.08745" lon="4.46616">
        <ele>517</ele>
        <time>2017-11-05T05:03:37Z</time>
      </trkpt>
      <trkpt lat="46.0875" lon="4.46619">
        <ele>518</ele>
        <time>2017-11-05T05:05:37Z</time>
      </trkpt>
      <trkpt lat="46.08756" lon="4.4662">
        <ele>517</ele>
        <time>2017-11-05T05:07:37Z</time>
      </trkpt>
      <trkpt lat="46.08762" lon="4.4662">
        <ele>517</ele>
        <time>2017-11-05T05:09:37Z</time>
      </trkpt>
      <trkpt lat="46.08774" lon="4.46619">
        <ele>516</ele>
        <time>2017-11-05T05:11:37Z</time>
      </trkpt>
      <trkpt lat="46.08775" lon="4.46619">
        <ele>515</ele>
        <time>2017-11-05T05:13:37Z</time>
      </trkpt>
      <trkpt lat="46.08785" lon="4.46617">
        <ele>515</ele>
        <time>2017-11-05T05:15:37Z</time>
      </trkpt>
      <trkpt lat="46.08785" lon="4.46617">
        <ele>515</ele>
        <time>2017-11-05T05:17:37Z</time>
      </trkpt>
      <trkpt lat="46.08782" lon="4.46591">
        <ele>517</ele>
        <time>2017-11-05T05:19:37Z</time>
      </trkpt>
      <trkpt lat="46.0878" lon="4.46575">
        <ele>518</ele>
        <time>2017-11-05T05:21:37Z</time>
      </trkpt>
      <trkpt lat="46.0878" lon="4.46573">
        <ele>518</ele>
        <time>2017-11-05T05:23:37Z</time>
      </trkpt>
      <trkpt lat="46.0878" lon="4.46573">
        <ele>518</ele>
        <time>2017-11-05T05:25:37Z</time>
      </trkpt>
      <trkpt lat="46.08779" lon="4.46561">
        <ele>520</ele>
        <time>2017-11-05T05:27:37Z</time>
      </trkpt>
      <trkpt lat="46.08775" lon="4.46525">
        <ele>523</ele>
        <time>2017-11-05T05:29:37Z</time>
      </trkpt>
      <trkpt lat="46.08774" lon="4.46519">
        <ele>524</ele>
        <time>2017-11-05T05:31:37Z</time>
      </trkpt>
      <trkpt lat="46.08766" lon="4.46497">
        <ele>528</ele>
        <time>2017-11-05T05:33:37Z</time>
      </trkpt>
      <trkpt lat="46.08763" lon="4.46489">
        <ele>529</ele>
        <time>2017-11-05T05:35:37Z</time>
      </trkpt>
      <trkpt lat="46.08757" lon="4.4648">
        <ele>531</ele>
        <time>2017-11-05T05:37:37Z</time>
      </trkpt>
      <trkpt lat="46.08748" lon="4.46471">
        <ele>532</ele>
        <time>2017-11-05T05:39:37Z</time>
      </trkpt>
      <trkpt lat="46.08742" lon="4.46464">
        <ele>533</ele>
        <time>2017-11-05T05:41:37Z</time>
      </trkpt>
      <trkpt lat="46.0873" lon="4.46455">
        <ele>533</ele>
        <time>2017-11-05T05:43:37Z</time>
      </trkpt>
      <trkpt lat="46.08713" lon="4.46445">
        <ele>534</ele>
        <time>2017-11-05T05:45:37Z</time>
      </trkpt>
      <trkpt lat="46.08703" lon="4.4644">
        <ele>534</ele>
        <time>2017-11-05T05:47:37Z</time>
      </trkpt>
      <trkpt lat="46.08694" lon="4.46434">
        <ele>535</ele>
        <time>2017-11-05T05:49:37Z</time>
      </trkpt>
      <trkpt lat="46.08679" lon="4.46425">
        <ele>536</ele>
        <time>2017-11-05T05:51:37Z</time>
      </trkpt>
      <trkpt lat="46.08673" lon="4.46419">
        <ele>537</ele>
        <time>2017-11-05T05:53:37Z</time>
      </trkpt>
      <trkpt lat="46.08652" lon="4.46394">
        <ele>538</ele>
        <time>2017-11-05T05:55:37Z</time>
      </trkpt>
      <trkpt lat="46.08635" lon="4.46366">
        <ele>540</ele>
        <time>2017-11-05T05:57:37Z</time>
      </trkpt>
      <trkpt lat="46.08625" lon="4.46341">
        <ele>543</ele>
        <time>2017-11-05T05:59:37Z</time>
      </trkpt>
      <trkpt lat="46.08616" lon="4.46313">
        <ele>545</ele>
        <time>2017-11-05T06:01:37Z</time>
      </trkpt>
      <trkpt lat="46.08605" lon="4.46283">
        <ele>546</ele>
        <time>2017-11-05T06:03:37Z</time>
      </trkpt>
      <trkpt lat="46.08594" lon="4.46247">
        <ele>548</ele>
        <time>2017-11-05T06:05:37Z</time>
      </trkpt>
      <trkpt lat="46.08581" lon="4.46212">
        <ele>553</ele>
        <time>2017-11-05T06:07:37Z</time>
      </trkpt>
      <trkpt lat="46.08573" lon="4.4619">
        <ele>557</ele>
        <time>2017-11-05T06:09:37Z</time>
      </trkpt>
      <trkpt lat="46.08562" lon="4.46173">
        <ele>558</ele>
        <time>2017-11-05T06:11:37Z</time>
      </trkpt>
      <trkpt lat="46.08536" lon="4.46148">
        <ele>560</ele>
        <time>2017-11-05T06:13:37Z</time>
      </trkpt>
      <trkpt lat="46.0853" lon="4.4614">
        <ele>560</ele>
        <time>2017-11-05T06:15:37Z</time>
      </trkpt>
      <trkpt lat="46.08524" lon="4.46129">
        <ele>562</ele>
        <time>2017-11-05T06:17:37Z</time>
      </trkpt>
      <trkpt lat="46.08518" lon="4.46116">
        <ele>563</ele>
        <time>2017-11-05T06:19:37Z</time>
      </trkpt>
      <trkpt lat="46.08511" lon="4.461">
        <ele>566</ele>
        <time>2017-11-05T06:21:37Z</time>
      </trkpt>
      <trkpt lat="46.08486" lon="4.46028">
        <ele>568</ele>
        <time>2017-11-05T06:23:37Z</time>
      </trkpt>
      <trkpt lat="46.08485" lon="4.46025">
        <ele>568</ele>
        <time>2017-11-05T06:25:37Z</time>
      </trkpt>
      <trkpt lat="46.08484" lon="4.46021">
        <ele>568</ele>
        <time>2017-11-05T06:27:37Z</time>
      </trkpt>
      <trkpt lat="46.08484" lon="4.46017">
        <ele>568</ele>
        <time>2017-11-05T06:29:37Z</time>
      </trkpt>
      <trkpt lat="46.08483" lon="4.46012">
        <ele>569</ele>
        <time>2017-11-05T06:31:37Z</time>
      </trkpt>
      <trkpt lat="46.08483" lon="4.46008">
        <ele>569</ele>
        <time>2017-11-05T06:33:37Z</time>
      </trkpt>
      <trkpt lat="46.08484" lon="4.46004">
        <ele>570</ele>
        <time>2017-11-05T06:35:37Z</time>
      </trkpt>
      <trkpt lat="46.08485" lon="4.46">
        <ele>571</ele>
        <time>2017-11-05T06:37:37Z</time>
      </trkpt>
      <trkpt lat="46.08486" lon="4.45997">
        <ele>572</ele>
        <time>2017-11-05T06:39:37Z</time>
      </trkpt>
      <trkpt lat="46.08489" lon="4.45994">
        <ele>573</ele>
        <time>2017-11-05T06:41:37Z</time>
      </trkpt>
      <trkpt lat="46.08491" lon="4.45991">
        <ele>574</ele>
        <time>2017-11-05T06:43:37Z</time>
      </trkpt>
      <trkpt lat="46.08494" lon="4.4599">
        <ele>575</ele>
        <time>2017-11-05T06:45:37Z</time>
      </trkpt>
      <trkpt lat="46.08496" lon="4.45989">
        <ele>576</ele>
        <time>2017-11-05T06:47:37Z</time>
      </trkpt>
      <trkpt lat="46.08501" lon="4.45988">
        <ele>578</ele>
        <time>2017-11-05T06:49:37Z</time>
      </trkpt>
      <trkpt lat="46.08503" lon="4.45989">
        <ele>578</ele>
        <time>2017-11-05T06:51:37Z</time>
      </trkpt>
      <trkpt lat="46.08506" lon="4.4599">
        <ele>579</ele>
        <time>2017-11-05T06:53:37Z</time>
      </trkpt>
      <trkpt lat="46.08509" lon="4.45991">
        <ele>579</ele>
        <time>2017-11-05T06:55:37Z</time>
      </trkpt>
      <trkpt lat="46.08511" lon="4.45993">
        <ele>579</ele>
        <time>2017-11-05T06:57:37Z</time>
      </trkpt>
      <trkpt lat="46.08517" lon="4.46002">
        <ele>579</ele>
        <time>2017-11-05T06:59:37Z</time>
      </trkpt>
      <trkpt lat="46.08525" lon="4.46018">
        <ele>580</ele>
        <time>2017-11-05T07:01:37Z</time>
      </trkpt>
      <trkpt lat="46.08532" lon="4.46032">
        <ele>580</ele>
        <time>2017-11-05T07:03:37Z</time>
      </trkpt>
      <trkpt lat="46.08536" lon="4.46045">
        <ele>579</ele>
        <time>2017-11-05T07:05:37Z</time>
      </trkpt>
      <trkpt lat="46.08539" lon="4.46051">
        <ele>579</ele>
        <time>2017-11-05T07:07:37Z</time>
      </trkpt>
      <trkpt lat="46.08542" lon="4.46055">
        <ele>579</ele>
        <time>2017-11-05T07:09:37Z</time>
      </trkpt>
      <trkpt lat="46.08545" lon="4.4606">
        <ele>579</ele>
        <time>2017-11-05T07:11:37Z</time>
      </trkpt>
      <trkpt lat="46.08549" lon="4.46064">
        <ele>579</ele>
        <time>2017-11-05T07:13:37Z</time>
      </trkpt>
      <trkpt lat="46.08552" lon="4.46067">
        <ele>579</ele>
        <time>2017-11-05T07:15:37Z</time>
      </trkpt>
      <trkpt lat="46.08559" lon="4.46072">
        <ele>579</ele>
        <time>2017-11-05T07:17:37Z</time>
      </trkpt>
      <trkpt lat="46.08568" lon="4.46077">
        <ele>580</ele>
        <time>2017-11-05T07:19:37Z</time>
      </trkpt>
      <trkpt lat="46.08572" lon="4.46078">
        <ele>581</ele>
        <time>2017-11-05T07:21:37Z</time>
      </trkpt>
      <trkpt lat="46.08582" lon="4.4608">
        <ele>582</ele>
        <time>2017-11-05T07:23:37Z</time>
      </trkpt>
      <trkpt lat="46.08595" lon="4.46083">
        <ele>584</ele>
        <time>2017-11-05T07:25:37Z</time>
      </trkpt>
      <trkpt lat="46.08634" lon="4.46087">
        <ele>589</ele>
        <time>2017-11-05T07:27:37Z</time>
      </trkpt>
      <trkpt lat="46.08657" lon="4.46089">
        <ele>592</ele>
        <time>2017-11-05T07:29:37Z</time>
      </trkpt>
      <trkpt lat="46.08666" lon="4.46088">
        <ele>594</ele>
        <time>2017-11-05T07:31:37Z</time>
      </trkpt>
      <trkpt lat="46.08672" lon="4.46087">
        <ele>594</ele>
        <time>2017-11-05T07:33:37Z</time>
      </trkpt>
      <trkpt lat="46.08686" lon="4.46081">
        <ele>595</ele>
        <time>2017-11-05T07:35:37Z</time>
      </trkpt>
      <trkpt lat="46.08698" lon="4.46074">
        <ele>596</ele>
        <time>2017-11-05T07:37:37Z</time>
      </trkpt>
      <trkpt lat="46.08722" lon="4.46059">
        <ele>599</ele>
        <time>2017-11-05T07:39:37Z</time>
      </trkpt>
      <trkpt lat="46.08734" lon="4.4605">
        <ele>601</ele>
        <time>2017-11-05T07:41:37Z</time>
      </trkpt>
      <trkpt lat="46.08742" lon="4.46043">
        <ele>602</ele>
        <time>2017-11-05T07:43:37Z</time>
      </trkpt>
      <trkpt lat="46.0875" lon="4.46033">
        <ele>604</ele>
        <time>2017-11-05T07:45:37Z</time>
      </trkpt>
      <trkpt lat="46.08758" lon="4.46021">
        <ele>604</ele>
        <time>2017-11-05T07:47:37Z</time>
      </trkpt>
      <trkpt lat="46.08769" lon="4.45996">
        <ele>605</ele>
        <time>2017-11-05T07:49:37Z</time>
      </trkpt>
      <trkpt lat="46.08774" lon="4.4598">
        <ele>605</ele>
        <time>2017-11-05T07:51:37Z</time>
      </trkpt>
      <trkpt lat="46.0879" lon="4.45922">
        <ele>606</ele>
        <time>2017-11-05T07:53:37Z</time>
      </trkpt>
      <trkpt lat="46.08794" lon="4.45903">
        <ele>606</ele>
        <time>2017-11-05T07:55:37Z</time>
      </trkpt>
      <trkpt lat="46.08796" lon="4.4589">
        <ele>606</ele>
        <time>2017-11-05T07:57:37Z</time>
      </trkpt>
      <trkpt lat="46.08799" lon="4.45852">
        <ele>606</ele>
        <time>2017-11-05T07:59:37Z</time>
      </trkpt>
      <trkpt lat="46.08801" lon="4.45826">
        <ele>606</ele>
        <time>2017-11-05T08:01:37Z</time>
      </trkpt>
      <trkpt lat="46.08804" lon="4.45795">
        <ele>607</ele>
        <time>2017-11-05T08:03:37Z</time>
      </trkpt>
      <trkpt lat="46.08809" lon="4.45771">
        <ele>608</ele>
        <time>2017-11-05T08:05:37Z</time>
      </trkpt>
      <trkpt lat="46.0882" lon="4.45729">
        <ele>610</ele>
        <time>2017-11-05T08:07:37Z</time>
      </trkpt>
      <trkpt lat="46.08827" lon="4.45707">
        <ele>613</ele>
        <time>2017-11-05T08:09:37Z</time>
      </trkpt>
      <trkpt lat="46.08831" lon="4.45698">
        <ele>613</ele>
        <time>2017-11-05T08:11:37Z</time>
      </trkpt>
      <trkpt lat="46.08833" lon="4.45692">
        <ele>614</ele>
        <time>2017-11-05T08:13:37Z</time>
      </trkpt>
      <trkpt lat="46.0884" lon="4.4568">
        <ele>617</ele>
        <time>2017-11-05T08:15:37Z</time>
      </trkpt>
      <trkpt lat="46.08848" lon="4.45672">
        <ele>618</ele>
        <time>2017-11-05T08:17:37Z</time>
      </trkpt>
      <trkpt lat="46.08856" lon="4.45665">
        <ele>620</ele>
        <time>2017-11-05T08:19:37Z</time>
      </trkpt>
      <trkpt lat="46.08858" lon="4.45665">
        <ele>620</ele>
        <time>2017-11-05T08:21:37Z</time>
      </trkpt>
      <trkpt lat="46.08865" lon="4.45663">
        <ele>621</ele>
        <time>2017-11-05T08:23:37Z</time>
      </trkpt>
      <trkpt lat="46.08875" lon="4.45664">
        <ele>621</ele>
        <time>2017-11-05T08:25:37Z</time>
      </trkpt>
      <trkpt lat="46.08903" lon="4.45671">
        <ele>620</ele>
        <time>2017-11-05T08:27:37Z</time>
      </trkpt>
      <trkpt lat="46.08923" lon="4.45673">
        <ele>620</ele>
        <time>2017-11-05T08:29:37Z</time>
      </trkpt>
      <trkpt lat="46.0893" lon="4.45672">
        <ele>621</ele>
        <time>2017-11-05T08:31:37Z</time>
      </trkpt>
      <trkpt lat="46.08948" lon="4.45667">
        <ele>622</ele>
        <time>2017-11-05T08:33:37Z</time>
      </trkpt>
      <trkpt lat="46.08971" lon="4.45659">
        <ele>625</ele>
        <time>2017-11-05T08:35:37Z</time>
      </trkpt>
      <trkpt lat="46.0898" lon="4.45656">
        <ele>626</ele>
        <time>2017-11-05T08:37:37Z</time>
      </trkpt>
      <trkpt lat="46.08988" lon="4.45655">
        <ele>627</ele>
        <time>2017-11-05T08:39:37Z</time>
      </trkpt>
      <trkpt lat="46.09002" lon="4.45655">
        <ele>627</ele>
        <time>2017-11-05T08:41:37Z</time>
      </trkpt>
      <trkpt lat="46.09025" lon="4.45657">
        <ele>628</ele>
        <time>2017-11-05T08:43:37Z</time>
      </trkpt>
      <trkpt lat="46.09044" lon="4.45662">
        <ele>628</ele>
        <time>2017-11-05T08:45:37Z</time>
      </trkpt>
      <trkpt lat="46.09061" lon="4.45668">
        <ele>628</ele>
        <time>2017-11-05T08:47:37Z</time>
      </trkpt>
      <trkpt lat="46.09089" lon="4.4568">
        <ele>627</ele>
        <time>2017-11-05T08:49:37Z</time>
      </trkpt>
      <trkpt lat="46.09097" lon="4.45682">
        <ele>626</ele>
        <time>2017-11-05T08:51:37Z</time>
      </trkpt>
      <trkpt lat="46.09102" lon="4.45682">
        <ele>626</ele>
        <time>2017-11-05T08:53:37Z</time>
      </trkpt>
      <trkpt lat="46.09108" lon="4.45682">
        <ele>625</ele>
        <time>2017-11-05T08:55:37Z</time>
      </trkpt>
      <trkpt lat="46.09114" lon="4.4568">
        <ele>625</ele>
        <time>2017-11-05T08:57:37Z</time>
      </trkpt>
      <trkpt lat="46.09123" lon="4.45673">
        <ele>625</ele>
        <time>2017-11-05T08:59:37Z</time>
      </trkpt>
      <trkpt lat="46.0913" lon="4.45665">
        <ele>625</ele>
        <time>2017-11-05T09:01:37Z</time>
      </trkpt>
      <trkpt lat="46.09134" lon="4.45658">
        <ele>625</ele>
        <time>2017-11-05T09:03:37Z</time>
      </trkpt>
      <trkpt lat="46.09138" lon="4.45648">
        <ele>625</ele>
        <time>2017-11-05T09:05:37Z</time>
      </trkpt>
      <trkpt lat="46.0914" lon="4.45638">
        <ele>626</ele>
        <time>2017-11-05T09:07:37Z</time>
      </trkpt>
      <trkpt lat="46.0914" lon="4.45627">
        <ele>626</ele>
        <time>2017-11-05T09:09:37Z</time>
      </trkpt>
      <trkpt lat="46.0914" lon="4.45618">
        <ele>627</ele>
        <time>2017-11-05T09:11:37Z</time>
      </trkpt>
      <trkpt lat="46.09139" lon="4.4561">
        <ele>627</ele>
        <time>2017-11-05T09:13:37Z</time>
      </trkpt>
      <trkpt lat="46.09132" lon="4.45591">
        <ele>629</ele>
        <time>2017-11-05T09:15:37Z</time>
      </trkpt>
      <trkpt lat="46.09127" lon="4.4558">
        <ele>630</ele>
        <time>2017-11-05T09:17:37Z</time>
      </trkpt>
      <trkpt lat="46.09093" lon="4.45526">
        <ele>640</ele>
        <time>2017-11-05T09:19:37Z</time>
      </trkpt>
      <trkpt lat="46.09088" lon="4.45515">
        <ele>642</ele>
        <time>2017-11-05T09:21:37Z</time>
      </trkpt>
      <trkpt lat="46.09085" lon="4.45508">
        <ele>643</ele>
        <time>2017-11-05T09:23:37Z</time>
      </trkpt>
      <trkpt lat="46.09079" lon="4.45491">
        <ele>646</ele>
        <time>2017-11-05T09:25:37Z</time>
      </trkpt>
      <trkpt lat="46.09072" lon="4.45464">
        <ele>649</ele>
        <time>2017-11-05T09:27:37Z</time>
      </trkpt>
      <trkpt lat="46.09054" lon="4.45394">
        <ele>662</ele>
        <time>2017-11-05T09:29:37Z</time>
      </trkpt>
      <trkpt lat="46.0905" lon="4.45375">
        <ele>667</ele>
        <time>2017-11-05T09:31:37Z</time>
      </trkpt>
      <trkpt lat="46.0905" lon="4.45364">
        <ele>668</ele>
        <time>2017-11-05T09:33:37Z</time>
      </trkpt>
      <trkpt lat="46.09051" lon="4.45361">
        <ele>669</ele>
        <time>2017-11-05T09:35:37Z</time>
      </trkpt>
      <trkpt lat="46.09052" lon="4.45356">
        <ele>670</ele>
        <time>2017-11-05T09:37:37Z</time>
      </trkpt>
      <trkpt lat="46.09056" lon="4.4535">
        <ele>670</ele>
        <time>2017-11-05T09:39:37Z</time>
      </trkpt>
      <trkpt lat="46.09063" lon="4.45344">
        <ele>670</ele>
        <time>2017-11-05T09:41:37Z</time>
      </trkpt>
      <trkpt lat="46.09067" lon="4.45342">
        <ele>669</ele>
        <time>2017-11-05T09:43:37Z</time>
      </trkpt>
      <trkpt lat="46.09076" lon="4.45341">
        <ele>668</ele>
        <time>2017-11-05T09:45:37Z</time>
      </trkpt>
      <trkpt lat="46.09091" lon="4.45345">
        <ele>666</ele>
        <time>2017-11-05T09:47:37Z</time>
      </trkpt>
      <trkpt lat="46.0911" lon="4.4535">
        <ele>665</ele>
        <time>2017-11-05T09:49:37Z</time>
      </trkpt>
      <trkpt lat="46.09145" lon="4.45362">
        <ele>663</ele>
        <time>2017-11-05T09:51:37Z</time>
      </trkpt>
      <trkpt lat="46.09154" lon="4.45366">
        <ele>662</ele>
        <time>2017-11-05T09:53:37Z</time>
      </trkpt>
      <trkpt lat="46.09161" lon="4.45369">
        <ele>662</ele>
        <time>2017-11-05T09:55:37Z</time>
      </trkpt>
      <trkpt lat="46.09169" lon="4.4537">
        <ele>661</ele>
        <time>2017-11-05T09:57:37Z</time>
      </trkpt>
      <trkpt lat="46.09179" lon="4.45369">
        <ele>662</ele>
        <time>2017-11-05T09:59:37Z</time>
      </trkpt>
      <trkpt lat="46.09187" lon="4.45368">
        <ele>662</ele>
        <time>2017-11-05T10:01:37Z</time>
      </trkpt>
      <trkpt lat="46.09199" lon="4.45363">
        <ele>664</ele>
        <time>2017-11-05T10:03:37Z</time>
      </trkpt>
      <trkpt lat="46.09239" lon="4.4534">
        <ele>669</ele>
        <time>2017-11-05T10:05:37Z</time>
      </trkpt>
      <trkpt lat="46.09267" lon="4.45331">
        <ele>670</ele>
        <time>2017-11-05T10:07:37Z</time>
      </trkpt>
      <trkpt lat="46.09281" lon="4.45325">
        <ele>669</ele>
        <time>2017-11-05T10:09:37Z</time>
      </trkpt>
      <trkpt lat="46.0929" lon="4.45319">
        <ele>669</ele>
        <time>2017-11-05T10:11:37Z</time>
      </trkpt>
      <trkpt lat="46.09297" lon="4.45311">
        <ele>670</ele>
        <time>2017-11-05T10:13:37Z</time>
      </trkpt>
      <trkpt lat="46.09304" lon="4.45304">
        <ele>670</ele>
        <time>2017-11-05T10:15:37Z</time>
      </trkpt>
      <trkpt lat="46.0931" lon="4.45295">
        <ele>671</ele>
        <time>2017-11-05T10:17:37Z</time>
      </trkpt>
      <trkpt lat="46.09316" lon="4.45284">
        <ele>672</ele>
        <time>2017-11-05T10:19:37Z</time>
      </trkpt>
      <trkpt lat="46.09328" lon="4.45258">
        <ele>675</ele>
        <time>2017-11-05T10:21:37Z</time>
      </trkpt>
      <trkpt lat="46.09333" lon="4.45243">
        <ele>677</ele>
        <time>2017-11-05T10:23:37Z</time>
      </trkpt>
      <trkpt lat="46.09337" lon="4.45229">
        <ele>678</ele>
        <time>2017-11-05T10:25:37Z</time>
      </trkpt>
      <trkpt lat="46.0934" lon="4.45214">
        <ele>679</ele>
        <time>2017-11-05T10:27:37Z</time>
      </trkpt>
      <trkpt lat="46.09345" lon="4.45184">
        <ele>682</ele>
        <time>2017-11-05T10:29:37Z</time>
      </trkpt>
      <trkpt lat="46.09346" lon="4.4517">
        <ele>683</ele>
        <time>2017-11-05T10:31:37Z</time>
      </trkpt>
      <trkpt lat="46.09346" lon="4.45144">
        <ele>686</ele>
        <time>2017-11-05T10:33:37Z</time>
      </trkpt>
      <trkpt lat="46.09345" lon="4.45133">
        <ele>687</ele>
        <time>2017-11-05T10:35:37Z</time>
      </trkpt>
      <trkpt lat="46.09337" lon="4.45106">
        <ele>691</ele>
        <time>2017-11-05T10:37:37Z</time>
      </trkpt>
      <trkpt lat="46.09333" lon="4.45093">
        <ele>693</ele>
        <time>2017-11-05T10:39:37Z</time>
      </trkpt>
      <trkpt lat="46.09319" lon="4.45066">
        <ele>694</ele>
        <time>2017-11-05T10:41:37Z</time>
      </trkpt>
      <trkpt lat="46.09303" lon="4.45036">
        <ele>693</ele>
        <time>2017-11-05T10:43:37Z</time>
      </trkpt>
      <trkpt lat="46.0929" lon="4.45015">
        <ele>693</ele>
        <time>2017-11-05T10:45:37Z</time>
      </trkpt>
      <trkpt lat="46.09271" lon="4.44989">
        <ele>693</ele>
        <time>2017-11-05T10:47:37Z</time>
      </trkpt>
      <trkpt lat="46.09259" lon="4.44973">
        <ele>692</ele>
        <time>2017-11-05T10:49:37Z</time>
      </trkpt>
      <trkpt lat="46.09242" lon="4.44953">
        <ele>692</ele>
        <time>2017-11-05T10:51:37Z</time>
      </trkpt>
      <trkpt lat="46.09237" lon="4.44948">
        <ele>693</ele>
        <time>2017-11-05T10:53:37Z</time>
      </trkpt>
      <trkpt lat="46.09231" lon="4.44944">
        <ele>693</ele>
        <time>2017-11-05T10:55:37Z</time>
      </trkpt>
      <trkpt lat="46.09226" lon="4.44943">
        <ele>694</ele>
        <time>2017-11-05T10:57:37Z</time>
      </trkpt>
      <trkpt lat="46.0922" lon="4.44943">
        <ele>696</ele>
        <time>2017-11-05T10:59:37Z</time>
      </trkpt>
      <trkpt lat="46.09215" lon="4.44944">
        <ele>697</ele>
        <time>2017-11-05T11:01:37Z</time>
      </trkpt>
      <trkpt lat="46.0921" lon="4.44947">
        <ele>698</ele>
        <time>2017-11-05T11:03:37Z</time>
      </trkpt>
      <trkpt lat="46.09206" lon="4.44951">
        <ele>700</ele>
        <time>2017-11-05T11:05:37Z</time>
      </trkpt>
      <trkpt lat="46.092" lon="4.44963">
        <ele>702</ele>
        <time>2017-11-05T11:07:37Z</time>
      </trkpt>
      <trkpt lat="46.09199" lon="4.4497">
        <ele>703</ele>
        <time>2017-11-05T11:09:37Z</time>
      </trkpt>
      <trkpt lat="46.09198" lon="4.44993">
        <ele>705</ele>
        <time>2017-11-05T11:11:37Z</time>
      </trkpt>
      <trkpt lat="46.09205" lon="4.45041">
        <ele>706</ele>
        <time>2017-11-05T11:13:37Z</time>
      </trkpt>
      <trkpt lat="46.09206" lon="4.45053">
        <ele>706</ele>
        <time>2017-11-05T11:15:37Z</time>
      </trkpt>
      <trkpt lat="46.09206" lon="4.45062">
        <ele>706</ele>
        <time>2017-11-05T11:17:37Z</time>
      </trkpt>
      <trkpt lat="46.09205" lon="4.45071">
        <ele>706</ele>
        <time>2017-11-05T11:19:37Z</time>
      </trkpt>
      <trkpt lat="46.09202" lon="4.4508">
        <ele>707</ele>
        <time>2017-11-05T11:21:37Z</time>
      </trkpt>
      <trkpt lat="46.09198" lon="4.4509">
        <ele>707</ele>
        <time>2017-11-05T11:23:37Z</time>
      </trkpt>
      <trkpt lat="46.09193" lon="4.451">
        <ele>706</ele>
        <time>2017-11-05T11:25:37Z</time>
      </trkpt>
      <trkpt lat="46.09188" lon="4.45106">
        <ele>706</ele>
        <time>2017-11-05T11:27:37Z</time>
      </trkpt>
      <trkpt lat="46.09179" lon="4.45116">
        <ele>706</ele>
        <time>2017-11-05T11:29:37Z</time>
      </trkpt>
      <trkpt lat="46.09171" lon="4.45121">
        <ele>706</ele>
        <time>2017-11-05T11:31:37Z</time>
      </trkpt>
      <trkpt lat="46.09163" lon="4.45126">
        <ele>706</ele>
        <time>2017-11-05T11:33:37Z</time>
      </trkpt>
      <trkpt lat="46.09146" lon="4.4513">
        <ele>707</ele>
        <time>2017-11-05T11:35:37Z</time>
      </trkpt>
      <trkpt lat="46.09136" lon="4.45131">
        <ele>708</ele>
        <time>2017-11-05T11:37:37Z</time>
      </trkpt>
      <trkpt lat="46.09128" lon="4.45131">
        <ele>708</ele>
        <time>2017-11-05T11:39:37Z</time>
      </trkpt>
      <trkpt lat="46.09118" lon="4.45129">
        <ele>709</ele>
        <time>2017-11-05T11:41:37Z</time>
      </trkpt>
      <trkpt lat="46.09087" lon="4.45116">
        <ele>713</ele>
        <time>2017-11-05T11:43:37Z</time>
      </trkpt>
      <trkpt lat="46.0908" lon="4.45111">
        <ele>714</ele>
        <time>2017-11-05T11:45:37Z</time>
      </trkpt>
      <trkpt lat="46.09074" lon="4.45107">
        <ele>714</ele>
        <time>2017-11-05T11:47:37Z</time>
      </trkpt>
      <trkpt lat="46.09065" lon="4.45097">
        <ele>716</ele>
        <time>2017-11-05T11:49:37Z</time>
      </trkpt>
      <trkpt lat="46.09055" lon="4.45081">
        <ele>718</ele>
        <time>2017-11-05T11:51:37Z</time>
      </trkpt>
      <trkpt lat="46.09052" lon="4.45071">
        <ele>720</ele>
        <time>2017-11-05T11:53:37Z</time>
      </trkpt>
      <trkpt lat="46.0905" lon="4.45058">
        <ele>722</ele>
        <time>2017-11-05T11:55:37Z</time>
      </trkpt>
      <trkpt lat="46.0905" lon="4.45045">
        <ele>724</ele>
        <time>2017-11-05T11:57:37Z</time>
      </trkpt>
      <trkpt lat="46.09052" lon="4.45033">
        <ele>725</ele>
        <time>2017-11-05T11:59:37Z</time>
      </trkpt>
      <trkpt lat="46.09054" lon="4.45022">
        <ele>726</ele>
        <time>2017-11-05T12:01:37Z</time>
      </trkpt>
      <trkpt lat="46.09058" lon="4.45007">
        <ele>728</ele>
        <time>2017-11-05T12:03:37Z</time>
      </trkpt>
      <trkpt lat="46.09064" lon="4.4499">
        <ele>729</ele>
        <time>2017-11-05T12:05:37Z</time>
      </trkpt>
      <trkpt lat="46.09067" lon="4.44983">
        <ele>729</ele>
        <time>2017-11-05T12:07:37Z</time>
      </trkpt>
      <trkpt lat="46.09075" lon="4.44961">
        <ele>730</ele>
        <time>2017-11-05T12:09:37Z</time>
      </trkpt>
      <trkpt lat="46.09077" lon="4.44952">
        <ele>730</ele>
        <time>2017-11-05T12:11:37Z</time>
      </trkpt>
      <trkpt lat="46.09081" lon="4.44932">
        <ele>731</ele>
        <time>2017-11-05T12:13:37Z</time>
      </trkpt>
      <trkpt lat="46.09084" lon="4.44903">
        <ele>733</ele>
        <time>2017-11-05T12:15:37Z</time>
      </trkpt>
      <trkpt lat="46.09085" lon="4.44883">
        <ele>735</ele>
        <time>2017-11-05T12:17:37Z</time>
      </trkpt>
      <trkpt lat="46.09086" lon="4.44839">
        <ele>738</ele>
        <time>2017-11-05T12:19:37Z</time>
      </trkpt>
      <trkpt lat="46.09086" lon="4.44743">
        <ele>744</ele>
        <time>2017-11-05T12:21:37Z</time>
      </trkpt>
      <trkpt lat="46.09085" lon="4.4473">
        <ele>744</ele>
        <time>2017-11-05T12:23:37Z</time>
      </trkpt>
      <trkpt lat="46.09082" lon="4.44705">
        <ele>746</ele>
        <time>2017-11-05T12:25:37Z</time>
      </trkpt>
      <trkpt lat="46.09079" lon="4.44692">
        <ele>747</ele>
        <time>2017-11-05T12:27:37Z</time>
      </trkpt>
      <trkpt lat="46.09069" lon="4.44665">
        <ele>751</ele>
        <time>2017-11-05T12:29:37Z</time>
      </trkpt>
      <trkpt lat="46.09065" lon="4.44648">
        <ele>753</ele>
        <time>2017-11-05T12:31:37Z</time>
      </trkpt>
      <trkpt lat="46.09054" lon="4.4462">
        <ele>757</ele>
        <time>2017-11-05T12:33:37Z</time>
      </trkpt>
      <trkpt lat="46.09047" lon="4.44595">
        <ele>759</ele>
        <time>2017-11-05T12:35:37Z</time>
      </trkpt>
      <trkpt lat="46.09044" lon="4.44583">
        <ele>760</ele>
        <time>2017-11-05T12:37:37Z</time>
      </trkpt>
      <trkpt lat="46.09042" lon="4.44571">
        <ele>760</ele>
        <time>2017-11-05T12:39:37Z</time>
      </trkpt>
      <trkpt lat="46.09041" lon="4.44559">
        <ele>760</ele>
        <time>2017-11-05T12:41:37Z</time>
      </trkpt>
      <trkpt lat="46.09041" lon="4.44546">
        <ele>760</ele>
        <time>2017-11-05T12:43:37Z</time>
      </trkpt>
      <trkpt lat="46.09042" lon="4.44532">
        <ele>759</ele>
        <time>2017-11-05T12:45:37Z</time>
      </trkpt>
      <trkpt lat="46.09046" lon="4.44502">
        <ele>756</ele>
        <time>2017-11-05T12:47:37Z</time>
      </trkpt>
      <trkpt lat="46.09049" lon="4.44486">
        <ele>754</ele>
        <time>2017-11-05T12:49:37Z</time>
      </trkpt>
      <trkpt lat="46.09053" lon="4.44472">
        <ele>751</ele>
        <time>2017-11-05T12:51:37Z</time>
      </trkpt>
      <trkpt lat="46.09057" lon="4.44459">
        <ele>749</ele>
        <time>2017-11-05T12:53:37Z</time>
      </trkpt>
      <trkpt lat="46.09061" lon="4.44433">
        <ele>747</ele>
        <time>2017-11-05T12:55:37Z</time>
      </trkpt>
      <trkpt lat="46.09061" lon="4.4442">
        <ele>746</ele>
        <time>2017-11-05T12:57:37Z</time>
      </trkpt>
      <trkpt lat="46.0906" lon="4.4439">
        <ele>749</ele>
        <time>2017-11-05T12:59:37Z</time>
      </trkpt>
      <trkpt lat="46.09045" lon="4.44254">
        <ele>766</ele>
        <time>2017-11-05T13:01:37Z</time>
      </trkpt>
      <trkpt lat="46.09045" lon="4.44224">
        <ele>771</ele>
        <time>2017-11-05T13:03:37Z</time>
      </trkpt>
      <trkpt lat="46.09045" lon="4.44213">
        <ele>773</ele>
        <time>2017-11-05T13:05:37Z</time>
      </trkpt>
      <trkpt lat="46.09047" lon="4.44202">
        <ele>774</ele>
        <time>2017-11-05T13:07:37Z</time>
      </trkpt>
      <trkpt lat="46.0905" lon="4.44192">
        <ele>775</ele>
        <time>2017-11-05T13:09:37Z</time>
      </trkpt>
      <trkpt lat="46.09054" lon="4.44184">
        <ele>776</ele>
        <time>2017-11-05T13:11:37Z</time>
      </trkpt>
      <trkpt lat="46.09061" lon="4.44176">
        <ele>776</ele>
        <time>2017-11-05T13:13:37Z</time>
      </trkpt>
      <trkpt lat="46.09071" lon="4.44165">
        <ele>776</ele>
        <time>2017-11-05T13:15:37Z</time>
      </trkpt>
      <trkpt lat="46.09077" lon="4.44159">
        <ele>776</ele>
        <time>2017-11-05T13:17:37Z</time>
      </trkpt>
      <trkpt lat="46.09112" lon="4.44128">
        <ele>778</ele>
        <time>2017-11-05T13:19:37Z</time>
      </trkpt>
      <trkpt lat="46.09123" lon="4.4412">
        <ele>779</ele>
        <time>2017-11-05T13:21:37Z</time>
      </trkpt>
      <trkpt lat="46.09136" lon="4.44107">
        <ele>780</ele>
        <time>2017-11-05T13:23:37Z</time>
      </trkpt>
      <trkpt lat="46.09143" lon="4.44099">
        <ele>781</ele>
        <time>2017-11-05T13:25:37Z</time>
      </trkpt>
      <trkpt lat="46.09174" lon="4.44044">
        <ele>787</ele>
        <time>2017-11-05T13:27:37Z</time>
      </trkpt>
      <trkpt lat="46.09203" lon="4.43997">
        <ele>790</ele>
        <time>2017-11-05T13:29:37Z</time>
      </trkpt>
      <trkpt lat="46.09203" lon="4.43997">
        <ele>790</ele>
        <time>2017-11-05T13:31:37Z</time>
      </trkpt>
      <trkpt lat="46.09209" lon="4.43998">
        <ele>789</ele>
        <time>2017-11-05T13:33:37Z</time>
      </trkpt>
      <trkpt lat="46.09214" lon="4.43998">
        <ele>789</ele>
        <time>2017-11-05T13:35:37Z</time>
      </trkpt>
      <trkpt lat="46.09217" lon="4.43997">
        <ele>788</ele>
        <time>2017-11-05T13:37:37Z</time>
      </trkpt>
      <trkpt lat="46.09224" lon="4.43998">
        <ele>788</ele>
        <time>2017-11-05T13:39:37Z</time>
      </trkpt>
      <trkpt lat="46.09262" lon="4.44001">
        <ele>786</ele>
        <time>2017-11-05T13:41:37Z</time>
      </trkpt>
      <trkpt lat="46.09319" lon="4.44006">
        <ele>792</ele>
        <time>2017-11-05T13:43:37Z</time>
      </trkpt>
      <trkpt lat="46.09371" lon="4.4401">
        <ele>795</ele>
        <time>2017-11-05T13:45:37Z</time>
      </trkpt>
      <trkpt lat="46.09399" lon="4.4401">
        <ele>796</ele>
        <time>2017-11-05T13:47:37Z</time>
      </trkpt>
      <trkpt lat="46.09412" lon="4.44009">
        <ele>797</ele>
        <time>2017-11-05T13:49:37Z</time>
      </trkpt>
      <trkpt lat="46.09435" lon="4.44004">
        <ele>798</ele>
        <time>2017-11-05T13:51:37Z</time>
      </trkpt>
      <trkpt lat="46.09448" lon="4.44">
        <ele>798</ele>
        <time>2017-11-05T13:53:37Z</time>
      </trkpt>
      <trkpt lat="46.09466" lon="4.43993">
        <ele>798</ele>
        <time>2017-11-05T13:55:37Z</time>
      </trkpt>
      <trkpt lat="46.09539" lon="4.43971">
        <ele>799</ele>
        <time>2017-11-05T13:57:37Z</time>
      </trkpt>
      <trkpt lat="46.09553" lon="4.43966">
        <ele>800</ele>
        <time>2017-11-05T13:59:37Z</time>
      </trkpt>
      <trkpt lat="46.09564" lon="4.4396">
        <ele>801</ele>
        <time>2017-11-05T14:01:37Z</time>
      </trkpt>
      <trkpt lat="46.09575" lon="4.43953">
        <ele>802</ele>
        <time>2017-11-05T14:03:37Z</time>
      </trkpt>
      <trkpt lat="46.09585" lon="4.43945">
        <ele>803</ele>
        <time>2017-11-05T14:05:37Z</time>
      </trkpt>
      <trkpt lat="46.09595" lon="4.43934">
        <ele>803</ele>
        <time>2017-11-05T14:07:37Z</time>
      </trkpt>
      <trkpt lat="46.09604" lon="4.43923">
        <ele>804</ele>
        <time>2017-11-05T14:09:37Z</time>
      </trkpt>
      <trkpt lat="46.09624" lon="4.43893">
        <ele>806</ele>
        <time>2017-11-05T14:11:37Z</time>
      </trkpt>
      <trkpt lat="46.09645" lon="4.43856">
        <ele>810</ele>
        <time>2017-11-05T14:13:37Z</time>
      </trkpt>
      <trkpt lat="46.09655" lon="4.43837">
        <ele>812</ele>
        <time>2017-11-05T14:15:37Z</time>
      </trkpt>
      <trkpt lat="46.09701" lon="4.43746">
        <ele>813</ele>
        <time>2017-11-05T14:17:37Z</time>
      </trkpt>
      <trkpt lat="46.09713" lon="4.43725">
        <ele>811</ele>
        <time>2017-11-05T14:19:37Z</time>
      </trkpt>
      <trkpt lat="46.09724" lon="4.43708">
        <ele>809</ele>
        <time>2017-11-05T14:21:37Z</time>
      </trkpt>
      <trkpt lat="46.09729" lon="4.43701">
        <ele>808</ele>
        <time>2017-11-05T14:23:37Z</time>
      </trkpt>
      <trkpt lat="46.09741" lon="4.43687">
        <ele>806</ele>
        <time>2017-11-05T14:25:37Z</time>
      </trkpt>
      <trkpt lat="46.09749" lon="4.43679">
        <ele>805</ele>
        <time>2017-11-05T14:27:37Z</time>
      </trkpt>
      <trkpt lat="46.09766" lon="4.43665">
        <ele>808</ele>
        <time>2017-11-05T14:29:37Z</time>
      </trkpt>
      <trkpt lat="46.09769" lon="4.43662">
        <ele>808</ele>
        <time>2017-11-05T14:31:37Z</time>
      </trkpt>
      <trkpt lat="46.0979" lon="4.43652">
        <ele>811</ele>
        <time>2017-11-05T14:33:37Z</time>
      </trkpt>
      <trkpt lat="46.09798" lon="4.43649">
        <ele>812</ele>
        <time>2017-11-05T14:35:37Z</time>
      </trkpt>
      <trkpt lat="46.09811" lon="4.43647">
        <ele>814</ele>
        <time>2017-11-05T14:37:37Z</time>
      </trkpt>
      <trkpt lat="46.09834" lon="4.43646">
        <ele>817</ele>
        <time>2017-11-05T14:39:37Z</time>
      </trkpt>
      <trkpt lat="46.09854" lon="4.43647">
        <ele>818</ele>
        <time>2017-11-05T14:41:37Z</time>
      </trkpt>
      <trkpt lat="46.09877" lon="4.43651">
        <ele>819</ele>
        <time>2017-11-05T14:43:37Z</time>
      </trkpt>
      <trkpt lat="46.09889" lon="4.43654">
        <ele>819</ele>
        <time>2017-11-05T14:45:37Z</time>
      </trkpt>
      <trkpt lat="46.09899" lon="4.43656">
        <ele>820</ele>
        <time>2017-11-05T14:47:37Z</time>
      </trkpt>
      <trkpt lat="46.09911" lon="4.43656">
        <ele>820</ele>
        <time>2017-11-05T14:49:37Z</time>
      </trkpt>
      <trkpt lat="46.09919" lon="4.43656">
        <ele>820</ele>
        <time>2017-11-05T14:51:37Z</time>
      </trkpt>
      <trkpt lat="46.09939" lon="4.43652">
        <ele>818</ele>
        <time>2017-11-05T14:53:37Z</time>
      </trkpt>
      <trkpt lat="46.09956" lon="4.43644">
        <ele>817</ele>
        <time>2017-11-05T14:55:37Z</time>
      </trkpt>
      <trkpt lat="46.09967" lon="4.43637">
        <ele>817</ele>
        <time>2017-11-05T14:57:37Z</time>
      </trkpt>
      <trkpt lat="46.09996" lon="4.43615">
        <ele>820</ele>
        <time>2017-11-05T14:59:37Z</time>
      </trkpt>
      <trkpt lat="46.10022" lon="4.43594">
        <ele>825</ele>
        <time>2017-11-05T15:01:37Z</time>
      </trkpt>
      <trkpt lat="46.1004" lon="4.43583">
        <ele>826</ele>
        <time>2017-11-05T15:03:37Z</time>
      </trkpt>
      <trkpt lat="46.10048" lon="4.43578">
        <ele>826</ele>
        <time>2017-11-05T15:05:37Z</time>
      </trkpt>
      <trkpt lat="46.10059" lon="4.43575">
        <ele>826</ele>
        <time>2017-11-05T15:07:37Z</time>
      </trkpt>
      <trkpt lat="46.10097" lon="4.43564">
        <ele>824</ele>
        <time>2017-11-05T15:09:37Z</time>
      </trkpt>
      <trkpt lat="46.10106" lon="4.43559">
        <ele>824</ele>
        <time>2017-11-05T15:11:37Z</time>
      </trkpt>
      <trkpt lat="46.10114" lon="4.43552">
        <ele>825</ele>
        <time>2017-11-05T15:13:37Z</time>
      </trkpt>
      <trkpt lat="46.1012" lon="4.43544">
        <ele>825</ele>
        <time>2017-11-05T15:15:37Z</time>
      </trkpt>
      <trkpt lat="46.10132" lon="4.43524">
        <ele>828</ele>
        <time>2017-11-05T15:17:37Z</time>
      </trkpt>
      <trkpt lat="46.10156" lon="4.43476">
        <ele>832</ele>
        <time>2017-11-05T15:19:37Z</time>
      </trkpt>
      <trkpt lat="46.10161" lon="4.43463">
        <ele>833</ele>
        <time>2017-11-05T15:21:37Z</time>
      </trkpt>
      <trkpt lat="46.10171" lon="4.43441">
        <ele>835</ele>
        <time>2017-11-05T15:23:37Z</time>
      </trkpt>
      <trkpt lat="46.10176" lon="4.43433">
        <ele>835</ele>
        <time>2017-11-05T15:25:37Z</time>
      </trkpt>
      <trkpt lat="46.10182" lon="4.43425">
        <ele>836</ele>
        <time>2017-11-05T15:27:37Z</time>
      </trkpt>
      <trkpt lat="46.10206" lon="4.434">
        <ele>836</ele>
        <time>2017-11-05T15:29:37Z</time>
      </trkpt>
      <trkpt lat="46.10215" lon="4.43389">
        <ele>838</ele>
        <time>2017-11-05T15:31:37Z</time>
      </trkpt>
      <trkpt lat="46.10225" lon="4.43379">
        <ele>839</ele>
        <time>2017-11-05T15:33:37Z</time>
      </trkpt>
      <trkpt lat="46.10234" lon="4.43369">
        <ele>841</ele>
        <time>2017-11-05T15:35:37Z</time>
      </trkpt>
      <trkpt lat="46.10243" lon="4.4336">
        <ele>843</ele>
        <time>2017-11-05T15:37:37Z</time>
      </trkpt>
      <trkpt lat="46.10274" lon="4.43324">
        <ele>848</ele>
        <time>2017-11-05T15:39:37Z</time>
      </trkpt>
      <trkpt lat="46.10296" lon="4.43308">
        <ele>848</ele>
        <time>2017-11-05T15:41:37Z</time>
      </trkpt>
      <trkpt lat="46.10334" lon="4.43286">
        <ele>847</ele>
        <time>2017-11-05T15:43:37Z</time>
      </trkpt>
      <trkpt lat="46.10356" lon="4.43274">
        <ele>846</ele>
        <time>2017-11-05T15:45:37Z</time>
      </trkpt>
      <trkpt lat="46.10381" lon="4.43259">
        <ele>846</ele>
        <time>2017-11-05T15:47:37Z</time>
      </trkpt>
      <trkpt lat="46.10388" lon="4.43253">
        <ele>847</ele>
        <time>2017-11-05T15:49:37Z</time>
      </trkpt>
      <trkpt lat="46.10396" lon="4.43245">
        <ele>847</ele>
        <time>2017-11-05T15:51:37Z</time>
      </trkpt>
      <trkpt lat="46.1041" lon="4.43225">
        <ele>851</ele>
        <time>2017-11-05T15:53:37Z</time>
      </trkpt>
      <trkpt lat="46.10413" lon="4.43221">
        <ele>852</ele>
        <time>2017-11-05T15:55:37Z</time>
      </trkpt>
      <trkpt lat="46.10419" lon="4.43214">
        <ele>853</ele>
        <time>2017-11-05T15:57:37Z</time>
      </trkpt>
      <trkpt lat="46.10427" lon="4.43208">
        <ele>855</ele>
        <time>2017-11-05T15:59:37Z</time>
      </trkpt>
      <trkpt lat="46.10435" lon="4.43203">
        <ele>857</ele>
        <time>2017-11-05T16:01:37Z</time>
      </trkpt>
      <trkpt lat="46.10443" lon="4.432">
        <ele>858</ele>
        <time>2017-11-05T16:03:37Z</time>
      </trkpt>
      <trkpt lat="46.10453" lon="4.43197">
        <ele>859</ele>
        <time>2017-11-05T16:05:37Z</time>
      </trkpt>
      <trkpt lat="46.10469" lon="4.43196">
        <ele>860</ele>
        <time>2017-11-05T16:07:37Z</time>
      </trkpt>
      <trkpt lat="46.10477" lon="4.432">
        <ele>858</ele>
        <time>2017-11-05T16:09:37Z</time>
      </trkpt>
      <trkpt lat="46.10484" lon="4.43205">
        <ele>857</ele>
        <time>2017-11-05T16:11:37Z</time>
      </trkpt>
      <trkpt lat="46.10499" lon="4.4322">
        <ele>852</ele>
        <time>2017-11-05T16:13:37Z</time>
      </trkpt>
      <trkpt lat="46.10505" lon="4.43229">
        <ele>850</ele>
        <time>2017-11-05T16:15:37Z</time>
      </trkpt>
      <trkpt lat="46.10512" lon="4.43239">
        <ele>848</ele>
        <time>2017-11-05T16:17:37Z</time>
      </trkpt>
      <trkpt lat="46.10518" lon="4.43248">
        <ele>846</ele>
        <time>2017-11-05T16:19:37Z</time>
      </trkpt>
      <trkpt lat="46.10533" lon="4.43271">
        <ele>842</ele>
        <time>2017-11-05T16:21:37Z</time>
      </trkpt>
      <trkpt lat="46.1054" lon="4.43275">
        <ele>842</ele>
        <time>2017-11-05T16:23:37Z</time>
      </trkpt>
      <trkpt lat="46.10547" lon="4.43276">
        <ele>843</ele>
        <time>2017-11-05T16:25:37Z</time>
      </trkpt>
      <trkpt lat="46.1056" lon="4.43273">
        <ele>845</ele>
        <time>2017-11-05T16:27:37Z</time>
      </trkpt>
      <trkpt lat="46.10567" lon="4.43269">
        <ele>847</ele>
        <time>2017-11-05T16:29:37Z</time>
      </trkpt>
      <trkpt lat="46.10579" lon="4.43258">
        <ele>850</ele>
        <time>2017-11-05T16:31:37Z</time>
      </trkpt>
      <trkpt lat="46.10593" lon="4.43243">
        <ele>851</ele>
        <time>2017-11-05T16:33:37Z</time>
      </trkpt>
      <trkpt lat="46.10603" lon="4.43233">
        <ele>851</ele>
        <time>2017-11-05T16:35:37Z</time>
      </trkpt>
      <trkpt lat="46.10614" lon="4.43222">
        <ele>851</ele>
        <time>2017-11-05T16:37:37Z</time>
      </trkpt>
      <trkpt lat="46.1062" lon="4.43214">
        <ele>852</ele>
        <time>2017-11-05T16:39:37Z</time>
      </trkpt>
      <trkpt lat="46.10636" lon="4.43199">
        <ele>852</ele>
        <time>2017-11-05T16:41:37Z</time>
      </trkpt>
      <trkpt lat="46.10648" lon="4.43183">
        <ele>854</ele>
        <time>2017-11-05T16:43:37Z</time>
      </trkpt>
      <trkpt lat="46.10655" lon="4.43178">
        <ele>853</ele>
        <time>2017-11-05T16:45:37Z</time>
      </trkpt>
      <trkpt lat="46.10663" lon="4.43173">
        <ele>853</ele>
        <time>2017-11-05T16:47:37Z</time>
      </trkpt>
      <trkpt lat="46.1068" lon="4.43166">
        <ele>853</ele>
        <time>2017-11-05T16:49:37Z</time>
      </trkpt>
      <trkpt lat="46.10689" lon="4.43164">
        <ele>853</ele>
        <time>2017-11-05T16:51:37Z</time>
      </trkpt>
      <trkpt lat="46.10698" lon="4.43163">
        <ele>852</ele>
        <time>2017-11-05T16:53:37Z</time>
      </trkpt>
      <trkpt lat="46.10716" lon="4.43159">
        <ele>851</ele>
        <time>2017-11-05T16:55:37Z</time>
      </trkpt>
      <trkpt lat="46.10727" lon="4.43158">
        <ele>850</ele>
        <time>2017-11-05T16:57:37Z</time>
      </trkpt>
      <trkpt lat="46.10743" lon="4.43155">
        <ele>849</ele>
        <time>2017-11-05T16:59:37Z</time>
      </trkpt>
      <trkpt lat="46.10751" lon="4.4315">
        <ele>849</ele>
        <time>2017-11-05T17:01:37Z</time>
      </trkpt>
      <trkpt lat="46.10757" lon="4.43146">
        <ele>849</ele>
        <time>2017-11-05T17:03:37Z</time>
      </trkpt>
      <trkpt lat="46.10767" lon="4.43134">
        <ele>849</ele>
        <time>2017-11-05T17:05:37Z</time>
      </trkpt>
      <trkpt lat="46.10783" lon="4.43113">
        <ele>850</ele>
        <time>2017-11-05T17:07:37Z</time>
      </trkpt>
      <trkpt lat="46.10786" lon="4.43107">
        <ele>851</ele>
        <time>2017-11-05T17:09:37Z</time>
      </trkpt>
      <trkpt lat="46.1079" lon="4.431">
        <ele>852</ele>
        <time>2017-11-05T17:11:37Z</time>
      </trkpt>
      <trkpt lat="46.10805" lon="4.4308">
        <ele>854</ele>
        <time>2017-11-05T17:13:37Z</time>
      </trkpt>
      <trkpt lat="46.10812" lon="4.43072">
        <ele>854</ele>
        <time>2017-11-05T17:15:37Z</time>
      </trkpt>
      <trkpt lat="46.10825" lon="4.43054">
        <ele>856</ele>
        <time>2017-11-05T17:17:37Z</time>
      </trkpt>
      <trkpt lat="46.10843" lon="4.43034">
        <ele>857</ele>
        <time>2017-11-05T17:19:37Z</time>
      </trkpt>
      <trkpt lat="46.10871" lon="4.43008">
        <ele>861</ele>
        <time>2017-11-05T17:21:37Z</time>
      </trkpt>
      <trkpt lat="46.10889" lon="4.42995">
        <ele>862</ele>
        <time>2017-11-05T17:23:37Z</time>
      </trkpt>
      <trkpt lat="46.10898" lon="4.42987">
        <ele>863</ele>
        <time>2017-11-05T17:25:37Z</time>
      </trkpt>
      <trkpt lat="46.10926" lon="4.42965">
        <ele>864</ele>
        <time>2017-11-05T17:27:37Z</time>
      </trkpt>
      <trkpt lat="46.10941" lon="4.42949">
        <ele>864</ele>
        <time>2017-11-05T17:29:37Z</time>
      </trkpt>
      <trkpt lat="46.10943" lon="4.42948">
        <ele>863</ele>
        <time>2017-11-05T17:31:37Z</time>
      </trkpt>
      <trkpt lat="46.10951" lon="4.4294">
        <ele>863</ele>
        <time>2017-11-05T17:33:37Z</time>
      </trkpt>
      <trkpt lat="46.10956" lon="4.42933">
        <ele>863</ele>
        <time>2017-11-05T17:35:37Z</time>
      </trkpt>
      <trkpt lat="46.10959" lon="4.4293">
        <ele>862</ele>
        <time>2017-11-05T17:37:37Z</time>
      </trkpt>
      <trkpt lat="46.10975" lon="4.42915">
        <ele>861</ele>
        <time>2017-11-05T17:39:37Z</time>
      </trkpt>
      <trkpt lat="46.10992" lon="4.42904">
        <ele>857</ele>
        <time>2017-11-05T17:41:37Z</time>
      </trkpt>
      <trkpt lat="46.11017" lon="4.42888">
        <ele>855</ele>
        <time>2017-11-05T17:43:37Z</time>
      </trkpt>
      <trkpt lat="46.11038" lon="4.42874">
        <ele>854</ele>
        <time>2017-11-05T17:45:37Z</time>
      </trkpt>
      <trkpt lat="46.11048" lon="4.42868">
        <ele>854</ele>
        <time>2017-11-05T17:47:37Z</time>
      </trkpt>
      <trkpt lat="46.11058" lon="4.42863">
        <ele>854</ele>
        <time>2017-11-05T17:49:37Z</time>
      </trkpt>
      <trkpt lat="46.11079" lon="4.42849">
        <ele>852</ele>
        <time>2017-11-05T17:51:37Z</time>
      </trkpt>
      <trkpt lat="46.11109" lon="4.42831">
        <ele>855</ele>
        <time>2017-11-05T17:53:37Z</time>
      </trkpt>
      <trkpt lat="46.11126" lon="4.42817">
        <ele>856</ele>
        <time>2017-11-05T17:55:37Z</time>
      </trkpt>
      <trkpt lat="46.11157" lon="4.42782">
        <ele>858</ele>
        <time>2017-11-05T17:57:37Z</time>
      </trkpt>
      <trkpt lat="46.11172" lon="4.4276">
        <ele>859</ele>
        <time>2017-11-05T17:59:37Z</time>
      </trkpt>
      <trkpt lat="46.11185" lon="4.42734">
        <ele>860</ele>
        <time>2017-11-05T18:01:37Z</time>
      </trkpt>
      <trkpt lat="46.11189" lon="4.42723">
        <ele>860</ele>
        <time>2017-11-05T18:03:37Z</time>
      </trkpt>
      <trkpt lat="46.11195" lon="4.42713">
        <ele>860</ele>
        <time>2017-11-05T18:05:37Z</time>
      </trkpt>
      <trkpt lat="46.112" lon="4.42701">
        <ele>860</ele>
        <time>2017-11-05T18:07:37Z</time>
      </trkpt>
      <trkpt lat="46.11212" lon="4.42672">
        <ele>860</ele>
        <time>2017-11-05T18:09:37Z</time>
      </trkpt>
      <trkpt lat="46.11232" lon="4.42633">
        <ele>857</ele>
        <time>2017-11-05T18:11:37Z</time>
      </trkpt>
      <trkpt lat="46.11244" lon="4.42611">
        <ele>855</ele>
        <time>2017-11-05T18:13:37Z</time>
      </trkpt>
      <trkpt lat="46.1126" lon="4.42591">
        <ele>853</ele>
        <time>2017-11-05T18:15:37Z</time>
      </trkpt>
      <trkpt lat="46.11264" lon="4.42586">
        <ele>852</ele>
        <time>2017-11-05T18:17:37Z</time>
      </trkpt>
      <trkpt lat="46.11274" lon="4.42576">
        <ele>851</ele>
        <time>2017-11-05T18:19:37Z</time>
      </trkpt>
      <trkpt lat="46.11289" lon="4.42564">
        <ele>850</ele>
        <time>2017-11-05T18:21:37Z</time>
      </trkpt>
      <trkpt lat="46.11308" lon="4.42554">
        <ele>849</ele>
        <time>2017-11-05T18:23:37Z</time>
      </trkpt>
      <trkpt lat="46.11318" lon="4.42549">
        <ele>849</ele>
        <time>2017-11-05T18:25:37Z</time>
      </trkpt>
      <trkpt lat="46.11342" lon="4.42546">
        <ele>849</ele>
        <time>2017-11-05T18:27:37Z</time>
      </trkpt>
      <trkpt lat="46.11365" lon="4.42545">
        <ele>846</ele>
        <time>2017-11-05T18:29:37Z</time>
      </trkpt>
      <trkpt lat="46.11389" lon="4.42549">
        <ele>844</ele>
        <time>2017-11-05T18:31:37Z</time>
      </trkpt>
      <trkpt lat="46.1141" lon="4.42558">
        <ele>844</ele>
        <time>2017-11-05T18:33:37Z</time>
      </trkpt>
      <trkpt lat="46.11446" lon="4.42578">
        <ele>843</ele>
        <time>2017-11-05T18:35:37Z</time>
      </trkpt>
      <trkpt lat="46.11456" lon="4.42584">
        <ele>842</ele>
        <time>2017-11-05T18:37:37Z</time>
      </trkpt>
      <trkpt lat="46.11475" lon="4.42599">
        <ele>843</ele>
        <time>2017-11-05T18:39:37Z</time>
      </trkpt>
      <trkpt lat="46.1149" lon="4.42615">
        <ele>844</ele>
        <time>2017-11-05T18:41:37Z</time>
      </trkpt>
      <trkpt lat="46.11519" lon="4.42655">
        <ele>846</ele>
        <time>2017-11-05T18:43:37Z</time>
      </trkpt>
      <trkpt lat="46.11526" lon="4.42664">
        <ele>847</ele>
        <time>2017-11-05T18:45:37Z</time>
      </trkpt>
      <trkpt lat="46.11533" lon="4.4267">
        <ele>846</ele>
        <time>2017-11-05T18:47:37Z</time>
      </trkpt>
      <trkpt lat="46.11541" lon="4.42676">
        <ele>846</ele>
        <time>2017-11-05T18:49:37Z</time>
      </trkpt>
      <trkpt lat="46.11549" lon="4.42681">
        <ele>845</ele>
        <time>2017-11-05T18:51:37Z</time>
      </trkpt>
      <trkpt lat="46.1156" lon="4.42687">
        <ele>843</ele>
        <time>2017-11-05T18:53:37Z</time>
      </trkpt>
      <trkpt lat="46.11583" lon="4.42698">
        <ele>840</ele>
        <time>2017-11-05T18:55:37Z</time>
      </trkpt>
      <trkpt lat="46.11606" lon="4.42704">
        <ele>837</ele>
        <time>2017-11-05T18:57:37Z</time>
      </trkpt>
      <trkpt lat="46.11632" lon="4.4271">
        <ele>834</ele>
        <time>2017-11-05T18:59:37Z</time>
      </trkpt>
      <trkpt lat="46.11673" lon="4.42716">
        <ele>830</ele>
        <time>2017-11-05T19:01:37Z</time>
      </trkpt>
      <trkpt lat="46.11685" lon="4.42717">
        <ele>831</ele>
        <time>2017-11-05T19:03:37Z</time>
      </trkpt>
      <trkpt lat="46.11737" lon="4.42722">
        <ele>835</ele>
        <time>2017-11-05T19:05:37Z</time>
      </trkpt>
      <trkpt lat="46.11749" lon="4.42722">
        <ele>836</ele>
        <time>2017-11-05T19:07:37Z</time>
      </trkpt>
      <trkpt lat="46.11772" lon="4.42718">
        <ele>838</ele>
        <time>2017-11-05T19:09:37Z</time>
      </trkpt>
      <trkpt lat="46.11784" lon="4.42714">
        <ele>838</ele>
        <time>2017-11-05T19:11:37Z</time>
      </trkpt>
      <trkpt lat="46.11807" lon="4.42704">
        <ele>840</ele>
        <time>2017-11-05T19:13:37Z</time>
      </trkpt>
      <trkpt lat="46.11842" lon="4.42683">
        <ele>840</ele>
        <time>2017-11-05T19:15:37Z</time>
      </trkpt>
      <trkpt lat="46.11892" lon="4.42655">
        <ele>834</ele>
        <time>2017-11-05T19:17:37Z</time>
      </trkpt>
      <trkpt lat="46.11917" lon="4.42639">
        <ele>833</ele>
        <time>2017-11-05T19:19:37Z</time>
      </trkpt>
      <trkpt lat="46.1193" lon="4.42631">
        <ele>832</ele>
        <time>2017-11-05T19:21:37Z</time>
      </trkpt>
      <trkpt lat="46.11952" lon="4.42616">
        <ele>831</ele>
        <time>2017-11-05T19:23:37Z</time>
      </trkpt>
      <trkpt lat="46.11964" lon="4.42607">
        <ele>830</ele>
        <time>2017-11-05T19:25:37Z</time>
      </trkpt>
      <trkpt lat="46.1202" lon="4.42555">
        <ele>828</ele>
        <time>2017-11-05T19:27:37Z</time>
      </trkpt>
      <trkpt lat="46.12044" lon="4.42534">
        <ele>829</ele>
        <time>2017-11-05T19:29:37Z</time>
      </trkpt>
      <trkpt lat="46.12053" lon="4.42526">
        <ele>830</ele>
        <time>2017-11-05T19:31:37Z</time>
      </trkpt>
      <trkpt lat="46.12064" lon="4.42513">
        <ele>830</ele>
        <time>2017-11-05T19:33:37Z</time>
      </trkpt>
      <trkpt lat="46.12081" lon="4.42483">
        <ele>829</ele>
        <time>2017-11-05T19:35:37Z</time>
      </trkpt>
      <trkpt lat="46.12089" lon="4.42462">
        <ele>827</ele>
        <time>2017-11-05T19:37:37Z</time>
      </trkpt>
      <trkpt lat="46.12097" lon="4.42436">
        <ele>825</ele>
        <time>2017-11-05T19:39:37Z</time>
      </trkpt>
      <trkpt lat="46.12104" lon="4.4241">
        <ele>823</ele>
        <time>2017-11-05T19:41:37Z</time>
      </trkpt>
      <trkpt lat="46.12106" lon="4.42399">
        <ele>823</ele>
        <time>2017-11-05T19:43:37Z</time>
      </trkpt>
      <trkpt lat="46.12106" lon="4.42389">
        <ele>823</ele>
        <time>2017-11-05T19:45:37Z</time>
      </trkpt>
      <trkpt lat="46.12106" lon="4.4238">
        <ele>823</ele>
        <time>2017-11-05T19:47:37Z</time>
      </trkpt>
      <trkpt lat="46.12101" lon="4.4236">
        <ele>822</ele>
        <time>2017-11-05T19:49:37Z</time>
      </trkpt>
      <trkpt lat="46.12098" lon="4.42351">
        <ele>822</ele>
        <time>2017-11-05T19:51:37Z</time>
      </trkpt>
      <trkpt lat="46.12093" lon="4.42342">
        <ele>821</ele>
        <time>2017-11-05T19:53:37Z</time>
      </trkpt>
      <trkpt lat="46.12083" lon="4.42315">
        <ele>820</ele>
        <time>2017-11-05T19:55:37Z</time>
      </trkpt>
      <trkpt lat="46.12075" lon="4.42283">
        <ele>818</ele>
        <time>2017-11-05T19:57:37Z</time>
      </trkpt>
      <trkpt lat="46.12066" lon="4.42242">
        <ele>816</ele>
        <time>2017-11-05T19:59:37Z</time>
      </trkpt>
      <trkpt lat="46.12062" lon="4.42211">
        <ele>815</ele>
        <time>2017-11-05T20:01:37Z</time>
      </trkpt>
      <trkpt lat="46.1206" lon="4.42184">
        <ele>814</ele>
        <time>2017-11-05T20:03:37Z</time>
      </trkpt>
      <trkpt lat="46.1206" lon="4.42173">
        <ele>814</ele>
        <time>2017-11-05T20:05:37Z</time>
      </trkpt>
      <trkpt lat="46.1206" lon="4.4216">
        <ele>814</ele>
        <time>2017-11-05T20:07:37Z</time>
      </trkpt>
      <trkpt lat="46.12061" lon="4.42146">
        <ele>814</ele>
        <time>2017-11-05T20:09:37Z</time>
      </trkpt>
      <trkpt lat="46.12065" lon="4.42122">
        <ele>813</ele>
        <time>2017-11-05T20:11:37Z</time>
      </trkpt>
      <trkpt lat="46.1207" lon="4.42097">
        <ele>813</ele>
        <time>2017-11-05T20:13:37Z</time>
      </trkpt>
      <trkpt lat="46.12078" lon="4.42072">
        <ele>814</ele>
        <time>2017-11-05T20:15:37Z</time>
      </trkpt>
      <trkpt lat="46.12088" lon="4.42048">
        <ele>814</ele>
        <time>2017-11-05T20:17:37Z</time>
      </trkpt>
      <trkpt lat="46.1209" lon="4.42043">
        <ele>814</ele>
        <time>2017-11-05T20:19:37Z</time>
      </trkpt>
      <trkpt lat="46.12097" lon="4.42034">
        <ele>813</ele>
        <time>2017-11-05T20:21:37Z</time>
      </trkpt>
      <trkpt lat="46.12104" lon="4.42027">
        <ele>813</ele>
        <time>2017-11-05T20:23:37Z</time>
      </trkpt>
      <trkpt lat="46.12111" lon="4.42021">
        <ele>813</ele>
        <time>2017-11-05T20:25:37Z</time>
      </trkpt>
      <trkpt lat="46.12119" lon="4.42017">
        <ele>813</ele>
        <time>2017-11-05T20:27:37Z</time>
      </trkpt>
      <trkpt lat="46.12128" lon="4.42016">
        <ele>813</ele>
        <time>2017-11-05T20:29:37Z</time>
      </trkpt>
      <trkpt lat="46.12136" lon="4.42015">
        <ele>812</ele>
        <time>2017-11-05T20:31:37Z</time>
      </trkpt>
      <trkpt lat="46.12143" lon="4.42016">
        <ele>813</ele>
        <time>2017-11-05T20:33:37Z</time>
      </trkpt>
      <trkpt lat="46.1215" lon="4.42018">
        <ele>813</ele>
        <time>2017-11-05T20:35:37Z</time>
      </trkpt>
      <trkpt lat="46.12174" lon="4.42026">
        <ele>812</ele>
        <time>2017-11-05T20:37:37Z</time>
      </trkpt>
      <trkpt lat="46.12201" lon="4.42042">
        <ele>808</ele>
        <time>2017-11-05T20:39:37Z</time>
      </trkpt>
      <trkpt lat="46.12218" lon="4.42056">
        <ele>806</ele>
        <time>2017-11-05T20:41:37Z</time>
      </trkpt>
      <trkpt lat="46.12234" lon="4.42072">
        <ele>804</ele>
        <time>2017-11-05T20:43:37Z</time>
      </trkpt>
      <trkpt lat="46.12242" lon="4.4208">
        <ele>803</ele>
        <time>2017-11-05T20:45:37Z</time>
      </trkpt>
      <trkpt lat="46.12244" lon="4.42084">
        <ele>803</ele>
        <time>2017-11-05T20:47:37Z</time>
      </trkpt>
      <trkpt lat="46.12264" lon="4.42105">
        <ele>803</ele>
        <time>2017-11-05T20:49:37Z</time>
      </trkpt>
      <trkpt lat="46.1228" lon="4.42121">
        <ele>803</ele>
        <time>2017-11-05T20:51:37Z</time>
      </trkpt>
      <trkpt lat="46.12283" lon="4.42124">
        <ele>803</ele>
        <time>2017-11-05T20:53:37Z</time>
      </trkpt>
      <trkpt lat="46.12293" lon="4.42127">
        <ele>803</ele>
        <time>2017-11-05T20:55:37Z</time>
      </trkpt>
      <trkpt lat="46.123" lon="4.42128">
        <ele>802</ele>
        <time>2017-11-05T20:57:37Z</time>
      </trkpt>
      <trkpt lat="46.12308" lon="4.42128">
        <ele>801</ele>
        <time>2017-11-05T20:59:37Z</time>
      </trkpt>
      <trkpt lat="46.1231" lon="4.42127">
        <ele>801</ele>
        <time>2017-11-05T21:01:37Z</time>
      </trkpt>
      <trkpt lat="46.12315" lon="4.42123">
        <ele>800</ele>
        <time>2017-11-05T21:03:37Z</time>
      </trkpt>
      <trkpt lat="46.12323" lon="4.42117">
        <ele>799</ele>
        <time>2017-11-05T21:05:37Z</time>
      </trkpt>
      <trkpt lat="46.12331" lon="4.42109">
        <ele>797</ele>
        <time>2017-11-05T21:07:37Z</time>
      </trkpt>
      <trkpt lat="46.12339" lon="4.42098">
        <ele>796</ele>
        <time>2017-11-05T21:09:37Z</time>
      </trkpt>
      <trkpt lat="46.12344" lon="4.42091">
        <ele>796</ele>
        <time>2017-11-05T21:11:37Z</time>
      </trkpt>
      <trkpt lat="46.12355" lon="4.4207">
        <ele>795</ele>
        <time>2017-11-05T21:13:37Z</time>
      </trkpt>
      <trkpt lat="46.12406" lon="4.41969">
        <ele>790</ele>
        <time>2017-11-05T21:15:37Z</time>
      </trkpt>
      <trkpt lat="46.12441" lon="4.41898">
        <ele>791</ele>
        <time>2017-11-05T21:17:37Z</time>
      </trkpt>
      <trkpt lat="46.12449" lon="4.41881">
        <ele>791</ele>
        <time>2017-11-05T21:19:37Z</time>
      </trkpt>
      <trkpt lat="46.12457" lon="4.41869">
        <ele>791</ele>
        <time>2017-11-05T21:21:37Z</time>
      </trkpt>
      <trkpt lat="46.12463" lon="4.41857">
        <ele>791</ele>
        <time>2017-11-05T21:23:37Z</time>
      </trkpt>
      <trkpt lat="46.1247" lon="4.41848">
        <ele>792</ele>
        <time>2017-11-05T21:25:37Z</time>
      </trkpt>
      <trkpt lat="46.125" lon="4.41818">
        <ele>794</ele>
        <time>2017-11-05T21:27:37Z</time>
      </trkpt>
      <trkpt lat="46.12514" lon="4.41806">
        <ele>793</ele>
        <time>2017-11-05T21:29:37Z</time>
      </trkpt>
      <trkpt lat="46.12514" lon="4.41806">
        <ele>793</ele>
        <time>2017-11-05T21:31:37Z</time>
      </trkpt>
      <trkpt lat="46.12514" lon="4.41775">
        <ele>787</ele>
        <time>2017-11-05T21:33:37Z</time>
      </trkpt>
      <trkpt lat="46.12514" lon="4.41764">
        <ele>785</ele>
        <time>2017-11-05T21:35:37Z</time>
      </trkpt>
      <trkpt lat="46.12515" lon="4.41752">
        <ele>783</ele>
        <time>2017-11-05T21:37:37Z</time>
      </trkpt>
      <trkpt lat="46.12527" lon="4.417">
        <ele>778</ele>
        <time>2017-11-05T21:39:37Z</time>
      </trkpt>
      <trkpt lat="46.12534" lon="4.4168">
        <ele>776</ele>
        <time>2017-11-05T21:41:37Z</time>
      </trkpt>
      <trkpt lat="46.12542" lon="4.41657">
        <ele>775</ele>
        <time>2017-11-05T21:43:37Z</time>
      </trkpt>
      <trkpt lat="46.12549" lon="4.4163">
        <ele>774</ele>
        <time>2017-11-05T21:45:37Z</time>
      </trkpt>
      <trkpt lat="46.12554" lon="4.41612">
        <ele>774</ele>
        <time>2017-11-05T21:47:37Z</time>
      </trkpt>
      <trkpt lat="46.12554" lon="4.41601">
        <ele>773</ele>
        <time>2017-11-05T21:49:37Z</time>
      </trkpt>
      <trkpt lat="46.12554" lon="4.4159">
        <ele>772</ele>
        <time>2017-11-05T21:51:37Z</time>
      </trkpt>
      <trkpt lat="46.12551" lon="4.41578">
        <ele>772</ele>
        <time>2017-11-05T21:53:37Z</time>
      </trkpt>
      <trkpt lat="46.12548" lon="4.41566">
        <ele>773</ele>
        <time>2017-11-05T21:55:37Z</time>
      </trkpt>
      <trkpt lat="46.12543" lon="4.41555">
        <ele>774</ele>
        <time>2017-11-05T21:57:37Z</time>
      </trkpt>
      <trkpt lat="46.12529" lon="4.41535">
        <ele>775</ele>
        <time>2017-11-05T21:59:37Z</time>
      </trkpt>
      <trkpt lat="46.12516" lon="4.41513">
        <ele>776</ele>
        <time>2017-11-05T22:01:37Z</time>
      </trkpt>
      <trkpt lat="46.12502" lon="4.41489">
        <ele>777</ele>
        <time>2017-11-05T22:03:37Z</time>
      </trkpt>
      <trkpt lat="46.12495" lon="4.41473">
        <ele>778</ele>
        <time>2017-11-05T22:05:37Z</time>
      </trkpt>
      <trkpt lat="46.12495" lon="4.41473">
        <ele>778</ele>
        <time>2017-11-05T22:07:37Z</time>
      </trkpt>
      <trkpt lat="46.12492" lon="4.41471">
        <ele>778</ele>
        <time>2017-11-05T22:09:37Z</time>
      </trkpt>
      <trkpt lat="46.12482" lon="4.41462">
        <ele>778</ele>
        <time>2017-11-05T22:11:37Z</time>
      </trkpt>
      <trkpt lat="46.12471" lon="4.41452">
        <ele>778</ele>
        <time>2017-11-05T22:13:37Z</time>
      </trkpt>
      <trkpt lat="46.12464" lon="4.41443">
        <ele>778</ele>
        <time>2017-11-05T22:15:37Z</time>
      </trkpt>
      <trkpt lat="46.12456" lon="4.41431">
        <ele>779</ele>
        <time>2017-11-05T22:17:37Z</time>
      </trkpt>
      <trkpt lat="46.12449" lon="4.41418">
        <ele>779</ele>
        <time>2017-11-05T22:19:37Z</time>
      </trkpt>
      <trkpt lat="46.12443" lon="4.414">
        <ele>779</ele>
        <time>2017-11-05T22:21:37Z</time>
      </trkpt>
      <trkpt lat="46.12438" lon="4.41379">
        <ele>779</ele>
        <time>2017-11-05T22:23:37Z</time>
      </trkpt>
      <trkpt lat="46.12432" lon="4.41334">
        <ele>779</ele>
        <time>2017-11-05T22:25:37Z</time>
      </trkpt>
      <trkpt lat="46.12429" lon="4.41314">
        <ele>779</ele>
        <time>2017-11-05T22:27:37Z</time>
      </trkpt>
      <trkpt lat="46.12422" lon="4.41272">
        <ele>777</ele>
        <time>2017-11-05T22:29:37Z</time>
      </trkpt>
      <trkpt lat="46.12417" lon="4.41253">
        <ele>776</ele>
        <time>2017-11-05T22:31:37Z</time>
      </trkpt>
      <trkpt lat="46.12405" lon="4.41205">
        <ele>775</ele>
        <time>2017-11-05T22:33:37Z</time>
      </trkpt>
      <trkpt lat="46.12392" lon="4.41164">
        <ele>774</ele>
        <time>2017-11-05T22:35:37Z</time>
      </trkpt>
      <trkpt lat="46.12369" lon="4.41082">
        <ele>777</ele>
        <time>2017-11-05T22:37:37Z</time>
      </trkpt>
      <trkpt lat="46.12364" lon="4.41065">
        <ele>778</ele>
        <time>2017-11-05T22:39:37Z</time>
      </trkpt>
      <trkpt lat="46.12352" lon="4.41032">
        <ele>777</ele>
        <time>2017-11-05T22:41:37Z</time>
      </trkpt>
      <trkpt lat="46.12335" lon="4.40992">
        <ele>774</ele>
        <time>2017-11-05T22:43:37Z</time>
      </trkpt>
      <trkpt lat="46.12329" lon="4.40974">
        <ele>773</ele>
        <time>2017-11-05T22:45:37Z</time>
      </trkpt>
      <trkpt lat="46.12325" lon="4.4096">
        <ele>773</ele>
        <time>2017-11-05T22:47:37Z</time>
      </trkpt>
      <trkpt lat="46.12317" lon="4.40924">
        <ele>772</ele>
        <time>2017-11-05T22:49:37Z</time>
      </trkpt>
      <trkpt lat="46.12314" lon="4.40905">
        <ele>771</ele>
        <time>2017-11-05T22:51:37Z</time>
      </trkpt>
      <trkpt lat="46.12304" lon="4.40868">
        <ele>768</ele>
        <time>2017-11-05T22:53:37Z</time>
      </trkpt>
      <trkpt lat="46.12293" lon="4.40834">
        <ele>765</ele>
        <time>2017-11-05T22:55:37Z</time>
      </trkpt>
      <trkpt lat="46.12288" lon="4.40816">
        <ele>764</ele>
        <time>2017-11-05T22:57:37Z</time>
      </trkpt>
      <trkpt lat="46.12284" lon="4.40799">
        <ele>763</ele>
        <time>2017-11-05T22:59:37Z</time>
      </trkpt>
      <trkpt lat="46.12279" lon="4.40765">
        <ele>762</ele>
        <time>2017-11-05T23:01:37Z</time>
      </trkpt>
      <trkpt lat="46.12276" lon="4.40728">
        <ele>761</ele>
        <time>2017-11-05T23:03:37Z</time>
      </trkpt>
      <trkpt lat="46.12275" lon="4.4071">
        <ele>760</ele>
        <time>2017-11-05T23:05:37Z</time>
      </trkpt>
      <trkpt lat="46.12273" lon="4.40694">
        <ele>759</ele>
        <time>2017-11-05T23:07:37Z</time>
      </trkpt>
      <trkpt lat="46.1227" lon="4.40677">
        <ele>758</ele>
        <time>2017-11-05T23:09:37Z</time>
      </trkpt>
      <trkpt lat="46.1226" lon="4.4064">
        <ele>756</ele>
        <time>2017-11-05T23:11:37Z</time>
      </trkpt>
      <trkpt lat="46.12244" lon="4.40594">
        <ele>753</ele>
        <time>2017-11-05T23:13:37Z</time>
      </trkpt>
      <trkpt lat="46.12238" lon="4.40566">
        <ele>752</ele>
        <time>2017-11-05T23:15:37Z</time>
      </trkpt>
      <trkpt lat="46.12237" lon="4.40553">
        <ele>751</ele>
        <time>2017-11-05T23:17:37Z</time>
      </trkpt>
      <trkpt lat="46.12237" lon="4.4054">
        <ele>750</ele>
        <time>2017-11-05T23:19:37Z</time>
      </trkpt>
      <trkpt lat="46.12238" lon="4.40532">
        <ele>750</ele>
        <time>2017-11-05T23:21:37Z</time>
      </trkpt>
      <trkpt lat="46.1224" lon="4.40517">
        <ele>750</ele>
        <time>2017-11-05T23:23:37Z</time>
      </trkpt>
      <trkpt lat="46.12257" lon="4.4047">
        <ele>749</ele>
        <time>2017-11-05T23:25:37Z</time>
      </trkpt>
      <trkpt lat="46.12277" lon="4.40401">
        <ele>747</ele>
        <time>2017-11-05T23:27:37Z</time>
      </trkpt>
      <trkpt lat="46.1228" lon="4.40382">
        <ele>746</ele>
        <time>2017-11-05T23:29:37Z</time>
      </trkpt>
      <trkpt lat="46.12281" lon="4.4038">
        <ele>746</ele>
        <time>2017-11-05T23:31:37Z</time>
      </trkpt>
      <trkpt lat="46.12285" lon="4.40355">
        <ele>745</ele>
        <time>2017-11-05T23:33:37Z</time>
      </trkpt>
      <trkpt lat="46.1229" lon="4.40336">
        <ele>744</ele>
        <time>2017-11-05T23:35:37Z</time>
      </trkpt>
      <trkpt lat="46.12309" lon="4.40258">
        <ele>742</ele>
        <time>2017-11-05T23:37:37Z</time>
      </trkpt>
      <trkpt lat="46.12318" lon="4.40224">
        <ele>740</ele>
        <time>2017-11-05T23:39:37Z</time>
      </trkpt>
      <trkpt lat="46.12325" lon="4.40199">
        <ele>739</ele>
        <time>2017-11-05T23:41:37Z</time>
      </trkpt>
      <trkpt lat="46.12331" lon="4.40176">
        <ele>738</ele>
        <time>2017-11-05T23:43:37Z</time>
      </trkpt>
      <trkpt lat="46.12354" lon="4.40107">
        <ele>733</ele>
        <time>2017-11-05T23:45:37Z</time>
      </trkpt>
      <trkpt lat="46.12363" lon="4.40082">
        <ele>732</ele>
        <time>2017-11-05T23:47:37Z</time>
      </trkpt>
      <trkpt lat="46.12364" lon="4.40073">
        <ele>731</ele>
        <time>2017-11-05T23:49:37Z</time>
      </trkpt>
      <trkpt lat="46.12375" lon="4.40048">
        <ele>731</ele>
        <time>2017-11-05T23:51:37Z</time>
      </trkpt>
      <trkpt lat="46.12396" lon="4.39994">
        <ele>731</ele>
        <time>2017-11-05T23:53:37Z</time>
      </trkpt>
      <trkpt lat="46.12404" lon="4.3998">
        <ele>732</ele>
        <time>2017-11-05T23:55:37Z</time>
      </trkpt>
      <trkpt lat="46.1241" lon="4.39975">
        <ele>732</ele>
        <time>2017-11-05T23:57:37Z</time>
      </trkpt>
      <trkpt lat="46.12415" lon="4.39973">
        <ele>733</ele>
        <time>2017-11-05T23:59:37Z</time>
      </trkpt>
      <trkpt lat="46.12424" lon="4.3997">
        <ele>733</ele>
        <time>2017-11-06T00:01:37Z</time>
      </trkpt>
      <trkpt lat="46.12432" lon="4.39969">
        <ele>732</ele>
        <time>2017-11-06T00:03:37Z</time>
      </trkpt>
      <trkpt lat="46.12436" lon="4.3997">
        <ele>731</ele>
        <time>2017-11-06T00:05:37Z</time>
      </trkpt>
      <trkpt lat="46.12439" lon="4.3997">
        <ele>731</ele>
        <time>2017-11-06T00:07:37Z</time>
      </trkpt>
      <trkpt lat="46.12449" lon="4.39976">
        <ele>730</ele>
        <time>2017-11-06T00:09:37Z</time>
      </trkpt>
      <trkpt lat="46.12473" lon="4.39995">
        <ele>728</ele>
        <time>2017-11-06T00:11:37Z</time>
      </trkpt>
      <trkpt lat="46.12482" lon="4.40005">
        <ele>728</ele>
        <time>2017-11-06T00:13:37Z</time>
      </trkpt>
      <trkpt lat="46.12489" lon="4.40012">
        <ele>728</ele>
        <time>2017-11-06T00:15:37Z</time>
      </trkpt>
      <trkpt lat="46.12495" lon="4.40018">
        <ele>728</ele>
        <time>2017-11-06T00:17:37Z</time>
      </trkpt>
      <trkpt lat="46.12498" lon="4.40019">
        <ele>728</ele>
        <time>2017-11-06T00:19:37Z</time>
      </trkpt>
      <trkpt lat="46.12507" lon="4.40023">
        <ele>727</ele>
        <time>2017-11-06T00:21:37Z</time>
      </trkpt>
      <trkpt lat="46.12521" lon="4.40024">
        <ele>725</ele>
        <time>2017-11-06T00:23:37Z</time>
      </trkpt>
      <trkpt lat="46.12538" lon="4.40028">
        <ele>723</ele>
        <time>2017-11-06T00:25:37Z</time>
      </trkpt>
      <trkpt lat="46.12546" lon="4.40029">
        <ele>722</ele>
        <time>2017-11-06T00:27:37Z</time>
      </trkpt>
      <trkpt lat="46.12556" lon="4.40029">
        <ele>721</ele>
        <time>2017-11-06T00:29:37Z</time>
      </trkpt>
      <trkpt lat="46.12564" lon="4.40031">
        <ele>720</ele>
        <time>2017-11-06T00:31:37Z</time>
      </trkpt>
      <trkpt lat="46.12574" lon="4.40035">
        <ele>719</ele>
        <time>2017-11-06T00:33:37Z</time>
      </trkpt>
      <trkpt lat="46.12581" lon="4.40041">
        <ele>719</ele>
        <time>2017-11-06T00:35:37Z</time>
      </trkpt>
      <trkpt lat="46.12584" lon="4.40045">
        <ele>719</ele>
        <time>2017-11-06T00:37:37Z</time>
      </trkpt>
      <trkpt lat="46.12586" lon="4.40048">
        <ele>719</ele>
        <time>2017-11-06T00:39:37Z</time>
      </trkpt>
      <trkpt lat="46.12591" lon="4.40059">
        <ele>719</ele>
        <time>2017-11-06T00:41:37Z</time>
      </trkpt>
      <trkpt lat="46.12596" lon="4.4007">
        <ele>719</ele>
        <time>2017-11-06T00:43:37Z</time>
      </trkpt>
      <trkpt lat="46.12602" lon="4.4008">
        <ele>720</ele>
        <time>2017-11-06T00:45:37Z</time>
      </trkpt>
      <trkpt lat="46.12609" lon="4.40086">
        <ele>720</ele>
        <time>2017-11-06T00:47:37Z</time>
      </trkpt>
      <trkpt lat="46.12617" lon="4.4009">
        <ele>719</ele>
        <time>2017-11-06T00:49:37Z</time>
      </trkpt>
      <trkpt lat="46.12625" lon="4.40092">
        <ele>719</ele>
        <time>2017-11-06T00:51:37Z</time>
      </trkpt>
      <trkpt lat="46.12633" lon="4.40092">
        <ele>718</ele>
        <time>2017-11-06T00:53:37Z</time>
      </trkpt>
      <trkpt lat="46.12665" lon="4.40086">
        <ele>714</ele>
        <time>2017-11-06T00:55:37Z</time>
      </trkpt>
      <trkpt lat="46.12676" lon="4.40086">
        <ele>713</ele>
        <time>2017-11-06T00:57:37Z</time>
      </trkpt>
      <trkpt lat="46.12682" lon="4.40086">
        <ele>713</ele>
        <time>2017-11-06T00:59:37Z</time>
      </trkpt>
      <trkpt lat="46.12713" lon="4.40091">
        <ele>711</ele>
        <time>2017-11-06T01:01:37Z</time>
      </trkpt>
      <trkpt lat="46.12729" lon="4.40094">
        <ele>711</ele>
        <time>2017-11-06T01:03:37Z</time>
      </trkpt>
      <trkpt lat="46.12739" lon="4.40098">
        <ele>711</ele>
        <time>2017-11-06T01:05:37Z</time>
      </trkpt>
      <trkpt lat="46.12762" lon="4.40105">
        <ele>711</ele>
        <time>2017-11-06T01:07:37Z</time>
      </trkpt>
      <trkpt lat="46.12765" lon="4.40105">
        <ele>711</ele>
        <time>2017-11-06T01:09:37Z</time>
      </trkpt>
      <trkpt lat="46.12769" lon="4.40103">
        <ele>711</ele>
        <time>2017-11-06T01:11:37Z</time>
      </trkpt>
      <trkpt lat="46.12771" lon="4.401">
        <ele>711</ele>
        <time>2017-11-06T01:13:37Z</time>
      </trkpt>
      <trkpt lat="46.12772" lon="4.40091">
        <ele>710</ele>
        <time>2017-11-06T01:15:37Z</time>
      </trkpt>
      <trkpt lat="46.12772" lon="4.40091">
        <ele>710</ele>
        <time>2017-11-06T01:17:37Z</time>
      </trkpt>
      <trkpt lat="46.12781" lon="4.4009">
        <ele>710</ele>
        <time>2017-11-06T01:19:37Z</time>
      </trkpt>
      <trkpt lat="46.1279" lon="4.40086">
        <ele>711</ele>
        <time>2017-11-06T01:21:37Z</time>
      </trkpt>
      <trkpt lat="46.12796" lon="4.40082">
        <ele>711</ele>
        <time>2017-11-06T01:23:37Z</time>
      </trkpt>
      <trkpt lat="46.12812" lon="4.40067">
        <ele>711</ele>
        <time>2017-11-06T01:25:37Z</time>
      </trkpt>
      <trkpt lat="46.12814" lon="4.40065">
        <ele>711</ele>
        <time>2017-11-06T01:27:37Z</time>
      </trkpt>
      <trkpt lat="46.12839" lon="4.40035">
        <ele>713</ele>
        <time>2017-11-06T01:29:37Z</time>
      </trkpt>
      <trkpt lat="46.12846" lon="4.40024">
        <ele>713</ele>
        <time>2017-11-06T01:31:37Z</time>
      </trkpt>
      <trkpt lat="46.12858" lon="4.39998">
        <ele>714</ele>
        <time>2017-11-06T01:33:37Z</time>
      </trkpt>
      <trkpt lat="46.12864" lon="4.39985">
        <ele>714</ele>
        <time>2017-11-06T01:35:37Z</time>
      </trkpt>
      <trkpt lat="46.12868" lon="4.39976">
        <ele>714</ele>
        <time>2017-11-06T01:37:37Z</time>
      </trkpt>
      <trkpt lat="46.12891" lon="4.39918">
        <ele>715</ele>
        <time>2017-11-06T01:39:37Z</time>
      </trkpt>
      <trkpt lat="46.12901" lon="4.39897">
        <ele>717</ele>
        <time>2017-11-06T01:41:37Z</time>
      </trkpt>
      <trkpt lat="46.12908" lon="4.3988">
        <ele>719</ele>
        <time>2017-11-06T01:43:37Z</time>
      </trkpt>
      <trkpt lat="46.12911" lon="4.3987">
        <ele>720</ele>
        <time>2017-11-06T01:45:37Z</time>
      </trkpt>
      <trkpt lat="46.12913" lon="4.39859">
        <ele>721</ele>
        <time>2017-11-06T01:47:37Z</time>
      </trkpt>
      <trkpt lat="46.12912" lon="4.39849">
        <ele>721</ele>
        <time>2017-11-06T01:49:37Z</time>
      </trkpt>
      <trkpt lat="46.12909" lon="4.39831">
        <ele>721</ele>
        <time>2017-11-06T01:51:37Z</time>
      </trkpt>
      <trkpt lat="46.129" lon="4.39808">
        <ele>720</ele>
        <time>2017-11-06T01:53:37Z</time>
      </trkpt>
      <trkpt lat="46.12887" lon="4.39785">
        <ele>720</ele>
        <time>2017-11-06T01:55:37Z</time>
      </trkpt>
      <trkpt lat="46.12887" lon="4.39785">
        <ele>720</ele>
        <time>2017-11-06T01:57:37Z</time>
      </trkpt>
      <trkpt lat="46.1292" lon="4.39757">
        <ele>725</ele>
        <time>2017-11-06T01:59:37Z</time>
      </trkpt>
      <trkpt lat="46.1292" lon="4.39757">
        <ele>725</ele>
        <time>2017-11-06T02:01:37Z</time>
      </trkpt>
      <trkpt lat="46.12936" lon="4.39809">
        <ele>725</ele>
        <time>2017-11-06T02:03:37Z</time>
      </trkpt>
      <trkpt lat="46.12938" lon="4.39813">
        <ele>725</ele>
        <time>2017-11-06T02:05:37Z</time>
      </trkpt>
      <trkpt lat="46.12941" lon="4.39818">
        <ele>725</ele>
        <time>2017-11-06T02:07:37Z</time>
      </trkpt>
      <trkpt lat="46.12945" lon="4.39822">
        <ele>725</ele>
        <time>2017-11-06T02:09:37Z</time>
      </trkpt>
      <trkpt lat="46.12951" lon="4.39827">
        <ele>726</ele>
        <time>2017-11-06T02:11:37Z</time>
      </trkpt>
      <trkpt lat="46.12957" lon="4.39831">
        <ele>726</ele>
        <time>2017-11-06T02:13:37Z</time>
      </trkpt>
      <trkpt lat="46.12962" lon="4.39833">
        <ele>726</ele>
        <time>2017-11-06T02:15:37Z</time>
      </trkpt>
      <trkpt lat="46.12968" lon="4.39834">
        <ele>727</ele>
        <time>2017-11-06T02:17:37Z</time>
      </trkpt>
      <trkpt lat="46.12985" lon="4.39829">
        <ele>729</ele>
        <time>2017-11-06T02:19:37Z</time>
      </trkpt>
      <trkpt lat="46.12992" lon="4.39829">
        <ele>729</ele>
        <time>2017-11-06T02:21:37Z</time>
      </trkpt>
      <trkpt lat="46.13004" lon="4.39832">
        <ele>731</ele>
        <time>2017-11-06T02:23:37Z</time>
      </trkpt>
      <trkpt lat="46.13011" lon="4.39837">
        <ele>732</ele>
        <time>2017-11-06T02:25:37Z</time>
      </trkpt>
      <trkpt lat="46.13018" lon="4.39842">
        <ele>733</ele>
        <time>2017-11-06T02:27:37Z</time>
      </trkpt>
      <trkpt lat="46.13026" lon="4.39853">
        <ele>734</ele>
        <time>2017-11-06T02:29:37Z</time>
      </trkpt>
      <trkpt lat="46.13029" lon="4.39859">
        <ele>734</ele>
        <time>2017-11-06T02:31:37Z</time>
      </trkpt>
      <trkpt lat="46.13033" lon="4.39869">
        <ele>735</ele>
        <time>2017-11-06T02:33:37Z</time>
      </trkpt>
      <trkpt lat="46.13036" lon="4.39885">
        <ele>735</ele>
        <time>2017-11-06T02:35:37Z</time>
      </trkpt>
      <trkpt lat="46.13038" lon="4.399">
        <ele>736</ele>
        <time>2017-11-06T02:37:37Z</time>
      </trkpt>
      <trkpt lat="46.13038" lon="4.39912">
        <ele>735</ele>
        <time>2017-11-06T02:39:37Z</time>
      </trkpt>
      <trkpt lat="46.13037" lon="4.39941">
        <ele>737</ele>
        <time>2017-11-06T02:41:37Z</time>
      </trkpt>
      <trkpt lat="46.13036" lon="4.39972">
        <ele>738</ele>
        <time>2017-11-06T02:43:37Z</time>
      </trkpt>
      <trkpt lat="46.13035" lon="4.40002">
        <ele>740</ele>
        <time>2017-11-06T02:45:37Z</time>
      </trkpt>
      <trkpt lat="46.13035" lon="4.40022">
        <ele>741</ele>
        <time>2017-11-06T02:47:37Z</time>
      </trkpt>
      <trkpt lat="46.13034" lon="4.40044">
        <ele>742</ele>
        <time>2017-11-06T02:49:37Z</time>
      </trkpt>
      <trkpt lat="46.13035" lon="4.40062">
        <ele>743</ele>
        <time>2017-11-06T02:51:37Z</time>
      </trkpt>
      <trkpt lat="46.13037" lon="4.4008">
        <ele>745</ele>
        <time>2017-11-06T02:53:37Z</time>
      </trkpt>
      <trkpt lat="46.1304" lon="4.40092">
        <ele>746</ele>
        <time>2017-11-06T02:55:37Z</time>
      </trkpt>
      <trkpt lat="46.13044" lon="4.40105">
        <ele>747</ele>
        <time>2017-11-06T02:57:37Z</time>
      </trkpt>
      <trkpt lat="46.13049" lon="4.40119">
        <ele>748</ele>
        <time>2017-11-06T02:59:37Z</time>
      </trkpt>
      <trkpt lat="46.13054" lon="4.40132">
        <ele>749</ele>
        <time>2017-11-06T03:01:37Z</time>
      </trkpt>
      <trkpt lat="46.1306" lon="4.40147">
        <ele>751</ele>
        <time>2017-11-06T03:03:37Z</time>
      </trkpt>
      <trkpt lat="46.1307" lon="4.40174">
        <ele>753</ele>
        <time>2017-11-06T03:05:37Z</time>
      </trkpt>
      <trkpt lat="46.13081" lon="4.40205">
        <ele>755</ele>
        <time>2017-11-06T03:07:37Z</time>
      </trkpt>
      <trkpt lat="46.13089" lon="4.40225">
        <ele>756</ele>
        <time>2017-11-06T03:09:37Z</time>
      </trkpt>
      <trkpt lat="46.13095" lon="4.40239">
        <ele>757</ele>
        <time>2017-11-06T03:11:37Z</time>
      </trkpt>
      <trkpt lat="46.13104" lon="4.40254">
        <ele>758</ele>
        <time>2017-11-06T03:13:37Z</time>
      </trkpt>
      <trkpt lat="46.13119" lon="4.40273">
        <ele>759</ele>
        <time>2017-11-06T03:15:37Z</time>
      </trkpt>
      <trkpt lat="46.13135" lon="4.40285">
        <ele>762</ele>
        <time>2017-11-06T03:17:37Z</time>
      </trkpt>
      <trkpt lat="46.13155" lon="4.40299">
        <ele>765</ele>
        <time>2017-11-06T03:19:37Z</time>
      </trkpt>
      <trkpt lat="46.13172" lon="4.40314">
        <ele>767</ele>
        <time>2017-11-06T03:21:37Z</time>
      </trkpt>
      <trkpt lat="46.1318" lon="4.40321">
        <ele>768</ele>
        <time>2017-11-06T03:23:37Z</time>
      </trkpt>
      <trkpt lat="46.13197" lon="4.40343">
        <ele>769</ele>
        <time>2017-11-06T03:25:37Z</time>
      </trkpt>
      <trkpt lat="46.13216" lon="4.40369">
        <ele>770</ele>
        <time>2017-11-06T03:27:37Z</time>
      </trkpt>
      <trkpt lat="46.13236" lon="4.40398">
        <ele>770</ele>
        <time>2017-11-06T03:29:37Z</time>
      </trkpt>
      <trkpt lat="46.13244" lon="4.40411">
        <ele>770</ele>
        <time>2017-11-06T03:31:37Z</time>
      </trkpt>
      <trkpt lat="46.13254" lon="4.40428">
        <ele>770</ele>
        <time>2017-11-06T03:33:37Z</time>
      </trkpt>
      <trkpt lat="46.13266" lon="4.40458">
        <ele>771</ele>
        <time>2017-11-06T03:35:37Z</time>
      </trkpt>
      <trkpt lat="46.13286" lon="4.40516">
        <ele>773</ele>
        <time>2017-11-06T03:37:37Z</time>
      </trkpt>
      <trkpt lat="46.13292" lon="4.40533">
        <ele>774</ele>
        <time>2017-11-06T03:39:37Z</time>
      </trkpt>
      <trkpt lat="46.13312" lon="4.40594">
        <ele>778</ele>
        <time>2017-11-06T03:41:37Z</time>
      </trkpt>
      <trkpt lat="46.13315" lon="4.40604">
        <ele>779</ele>
        <time>2017-11-06T03:43:37Z</time>
      </trkpt>
      <trkpt lat="46.13325" lon="4.40638">
        <ele>782</ele>
        <time>2017-11-06T03:45:37Z</time>
      </trkpt>
      <trkpt lat="46.13331" lon="4.40653">
        <ele>783</ele>
        <time>2017-11-06T03:47:37Z</time>
      </trkpt>
      <trkpt lat="46.13336" lon="4.40668">
        <ele>784</ele>
        <time>2017-11-06T03:49:37Z</time>
      </trkpt>
      <trkpt lat="46.13361" lon="4.40722">
        <ele>791</ele>
        <time>2017-11-06T03:51:37Z</time>
      </trkpt>
      <trkpt lat="46.13367" lon="4.40731">
        <ele>792</ele>
        <time>2017-11-06T03:53:37Z</time>
      </trkpt>
      <trkpt lat="46.13379" lon="4.40754">
        <ele>794</ele>
        <time>2017-11-06T03:55:37Z</time>
      </trkpt>
      <trkpt lat="46.13392" lon="4.40775">
        <ele>797</ele>
        <time>2017-11-06T03:57:37Z</time>
      </trkpt>
      <trkpt lat="46.13399" lon="4.40785">
        <ele>798</ele>
        <time>2017-11-06T03:59:37Z</time>
      </trkpt>
      <trkpt lat="46.13415" lon="4.40803">
        <ele>797</ele>
        <time>2017-11-06T04:01:37Z</time>
      </trkpt>
      <trkpt lat="46.13423" lon="4.40814">
        <ele>798</ele>
        <time>2017-11-06T04:03:37Z</time>
      </trkpt>
      <trkpt lat="46.13442" lon="4.40838">
        <ele>800</ele>
        <time>2017-11-06T04:05:37Z</time>
      </trkpt>
      <trkpt lat="46.13445" lon="4.40844">
        <ele>801</ele>
        <time>2017-11-06T04:07:37Z</time>
      </trkpt>
      <trkpt lat="46.13449" lon="4.40857">
        <ele>802</ele>
        <time>2017-11-06T04:09:37Z</time>
      </trkpt>
      <trkpt lat="46.1345" lon="4.40861">
        <ele>802</ele>
        <time>2017-11-06T04:11:37Z</time>
      </trkpt>
      <trkpt lat="46.13449" lon="4.40868">
        <ele>803</ele>
        <time>2017-11-06T04:13:37Z</time>
      </trkpt>
      <trkpt lat="46.13448" lon="4.40874">
        <ele>803</ele>
        <time>2017-11-06T04:15:37Z</time>
      </trkpt>
      <trkpt lat="46.13446" lon="4.40878">
        <ele>803</ele>
        <time>2017-11-06T04:17:37Z</time>
      </trkpt>
      <trkpt lat="46.13443" lon="4.40883">
        <ele>803</ele>
        <time>2017-11-06T04:19:37Z</time>
      </trkpt>
      <trkpt lat="46.1344" lon="4.40887">
        <ele>803</ele>
        <time>2017-11-06T04:21:37Z</time>
      </trkpt>
      <trkpt lat="46.13435" lon="4.4089">
        <ele>803</ele>
        <time>2017-11-06T04:23:37Z</time>
      </trkpt>
      <trkpt lat="46.13429" lon="4.40891">
        <ele>803</ele>
        <time>2017-11-06T04:25:37Z</time>
      </trkpt>
      <trkpt lat="46.13421" lon="4.40893">
        <ele>803</ele>
        <time>2017-11-06T04:27:37Z</time>
      </trkpt>
      <trkpt lat="46.13405" lon="4.40894">
        <ele>804</ele>
        <time>2017-11-06T04:29:37Z</time>
      </trkpt>
      <trkpt lat="46.13396" lon="4.40894">
        <ele>805</ele>
        <time>2017-11-06T04:31:37Z</time>
      </trkpt>
      <trkpt lat="46.13383" lon="4.40896">
        <ele>807</ele>
        <time>2017-11-06T04:33:37Z</time>
      </trkpt>
      <trkpt lat="46.13379" lon="4.409">
        <ele>808</ele>
        <time>2017-11-06T04:35:37Z</time>
      </trkpt>
      <trkpt lat="46.13376" lon="4.40906">
        <ele>809</ele>
        <time>2017-11-06T04:37:37Z</time>
      </trkpt>
      <trkpt lat="46.13374" lon="4.40912">
        <ele>810</ele>
        <time>2017-11-06T04:39:37Z</time>
      </trkpt>
      <trkpt lat="46.13374" lon="4.40917">
        <ele>810</ele>
        <time>2017-11-06T04:41:37Z</time>
      </trkpt>
      <trkpt lat="46.13374" lon="4.40917">
        <ele>810</ele>
        <time>2017-11-06T04:43:37Z</time>
      </trkpt>
      <trkpt lat="46.13375" lon="4.40925">
        <ele>811</ele>
        <time>2017-11-06T04:45:37Z</time>
      </trkpt>
      <trkpt lat="46.13377" lon="4.4093">
        <ele>811</ele>
        <time>2017-11-06T04:47:37Z</time>
      </trkpt>
      <trkpt lat="46.13381" lon="4.40935">
        <ele>811</ele>
        <time>2017-11-06T04:49:37Z</time>
      </trkpt>
      <trkpt lat="46.13385" lon="4.4094">
        <ele>811</ele>
        <time>2017-11-06T04:51:37Z</time>
      </trkpt>
      <trkpt lat="46.13397" lon="4.40947">
        <ele>810</ele>
        <time>2017-11-06T04:53:37Z</time>
      </trkpt>
      <trkpt lat="46.13425" lon="4.40961">
        <ele>810</ele>
        <time>2017-11-06T04:55:37Z</time>
      </trkpt>
      <trkpt lat="46.13445" lon="4.40969">
        <ele>813</ele>
        <time>2017-11-06T04:57:37Z</time>
      </trkpt>
      <trkpt lat="46.13463" lon="4.40975">
        <ele>815</ele>
        <time>2017-11-06T04:59:37Z</time>
      </trkpt>
      <trkpt lat="46.13471" lon="4.40976">
        <ele>816</ele>
        <time>2017-11-06T05:01:37Z</time>
      </trkpt>
      <trkpt lat="46.13485" lon="4.40977">
        <ele>817</ele>
        <time>2017-11-06T05:03:37Z</time>
      </trkpt>
      <trkpt lat="46.13494" lon="4.40976">
        <ele>817</ele>
        <time>2017-11-06T05:05:37Z</time>
      </trkpt>
      <trkpt lat="46.13505" lon="4.40972">
        <ele>818</ele>
        <time>2017-11-06T05:07:37Z</time>
      </trkpt>
      <trkpt lat="46.1352" lon="4.40963">
        <ele>819</ele>
        <time>2017-11-06T05:09:37Z</time>
      </trkpt>
      <trkpt lat="46.13535" lon="4.40951">
        <ele>820</ele>
        <time>2017-11-06T05:11:37Z</time>
      </trkpt>
      <trkpt lat="46.13542" lon="4.40946">
        <ele>820</ele>
        <time>2017-11-06T05:13:37Z</time>
      </trkpt>
      <trkpt lat="46.13549" lon="4.40942">
        <ele>821</ele>
        <time>2017-11-06T05:15:37Z</time>
      </trkpt>
      <trkpt lat="46.13568" lon="4.40924">
        <ele>823</ele>
        <time>2017-11-06T05:17:37Z</time>
      </trkpt>
      <trkpt lat="46.13584" lon="4.40907">
        <ele>825</ele>
        <time>2017-11-06T05:19:37Z</time>
      </trkpt>
      <trkpt lat="46.13601" lon="4.40882">
        <ele>827</ele>
        <time>2017-11-06T05:21:37Z</time>
      </trkpt>
      <trkpt lat="46.13612" lon="4.40866">
        <ele>829</ele>
        <time>2017-11-06T05:23:37Z</time>
      </trkpt>
      <trkpt lat="46.13616" lon="4.40863">
        <ele>829</ele>
        <time>2017-11-06T05:25:37Z</time>
      </trkpt>
      <trkpt lat="46.13622" lon="4.40858">
        <ele>830</ele>
        <time>2017-11-06T05:27:37Z</time>
      </trkpt>
      <trkpt lat="46.13628" lon="4.40855">
        <ele>831</ele>
        <time>2017-11-06T05:29:37Z</time>
      </trkpt>
      <trkpt lat="46.13634" lon="4.40854">
        <ele>832</ele>
        <time>2017-11-06T05:31:37Z</time>
      </trkpt>
      <trkpt lat="46.1364" lon="4.40855">
        <ele>833</ele>
        <time>2017-11-06T05:33:37Z</time>
      </trkpt>
      <trkpt lat="46.1367" lon="4.40864">
        <ele>838</ele>
        <time>2017-11-06T05:35:37Z</time>
      </trkpt>
      <trkpt lat="46.13706" lon="4.40879">
        <ele>839</ele>
        <time>2017-11-06T05:37:37Z</time>
      </trkpt>
      <trkpt lat="46.13715" lon="4.40883">
        <ele>839</ele>
        <time>2017-11-06T05:39:37Z</time>
      </trkpt>
      <trkpt lat="46.13731" lon="4.40895">
        <ele>838</ele>
        <time>2017-11-06T05:41:37Z</time>
      </trkpt>
      <trkpt lat="46.13746" lon="4.40912">
        <ele>837</ele>
        <time>2017-11-06T05:43:37Z</time>
      </trkpt>
      <trkpt lat="46.13751" lon="4.40921">
        <ele>837</ele>
        <time>2017-11-06T05:45:37Z</time>
      </trkpt>
      <trkpt lat="46.13763" lon="4.40951">
        <ele>833</ele>
        <time>2017-11-06T05:47:37Z</time>
      </trkpt>
      <trkpt lat="46.13772" lon="4.40981">
        <ele>829</ele>
        <time>2017-11-06T05:49:37Z</time>
      </trkpt>
      <trkpt lat="46.13781" lon="4.41012">
        <ele>826</ele>
        <time>2017-11-06T05:51:37Z</time>
      </trkpt>
      <trkpt lat="46.13795" lon="4.41055">
        <ele>822</ele>
        <time>2017-11-06T05:53:37Z</time>
      </trkpt>
      <trkpt lat="46.138" lon="4.41072">
        <ele>821</ele>
        <time>2017-11-06T05:55:37Z</time>
      </trkpt>
      <trkpt lat="46.13804" lon="4.4109">
        <ele>820</ele>
        <time>2017-11-06T05:57:37Z</time>
      </trkpt>
      <trkpt lat="46.13818" lon="4.41131">
        <ele>817</ele>
        <time>2017-11-06T05:59:37Z</time>
      </trkpt>
      <trkpt lat="46.13822" lon="4.41146">
        <ele>817</ele>
        <time>2017-11-06T06:01:37Z</time>
      </trkpt>
      <trkpt lat="46.13826" lon="4.41162">
        <ele>816</ele>
        <time>2017-11-06T06:03:37Z</time>
      </trkpt>
      <trkpt lat="46.13828" lon="4.41178">
        <ele>816</ele>
        <time>2017-11-06T06:05:37Z</time>
      </trkpt>
      <trkpt lat="46.13831" lon="4.41205">
        <ele>815</ele>
        <time>2017-11-06T06:07:37Z</time>
      </trkpt>
      <trkpt lat="46.1383" lon="4.4124">
        <ele>816</ele>
        <time>2017-11-06T06:09:37Z</time>
      </trkpt>
      <trkpt lat="46.13828" lon="4.41254">
        <ele>816</ele>
        <time>2017-11-06T06:11:37Z</time>
      </trkpt>
      <trkpt lat="46.13824" lon="4.4127">
        <ele>816</ele>
        <time>2017-11-06T06:13:37Z</time>
      </trkpt>
      <trkpt lat="46.13818" lon="4.41299">
        <ele>815</ele>
        <time>2017-11-06T06:15:37Z</time>
      </trkpt>
      <trkpt lat="46.13815" lon="4.41329">
        <ele>814</ele>
        <time>2017-11-06T06:17:37Z</time>
      </trkpt>
      <trkpt lat="46.13814" lon="4.41342">
        <ele>814</ele>
        <time>2017-11-06T06:19:37Z</time>
      </trkpt>
      <trkpt lat="46.13814" lon="4.41372">
        <ele>814</ele>
        <time>2017-11-06T06:21:37Z</time>
      </trkpt>
      <trkpt lat="46.13814" lon="4.41383">
        <ele>814</ele>
        <time>2017-11-06T06:23:37Z</time>
      </trkpt>
      <trkpt lat="46.13817" lon="4.41393">
        <ele>813</ele>
        <time>2017-11-06T06:25:37Z</time>
      </trkpt>
      <trkpt lat="46.1382" lon="4.41403">
        <ele>813</ele>
        <time>2017-11-06T06:27:37Z</time>
      </trkpt>
      <trkpt lat="46.13824" lon="4.4141">
        <ele>812</ele>
        <time>2017-11-06T06:29:37Z</time>
      </trkpt>
      <trkpt lat="46.13842" lon="4.41427">
        <ele>808</ele>
        <time>2017-11-06T06:31:37Z</time>
      </trkpt>
      <trkpt lat="46.13909" lon="4.41484">
        <ele>801</ele>
        <time>2017-11-06T06:33:37Z</time>
      </trkpt>
      <trkpt lat="46.13934" lon="4.41509">
        <ele>798</ele>
        <time>2017-11-06T06:35:37Z</time>
      </trkpt>
      <trkpt lat="46.13966" lon="4.41549">
        <ele>796</ele>
        <time>2017-11-06T06:37:37Z</time>
      </trkpt>
      <trkpt lat="46.13982" lon="4.41568">
        <ele>794</ele>
        <time>2017-11-06T06:39:37Z</time>
      </trkpt>
      <trkpt lat="46.1399" lon="4.41579">
        <ele>794</ele>
        <time>2017-11-06T06:41:37Z</time>
      </trkpt>
      <trkpt lat="46.14003" lon="4.41594">
        <ele>791</ele>
        <time>2017-11-06T06:43:37Z</time>
      </trkpt>
      <trkpt lat="46.14021" lon="4.41612">
        <ele>788</ele>
        <time>2017-11-06T06:45:37Z</time>
      </trkpt>
      <trkpt lat="46.14031" lon="4.41621">
        <ele>786</ele>
        <time>2017-11-06T06:47:37Z</time>
      </trkpt>
      <trkpt lat="46.14056" lon="4.41639">
        <ele>783</ele>
        <time>2017-11-06T06:49:37Z</time>
      </trkpt>
      <trkpt lat="46.14066" lon="4.41645">
        <ele>782</ele>
        <time>2017-11-06T06:51:37Z</time>
      </trkpt>
      <trkpt lat="46.14096" lon="4.41662">
        <ele>780</ele>
        <time>2017-11-06T06:53:37Z</time>
      </trkpt>
      <trkpt lat="46.14105" lon="4.41666">
        <ele>780</ele>
        <time>2017-11-06T06:55:37Z</time>
      </trkpt>
      <trkpt lat="46.14122" lon="4.41677">
        <ele>780</ele>
        <time>2017-11-06T06:57:37Z</time>
      </trkpt>
      <trkpt lat="46.1413" lon="4.41685">
        <ele>779</ele>
        <time>2017-11-06T06:59:37Z</time>
      </trkpt>
      <trkpt lat="46.14143" lon="4.41703">
        <ele>779</ele>
        <time>2017-11-06T07:01:37Z</time>
      </trkpt>
      <trkpt lat="46.14147" lon="4.41711">
        <ele>778</ele>
        <time>2017-11-06T07:03:37Z</time>
      </trkpt>
      <trkpt lat="46.1415" lon="4.4172">
        <ele>778</ele>
        <time>2017-11-06T07:05:37Z</time>
      </trkpt>
      <trkpt lat="46.14153" lon="4.4173">
        <ele>778</ele>
        <time>2017-11-06T07:07:37Z</time>
      </trkpt>
      <trkpt lat="46.14154" lon="4.4174">
        <ele>777</ele>
        <time>2017-11-06T07:09:37Z</time>
      </trkpt>
      <trkpt lat="46.14154" lon="4.41752">
        <ele>777</ele>
        <time>2017-11-06T07:11:37Z</time>
      </trkpt>
      <trkpt lat="46.14153" lon="4.41778">
        <ele>776</ele>
        <time>2017-11-06T07:13:37Z</time>
      </trkpt>
      <trkpt lat="46.1415" lon="4.41825">
        <ele>774</ele>
        <time>2017-11-06T07:15:37Z</time>
      </trkpt>
      <trkpt lat="46.14147" lon="4.41874">
        <ele>773</ele>
        <time>2017-11-06T07:17:37Z</time>
      </trkpt>
      <trkpt lat="46.14147" lon="4.41903">
        <ele>772</ele>
        <time>2017-11-06T07:19:37Z</time>
      </trkpt>
      <trkpt lat="46.14148" lon="4.41936">
        <ele>769</ele>
        <time>2017-11-06T07:21:37Z</time>
      </trkpt>
      <trkpt lat="46.14152" lon="4.41974">
        <ele>766</ele>
        <time>2017-11-06T07:23:37Z</time>
      </trkpt>
      <trkpt lat="46.14155" lon="4.41988">
        <ele>765</ele>
        <time>2017-11-06T07:25:37Z</time>
      </trkpt>
      <trkpt lat="46.14157" lon="4.42">
        <ele>763</ele>
        <time>2017-11-06T07:27:37Z</time>
      </trkpt>
      <trkpt lat="46.14168" lon="4.42042">
        <ele>763</ele>
        <time>2017-11-06T07:29:37Z</time>
      </trkpt>
      <trkpt lat="46.14172" lon="4.42054">
        <ele>763</ele>
        <time>2017-11-06T07:31:37Z</time>
      </trkpt>
      <trkpt lat="46.14178" lon="4.42067">
        <ele>763</ele>
        <time>2017-11-06T07:33:37Z</time>
      </trkpt>
      <trkpt lat="46.14188" lon="4.42091">
        <ele>762</ele>
        <time>2017-11-06T07:35:37Z</time>
      </trkpt>
      <trkpt lat="46.14198" lon="4.42118">
        <ele>762</ele>
        <time>2017-11-06T07:37:37Z</time>
      </trkpt>
      <trkpt lat="46.14213" lon="4.42143">
        <ele>761</ele>
        <time>2017-11-06T07:39:37Z</time>
      </trkpt>
      <trkpt lat="46.1422" lon="4.42156">
        <ele>761</ele>
        <time>2017-11-06T07:41:37Z</time>
      </trkpt>
      <trkpt lat="46.14233" lon="4.42173">
        <ele>761</ele>
        <time>2017-11-06T07:43:37Z</time>
      </trkpt>
      <trkpt lat="46.14239" lon="4.42181">
        <ele>761</ele>
        <time>2017-11-06T07:45:37Z</time>
      </trkpt>
      <trkpt lat="46.14253" lon="4.42194">
        <ele>761</ele>
        <time>2017-11-06T07:47:37Z</time>
      </trkpt>
      <trkpt lat="46.14263" lon="4.42202">
        <ele>760</ele>
        <time>2017-11-06T07:49:37Z</time>
      </trkpt>
      <trkpt lat="46.14273" lon="4.42209">
        <ele>759</ele>
        <time>2017-11-06T07:51:37Z</time>
      </trkpt>
      <trkpt lat="46.14296" lon="4.42219">
        <ele>757</ele>
        <time>2017-11-06T07:53:37Z</time>
      </trkpt>
      <trkpt lat="46.14312" lon="4.42229">
        <ele>756</ele>
        <time>2017-11-06T07:55:37Z</time>
      </trkpt>
      <trkpt lat="46.14322" lon="4.42232">
        <ele>755</ele>
        <time>2017-11-06T07:57:37Z</time>
      </trkpt>
      <trkpt lat="46.14355" lon="4.42239">
        <ele>755</ele>
        <time>2017-11-06T07:59:37Z</time>
      </trkpt>
      <trkpt lat="46.14364" lon="4.4224">
        <ele>756</ele>
        <time>2017-11-06T08:01:37Z</time>
      </trkpt>
      <trkpt lat="46.14391" lon="4.42239">
        <ele>756</ele>
        <time>2017-11-06T08:03:37Z</time>
      </trkpt>
      <trkpt lat="46.14418" lon="4.42235">
        <ele>755</ele>
        <time>2017-11-06T08:05:37Z</time>
      </trkpt>
      <trkpt lat="46.14427" lon="4.42233">
        <ele>754</ele>
        <time>2017-11-06T08:07:37Z</time>
      </trkpt>
      <trkpt lat="46.14445" lon="4.42225">
        <ele>752</ele>
        <time>2017-11-06T08:09:37Z</time>
      </trkpt>
      <trkpt lat="46.14455" lon="4.4222">
        <ele>751</ele>
        <time>2017-11-06T08:11:37Z</time>
      </trkpt>
      <trkpt lat="46.14463" lon="4.42216">
        <ele>750</ele>
        <time>2017-11-06T08:13:37Z</time>
      </trkpt>
      <trkpt lat="46.1447" lon="4.42212">
        <ele>749</ele>
        <time>2017-11-06T08:15:37Z</time>
      </trkpt>
      <trkpt lat="46.14486" lon="4.422">
        <ele>746</ele>
        <time>2017-11-06T08:17:37Z</time>
      </trkpt>
      <trkpt lat="46.14511" lon="4.42181">
        <ele>744</ele>
        <time>2017-11-06T08:19:37Z</time>
      </trkpt>
      <trkpt lat="46.14527" lon="4.42166">
        <ele>743</ele>
        <time>2017-11-06T08:21:37Z</time>
      </trkpt>
      <trkpt lat="46.14535" lon="4.4216">
        <ele>743</ele>
        <time>2017-11-06T08:23:37Z</time>
      </trkpt>
      <trkpt lat="46.14567" lon="4.42132">
        <ele>740</ele>
        <time>2017-11-06T08:25:37Z</time>
      </trkpt>
      <trkpt lat="46.14583" lon="4.42122">
        <ele>740</ele>
        <time>2017-11-06T08:27:37Z</time>
      </trkpt>
      <trkpt lat="46.14591" lon="4.42118">
        <ele>739</ele>
        <time>2017-11-06T08:29:37Z</time>
      </trkpt>
      <trkpt lat="46.14607" lon="4.42111">
        <ele>737</ele>
        <time>2017-11-06T08:31:37Z</time>
      </trkpt>
      <trkpt lat="46.14615" lon="4.4211">
        <ele>736</ele>
        <time>2017-11-06T08:33:37Z</time>
      </trkpt>
      <trkpt lat="46.14631" lon="4.4211">
        <ele>735</ele>
        <time>2017-11-06T08:35:37Z</time>
      </trkpt>
      <trkpt lat="46.14648" lon="4.42112">
        <ele>735</ele>
        <time>2017-11-06T08:37:37Z</time>
      </trkpt>
      <trkpt lat="46.14656" lon="4.42115">
        <ele>735</ele>
        <time>2017-11-06T08:39:37Z</time>
      </trkpt>
      <trkpt lat="46.14674" lon="4.42126">
        <ele>734</ele>
        <time>2017-11-06T08:41:37Z</time>
      </trkpt>
      <trkpt lat="46.14698" lon="4.42146">
        <ele>734</ele>
        <time>2017-11-06T08:43:37Z</time>
      </trkpt>
      <trkpt lat="46.14705" lon="4.42154">
        <ele>734</ele>
        <time>2017-11-06T08:45:37Z</time>
      </trkpt>
      <trkpt lat="46.14719" lon="4.42172">
        <ele>734</ele>
        <time>2017-11-06T08:47:37Z</time>
      </trkpt>
      <trkpt lat="46.14724" lon="4.42182">
        <ele>734</ele>
        <time>2017-11-06T08:49:37Z</time>
      </trkpt>
      <trkpt lat="46.14727" lon="4.42188">
        <ele>733</ele>
        <time>2017-11-06T08:51:37Z</time>
      </trkpt>
      <trkpt lat="46.1473" lon="4.42197">
        <ele>734</ele>
        <time>2017-11-06T08:53:37Z</time>
      </trkpt>
      <trkpt lat="46.14734" lon="4.42205">
        <ele>733</ele>
        <time>2017-11-06T08:55:37Z</time>
      </trkpt>
      <trkpt lat="46.14741" lon="4.42226">
        <ele>733</ele>
        <time>2017-11-06T08:57:37Z</time>
      </trkpt>
      <trkpt lat="46.14746" lon="4.42246">
        <ele>734</ele>
        <time>2017-11-06T08:59:37Z</time>
      </trkpt>
      <trkpt lat="46.1475" lon="4.42261">
        <ele>733</ele>
        <time>2017-11-06T09:01:37Z</time>
      </trkpt>
      <trkpt lat="46.14754" lon="4.42291">
        <ele>732</ele>
        <time>2017-11-06T09:03:37Z</time>
      </trkpt>
      <trkpt lat="46.1476" lon="4.42321">
        <ele>731</ele>
        <time>2017-11-06T09:05:37Z</time>
      </trkpt>
      <trkpt lat="46.14769" lon="4.42347">
        <ele>729</ele>
        <time>2017-11-06T09:07:37Z</time>
      </trkpt>
      <trkpt lat="46.14774" lon="4.4236">
        <ele>729</ele>
        <time>2017-11-06T09:09:37Z</time>
      </trkpt>
      <trkpt lat="46.14779" lon="4.4237">
        <ele>728</ele>
        <time>2017-11-06T09:11:37Z</time>
      </trkpt>
      <trkpt lat="46.14785" lon="4.42378">
        <ele>727</ele>
        <time>2017-11-06T09:13:37Z</time>
      </trkpt>
      <trkpt lat="46.148" lon="4.42396">
        <ele>724</ele>
        <time>2017-11-06T09:15:37Z</time>
      </trkpt>
      <trkpt lat="46.14813" lon="4.42409">
        <ele>722</ele>
        <time>2017-11-06T09:17:37Z</time>
      </trkpt>
      <trkpt lat="46.14832" lon="4.42427">
        <ele>719</ele>
        <time>2017-11-06T09:19:37Z</time>
      </trkpt>
      <trkpt lat="46.14841" lon="4.42434">
        <ele>718</ele>
        <time>2017-11-06T09:21:37Z</time>
      </trkpt>
      <trkpt lat="46.14858" lon="4.4245">
        <ele>718</ele>
        <time>2017-11-06T09:23:37Z</time>
      </trkpt>
      <trkpt lat="46.14876" lon="4.42465">
        <ele>718</ele>
        <time>2017-11-06T09:25:37Z</time>
      </trkpt>
      <trkpt lat="46.14889" lon="4.4248">
        <ele>717</ele>
        <time>2017-11-06T09:27:37Z</time>
      </trkpt>
      <trkpt lat="46.14896" lon="4.42489">
        <ele>717</ele>
        <time>2017-11-06T09:29:37Z</time>
      </trkpt>
      <trkpt lat="46.1493" lon="4.42531">
        <ele>716</ele>
        <time>2017-11-06T09:31:37Z</time>
      </trkpt>
      <trkpt lat="46.14936" lon="4.42539">
        <ele>716</ele>
        <time>2017-11-06T09:33:37Z</time>
      </trkpt>
      <trkpt lat="46.14975" lon="4.42593">
        <ele>714</ele>
        <time>2017-11-06T09:35:37Z</time>
      </trkpt>
      <trkpt lat="46.14988" lon="4.42612">
        <ele>712</ele>
        <time>2017-11-06T09:37:37Z</time>
      </trkpt>
      <trkpt lat="46.15" lon="4.42628">
        <ele>711</ele>
        <time>2017-11-06T09:39:37Z</time>
      </trkpt>
      <trkpt lat="46.15019" lon="4.4265">
        <ele>708</ele>
        <time>2017-11-06T09:41:37Z</time>
      </trkpt>
      <trkpt lat="46.15035" lon="4.42668">
        <ele>707</ele>
        <time>2017-11-06T09:43:37Z</time>
      </trkpt>
      <trkpt lat="46.15052" lon="4.42682">
        <ele>706</ele>
        <time>2017-11-06T09:45:37Z</time>
      </trkpt>
      <trkpt lat="46.1506" lon="4.42688">
        <ele>706</ele>
        <time>2017-11-06T09:47:37Z</time>
      </trkpt>
      <trkpt lat="46.15071" lon="4.42692">
        <ele>706</ele>
        <time>2017-11-06T09:49:37Z</time>
      </trkpt>
      <trkpt lat="46.15106" lon="4.42706">
        <ele>708</ele>
        <time>2017-11-06T09:51:37Z</time>
      </trkpt>
      <trkpt lat="46.15128" lon="4.42713">
        <ele>709</ele>
        <time>2017-11-06T09:53:37Z</time>
      </trkpt>
      <trkpt lat="46.15146" lon="4.42721">
        <ele>710</ele>
        <time>2017-11-06T09:55:37Z</time>
      </trkpt>
      <trkpt lat="46.15155" lon="4.42727">
        <ele>710</ele>
        <time>2017-11-06T09:57:37Z</time>
      </trkpt>
      <trkpt lat="46.15171" lon="4.4274">
        <ele>710</ele>
        <time>2017-11-06T09:59:37Z</time>
      </trkpt>
      <trkpt lat="46.15181" lon="4.42749">
        <ele>710</ele>
        <time>2017-11-06T10:01:37Z</time>
      </trkpt>
      <trkpt lat="46.15209" lon="4.42775">
        <ele>708</ele>
        <time>2017-11-06T10:03:37Z</time>
      </trkpt>
      <trkpt lat="46.15227" lon="4.4279">
        <ele>707</ele>
        <time>2017-11-06T10:05:37Z</time>
      </trkpt>
      <trkpt lat="46.15268" lon="4.4283">
        <ele>703</ele>
        <time>2017-11-06T10:07:37Z</time>
      </trkpt>
      <trkpt lat="46.15281" lon="4.42842">
        <ele>703</ele>
        <time>2017-11-06T10:09:37Z</time>
      </trkpt>
      <trkpt lat="46.15291" lon="4.42855">
        <ele>703</ele>
        <time>2017-11-06T10:11:37Z</time>
      </trkpt>
      <trkpt lat="46.15303" lon="4.42876">
        <ele>702</ele>
        <time>2017-11-06T10:13:37Z</time>
      </trkpt>
      <trkpt lat="46.15326" lon="4.42922">
        <ele>700</ele>
        <time>2017-11-06T10:15:37Z</time>
      </trkpt>
      <trkpt lat="46.15333" lon="4.42936">
        <ele>700</ele>
        <time>2017-11-06T10:17:37Z</time>
      </trkpt>
      <trkpt lat="46.15366" lon="4.42999">
        <ele>697</ele>
        <time>2017-11-06T10:19:37Z</time>
      </trkpt>
      <trkpt lat="46.15374" lon="4.43014">
        <ele>697</ele>
        <time>2017-11-06T10:21:37Z</time>
      </trkpt>
      <trkpt lat="46.15379" lon="4.43026">
        <ele>697</ele>
        <time>2017-11-06T10:23:37Z</time>
      </trkpt>
      <trkpt lat="46.1538" lon="4.43026">
        <ele>697</ele>
        <time>2017-11-06T10:25:37Z</time>
      </trkpt>
      <trkpt lat="46.15431" lon="4.43095">
        <ele>697</ele>
        <time>2017-11-06T10:27:37Z</time>
      </trkpt>
      <trkpt lat="46.15457" lon="4.43129">
        <ele>698</ele>
        <time>2017-11-06T10:29:37Z</time>
      </trkpt>
      <trkpt lat="46.15463" lon="4.43137">
        <ele>698</ele>
        <time>2017-11-06T10:31:37Z</time>
      </trkpt>
      <trkpt lat="46.15472" lon="4.43146">
        <ele>699</ele>
        <time>2017-11-06T10:33:37Z</time>
      </trkpt>
      <trkpt lat="46.15472" lon="4.43146">
        <ele>699</ele>
        <time>2017-11-06T10:35:37Z</time>
      </trkpt>
      <trkpt lat="46.15473" lon="4.43169">
        <ele>699</ele>
        <time>2017-11-06T10:37:37Z</time>
      </trkpt>
      <trkpt lat="46.15475" lon="4.43196">
        <ele>699</ele>
        <time>2017-11-06T10:39:37Z</time>
      </trkpt>
      <trkpt lat="46.15477" lon="4.4321">
        <ele>699</ele>
        <time>2017-11-06T10:41:37Z</time>
      </trkpt>
      <trkpt lat="46.15484" lon="4.43251">
        <ele>700</ele>
        <time>2017-11-06T10:43:37Z</time>
      </trkpt>
      <trkpt lat="46.15485" lon="4.43261">
        <ele>700</ele>
        <time>2017-11-06T10:45:37Z</time>
      </trkpt>
      <trkpt lat="46.15492" lon="4.43309">
        <ele>698</ele>
        <time>2017-11-06T10:47:37Z</time>
      </trkpt>
      <trkpt lat="46.15498" lon="4.43338">
        <ele>696</ele>
        <time>2017-11-06T10:49:37Z</time>
      </trkpt>
      <trkpt lat="46.15502" lon="4.4335">
        <ele>696</ele>
        <time>2017-11-06T10:51:37Z</time>
      </trkpt>
      <trkpt lat="46.1551" lon="4.43371">
        <ele>695</ele>
        <time>2017-11-06T10:53:37Z</time>
      </trkpt>
      <trkpt lat="46.15532" lon="4.43409">
        <ele>693</ele>
        <time>2017-11-06T10:55:37Z</time>
      </trkpt>
      <trkpt lat="46.15539" lon="4.43417">
        <ele>693</ele>
        <time>2017-11-06T10:57:37Z</time>
      </trkpt>
      <trkpt lat="46.15547" lon="4.43423">
        <ele>692</ele>
        <time>2017-11-06T10:59:37Z</time>
      </trkpt>
      <trkpt lat="46.15565" lon="4.43431">
        <ele>692</ele>
        <time>2017-11-06T11:01:37Z</time>
      </trkpt>
      <trkpt lat="46.15575" lon="4.43434">
        <ele>691</ele>
        <time>2017-11-06T11:03:37Z</time>
      </trkpt>
      <trkpt lat="46.15596" lon="4.43438">
        <ele>693</ele>
        <time>2017-11-06T11:05:37Z</time>
      </trkpt>
      <trkpt lat="46.15606" lon="4.4344">
        <ele>694</ele>
        <time>2017-11-06T11:07:37Z</time>
      </trkpt>
      <trkpt lat="46.15627" lon="4.43449">
        <ele>695</ele>
        <time>2017-11-06T11:09:37Z</time>
      </trkpt>
      <trkpt lat="46.15668" lon="4.43471">
        <ele>696</ele>
        <time>2017-11-06T11:11:37Z</time>
      </trkpt>
      <trkpt lat="46.15677" lon="4.43478">
        <ele>695</ele>
        <time>2017-11-06T11:13:37Z</time>
      </trkpt>
      <trkpt lat="46.15696" lon="4.43494">
        <ele>694</ele>
        <time>2017-11-06T11:15:37Z</time>
      </trkpt>
      <trkpt lat="46.15722" lon="4.43517">
        <ele>694</ele>
        <time>2017-11-06T11:17:37Z</time>
      </trkpt>
      <trkpt lat="46.1573" lon="4.43522">
        <ele>694</ele>
        <time>2017-11-06T11:19:37Z</time>
      </trkpt>
      <trkpt lat="46.15746" lon="4.43528">
        <ele>696</ele>
        <time>2017-11-06T11:21:37Z</time>
      </trkpt>
      <trkpt lat="46.15756" lon="4.4353">
        <ele>697</ele>
        <time>2017-11-06T11:23:37Z</time>
      </trkpt>
      <trkpt lat="46.15764" lon="4.43533">
        <ele>698</ele>
        <time>2017-11-06T11:25:37Z</time>
      </trkpt>
      <trkpt lat="46.15777" lon="4.43541">
        <ele>699</ele>
        <time>2017-11-06T11:27:37Z</time>
      </trkpt>
      <trkpt lat="46.15792" lon="4.43553">
        <ele>700</ele>
        <time>2017-11-06T11:29:37Z</time>
      </trkpt>
      <trkpt lat="46.15799" lon="4.43562">
        <ele>700</ele>
        <time>2017-11-06T11:31:37Z</time>
      </trkpt>
      <trkpt lat="46.15815" lon="4.43599">
        <ele>699</ele>
        <time>2017-11-06T11:33:37Z</time>
      </trkpt>
      <trkpt lat="46.15824" lon="4.43628">
        <ele>699</ele>
        <time>2017-11-06T11:35:37Z</time>
      </trkpt>
      <trkpt lat="46.15837" lon="4.43657">
        <ele>700</ele>
        <time>2017-11-06T11:37:37Z</time>
      </trkpt>
      <trkpt lat="46.15842" lon="4.43671">
        <ele>700</ele>
        <time>2017-11-06T11:39:37Z</time>
      </trkpt>
      <trkpt lat="46.15846" lon="4.43687">
        <ele>699</ele>
        <time>2017-11-06T11:41:37Z</time>
      </trkpt>
      <trkpt lat="46.15851" lon="4.437">
        <ele>698</ele>
        <time>2017-11-06T11:43:37Z</time>
      </trkpt>
      <trkpt lat="46.15861" lon="4.43724">
        <ele>697</ele>
        <time>2017-11-06T11:45:37Z</time>
      </trkpt>
      <trkpt lat="46.15866" lon="4.43733">
        <ele>697</ele>
        <time>2017-11-06T11:47:37Z</time>
      </trkpt>
      <trkpt lat="46.15873" lon="4.4374">
        <ele>697</ele>
        <time>2017-11-06T11:49:37Z</time>
      </trkpt>
      <trkpt lat="46.15881" lon="4.43745">
        <ele>697</ele>
        <time>2017-11-06T11:51:37Z</time>
      </trkpt>
      <trkpt lat="46.15888" lon="4.43749">
        <ele>698</ele>
        <time>2017-11-06T11:53:37Z</time>
      </trkpt>
      <trkpt lat="46.15896" lon="4.43752">
        <ele>698</ele>
        <time>2017-11-06T11:55:37Z</time>
      </trkpt>
      <trkpt lat="46.15906" lon="4.43753">
        <ele>700</ele>
        <time>2017-11-06T11:57:37Z</time>
      </trkpt>
      <trkpt lat="46.15933" lon="4.43753">
        <ele>700</ele>
        <time>2017-11-06T11:59:37Z</time>
      </trkpt>
      <trkpt lat="46.15941" lon="4.43752">
        <ele>700</ele>
        <time>2017-11-06T12:01:37Z</time>
      </trkpt>
      <trkpt lat="46.15949" lon="4.43749">
        <ele>700</ele>
        <time>2017-11-06T12:03:37Z</time>
      </trkpt>
      <trkpt lat="46.15956" lon="4.43745">
        <ele>701</ele>
        <time>2017-11-06T12:05:37Z</time>
      </trkpt>
      <trkpt lat="46.15962" lon="4.43741">
        <ele>701</ele>
        <time>2017-11-06T12:07:37Z</time>
      </trkpt>
      <trkpt lat="46.15986" lon="4.43729">
        <ele>702</ele>
        <time>2017-11-06T12:09:37Z</time>
      </trkpt>
      <trkpt lat="46.16005" lon="4.43727">
        <ele>702</ele>
        <time>2017-11-06T12:11:37Z</time>
      </trkpt>
      <trkpt lat="46.16026" lon="4.4373">
        <ele>703</ele>
        <time>2017-11-06T12:13:37Z</time>
      </trkpt>
      <trkpt lat="46.16036" lon="4.43734">
        <ele>703</ele>
        <time>2017-11-06T12:15:37Z</time>
      </trkpt>
      <trkpt lat="46.16057" lon="4.43743">
        <ele>702</ele>
        <time>2017-11-06T12:17:37Z</time>
      </trkpt>
      <trkpt lat="46.16066" lon="4.4375">
        <ele>702</ele>
        <time>2017-11-06T12:19:37Z</time>
      </trkpt>
      <trkpt lat="46.16085" lon="4.43766">
        <ele>703</ele>
        <time>2017-11-06T12:21:37Z</time>
      </trkpt>
      <trkpt lat="46.16141" lon="4.43823">
        <ele>709</ele>
        <time>2017-11-06T12:23:37Z</time>
      </trkpt>
      <trkpt lat="46.16161" lon="4.43838">
        <ele>710</ele>
        <time>2017-11-06T12:25:37Z</time>
      </trkpt>
      <trkpt lat="46.16173" lon="4.43846">
        <ele>711</ele>
        <time>2017-11-06T12:27:37Z</time>
      </trkpt>
      <trkpt lat="46.16203" lon="4.43864">
        <ele>710</ele>
        <time>2017-11-06T12:29:37Z</time>
      </trkpt>
      <trkpt lat="46.16224" lon="4.43876">
        <ele>709</ele>
        <time>2017-11-06T12:31:37Z</time>
      </trkpt>
      <trkpt lat="46.16234" lon="4.4388">
        <ele>708</ele>
        <time>2017-11-06T12:33:37Z</time>
      </trkpt>
      <trkpt lat="46.16254" lon="4.43887">
        <ele>708</ele>
        <time>2017-11-06T12:35:37Z</time>
      </trkpt>
      <trkpt lat="46.16263" lon="4.4389">
        <ele>707</ele>
        <time>2017-11-06T12:37:37Z</time>
      </trkpt>
      <trkpt lat="46.16273" lon="4.4389">
        <ele>707</ele>
        <time>2017-11-06T12:39:37Z</time>
      </trkpt>
      <trkpt lat="46.16286" lon="4.43889">
        <ele>706</ele>
        <time>2017-11-06T12:41:37Z</time>
      </trkpt>
      <trkpt lat="46.1631" lon="4.43885">
        <ele>707</ele>
        <time>2017-11-06T12:43:37Z</time>
      </trkpt>
      <trkpt lat="46.16323" lon="4.43884">
        <ele>707</ele>
        <time>2017-11-06T12:45:37Z</time>
      </trkpt>
      <trkpt lat="46.16335" lon="4.43884">
        <ele>707</ele>
        <time>2017-11-06T12:47:37Z</time>
      </trkpt>
      <trkpt lat="46.16361" lon="4.43886">
        <ele>706</ele>
        <time>2017-11-06T12:49:37Z</time>
      </trkpt>
      <trkpt lat="46.16374" lon="4.43887">
        <ele>706</ele>
        <time>2017-11-06T12:51:37Z</time>
      </trkpt>
      <trkpt lat="46.164" lon="4.43892">
        <ele>705</ele>
        <time>2017-11-06T12:53:37Z</time>
      </trkpt>
      <trkpt lat="46.16448" lon="4.43906">
        <ele>704</ele>
        <time>2017-11-06T12:55:37Z</time>
      </trkpt>
      <trkpt lat="46.1646" lon="4.43908">
        <ele>705</ele>
        <time>2017-11-06T12:57:37Z</time>
      </trkpt>
      <trkpt lat="46.16521" lon="4.43912">
        <ele>708</ele>
        <time>2017-11-06T12:59:37Z</time>
      </trkpt>
      <trkpt lat="46.16528" lon="4.43916">
        <ele>707</ele>
        <time>2017-11-06T13:01:37Z</time>
      </trkpt>
      <trkpt lat="46.16532" lon="4.43919">
        <ele>707</ele>
        <time>2017-11-06T13:03:37Z</time>
      </trkpt>
      <trkpt lat="46.16539" lon="4.43927">
        <ele>706</ele>
        <time>2017-11-06T13:05:37Z</time>
      </trkpt>
      <trkpt lat="46.16559" lon="4.43932">
        <ele>707</ele>
        <time>2017-11-06T13:07:37Z</time>
      </trkpt>
      <trkpt lat="46.16583" lon="4.43942">
        <ele>706</ele>
        <time>2017-11-06T13:09:37Z</time>
      </trkpt>
      <trkpt lat="46.16602" lon="4.43951">
        <ele>707</ele>
        <time>2017-11-06T13:11:37Z</time>
      </trkpt>
      <trkpt lat="46.16615" lon="4.43959">
        <ele>707</ele>
        <time>2017-11-06T13:13:37Z</time>
      </trkpt>
      <trkpt lat="46.16628" lon="4.43966">
        <ele>708</ele>
        <time>2017-11-06T13:15:37Z</time>
      </trkpt>
      <trkpt lat="46.16638" lon="4.43978">
        <ele>708</ele>
        <time>2017-11-06T13:17:37Z</time>
      </trkpt>
      <trkpt lat="46.16648" lon="4.4399">
        <ele>708</ele>
        <time>2017-11-06T13:19:37Z</time>
      </trkpt>
      <trkpt lat="46.1666" lon="4.44008">
        <ele>708</ele>
        <time>2017-11-06T13:21:37Z</time>
      </trkpt>
      <trkpt lat="46.1667" lon="4.44025">
        <ele>708</ele>
        <time>2017-11-06T13:23:37Z</time>
      </trkpt>
      <trkpt lat="46.16677" lon="4.44036">
        <ele>708</ele>
        <time>2017-11-06T13:25:37Z</time>
      </trkpt>
      <trkpt lat="46.16686" lon="4.44055">
        <ele>708</ele>
        <time>2017-11-06T13:27:37Z</time>
      </trkpt>
      <trkpt lat="46.16692" lon="4.4407">
        <ele>708</ele>
        <time>2017-11-06T13:29:37Z</time>
      </trkpt>
      <trkpt lat="46.16695" lon="4.44078">
        <ele>708</ele>
        <time>2017-11-06T13:31:37Z</time>
      </trkpt>
      <trkpt lat="46.16698" lon="4.44086">
        <ele>708</ele>
        <time>2017-11-06T13:33:37Z</time>
      </trkpt>
      <trkpt lat="46.167" lon="4.44099">
        <ele>708</ele>
        <time>2017-11-06T13:35:37Z</time>
      </trkpt>
      <trkpt lat="46.167" lon="4.44099">
        <ele>708</ele>
        <time>2017-11-06T13:37:37Z</time>
      </trkpt>
      <trkpt lat="46.167" lon="4.44105">
        <ele>708</ele>
        <time>2017-11-06T13:39:37Z</time>
      </trkpt>
      <trkpt lat="46.16703" lon="4.4412">
        <ele>709</ele>
        <time>2017-11-06T13:41:37Z</time>
      </trkpt>
      <trkpt lat="46.16703" lon="4.44125">
        <ele>709</ele>
        <time>2017-11-06T13:43:37Z</time>
      </trkpt>
      <trkpt lat="46.16704" lon="4.44136">
        <ele>709</ele>
        <time>2017-11-06T13:45:37Z</time>
      </trkpt>
      <trkpt lat="46.16704" lon="4.44136">
        <ele>709</ele>
        <time>2017-11-06T13:47:37Z</time>
      </trkpt>
      <trkpt lat="46.16703" lon="4.44137">
        <ele>709</ele>
        <time>2017-11-06T13:49:37Z</time>
      </trkpt>
      <trkpt lat="46.16702" lon="4.44139">
        <ele>708</ele>
        <time>2017-11-06T13:51:37Z</time>
      </trkpt>
      <trkpt lat="46.16702" lon="4.44141">
        <ele>708</ele>
        <time>2017-11-06T13:53:37Z</time>
      </trkpt>
      <trkpt lat="46.16701" lon="4.44143">
        <ele>708</ele>
        <time>2017-11-06T13:55:37Z</time>
      </trkpt>
      <trkpt lat="46.16701" lon="4.44145">
        <ele>708</ele>
        <time>2017-11-06T13:57:37Z</time>
      </trkpt>
      <trkpt lat="46.167" lon="4.44147">
        <ele>708</ele>
        <time>2017-11-06T13:59:37Z</time>
      </trkpt>
      <trkpt lat="46.167" lon="4.44149">
        <ele>708</ele>
        <time>2017-11-06T14:01:37Z</time>
      </trkpt>
      <trkpt lat="46.167" lon="4.44151">
        <ele>708</ele>
        <time>2017-11-06T14:03:37Z</time>
      </trkpt>
      <trkpt lat="46.167" lon="4.44153">
        <ele>708</ele>
        <time>2017-11-06T14:05:37Z</time>
      </trkpt>
      <trkpt lat="46.167" lon="4.44155">
        <ele>708</ele>
        <time>2017-11-06T14:07:37Z</time>
      </trkpt>
      <trkpt lat="46.167" lon="4.44157">
        <ele>708</ele>
        <time>2017-11-06T14:09:37Z</time>
      </trkpt>
      <trkpt lat="46.167" lon="4.44159">
        <ele>708</ele>
        <time>2017-11-06T14:11:37Z</time>
      </trkpt>
      <trkpt lat="46.16701" lon="4.44161">
        <ele>708</ele>
        <time>2017-11-06T14:13:37Z</time>
      </trkpt>
      <trkpt lat="46.16701" lon="4.44163">
        <ele>708</ele>
        <time>2017-11-06T14:15:37Z</time>
      </trkpt>
      <trkpt lat="46.16702" lon="4.44165">
        <ele>708</ele>
        <time>2017-11-06T14:17:37Z</time>
      </trkpt>
      <trkpt lat="46.16702" lon="4.44167">
        <ele>708</ele>
        <time>2017-11-06T14:19:37Z</time>
      </trkpt>
      <trkpt lat="46.16703" lon="4.44169">
        <ele>708</ele>
        <time>2017-11-06T14:21:37Z</time>
      </trkpt>
      <trkpt lat="46.16704" lon="4.44171">
        <ele>709</ele>
        <time>2017-11-06T14:23:37Z</time>
      </trkpt>
      <trkpt lat="46.16705" lon="4.44172">
        <ele>709</ele>
        <time>2017-11-06T14:25:37Z</time>
      </trkpt>
      <trkpt lat="46.16706" lon="4.44174">
        <ele>709</ele>
        <time>2017-11-06T14:27:37Z</time>
      </trkpt>
      <trkpt lat="46.16707" lon="4.44176">
        <ele>709</ele>
        <time>2017-11-06T14:29:37Z</time>
      </trkpt>
      <trkpt lat="46.16708" lon="4.44177">
        <ele>709</ele>
        <time>2017-11-06T14:31:37Z</time>
      </trkpt>
      <trkpt lat="46.1671" lon="4.44179">
        <ele>710</ele>
        <time>2017-11-06T14:33:37Z</time>
      </trkpt>
      <trkpt lat="46.16711" lon="4.44196">
        <ele>710</ele>
        <time>2017-11-06T14:35:37Z</time>
      </trkpt>
      <trkpt lat="46.1671" lon="4.44214">
        <ele>711</ele>
        <time>2017-11-06T14:37:37Z</time>
      </trkpt>
      <trkpt lat="46.16706" lon="4.44235">
        <ele>711</ele>
        <time>2017-11-06T14:39:37Z</time>
      </trkpt>
      <trkpt lat="46.16701" lon="4.44256">
        <ele>711</ele>
        <time>2017-11-06T14:41:37Z</time>
      </trkpt>
      <trkpt lat="46.16693" lon="4.4428">
        <ele>711</ele>
        <time>2017-11-06T14:43:37Z</time>
      </trkpt>
      <trkpt lat="46.1669" lon="4.44297">
        <ele>711</ele>
        <time>2017-11-06T14:45:37Z</time>
      </trkpt>
      <trkpt lat="46.16688" lon="4.44302">
        <ele>711</ele>
        <time>2017-11-06T14:47:37Z</time>
      </trkpt>
      <trkpt lat="46.16684" lon="4.44312">
        <ele>710</ele>
        <time>2017-11-06T14:49:37Z</time>
      </trkpt>
      <trkpt lat="46.1668" lon="4.44321">
        <ele>710</ele>
        <time>2017-11-06T14:51:37Z</time>
      </trkpt>
      <trkpt lat="46.16674" lon="4.44331">
        <ele>709</ele>
        <time>2017-11-06T14:53:37Z</time>
      </trkpt>
      <trkpt lat="46.16664" lon="4.44346">
        <ele>708</ele>
        <time>2017-11-06T14:55:37Z</time>
      </trkpt>
      <trkpt lat="46.16647" lon="4.44368">
        <ele>708</ele>
        <time>2017-11-06T14:57:37Z</time>
      </trkpt>
      <trkpt lat="46.16607" lon="4.44409">
        <ele>705</ele>
        <time>2017-11-06T14:59:37Z</time>
      </trkpt>
      <trkpt lat="46.1658" lon="4.44435">
        <ele>703</ele>
        <time>2017-11-06T15:01:37Z</time>
      </trkpt>
      <trkpt lat="46.16567" lon="4.44448">
        <ele>703</ele>
        <time>2017-11-06T15:03:37Z</time>
      </trkpt>
      <trkpt lat="46.16549" lon="4.44466">
        <ele>702</ele>
        <time>2017-11-06T15:05:37Z</time>
      </trkpt>
      <trkpt lat="46.16527" lon="4.44491">
        <ele>701</ele>
        <time>2017-11-06T15:07:37Z</time>
      </trkpt>
      <trkpt lat="46.16524" lon="4.44495">
        <ele>700</ele>
        <time>2017-11-06T15:09:37Z</time>
      </trkpt>
      <trkpt lat="46.16517" lon="4.44506">
        <ele>700</ele>
        <time>2017-11-06T15:11:37Z</time>
      </trkpt>
      <trkpt lat="46.16509" lon="4.44524">
        <ele>700</ele>
        <time>2017-11-06T15:13:37Z</time>
      </trkpt>
      <trkpt lat="46.16502" lon="4.44544">
        <ele>701</ele>
        <time>2017-11-06T15:15:37Z</time>
      </trkpt>
      <trkpt lat="46.16496" lon="4.44565">
        <ele>701</ele>
        <time>2017-11-06T15:17:37Z</time>
      </trkpt>
      <trkpt lat="46.16493" lon="4.44578">
        <ele>701</ele>
        <time>2017-11-06T15:19:37Z</time>
      </trkpt>
      <trkpt lat="46.16491" lon="4.4459">
        <ele>701</ele>
        <time>2017-11-06T15:21:37Z</time>
      </trkpt>
      <trkpt lat="46.16488" lon="4.44616">
        <ele>699</ele>
        <time>2017-11-06T15:23:37Z</time>
      </trkpt>
      <trkpt lat="46.16488" lon="4.44636">
        <ele>698</ele>
        <time>2017-11-06T15:25:37Z</time>
      </trkpt>
      <trkpt lat="46.1649" lon="4.44674">
        <ele>696</ele>
        <time>2017-11-06T15:27:37Z</time>
      </trkpt>
      <trkpt lat="46.1649" lon="4.44678">
        <ele>696</ele>
        <time>2017-11-06T15:29:37Z</time>
      </trkpt>
      <trkpt lat="46.1649" lon="4.4469">
        <ele>696</ele>
        <time>2017-11-06T15:31:37Z</time>
      </trkpt>
      <trkpt lat="46.16489" lon="4.44705">
        <ele>695</ele>
        <time>2017-11-06T15:33:37Z</time>
      </trkpt>
      <trkpt lat="46.16487" lon="4.44727">
        <ele>694</ele>
        <time>2017-11-06T15:35:37Z</time>
      </trkpt>
      <trkpt lat="46.16479" lon="4.44771">
        <ele>694</ele>
        <time>2017-11-06T15:37:37Z</time>
      </trkpt>
      <trkpt lat="46.16472" lon="4.44793">
        <ele>695</ele>
        <time>2017-11-06T15:39:37Z</time>
      </trkpt>
      <trkpt lat="46.16465" lon="4.44817">
        <ele>696</ele>
        <time>2017-11-06T15:41:37Z</time>
      </trkpt>
      <trkpt lat="46.16458" lon="4.44837">
        <ele>697</ele>
        <time>2017-11-06T15:43:37Z</time>
      </trkpt>
      <trkpt lat="46.16449" lon="4.44856">
        <ele>698</ele>
        <time>2017-11-06T15:45:37Z</time>
      </trkpt>
      <trkpt lat="46.16443" lon="4.4487">
        <ele>698</ele>
        <time>2017-11-06T15:47:37Z</time>
      </trkpt>
      <trkpt lat="46.16424" lon="4.44903">
        <ele>698</ele>
        <time>2017-11-06T15:49:37Z</time>
      </trkpt>
      <trkpt lat="46.16412" lon="4.44917">
        <ele>697</ele>
        <time>2017-11-06T15:51:37Z</time>
      </trkpt>
      <trkpt lat="46.16403" lon="4.44925">
        <ele>697</ele>
        <time>2017-11-06T15:53:37Z</time>
      </trkpt>
      <trkpt lat="46.16376" lon="4.44944">
        <ele>695</ele>
        <time>2017-11-06T15:55:37Z</time>
      </trkpt>
      <trkpt lat="46.16336" lon="4.4497">
        <ele>693</ele>
        <time>2017-11-06T15:57:37Z</time>
      </trkpt>
      <trkpt lat="46.16292" lon="4.44998">
        <ele>693</ele>
        <time>2017-11-06T15:59:37Z</time>
      </trkpt>
      <trkpt lat="46.16255" lon="4.45022">
        <ele>694</ele>
        <time>2017-11-06T16:01:37Z</time>
      </trkpt>
      <trkpt lat="46.16224" lon="4.45048">
        <ele>692</ele>
        <time>2017-11-06T16:03:37Z</time>
      </trkpt>
      <trkpt lat="46.16207" lon="4.45064">
        <ele>690</ele>
        <time>2017-11-06T16:05:37Z</time>
      </trkpt>
      <trkpt lat="46.16197" lon="4.45076">
        <ele>689</ele>
        <time>2017-11-06T16:07:37Z</time>
      </trkpt>
      <trkpt lat="46.16179" lon="4.45098">
        <ele>686</ele>
        <time>2017-11-06T16:09:37Z</time>
      </trkpt>
      <trkpt lat="46.16165" lon="4.45121">
        <ele>686</ele>
        <time>2017-11-06T16:11:37Z</time>
      </trkpt>
      <trkpt lat="46.16138" lon="4.45173">
        <ele>684</ele>
        <time>2017-11-06T16:13:37Z</time>
      </trkpt>
      <trkpt lat="46.16082" lon="4.45284">
        <ele>678</ele>
        <time>2017-11-06T16:15:37Z</time>
      </trkpt>
      <trkpt lat="46.16066" lon="4.45321">
        <ele>678</ele>
        <time>2017-11-06T16:17:37Z</time>
      </trkpt>
      <trkpt lat="46.16044" lon="4.45381">
        <ele>676</ele>
        <time>2017-11-06T16:19:37Z</time>
      </trkpt>
      <trkpt lat="46.16035" lon="4.45408">
        <ele>675</ele>
        <time>2017-11-06T16:21:37Z</time>
      </trkpt>
      <trkpt lat="46.16029" lon="4.45429">
        <ele>674</ele>
        <time>2017-11-06T16:23:37Z</time>
      </trkpt>
      <trkpt lat="46.16026" lon="4.4544">
        <ele>674</ele>
        <time>2017-11-06T16:25:37Z</time>
      </trkpt>
      <trkpt lat="46.1602" lon="4.4547">
        <ele>674</ele>
        <time>2017-11-06T16:27:37Z</time>
      </trkpt>
      <trkpt lat="46.16018" lon="4.45482">
        <ele>674</ele>
        <time>2017-11-06T16:29:37Z</time>
      </trkpt>
      <trkpt lat="46.16018" lon="4.45494">
        <ele>674</ele>
        <time>2017-11-06T16:31:37Z</time>
      </trkpt>
      <trkpt lat="46.16018" lon="4.45519">
        <ele>674</ele>
        <time>2017-11-06T16:33:37Z</time>
      </trkpt>
      <trkpt lat="46.1602" lon="4.45532">
        <ele>674</ele>
        <time>2017-11-06T16:35:37Z</time>
      </trkpt>
      <trkpt lat="46.16023" lon="4.45545">
        <ele>674</ele>
        <time>2017-11-06T16:37:37Z</time>
      </trkpt>
      <trkpt lat="46.16027" lon="4.45559">
        <ele>675</ele>
        <time>2017-11-06T16:39:37Z</time>
      </trkpt>
      <trkpt lat="46.16034" lon="4.45578">
        <ele>676</ele>
        <time>2017-11-06T16:41:37Z</time>
      </trkpt>
      <trkpt lat="46.16048" lon="4.45605">
        <ele>678</ele>
        <time>2017-11-06T16:43:37Z</time>
      </trkpt>
      <trkpt lat="46.16048" lon="4.45605">
        <ele>678</ele>
        <time>2017-11-06T16:45:37Z</time>
      </trkpt>
      <trkpt lat="46.16055" lon="4.45615">
        <ele>679</ele>
        <time>2017-11-06T16:47:37Z</time>
      </trkpt>
      <trkpt lat="46.16074" lon="4.45667">
        <ele>678</ele>
        <time>2017-11-06T16:49:37Z</time>
      </trkpt>
      <trkpt lat="46.16082" lon="4.45691">
        <ele>678</ele>
        <time>2017-11-06T16:51:37Z</time>
      </trkpt>
      <trkpt lat="46.16091" lon="4.45714">
        <ele>678</ele>
        <time>2017-11-06T16:53:37Z</time>
      </trkpt>
      <trkpt lat="46.16099" lon="4.45735">
        <ele>679</ele>
        <time>2017-11-06T16:55:37Z</time>
      </trkpt>
      <trkpt lat="46.16102" lon="4.45744">
        <ele>679</ele>
        <time>2017-11-06T16:57:37Z</time>
      </trkpt>
      <trkpt lat="46.16119" lon="4.45784">
        <ele>680</ele>
        <time>2017-11-06T16:59:37Z</time>
      </trkpt>
      <trkpt lat="46.16144" lon="4.45849">
        <ele>680</ele>
        <time>2017-11-06T17:01:37Z</time>
      </trkpt>
      <trkpt lat="46.1615" lon="4.45867">
        <ele>680</ele>
        <time>2017-11-06T17:03:37Z</time>
      </trkpt>
      <trkpt lat="46.16153" lon="4.45877">
        <ele>680</ele>
        <time>2017-11-06T17:05:37Z</time>
      </trkpt>
      <trkpt lat="46.16183" lon="4.45943">
        <ele>683</ele>
        <time>2017-11-06T17:07:37Z</time>
      </trkpt>
      <trkpt lat="46.16297" lon="4.46195">
        <ele>682</ele>
        <time>2017-11-06T17:09:37Z</time>
      </trkpt>
      <trkpt lat="46.16314" lon="4.46231">
        <ele>682</ele>
        <time>2017-11-06T17:11:37Z</time>
      </trkpt>
      <trkpt lat="46.16322" lon="4.46249">
        <ele>683</ele>
        <time>2017-11-06T17:13:37Z</time>
      </trkpt>
      <trkpt lat="46.16376" lon="4.46372">
        <ele>679</ele>
        <time>2017-11-06T17:15:37Z</time>
      </trkpt>
      <trkpt lat="46.1643" lon="4.46494">
        <ele>678</ele>
        <time>2017-11-06T17:17:37Z</time>
      </trkpt>
      <trkpt lat="46.16465" lon="4.46572">
        <ele>683</ele>
        <time>2017-11-06T17:19:37Z</time>
      </trkpt>
      <trkpt lat="46.16477" lon="4.46599">
        <ele>683</ele>
        <time>2017-11-06T17:21:37Z</time>
      </trkpt>
      <trkpt lat="46.16488" lon="4.46623">
        <ele>683</ele>
        <time>2017-11-06T17:23:37Z</time>
      </trkpt>
      <trkpt lat="46.16503" lon="4.46663">
        <ele>684</ele>
        <time>2017-11-06T17:25:37Z</time>
      </trkpt>
      <trkpt lat="46.16508" lon="4.46678">
        <ele>685</ele>
        <time>2017-11-06T17:27:37Z</time>
      </trkpt>
      <trkpt lat="46.16511" lon="4.46697">
        <ele>685</ele>
        <time>2017-11-06T17:29:37Z</time>
      </trkpt>
      <trkpt lat="46.16514" lon="4.46721">
        <ele>686</ele>
        <time>2017-11-06T17:31:37Z</time>
      </trkpt>
      <trkpt lat="46.16515" lon="4.46746">
        <ele>686</ele>
        <time>2017-11-06T17:33:37Z</time>
      </trkpt>
      <trkpt lat="46.16514" lon="4.46781">
        <ele>688</ele>
        <time>2017-11-06T17:35:37Z</time>
      </trkpt>
      <trkpt lat="46.16513" lon="4.468">
        <ele>688</ele>
        <time>2017-11-06T17:37:37Z</time>
      </trkpt>
      <trkpt lat="46.16508" lon="4.46852">
        <ele>690</ele>
        <time>2017-11-06T17:39:37Z</time>
      </trkpt>
      <trkpt lat="46.16502" lon="4.46885">
        <ele>691</ele>
        <time>2017-11-06T17:41:37Z</time>
      </trkpt>
      <trkpt lat="46.16489" lon="4.4695">
        <ele>694</ele>
        <time>2017-11-06T17:43:37Z</time>
      </trkpt>
      <trkpt lat="46.16489" lon="4.4695">
        <ele>694</ele>
        <time>2017-11-06T17:45:37Z</time>
      </trkpt>
      <trkpt lat="46.16486" lon="4.4696">
        <ele>694</ele>
        <time>2017-11-06T17:47:37Z</time>
      </trkpt>
      <trkpt lat="46.16485" lon="4.46972">
        <ele>694</ele>
        <time>2017-11-06T17:49:37Z</time>
      </trkpt>
      <trkpt lat="46.16484" lon="4.46981">
        <ele>695</ele>
        <time>2017-11-06T17:51:37Z</time>
      </trkpt>
      <trkpt lat="46.16484" lon="4.46994">
        <ele>695</ele>
        <time>2017-11-06T17:53:37Z</time>
      </trkpt>
      <trkpt lat="46.16484" lon="4.47">
        <ele>695</ele>
        <time>2017-11-06T17:55:37Z</time>
      </trkpt>
      <trkpt lat="46.16488" lon="4.47039">
        <ele>697</ele>
        <time>2017-11-06T17:57:37Z</time>
      </trkpt>
      <trkpt lat="46.16493" lon="4.47061">
        <ele>699</ele>
        <time>2017-11-06T17:59:37Z</time>
      </trkpt>
      <trkpt lat="46.16504" lon="4.47105">
        <ele>700</ele>
        <time>2017-11-06T18:01:37Z</time>
      </trkpt>
      <trkpt lat="46.16507" lon="4.47117">
        <ele>701</ele>
        <time>2017-11-06T18:03:37Z</time>
      </trkpt>
      <trkpt lat="46.16515" lon="4.47135">
        <ele>701</ele>
        <time>2017-11-06T18:05:37Z</time>
      </trkpt>
      <trkpt lat="46.16523" lon="4.47153">
        <ele>702</ele>
        <time>2017-11-06T18:07:37Z</time>
      </trkpt>
      <trkpt lat="46.1653" lon="4.47171">
        <ele>702</ele>
        <time>2017-11-06T18:09:37Z</time>
      </trkpt>
      <trkpt lat="46.16534" lon="4.47187">
        <ele>702</ele>
        <time>2017-11-06T18:11:37Z</time>
      </trkpt>
      <trkpt lat="46.16536" lon="4.472">
        <ele>702</ele>
        <time>2017-11-06T18:13:37Z</time>
      </trkpt>
      <trkpt lat="46.16536" lon="4.472">
        <ele>702</ele>
        <time>2017-11-06T18:15:37Z</time>
      </trkpt>
      <trkpt lat="46.16538" lon="4.47206">
        <ele>702</ele>
        <time>2017-11-06T18:17:37Z</time>
      </trkpt>
      <trkpt lat="46.16539" lon="4.47214">
        <ele>701</ele>
        <time>2017-11-06T18:19:37Z</time>
      </trkpt>
      <trkpt lat="46.16539" lon="4.47221">
        <ele>701</ele>
        <time>2017-11-06T18:21:37Z</time>
      </trkpt>
      <trkpt lat="46.16538" lon="4.47235">
        <ele>700</ele>
        <time>2017-11-06T18:23:37Z</time>
      </trkpt>
      <trkpt lat="46.16536" lon="4.4725">
        <ele>700</ele>
        <time>2017-11-06T18:25:37Z</time>
      </trkpt>
      <trkpt lat="46.16531" lon="4.4727">
        <ele>700</ele>
        <time>2017-11-06T18:27:37Z</time>
      </trkpt>
      <trkpt lat="46.16528" lon="4.47278">
        <ele>700</ele>
        <time>2017-11-06T18:29:37Z</time>
      </trkpt>
      <trkpt lat="46.16513" lon="4.47297">
        <ele>699</ele>
        <time>2017-11-06T18:31:37Z</time>
      </trkpt>
      <trkpt lat="46.16508" lon="4.47303">
        <ele>699</ele>
        <time>2017-11-06T18:33:37Z</time>
      </trkpt>
      <trkpt lat="46.16508" lon="4.47303">
        <ele>699</ele>
        <time>2017-11-06T18:35:37Z</time>
      </trkpt>
      <trkpt lat="46.16509" lon="4.47306">
        <ele>699</ele>
        <time>2017-11-06T18:37:37Z</time>
      </trkpt>
      <trkpt lat="46.16509" lon="4.47309">
        <ele>699</ele>
        <time>2017-11-06T18:39:37Z</time>
      </trkpt>
      <trkpt lat="46.16508" lon="4.47313">
        <ele>699</ele>
        <time>2017-11-06T18:41:37Z</time>
      </trkpt>
      <trkpt lat="46.16505" lon="4.47321">
        <ele>699</ele>
        <time>2017-11-06T18:43:37Z</time>
      </trkpt>
      <trkpt lat="46.16495" lon="4.47348">
        <ele>699</ele>
        <time>2017-11-06T18:45:37Z</time>
      </trkpt>
      <trkpt lat="46.16452" lon="4.47443">
        <ele>701</ele>
        <time>2017-11-06T18:47:37Z</time>
      </trkpt>
      <trkpt lat="46.16437" lon="4.47476">
        <ele>702</ele>
        <time>2017-11-06T18:49:37Z</time>
      </trkpt>
      <trkpt lat="46.16398" lon="4.47571">
        <ele>704</ele>
        <time>2017-11-06T18:51:37Z</time>
      </trkpt>
      <trkpt lat="46.16397" lon="4.47572">
        <ele>704</ele>
        <time>2017-11-06T18:53:37Z</time>
      </trkpt>
      <trkpt lat="46.16387" lon="4.47601">
        <ele>704</ele>
        <time>2017-11-06T18:55:37Z</time>
      </trkpt>
      <trkpt lat="46.1638" lon="4.47629">
        <ele>704</ele>
        <time>2017-11-06T18:57:37Z</time>
      </trkpt>
      <trkpt lat="46.16378" lon="4.4764">
        <ele>703</ele>
        <time>2017-11-06T18:59:37Z</time>
      </trkpt>
      <trkpt lat="46.16377" lon="4.47655">
        <ele>703</ele>
        <time>2017-11-06T19:01:37Z</time>
      </trkpt>
      <trkpt lat="46.16377" lon="4.47676">
        <ele>702</ele>
        <time>2017-11-06T19:03:37Z</time>
      </trkpt>
      <trkpt lat="46.16377" lon="4.47733">
        <ele>699</ele>
        <time>2017-11-06T19:05:37Z</time>
      </trkpt>
      <trkpt lat="46.16378" lon="4.47745">
        <ele>698</ele>
        <time>2017-11-06T19:07:37Z</time>
      </trkpt>
      <trkpt lat="46.16379" lon="4.47755">
        <ele>698</ele>
        <time>2017-11-06T19:09:37Z</time>
      </trkpt>
      <trkpt lat="46.16385" lon="4.47776">
        <ele>697</ele>
        <time>2017-11-06T19:11:37Z</time>
      </trkpt>
      <trkpt lat="46.16389" lon="4.47786">
        <ele>696</ele>
        <time>2017-11-06T19:13:37Z</time>
      </trkpt>
      <trkpt lat="46.164" lon="4.47802">
        <ele>696</ele>
        <time>2017-11-06T19:15:37Z</time>
      </trkpt>
      <trkpt lat="46.16409" lon="4.47818">
        <ele>696</ele>
        <time>2017-11-06T19:17:37Z</time>
      </trkpt>
      <trkpt lat="46.16411" lon="4.47823">
        <ele>695</ele>
        <time>2017-11-06T19:19:37Z</time>
      </trkpt>
      <trkpt lat="46.16412" lon="4.47828">
        <ele>695</ele>
        <time>2017-11-06T19:21:37Z</time>
      </trkpt>
      <trkpt lat="46.16412" lon="4.47832">
        <ele>694</ele>
        <time>2017-11-06T19:23:37Z</time>
      </trkpt>
      <trkpt lat="46.16412" lon="4.47837">
        <ele>694</ele>
        <time>2017-11-06T19:25:37Z</time>
      </trkpt>
      <trkpt lat="46.16412" lon="4.47837">
        <ele>694</ele>
        <time>2017-11-06T19:27:37Z</time>
      </trkpt>
      <trkpt lat="46.1643" lon="4.47863">
        <ele>694</ele>
        <time>2017-11-06T19:29:37Z</time>
      </trkpt>
      <trkpt lat="46.16437" lon="4.47873">
        <ele>694</ele>
        <time>2017-11-06T19:31:37Z</time>
      </trkpt>
      <trkpt lat="46.16443" lon="4.47883">
        <ele>694</ele>
        <time>2017-11-06T19:33:37Z</time>
      </trkpt>
      <trkpt lat="46.16453" lon="4.47903">
        <ele>693</ele>
        <time>2017-11-06T19:35:37Z</time>
      </trkpt>
      <trkpt lat="46.16475" lon="4.47942">
        <ele>691</ele>
        <time>2017-11-06T19:37:37Z</time>
      </trkpt>
      <trkpt lat="46.16483" lon="4.47956">
        <ele>691</ele>
        <time>2017-11-06T19:39:37Z</time>
      </trkpt>
      <trkpt lat="46.16507" lon="4.47996">
        <ele>688</ele>
        <time>2017-11-06T19:41:37Z</time>
      </trkpt>
      <trkpt lat="46.16514" lon="4.48006">
        <ele>687</ele>
        <time>2017-11-06T19:43:37Z</time>
      </trkpt>
      <trkpt lat="46.16523" lon="4.48017">
        <ele>686</ele>
        <time>2017-11-06T19:45:37Z</time>
      </trkpt>
      <trkpt lat="46.16533" lon="4.48029">
        <ele>684</ele>
        <time>2017-11-06T19:47:37Z</time>
      </trkpt>
      <trkpt lat="46.16545" lon="4.48039">
        <ele>684</ele>
        <time>2017-11-06T19:49:37Z</time>
      </trkpt>
      <trkpt lat="46.16568" lon="4.48057">
        <ele>682</ele>
        <time>2017-11-06T19:51:37Z</time>
      </trkpt>
      <trkpt lat="46.1658" lon="4.48063">
        <ele>682</ele>
        <time>2017-11-06T19:53:37Z</time>
      </trkpt>
      <trkpt lat="46.16592" lon="4.48068">
        <ele>682</ele>
        <time>2017-11-06T19:55:37Z</time>
      </trkpt>
      <trkpt lat="46.16616" lon="4.48073">
        <ele>681</ele>
        <time>2017-11-06T19:57:37Z</time>
      </trkpt>
      <trkpt lat="46.16646" lon="4.48077">
        <ele>681</ele>
        <time>2017-11-06T19:59:37Z</time>
      </trkpt>
      <trkpt lat="46.16681" lon="4.48077">
        <ele>681</ele>
        <time>2017-11-06T20:01:37Z</time>
      </trkpt>
      <trkpt lat="46.16738" lon="4.48073">
        <ele>678</ele>
        <time>2017-11-06T20:03:37Z</time>
      </trkpt>
      <trkpt lat="46.16752" lon="4.48072">
        <ele>678</ele>
        <time>2017-11-06T20:05:37Z</time>
      </trkpt>
      <trkpt lat="46.16761" lon="4.48072">
        <ele>678</ele>
        <time>2017-11-06T20:07:37Z</time>
      </trkpt>
      <trkpt lat="46.16769" lon="4.48071">
        <ele>678</ele>
        <time>2017-11-06T20:09:37Z</time>
      </trkpt>
      <trkpt lat="46.16847" lon="4.48068">
        <ele>676</ele>
        <time>2017-11-06T20:11:37Z</time>
      </trkpt>
      <trkpt lat="46.16876" lon="4.4807">
        <ele>676</ele>
        <time>2017-11-06T20:13:37Z</time>
      </trkpt>
      <trkpt lat="46.16888" lon="4.48073">
        <ele>676</ele>
        <time>2017-11-06T20:15:37Z</time>
      </trkpt>
      <trkpt lat="46.16902" lon="4.48077">
        <ele>675</ele>
        <time>2017-11-06T20:17:37Z</time>
      </trkpt>
      <trkpt lat="46.16913" lon="4.48081">
        <ele>675</ele>
        <time>2017-11-06T20:19:37Z</time>
      </trkpt>
      <trkpt lat="46.16934" lon="4.48092">
        <ele>674</ele>
        <time>2017-11-06T20:21:37Z</time>
      </trkpt>
      <trkpt lat="46.16971" lon="4.48115">
        <ele>672</ele>
        <time>2017-11-06T20:23:37Z</time>
      </trkpt>
      <trkpt lat="46.16988" lon="4.48127">
        <ele>671</ele>
        <time>2017-11-06T20:25:37Z</time>
      </trkpt>
      <trkpt lat="46.1701" lon="4.48144">
        <ele>670</ele>
        <time>2017-11-06T20:27:37Z</time>
      </trkpt>
      <trkpt lat="46.17035" lon="4.48172">
        <ele>668</ele>
        <time>2017-11-06T20:29:37Z</time>
      </trkpt>
      <trkpt lat="46.17045" lon="4.48186">
        <ele>668</ele>
        <time>2017-11-06T20:31:37Z</time>
      </trkpt>
      <trkpt lat="46.17053" lon="4.48199">
        <ele>667</ele>
        <time>2017-11-06T20:33:37Z</time>
      </trkpt>
      <trkpt lat="46.17068" lon="4.4823">
        <ele>666</ele>
        <time>2017-11-06T20:35:37Z</time>
      </trkpt>
      <trkpt lat="46.17081" lon="4.48266">
        <ele>666</ele>
        <time>2017-11-06T20:37:37Z</time>
      </trkpt>
      <trkpt lat="46.17091" lon="4.48304">
        <ele>665</ele>
        <time>2017-11-06T20:39:37Z</time>
      </trkpt>
      <trkpt lat="46.17095" lon="4.48339">
        <ele>664</ele>
        <time>2017-11-06T20:41:37Z</time>
      </trkpt>
      <trkpt lat="46.17096" lon="4.48372">
        <ele>664</ele>
        <time>2017-11-06T20:43:37Z</time>
      </trkpt>
      <trkpt lat="46.17095" lon="4.48403">
        <ele>663</ele>
        <time>2017-11-06T20:45:37Z</time>
      </trkpt>
      <trkpt lat="46.1709" lon="4.48436">
        <ele>663</ele>
        <time>2017-11-06T20:47:37Z</time>
      </trkpt>
      <trkpt lat="46.17082" lon="4.48467">
        <ele>663</ele>
        <time>2017-11-06T20:49:37Z</time>
      </trkpt>
      <trkpt lat="46.17063" lon="4.48511">
        <ele>663</ele>
        <time>2017-11-06T20:51:37Z</time>
      </trkpt>
      <trkpt lat="46.17047" lon="4.48544">
        <ele>663</ele>
        <time>2017-11-06T20:53:37Z</time>
      </trkpt>
      <trkpt lat="46.17041" lon="4.48558">
        <ele>663</ele>
        <time>2017-11-06T20:55:37Z</time>
      </trkpt>
      <trkpt lat="46.17032" lon="4.48577">
        <ele>664</ele>
        <time>2017-11-06T20:57:37Z</time>
      </trkpt>
      <trkpt lat="46.16983" lon="4.48677">
        <ele>663</ele>
        <time>2017-11-06T20:59:37Z</time>
      </trkpt>
      <trkpt lat="46.16981" lon="4.48682">
        <ele>663</ele>
        <time>2017-11-06T21:01:37Z</time>
      </trkpt>
      <trkpt lat="46.16981" lon="4.48682">
        <ele>663</ele>
        <time>2017-11-06T21:03:37Z</time>
      </trkpt>
      <trkpt lat="46.16979" lon="4.4869">
        <ele>663</ele>
        <time>2017-11-06T21:05:37Z</time>
      </trkpt>
      <trkpt lat="46.16976" lon="4.48699">
        <ele>662</ele>
        <time>2017-11-06T21:07:37Z</time>
      </trkpt>
      <trkpt lat="46.16965" lon="4.48723">
        <ele>661</ele>
        <time>2017-11-06T21:09:37Z</time>
      </trkpt>
      <trkpt lat="46.16946" lon="4.48762">
        <ele>659</ele>
        <time>2017-11-06T21:11:37Z</time>
      </trkpt>
      <trkpt lat="46.16942" lon="4.4877">
        <ele>659</ele>
        <time>2017-11-06T21:13:37Z</time>
      </trkpt>
      <trkpt lat="46.1693" lon="4.48797">
        <ele>659</ele>
        <time>2017-11-06T21:15:37Z</time>
      </trkpt>
      <trkpt lat="46.16911" lon="4.48834">
        <ele>658</ele>
        <time>2017-11-06T21:17:37Z</time>
      </trkpt>
      <trkpt lat="46.16888" lon="4.48882">
        <ele>658</ele>
        <time>2017-11-06T21:19:37Z</time>
      </trkpt>
      <trkpt lat="46.16883" lon="4.48893">
        <ele>658</ele>
        <time>2017-11-06T21:21:37Z</time>
      </trkpt>
      <trkpt lat="46.16881" lon="4.489">
        <ele>658</ele>
        <time>2017-11-06T21:23:37Z</time>
      </trkpt>
      <trkpt lat="46.16876" lon="4.48914">
        <ele>658</ele>
        <time>2017-11-06T21:25:37Z</time>
      </trkpt>
      <trkpt lat="46.16874" lon="4.48921">
        <ele>658</ele>
        <time>2017-11-06T21:27:37Z</time>
      </trkpt>
      <trkpt lat="46.1687" lon="4.48934">
        <ele>658</ele>
        <time>2017-11-06T21:29:37Z</time>
      </trkpt>
      <trkpt lat="46.16864" lon="4.48963">
        <ele>659</ele>
        <time>2017-11-06T21:31:37Z</time>
      </trkpt>
      <trkpt lat="46.16862" lon="4.4898">
        <ele>659</ele>
        <time>2017-11-06T21:33:37Z</time>
      </trkpt>
      <trkpt lat="46.16861" lon="4.48999">
        <ele>660</ele>
        <time>2017-11-06T21:35:37Z</time>
      </trkpt>
      <trkpt lat="46.16861" lon="4.4902">
        <ele>660</ele>
        <time>2017-11-06T21:37:37Z</time>
      </trkpt>
      <trkpt lat="46.16863" lon="4.49041">
        <ele>661</ele>
        <time>2017-11-06T21:39:37Z</time>
      </trkpt>
      <trkpt lat="46.16865" lon="4.49058">
        <ele>661</ele>
        <time>2017-11-06T21:41:37Z</time>
      </trkpt>
      <trkpt lat="46.1687" lon="4.49077">
        <ele>662</ele>
        <time>2017-11-06T21:43:37Z</time>
      </trkpt>
      <trkpt lat="46.16882" lon="4.49125">
        <ele>662</ele>
        <time>2017-11-06T21:45:37Z</time>
      </trkpt>
      <trkpt lat="46.16884" lon="4.49133">
        <ele>661</ele>
        <time>2017-11-06T21:47:37Z</time>
      </trkpt>
      <trkpt lat="46.16887" lon="4.49144">
        <ele>661</ele>
        <time>2017-11-06T21:49:37Z</time>
      </trkpt>
      <trkpt lat="46.16887" lon="4.49144">
        <ele>661</ele>
        <time>2017-11-06T21:51:37Z</time>
      </trkpt>
      <trkpt lat="46.16904" lon="4.49152">
        <ele>660</ele>
        <time>2017-11-06T21:53:37Z</time>
      </trkpt>
      <trkpt lat="46.16911" lon="4.49154">
        <ele>660</ele>
        <time>2017-11-06T21:55:37Z</time>
      </trkpt>
      <trkpt lat="46.1692" lon="4.49156">
        <ele>659</ele>
        <time>2017-11-06T21:57:37Z</time>
      </trkpt>
      <trkpt lat="46.16928" lon="4.4916">
        <ele>660</ele>
        <time>2017-11-06T21:59:37Z</time>
      </trkpt>
      <trkpt lat="46.16996" lon="4.49206">
        <ele>657</ele>
        <time>2017-11-06T22:01:37Z</time>
      </trkpt>
      <trkpt lat="46.17025" lon="4.49224">
        <ele>658</ele>
        <time>2017-11-06T22:03:37Z</time>
      </trkpt>
      <trkpt lat="46.17027" lon="4.49225">
        <ele>658</ele>
        <time>2017-11-06T22:05:37Z</time>
      </trkpt>
      <trkpt lat="46.1706" lon="4.49244">
        <ele>660</ele>
        <time>2017-11-06T22:07:37Z</time>
      </trkpt>
      <trkpt lat="46.17082" lon="4.49266">
        <ele>659</ele>
        <time>2017-11-06T22:09:37Z</time>
      </trkpt>
      <trkpt lat="46.17127" lon="4.49318">
        <ele>659</ele>
        <time>2017-11-06T22:11:37Z</time>
      </trkpt>
      <trkpt lat="46.17145" lon="4.4934">
        <ele>658</ele>
        <time>2017-11-06T22:13:37Z</time>
      </trkpt>
      <trkpt lat="46.17159" lon="4.49361">
        <ele>656</ele>
        <time>2017-11-06T22:15:37Z</time>
      </trkpt>
      <trkpt lat="46.17167" lon="4.4938">
        <ele>654</ele>
        <time>2017-11-06T22:17:37Z</time>
      </trkpt>
      <trkpt lat="46.17174" lon="4.49405">
        <ele>651</ele>
        <time>2017-11-06T22:19:37Z</time>
      </trkpt>
      <trkpt lat="46.172" lon="4.49469">
        <ele>647</ele>
        <time>2017-11-06T22:21:37Z</time>
      </trkpt>
      <trkpt lat="46.17217" lon="4.49508">
        <ele>644</ele>
        <time>2017-11-06T22:23:37Z</time>
      </trkpt>
      <trkpt lat="46.17222" lon="4.49519">
        <ele>643</ele>
        <time>2017-11-06T22:25:37Z</time>
      </trkpt>
      <trkpt lat="46.1723" lon="4.49528">
        <ele>642</ele>
        <time>2017-11-06T22:27:37Z</time>
      </trkpt>
      <trkpt lat="46.17237" lon="4.49534">
        <ele>642</ele>
        <time>2017-11-06T22:29:37Z</time>
      </trkpt>
      <trkpt lat="46.17254" lon="4.49543">
        <ele>644</ele>
        <time>2017-11-06T22:31:37Z</time>
      </trkpt>
      <trkpt lat="46.17268" lon="4.49554">
        <ele>645</ele>
        <time>2017-11-06T22:33:37Z</time>
      </trkpt>
      <trkpt lat="46.17274" lon="4.49561">
        <ele>645</ele>
        <time>2017-11-06T22:35:37Z</time>
      </trkpt>
      <trkpt lat="46.17277" lon="4.49567">
        <ele>645</ele>
        <time>2017-11-06T22:37:37Z</time>
      </trkpt>
      <trkpt lat="46.1728" lon="4.49576">
        <ele>644</ele>
        <time>2017-11-06T22:39:37Z</time>
      </trkpt>
      <trkpt lat="46.17283" lon="4.49587">
        <ele>643</ele>
        <time>2017-11-06T22:41:37Z</time>
      </trkpt>
      <trkpt lat="46.17285" lon="4.49598">
        <ele>643</ele>
        <time>2017-11-06T22:43:37Z</time>
      </trkpt>
      <trkpt lat="46.17295" lon="4.49671">
        <ele>640</ele>
        <time>2017-11-06T22:45:37Z</time>
      </trkpt>
      <trkpt lat="46.17297" lon="4.49685">
        <ele>639</ele>
        <time>2017-11-06T22:47:37Z</time>
      </trkpt>
      <trkpt lat="46.173" lon="4.49698">
        <ele>639</ele>
        <time>2017-11-06T22:49:37Z</time>
      </trkpt>
      <trkpt lat="46.17303" lon="4.49709">
        <ele>638</ele>
        <time>2017-11-06T22:51:37Z</time>
      </trkpt>
      <trkpt lat="46.17308" lon="4.49722">
        <ele>638</ele>
        <time>2017-11-06T22:53:37Z</time>
      </trkpt>
      <trkpt lat="46.17323" lon="4.4976">
        <ele>637</ele>
        <time>2017-11-06T22:55:37Z</time>
      </trkpt>
      <trkpt lat="46.17328" lon="4.49769">
        <ele>637</ele>
        <time>2017-11-06T22:57:37Z</time>
      </trkpt>
      <trkpt lat="46.17343" lon="4.49793">
        <ele>638</ele>
        <time>2017-11-06T22:59:37Z</time>
      </trkpt>
      <trkpt lat="46.17368" lon="4.49831">
        <ele>639</ele>
        <time>2017-11-06T23:01:37Z</time>
      </trkpt>
      <trkpt lat="46.17396" lon="4.49858">
        <ele>639</ele>
        <time>2017-11-06T23:03:37Z</time>
      </trkpt>
      <trkpt lat="46.17407" lon="4.49864">
        <ele>640</ele>
        <time>2017-11-06T23:05:37Z</time>
      </trkpt>
      <trkpt lat="46.17424" lon="4.4987">
        <ele>641</ele>
        <time>2017-11-06T23:07:37Z</time>
      </trkpt>
      <trkpt lat="46.17448" lon="4.49878">
        <ele>640</ele>
        <time>2017-11-06T23:09:37Z</time>
      </trkpt>
      <trkpt lat="46.17475" lon="4.49889">
        <ele>640</ele>
        <time>2017-11-06T23:11:37Z</time>
      </trkpt>
      <trkpt lat="46.17482" lon="4.49892">
        <ele>639</ele>
        <time>2017-11-06T23:13:37Z</time>
      </trkpt>
      <trkpt lat="46.17494" lon="4.49899">
        <ele>638</ele>
        <time>2017-11-06T23:15:37Z</time>
      </trkpt>
      <trkpt lat="46.17506" lon="4.49905">
        <ele>638</ele>
        <time>2017-11-06T23:17:37Z</time>
      </trkpt>
      <trkpt lat="46.17515" lon="4.49911">
        <ele>636</ele>
        <time>2017-11-06T23:19:37Z</time>
      </trkpt>
      <trkpt lat="46.17526" lon="4.49922">
        <ele>635</ele>
        <time>2017-11-06T23:21:37Z</time>
      </trkpt>
      <trkpt lat="46.17528" lon="4.49924">
        <ele>635</ele>
        <time>2017-11-06T23:23:37Z</time>
      </trkpt>
      <trkpt lat="46.17538" lon="4.49938">
        <ele>634</ele>
        <time>2017-11-06T23:25:37Z</time>
      </trkpt>
      <trkpt lat="46.17544" lon="4.49948">
        <ele>634</ele>
        <time>2017-11-06T23:27:37Z</time>
      </trkpt>
      <trkpt lat="46.17548" lon="4.49955">
        <ele>633</ele>
        <time>2017-11-06T23:29:37Z</time>
      </trkpt>
      <trkpt lat="46.17564" lon="4.49988">
        <ele>632</ele>
        <time>2017-11-06T23:31:37Z</time>
      </trkpt>
      <trkpt lat="46.17574" lon="4.50017">
        <ele>632</ele>
        <time>2017-11-06T23:33:37Z</time>
      </trkpt>
      <trkpt lat="46.17584" lon="4.5005">
        <ele>633</ele>
        <time>2017-11-06T23:35:37Z</time>
      </trkpt>
      <trkpt lat="46.17591" lon="4.50071">
        <ele>633</ele>
        <time>2017-11-06T23:37:37Z</time>
      </trkpt>
      <trkpt lat="46.17604" lon="4.50109">
        <ele>632</ele>
        <time>2017-11-06T23:39:37Z</time>
      </trkpt>
      <trkpt lat="46.17617" lon="4.5014">
        <ele>630</ele>
        <time>2017-11-06T23:41:37Z</time>
      </trkpt>
      <trkpt lat="46.17632" lon="4.50166">
        <ele>630</ele>
        <time>2017-11-06T23:43:37Z</time>
      </trkpt>
      <trkpt lat="46.17662" lon="4.5021">
        <ele>626</ele>
        <time>2017-11-06T23:45:37Z</time>
      </trkpt>
      <trkpt lat="46.17676" lon="4.50236">
        <ele>623</ele>
        <time>2017-11-06T23:47:37Z</time>
      </trkpt>
      <trkpt lat="46.17702" lon="4.50275">
        <ele>621</ele>
        <time>2017-11-06T23:49:37Z</time>
      </trkpt>
      <trkpt lat="46.17712" lon="4.50292">
        <ele>620</ele>
        <time>2017-11-06T23:51:37Z</time>
      </trkpt>
      <trkpt lat="46.17732" lon="4.50322">
        <ele>619</ele>
        <time>2017-11-06T23:53:37Z</time>
      </trkpt>
      <trkpt lat="46.17797" lon="4.50392">
        <ele>615</ele>
        <time>2017-11-06T23:55:37Z</time>
      </trkpt>
      <trkpt lat="46.17797" lon="4.50392">
        <ele>615</ele>
        <time>2017-11-06T23:57:37Z</time>
      </trkpt>
      <trkpt lat="46.17807" lon="4.50409">
        <ele>614</ele>
        <time>2017-11-06T23:59:37Z</time>
      </trkpt>
      <trkpt lat="46.17825" lon="4.5044">
        <ele>611</ele>
        <time>2017-11-07T00:01:37Z</time>
      </trkpt>
      <trkpt lat="46.1788" lon="4.50518">
        <ele>601</ele>
        <time>2017-11-07T00:03:37Z</time>
      </trkpt>
      <trkpt lat="46.17899" lon="4.50539">
        <ele>599</ele>
        <time>2017-11-07T00:05:37Z</time>
      </trkpt>
      <trkpt lat="46.17928" lon="4.50568">
        <ele>597</ele>
        <time>2017-11-07T00:07:37Z</time>
      </trkpt>
      <trkpt lat="46.17941" lon="4.50582">
        <ele>594</ele>
        <time>2017-11-07T00:09:37Z</time>
      </trkpt>
      <trkpt lat="46.17964" lon="4.50609">
        <ele>589</ele>
        <time>2017-11-07T00:11:37Z</time>
      </trkpt>
      <trkpt lat="46.18026" lon="4.50686">
        <ele>580</ele>
        <time>2017-11-07T00:13:37Z</time>
      </trkpt>
      <trkpt lat="46.18041" lon="4.50703">
        <ele>578</ele>
        <time>2017-11-07T00:15:37Z</time>
      </trkpt>
      <trkpt lat="46.1805" lon="4.50709">
        <ele>577</ele>
        <time>2017-11-07T00:17:37Z</time>
      </trkpt>
      <trkpt lat="46.18059" lon="4.50713">
        <ele>575</ele>
        <time>2017-11-07T00:19:37Z</time>
      </trkpt>
      <trkpt lat="46.18069" lon="4.50719">
        <ele>574</ele>
        <time>2017-11-07T00:21:37Z</time>
      </trkpt>
      <trkpt lat="46.18088" lon="4.50734">
        <ele>572</ele>
        <time>2017-11-07T00:23:37Z</time>
      </trkpt>
      <trkpt lat="46.18132" lon="4.50771">
        <ele>575</ele>
        <time>2017-11-07T00:25:37Z</time>
      </trkpt>
      <trkpt lat="46.18175" lon="4.50812">
        <ele>576</ele>
        <time>2017-11-07T00:27:37Z</time>
      </trkpt>
      <trkpt lat="46.18175" lon="4.50812">
        <ele>576</ele>
        <time>2017-11-07T00:29:37Z</time>
      </trkpt>
      <trkpt lat="46.18163" lon="4.50789">
        <ele>576</ele>
        <time>2017-11-07T00:31:37Z</time>
      </trkpt>
      <trkpt lat="46.18157" lon="4.50769">
        <ele>577</ele>
        <time>2017-11-07T00:33:37Z</time>
      </trkpt>
      <trkpt lat="46.18152" lon="4.50739">
        <ele>577</ele>
        <time>2017-11-07T00:35:37Z</time>
      </trkpt>
      <trkpt lat="46.1815" lon="4.50726">
        <ele>577</ele>
        <time>2017-11-07T00:37:37Z</time>
      </trkpt>
      <trkpt lat="46.18149" lon="4.50708">
        <ele>577</ele>
        <time>2017-11-07T00:39:37Z</time>
      </trkpt>
      <trkpt lat="46.18148" lon="4.50677">
        <ele>578</ele>
        <time>2017-11-07T00:41:37Z</time>
      </trkpt>
      <trkpt lat="46.18145" lon="4.50314">
        <ele>591</ele>
        <time>2017-11-07T00:43:37Z</time>
      </trkpt>
      <trkpt lat="46.18143" lon="4.50252">
        <ele>596</ele>
        <time>2017-11-07T00:45:37Z</time>
      </trkpt>
      <trkpt lat="46.18142" lon="4.50203">
        <ele>598</ele>
        <time>2017-11-07T00:47:37Z</time>
      </trkpt>
      <trkpt lat="46.18141" lon="4.50187">
        <ele>599</ele>
        <time>2017-11-07T00:49:37Z</time>
      </trkpt>
      <trkpt lat="46.18137" lon="4.50168">
        <ele>599</ele>
        <time>2017-11-07T00:51:37Z</time>
      </trkpt>
      <trkpt lat="46.18134" lon="4.50158">
        <ele>599</ele>
        <time>2017-11-07T00:53:37Z</time>
      </trkpt>
      <trkpt lat="46.18131" lon="4.50152">
        <ele>600</ele>
        <time>2017-11-07T00:55:37Z</time>
      </trkpt>
      <trkpt lat="46.18124" lon="4.50142">
        <ele>600</ele>
        <time>2017-11-07T00:57:37Z</time>
      </trkpt>
      <trkpt lat="46.18124" lon="4.50142">
        <ele>600</ele>
        <time>2017-11-07T00:59:37Z</time>
      </trkpt>
      <trkpt lat="46.1813" lon="4.50138">
        <ele>600</ele>
        <time>2017-11-07T01:01:37Z</time>
      </trkpt>
      <trkpt lat="46.18133" lon="4.50138">
        <ele>600</ele>
        <time>2017-11-07T01:03:37Z</time>
      </trkpt>
      <trkpt lat="46.18137" lon="4.50138">
        <ele>600</ele>
        <time>2017-11-07T01:05:37Z</time>
      </trkpt>
      <trkpt lat="46.18139" lon="4.50139">
        <ele>601</ele>
        <time>2017-11-07T01:07:37Z</time>
      </trkpt>
      <trkpt lat="46.18141" lon="4.5014">
        <ele>601</ele>
        <time>2017-11-07T01:09:37Z</time>
      </trkpt>
      <trkpt lat="46.18143" lon="4.50144">
        <ele>601</ele>
        <time>2017-11-07T01:11:37Z</time>
      </trkpt>
      <trkpt lat="46.18158" lon="4.5017">
        <ele>600</ele>
        <time>2017-11-07T01:13:37Z</time>
      </trkpt>
      <trkpt lat="46.18168" lon="4.50193">
        <ele>600</ele>
        <time>2017-11-07T01:15:37Z</time>
      </trkpt>
      <trkpt lat="46.18172" lon="4.50202">
        <ele>601</ele>
        <time>2017-11-07T01:17:37Z</time>
      </trkpt>
      <trkpt lat="46.18198" lon="4.50276">
        <ele>603</ele>
        <time>2017-11-07T01:19:37Z</time>
      </trkpt>
      <trkpt lat="46.18207" lon="4.503">
        <ele>602</ele>
        <time>2017-11-07T01:21:37Z</time>
      </trkpt>
      <trkpt lat="46.18211" lon="4.50305">
        <ele>603</ele>
        <time>2017-11-07T01:23:37Z</time>
      </trkpt>
      <trkpt lat="46.18212" lon="4.50307">
        <ele>603</ele>
        <time>2017-11-07T01:25:37Z</time>
      </trkpt>
      <trkpt lat="46.18213" lon="4.50308">
        <ele>603</ele>
        <time>2017-11-07T01:27:37Z</time>
      </trkpt>
      <trkpt lat="46.18214" lon="4.50308">
        <ele>603</ele>
        <time>2017-11-07T01:29:37Z</time>
      </trkpt>
      <trkpt lat="46.18215" lon="4.50308">
        <ele>603</ele>
        <time>2017-11-07T01:31:37Z</time>
      </trkpt>
      <trkpt lat="46.18217" lon="4.50308">
        <ele>604</ele>
        <time>2017-11-07T01:33:37Z</time>
      </trkpt>
      <trkpt lat="46.18219" lon="4.50308">
        <ele>604</ele>
        <time>2017-11-07T01:35:37Z</time>
      </trkpt>
      <trkpt lat="46.1822" lon="4.50307">
        <ele>604</ele>
        <time>2017-11-07T01:37:37Z</time>
      </trkpt>
      <trkpt lat="46.18221" lon="4.50306">
        <ele>605</ele>
        <time>2017-11-07T01:39:37Z</time>
      </trkpt>
      <trkpt lat="46.18221" lon="4.50305">
        <ele>605</ele>
        <time>2017-11-07T01:41:37Z</time>
      </trkpt>
      <trkpt lat="46.18222" lon="4.50303">
        <ele>605</ele>
        <time>2017-11-07T01:43:37Z</time>
      </trkpt>
      <trkpt lat="46.18216" lon="4.50281">
        <ele>606</ele>
        <time>2017-11-07T01:45:37Z</time>
      </trkpt>
      <trkpt lat="46.18216" lon="4.50278">
        <ele>606</ele>
        <time>2017-11-07T01:47:37Z</time>
      </trkpt>
      <trkpt lat="46.18216" lon="4.50274">
        <ele>607</ele>
        <time>2017-11-07T01:49:37Z</time>
      </trkpt>
      <trkpt lat="46.18217" lon="4.50271">
        <ele>607</ele>
        <time>2017-11-07T01:51:37Z</time>
      </trkpt>
      <trkpt lat="46.18217" lon="4.5027">
        <ele>608</ele>
        <time>2017-11-07T01:53:37Z</time>
      </trkpt>
      <trkpt lat="46.18218" lon="4.50268">
        <ele>608</ele>
        <time>2017-11-07T01:55:37Z</time>
      </trkpt>
      <trkpt lat="46.18219" lon="4.50267">
        <ele>608</ele>
        <time>2017-11-07T01:57:37Z</time>
      </trkpt>
      <trkpt lat="46.18222" lon="4.50266">
        <ele>609</ele>
        <time>2017-11-07T01:59:37Z</time>
      </trkpt>
      <trkpt lat="46.18224" lon="4.50266">
        <ele>609</ele>
        <time>2017-11-07T02:01:37Z</time>
      </trkpt>
      <trkpt lat="46.18224" lon="4.50266">
        <ele>609</ele>
        <time>2017-11-07T02:03:37Z</time>
      </trkpt>
      <trkpt lat="46.18242" lon="4.50287">
        <ele>611</ele>
        <time>2017-11-07T02:05:37Z</time>
      </trkpt>
      <trkpt lat="46.18242" lon="4.50287">
        <ele>611</ele>
        <time>2017-11-07T02:07:37Z</time>
      </trkpt>
      <trkpt lat="46.18224" lon="4.50266">
        <ele>609</ele>
        <time>2017-11-07T02:09:37Z</time>
      </trkpt>
      <trkpt lat="46.18224" lon="4.50266">
        <ele>609</ele>
        <time>2017-11-07T02:11:37Z</time>
      </trkpt>
      <trkpt lat="46.18222" lon="4.50266">
        <ele>609</ele>
        <time>2017-11-07T02:13:37Z</time>
      </trkpt>
      <trkpt lat="46.18219" lon="4.50267">
        <ele>608</ele>
        <time>2017-11-07T02:15:37Z</time>
      </trkpt>
      <trkpt lat="46.18218" lon="4.50268">
        <ele>608</ele>
        <time>2017-11-07T02:17:37Z</time>
      </trkpt>
      <trkpt lat="46.18217" lon="4.5027">
        <ele>608</ele>
        <time>2017-11-07T02:19:37Z</time>
      </trkpt>
      <trkpt lat="46.18217" lon="4.50271">
        <ele>607</ele>
        <time>2017-11-07T02:21:37Z</time>
      </trkpt>
      <trkpt lat="46.18216" lon="4.50274">
        <ele>607</ele>
        <time>2017-11-07T02:23:37Z</time>
      </trkpt>
      <trkpt lat="46.18216" lon="4.50278">
        <ele>606</ele>
        <time>2017-11-07T02:25:37Z</time>
      </trkpt>
      <trkpt lat="46.18216" lon="4.50281">
        <ele>606</ele>
        <time>2017-11-07T02:27:37Z</time>
      </trkpt>
      <trkpt lat="46.18222" lon="4.50303">
        <ele>605</ele>
        <time>2017-11-07T02:29:37Z</time>
      </trkpt>
      <trkpt lat="46.18221" lon="4.50305">
        <ele>605</ele>
        <time>2017-11-07T02:31:37Z</time>
      </trkpt>
      <trkpt lat="46.18221" lon="4.50306">
        <ele>605</ele>
        <time>2017-11-07T02:33:37Z</time>
      </trkpt>
      <trkpt lat="46.1822" lon="4.50307">
        <ele>604</ele>
        <time>2017-11-07T02:35:37Z</time>
      </trkpt>
      <trkpt lat="46.18219" lon="4.50308">
        <ele>604</ele>
        <time>2017-11-07T02:37:37Z</time>
      </trkpt>
      <trkpt lat="46.18217" lon="4.50308">
        <ele>604</ele>
        <time>2017-11-07T02:39:37Z</time>
      </trkpt>
      <trkpt lat="46.18215" lon="4.50308">
        <ele>603</ele>
        <time>2017-11-07T02:41:37Z</time>
      </trkpt>
      <trkpt lat="46.18214" lon="4.50308">
        <ele>603</ele>
        <time>2017-11-07T02:43:37Z</time>
      </trkpt>
      <trkpt lat="46.18213" lon="4.50308">
        <ele>603</ele>
        <time>2017-11-07T02:45:37Z</time>
      </trkpt>
      <trkpt lat="46.18212" lon="4.50307">
        <ele>603</ele>
        <time>2017-11-07T02:47:37Z</time>
      </trkpt>
      <trkpt lat="46.18211" lon="4.50305">
        <ele>603</ele>
        <time>2017-11-07T02:49:37Z</time>
      </trkpt>
      <trkpt lat="46.18207" lon="4.503">
        <ele>602</ele>
        <time>2017-11-07T02:51:37Z</time>
      </trkpt>
      <trkpt lat="46.18198" lon="4.50276">
        <ele>603</ele>
        <time>2017-11-07T02:53:37Z</time>
      </trkpt>
      <trkpt lat="46.18172" lon="4.50202">
        <ele>601</ele>
        <time>2017-11-07T02:55:37Z</time>
      </trkpt>
      <trkpt lat="46.18168" lon="4.50193">
        <ele>600</ele>
        <time>2017-11-07T02:57:37Z</time>
      </trkpt>
      <trkpt lat="46.18158" lon="4.5017">
        <ele>600</ele>
        <time>2017-11-07T02:59:37Z</time>
      </trkpt>
      <trkpt lat="46.18143" lon="4.50144">
        <ele>601</ele>
        <time>2017-11-07T03:01:37Z</time>
      </trkpt>
      <trkpt lat="46.18141" lon="4.5014">
        <ele>601</ele>
        <time>2017-11-07T03:03:37Z</time>
      </trkpt>
      <trkpt lat="46.18139" lon="4.50139">
        <ele>601</ele>
        <time>2017-11-07T03:05:37Z</time>
      </trkpt>
      <trkpt lat="46.18137" lon="4.50138">
        <ele>600</ele>
        <time>2017-11-07T03:07:37Z</time>
      </trkpt>
      <trkpt lat="46.18133" lon="4.50138">
        <ele>600</ele>
        <time>2017-11-07T03:09:37Z</time>
      </trkpt>
      <trkpt lat="46.1813" lon="4.50138">
        <ele>600</ele>
        <time>2017-11-07T03:11:37Z</time>
      </trkpt>
      <trkpt lat="46.18124" lon="4.50142">
        <ele>600</ele>
        <time>2017-11-07T03:13:37Z</time>
      </trkpt>
      <trkpt lat="46.18124" lon="4.50142">
        <ele>600</ele>
        <time>2017-11-07T03:15:37Z</time>
      </trkpt>
      <trkpt lat="46.18131" lon="4.50152">
        <ele>600</ele>
        <time>2017-11-07T03:17:37Z</time>
      </trkpt>
      <trkpt lat="46.18134" lon="4.50158">
        <ele>599</ele>
        <time>2017-11-07T03:19:37Z</time>
      </trkpt>
      <trkpt lat="46.18137" lon="4.50168">
        <ele>599</ele>
        <time>2017-11-07T03:21:37Z</time>
      </trkpt>
      <trkpt lat="46.18141" lon="4.50187">
        <ele>599</ele>
        <time>2017-11-07T03:23:37Z</time>
      </trkpt>
      <trkpt lat="46.18142" lon="4.50203">
        <ele>598</ele>
        <time>2017-11-07T03:25:37Z</time>
      </trkpt>
      <trkpt lat="46.18143" lon="4.50252">
        <ele>596</ele>
        <time>2017-11-07T03:27:37Z</time>
      </trkpt>
      <trkpt lat="46.18145" lon="4.50314">
        <ele>591</ele>
        <time>2017-11-07T03:29:37Z</time>
      </trkpt>
      <trkpt lat="46.18148" lon="4.50677">
        <ele>578</ele>
        <time>2017-11-07T03:31:37Z</time>
      </trkpt>
      <trkpt lat="46.18149" lon="4.50708">
        <ele>577</ele>
        <time>2017-11-07T03:33:37Z</time>
      </trkpt>
      <trkpt lat="46.1815" lon="4.50726">
        <ele>577</ele>
        <time>2017-11-07T03:35:37Z</time>
      </trkpt>
      <trkpt lat="46.18152" lon="4.50739">
        <ele>577</ele>
        <time>2017-11-07T03:37:37Z</time>
      </trkpt>
      <trkpt lat="46.18157" lon="4.50769">
        <ele>577</ele>
        <time>2017-11-07T03:39:37Z</time>
      </trkpt>
      <trkpt lat="46.18163" lon="4.50789">
        <ele>576</ele>
        <time>2017-11-07T03:41:37Z</time>
      </trkpt>
      <trkpt lat="46.18175" lon="4.50812">
        <ele>576</ele>
        <time>2017-11-07T03:43:37Z</time>
      </trkpt>
      <trkpt lat="46.18182" lon="4.50825">
        <ele>576</ele>
        <time>2017-11-07T03:45:37Z</time>
      </trkpt>
      <trkpt lat="46.18204" lon="4.50855">
        <ele>574</ele>
        <time>2017-11-07T03:47:37Z</time>
      </trkpt>
      <trkpt lat="46.18224" lon="4.50884">
        <ele>572</ele>
        <time>2017-11-07T03:49:37Z</time>
      </trkpt>
      <trkpt lat="46.18272" lon="4.5095">
        <ele>566</ele>
        <time>2017-11-07T03:51:37Z</time>
      </trkpt>
      <trkpt lat="46.18289" lon="4.50962">
        <ele>565</ele>
        <time>2017-11-07T03:53:37Z</time>
      </trkpt>
      <trkpt lat="46.18295" lon="4.50965">
        <ele>564</ele>
        <time>2017-11-07T03:55:37Z</time>
      </trkpt>
      <trkpt lat="46.18301" lon="4.50967">
        <ele>564</ele>
        <time>2017-11-07T03:57:37Z</time>
      </trkpt>
      <trkpt lat="46.18316" lon="4.5097">
        <ele>563</ele>
        <time>2017-11-07T03:59:37Z</time>
      </trkpt>
      <trkpt lat="46.18354" lon="4.50972">
        <ele>561</ele>
        <time>2017-11-07T04:01:37Z</time>
      </trkpt>
      <trkpt lat="46.18372" lon="4.50972">
        <ele>559</ele>
        <time>2017-11-07T04:03:37Z</time>
      </trkpt>
      <trkpt lat="46.18382" lon="4.50969">
        <ele>559</ele>
        <time>2017-11-07T04:05:37Z</time>
      </trkpt>
      <trkpt lat="46.18391" lon="4.50964">
        <ele>559</ele>
        <time>2017-11-07T04:07:37Z</time>
      </trkpt>
      <trkpt lat="46.18419" lon="4.50935">
        <ele>560</ele>
        <time>2017-11-07T04:09:37Z</time>
      </trkpt>
      <trkpt lat="46.18447" lon="4.50908">
        <ele>561</ele>
        <time>2017-11-07T04:11:37Z</time>
      </trkpt>
      <trkpt lat="46.18455" lon="4.50904">
        <ele>560</ele>
        <time>2017-11-07T04:13:37Z</time>
      </trkpt>
      <trkpt lat="46.18461" lon="4.50902">
        <ele>560</ele>
        <time>2017-11-07T04:15:37Z</time>
      </trkpt>
      <trkpt lat="46.18465" lon="4.50903">
        <ele>560</ele>
        <time>2017-11-07T04:17:37Z</time>
      </trkpt>
      <trkpt lat="46.18477" lon="4.50905">
        <ele>559</ele>
        <time>2017-11-07T04:19:37Z</time>
      </trkpt>
      <trkpt lat="46.18484" lon="4.50907">
        <ele>558</ele>
        <time>2017-11-07T04:21:37Z</time>
      </trkpt>
      <trkpt lat="46.18487" lon="4.50909">
        <ele>558</ele>
        <time>2017-11-07T04:23:37Z</time>
      </trkpt>
      <trkpt lat="46.18491" lon="4.50912">
        <ele>557</ele>
        <time>2017-11-07T04:25:37Z</time>
      </trkpt>
      <trkpt lat="46.18496" lon="4.5092">
        <ele>556</ele>
        <time>2017-11-07T04:27:37Z</time>
      </trkpt>
      <trkpt lat="46.18503" lon="4.50935">
        <ele>555</ele>
        <time>2017-11-07T04:29:37Z</time>
      </trkpt>
      <trkpt lat="46.18525" lon="4.50998">
        <ele>554</ele>
        <time>2017-11-07T04:31:37Z</time>
      </trkpt>
      <trkpt lat="46.18526" lon="4.51">
        <ele>554</ele>
        <time>2017-11-07T04:33:37Z</time>
      </trkpt>
      <trkpt lat="46.18541" lon="4.51054">
        <ele>552</ele>
        <time>2017-11-07T04:35:37Z</time>
      </trkpt>
      <trkpt lat="46.18551" lon="4.51085">
        <ele>552</ele>
        <time>2017-11-07T04:37:37Z</time>
      </trkpt>
      <trkpt lat="46.18562" lon="4.51103">
        <ele>552</ele>
        <time>2017-11-07T04:39:37Z</time>
      </trkpt>
      <trkpt lat="46.18572" lon="4.51117">
        <ele>553</ele>
        <time>2017-11-07T04:41:37Z</time>
      </trkpt>
      <trkpt lat="46.18579" lon="4.51123">
        <ele>554</ele>
        <time>2017-11-07T04:43:37Z</time>
      </trkpt>
      <trkpt lat="46.18593" lon="4.51133">
        <ele>554</ele>
        <time>2017-11-07T04:45:37Z</time>
      </trkpt>
      <trkpt lat="46.18612" lon="4.5114">
        <ele>555</ele>
        <time>2017-11-07T04:47:37Z</time>
      </trkpt>
      <trkpt lat="46.18616" lon="4.51141">
        <ele>556</ele>
        <time>2017-11-07T04:49:37Z</time>
      </trkpt>
      <trkpt lat="46.18622" lon="4.51142">
        <ele>556</ele>
        <time>2017-11-07T04:51:37Z</time>
      </trkpt>
      <trkpt lat="46.1865" lon="4.51146">
        <ele>557</ele>
        <time>2017-11-07T04:53:37Z</time>
      </trkpt>
      <trkpt lat="46.18663" lon="4.51154">
        <ele>558</ele>
        <time>2017-11-07T04:55:37Z</time>
      </trkpt>
      <trkpt lat="46.18677" lon="4.51165">
        <ele>557</ele>
        <time>2017-11-07T04:57:37Z</time>
      </trkpt>
      <trkpt lat="46.18712" lon="4.51199">
        <ele>555</ele>
        <time>2017-11-07T04:59:37Z</time>
      </trkpt>
      <trkpt lat="46.18743" lon="4.51231">
        <ele>554</ele>
        <time>2017-11-07T05:01:37Z</time>
      </trkpt>
      <trkpt lat="46.18758" lon="4.51251">
        <ele>554</ele>
        <time>2017-11-07T05:03:37Z</time>
      </trkpt>
      <trkpt lat="46.18778" lon="4.51283">
        <ele>554</ele>
        <time>2017-11-07T05:05:37Z</time>
      </trkpt>
      <trkpt lat="46.18792" lon="4.51305">
        <ele>553</ele>
        <time>2017-11-07T05:07:37Z</time>
      </trkpt>
      <trkpt lat="46.18806" lon="4.51319">
        <ele>553</ele>
        <time>2017-11-07T05:09:37Z</time>
      </trkpt>
      <trkpt lat="46.18827" lon="4.51336">
        <ele>554</ele>
        <time>2017-11-07T05:11:37Z</time>
      </trkpt>
      <trkpt lat="46.18835" lon="4.5134">
        <ele>555</ele>
        <time>2017-11-07T05:13:37Z</time>
      </trkpt>
      <trkpt lat="46.18844" lon="4.51347">
        <ele>555</ele>
        <time>2017-11-07T05:15:37Z</time>
      </trkpt>
      <trkpt lat="46.18869" lon="4.51366">
        <ele>557</ele>
        <time>2017-11-07T05:17:37Z</time>
      </trkpt>
      <trkpt lat="46.18877" lon="4.51373">
        <ele>558</ele>
        <time>2017-11-07T05:19:37Z</time>
      </trkpt>
      <trkpt lat="46.1891" lon="4.51414">
        <ele>558</ele>
        <time>2017-11-07T05:21:37Z</time>
      </trkpt>
      <trkpt lat="46.18922" lon="4.51427">
        <ele>558</ele>
        <time>2017-11-07T05:23:37Z</time>
      </trkpt>
      <trkpt lat="46.18927" lon="4.51432">
        <ele>557</ele>
        <time>2017-11-07T05:25:37Z</time>
      </trkpt>
      <trkpt lat="46.18941" lon="4.51438">
        <ele>557</ele>
        <time>2017-11-07T05:27:37Z</time>
      </trkpt>
      <trkpt lat="46.18951" lon="4.51439">
        <ele>557</ele>
        <time>2017-11-07T05:29:37Z</time>
      </trkpt>
      <trkpt lat="46.18992" lon="4.51442">
        <ele>559</ele>
        <time>2017-11-07T05:31:37Z</time>
      </trkpt>
      <trkpt lat="46.19001" lon="4.51444">
        <ele>559</ele>
        <time>2017-11-07T05:33:37Z</time>
      </trkpt>
      <trkpt lat="46.19009" lon="4.51448">
        <ele>560</ele>
        <time>2017-11-07T05:35:37Z</time>
      </trkpt>
      <trkpt lat="46.19021" lon="4.51459">
        <ele>560</ele>
        <time>2017-11-07T05:37:37Z</time>
      </trkpt>
      <trkpt lat="46.19029" lon="4.51469">
        <ele>561</ele>
        <time>2017-11-07T05:39:37Z</time>
      </trkpt>
      <trkpt lat="46.19034" lon="4.51478">
        <ele>561</ele>
        <time>2017-11-07T05:41:37Z</time>
      </trkpt>
      <trkpt lat="46.19044" lon="4.51503">
        <ele>561</ele>
        <time>2017-11-07T05:43:37Z</time>
      </trkpt>
      <trkpt lat="46.19053" lon="4.51535">
        <ele>561</ele>
        <time>2017-11-07T05:45:37Z</time>
      </trkpt>
      <trkpt lat="46.19081" lon="4.51622">
        <ele>561</ele>
        <time>2017-11-07T05:47:37Z</time>
      </trkpt>
      <trkpt lat="46.19087" lon="4.51642">
        <ele>561</ele>
        <time>2017-11-07T05:49:37Z</time>
      </trkpt>
      <trkpt lat="46.19096" lon="4.51666">
        <ele>561</ele>
        <time>2017-11-07T05:51:37Z</time>
      </trkpt>
      <trkpt lat="46.19102" lon="4.5168">
        <ele>560</ele>
        <time>2017-11-07T05:53:37Z</time>
      </trkpt>
      <trkpt lat="46.19108" lon="4.51689">
        <ele>560</ele>
        <time>2017-11-07T05:55:37Z</time>
      </trkpt>
      <trkpt lat="46.19116" lon="4.51698">
        <ele>560</ele>
        <time>2017-11-07T05:57:37Z</time>
      </trkpt>
      <trkpt lat="46.19131" lon="4.51707">
        <ele>561</ele>
        <time>2017-11-07T05:59:37Z</time>
      </trkpt>
      <trkpt lat="46.19178" lon="4.51727">
        <ele>564</ele>
        <time>2017-11-07T06:01:37Z</time>
      </trkpt>
      <trkpt lat="46.1919" lon="4.51733">
        <ele>563</ele>
        <time>2017-11-07T06:03:37Z</time>
      </trkpt>
      <trkpt lat="46.19227" lon="4.51752">
        <ele>562</ele>
        <time>2017-11-07T06:05:37Z</time>
      </trkpt>
      <trkpt lat="46.1924" lon="4.51758">
        <ele>562</ele>
        <time>2017-11-07T06:07:37Z</time>
      </trkpt>
      <trkpt lat="46.19292" lon="4.51774">
        <ele>562</ele>
        <time>2017-11-07T06:09:37Z</time>
      </trkpt>
      <trkpt lat="46.1933" lon="4.51787">
        <ele>563</ele>
        <time>2017-11-07T06:11:37Z</time>
      </trkpt>
      <trkpt lat="46.19343" lon="4.51794">
        <ele>563</ele>
        <time>2017-11-07T06:13:37Z</time>
      </trkpt>
      <trkpt lat="46.19353" lon="4.51807">
        <ele>562</ele>
        <time>2017-11-07T06:15:37Z</time>
      </trkpt>
      <trkpt lat="46.1936" lon="4.51822">
        <ele>560</ele>
        <time>2017-11-07T06:17:37Z</time>
      </trkpt>
      <trkpt lat="46.19366" lon="4.51835">
        <ele>559</ele>
        <time>2017-11-07T06:19:37Z</time>
      </trkpt>
      <trkpt lat="46.19367" lon="4.51844">
        <ele>559</ele>
        <time>2017-11-07T06:21:37Z</time>
      </trkpt>
      <trkpt lat="46.1937" lon="4.51866">
        <ele>560</ele>
        <time>2017-11-07T06:23:37Z</time>
      </trkpt>
      <trkpt lat="46.19373" lon="4.51906">
        <ele>560</ele>
        <time>2017-11-07T06:25:37Z</time>
      </trkpt>
      <trkpt lat="46.19375" lon="4.51917">
        <ele>561</ele>
        <time>2017-11-07T06:27:37Z</time>
      </trkpt>
      <trkpt lat="46.1938" lon="4.51941">
        <ele>562</ele>
        <time>2017-11-07T06:29:37Z</time>
      </trkpt>
      <trkpt lat="46.19383" lon="4.51949">
        <ele>562</ele>
        <time>2017-11-07T06:31:37Z</time>
      </trkpt>
      <trkpt lat="46.19386" lon="4.51956">
        <ele>563</ele>
        <time>2017-11-07T06:33:37Z</time>
      </trkpt>
      <trkpt lat="46.19393" lon="4.51973">
        <ele>564</ele>
        <time>2017-11-07T06:35:37Z</time>
      </trkpt>
      <trkpt lat="46.19402" lon="4.51987">
        <ele>566</ele>
        <time>2017-11-07T06:37:37Z</time>
      </trkpt>
      <trkpt lat="46.19409" lon="4.51996">
        <ele>567</ele>
        <time>2017-11-07T06:39:37Z</time>
      </trkpt>
      <trkpt lat="46.19421" lon="4.52007">
        <ele>568</ele>
        <time>2017-11-07T06:41:37Z</time>
      </trkpt>
      <trkpt lat="46.19434" lon="4.52015">
        <ele>568</ele>
        <time>2017-11-07T06:43:37Z</time>
      </trkpt>
      <trkpt lat="46.19442" lon="4.5202">
        <ele>568</ele>
        <time>2017-11-07T06:45:37Z</time>
      </trkpt>
      <trkpt lat="46.19451" lon="4.52022">
        <ele>568</ele>
        <time>2017-11-07T06:47:37Z</time>
      </trkpt>
      <trkpt lat="46.19458" lon="4.52023">
        <ele>568</ele>
        <time>2017-11-07T06:49:37Z</time>
      </trkpt>
      <trkpt lat="46.19466" lon="4.52024">
        <ele>568</ele>
        <time>2017-11-07T06:51:37Z</time>
      </trkpt>
      <trkpt lat="46.19477" lon="4.52022">
        <ele>568</ele>
        <time>2017-11-07T06:53:37Z</time>
      </trkpt>
      <trkpt lat="46.19488" lon="4.5202">
        <ele>569</ele>
        <time>2017-11-07T06:55:37Z</time>
      </trkpt>
      <trkpt lat="46.19547" lon="4.51995">
        <ele>576</ele>
        <time>2017-11-07T06:57:37Z</time>
      </trkpt>
      <trkpt lat="46.19566" lon="4.51988">
        <ele>578</ele>
        <time>2017-11-07T06:59:37Z</time>
      </trkpt>
      <trkpt lat="46.19614" lon="4.51976">
        <ele>583</ele>
        <time>2017-11-07T07:01:37Z</time>
      </trkpt>
      <trkpt lat="46.19682" lon="4.51962">
        <ele>589</ele>
        <time>2017-11-07T07:03:37Z</time>
      </trkpt>
      <trkpt lat="46.19697" lon="4.51964">
        <ele>589</ele>
        <time>2017-11-07T07:05:37Z</time>
      </trkpt>
      <trkpt lat="46.19705" lon="4.51966">
        <ele>589</ele>
        <time>2017-11-07T07:07:37Z</time>
      </trkpt>
      <trkpt lat="46.19716" lon="4.51974">
        <ele>588</ele>
        <time>2017-11-07T07:09:37Z</time>
      </trkpt>
      <trkpt lat="46.19722" lon="4.5198">
        <ele>586</ele>
        <time>2017-11-07T07:11:37Z</time>
      </trkpt>
      <trkpt lat="46.1973" lon="4.51994">
        <ele>583</ele>
        <time>2017-11-07T07:13:37Z</time>
      </trkpt>
      <trkpt lat="46.19736" lon="4.52012">
        <ele>582</ele>
        <time>2017-11-07T07:15:37Z</time>
      </trkpt>
      <trkpt lat="46.19738" lon="4.52023">
        <ele>582</ele>
        <time>2017-11-07T07:17:37Z</time>
      </trkpt>
      <trkpt lat="46.19745" lon="4.52069">
        <ele>582</ele>
        <time>2017-11-07T07:19:37Z</time>
      </trkpt>
      <trkpt lat="46.19749" lon="4.52096">
        <ele>583</ele>
        <time>2017-11-07T07:21:37Z</time>
      </trkpt>
      <trkpt lat="46.19752" lon="4.52129">
        <ele>583</ele>
        <time>2017-11-07T07:23:37Z</time>
      </trkpt>
      <trkpt lat="46.19753" lon="4.52144">
        <ele>583</ele>
        <time>2017-11-07T07:25:37Z</time>
      </trkpt>
      <trkpt lat="46.19753" lon="4.52178">
        <ele>582</ele>
        <time>2017-11-07T07:27:37Z</time>
      </trkpt>
      <trkpt lat="46.19754" lon="4.52205">
        <ele>582</ele>
        <time>2017-11-07T07:29:37Z</time>
      </trkpt>
      <trkpt lat="46.19757" lon="4.52223">
        <ele>583</ele>
        <time>2017-11-07T07:31:37Z</time>
      </trkpt>
      <trkpt lat="46.19762" lon="4.52246">
        <ele>583</ele>
        <time>2017-11-07T07:33:37Z</time>
      </trkpt>
      <trkpt lat="46.19769" lon="4.52272">
        <ele>585</ele>
        <time>2017-11-07T07:35:37Z</time>
      </trkpt>
      <trkpt lat="46.19777" lon="4.52314">
        <ele>586</ele>
        <time>2017-11-07T07:37:37Z</time>
      </trkpt>
      <trkpt lat="46.1979" lon="4.52413">
        <ele>589</ele>
        <time>2017-11-07T07:39:37Z</time>
      </trkpt>
      <trkpt lat="46.19798" lon="4.52498">
        <ele>591</ele>
        <time>2017-11-07T07:41:37Z</time>
      </trkpt>
      <trkpt lat="46.19801" lon="4.52531">
        <ele>593</ele>
        <time>2017-11-07T07:43:37Z</time>
      </trkpt>
      <trkpt lat="46.19802" lon="4.52552">
        <ele>594</ele>
        <time>2017-11-07T07:45:37Z</time>
      </trkpt>
      <trkpt lat="46.19802" lon="4.52576">
        <ele>595</ele>
        <time>2017-11-07T07:47:37Z</time>
      </trkpt>
      <trkpt lat="46.19798" lon="4.52659">
        <ele>596</ele>
        <time>2017-11-07T07:49:37Z</time>
      </trkpt>
      <trkpt lat="46.19788" lon="4.52774">
        <ele>594</ele>
        <time>2017-11-07T07:51:37Z</time>
      </trkpt>
      <trkpt lat="46.19786" lon="4.52809">
        <ele>595</ele>
        <time>2017-11-07T07:53:37Z</time>
      </trkpt>
      <trkpt lat="46.19785" lon="4.52817">
        <ele>595</ele>
        <time>2017-11-07T07:55:37Z</time>
      </trkpt>
      <trkpt lat="46.19783" lon="4.52887">
        <ele>598</ele>
        <time>2017-11-07T07:57:37Z</time>
      </trkpt>
      <trkpt lat="46.19784" lon="4.52917">
        <ele>600</ele>
        <time>2017-11-07T07:59:37Z</time>
      </trkpt>
      <trkpt lat="46.19786" lon="4.52954">
        <ele>601</ele>
        <time>2017-11-07T08:01:37Z</time>
      </trkpt>
      <trkpt lat="46.1979" lon="4.52976">
        <ele>603</ele>
        <time>2017-11-07T08:03:37Z</time>
      </trkpt>
      <trkpt lat="46.19791" lon="4.52982">
        <ele>603</ele>
        <time>2017-11-07T08:05:37Z</time>
      </trkpt>
      <trkpt lat="46.198" lon="4.53024">
        <ele>605</ele>
        <time>2017-11-07T08:07:37Z</time>
      </trkpt>
      <trkpt lat="46.19809" lon="4.53057">
        <ele>607</ele>
        <time>2017-11-07T08:09:37Z</time>
      </trkpt>
      <trkpt lat="46.19817" lon="4.5308">
        <ele>609</ele>
        <time>2017-11-07T08:11:37Z</time>
      </trkpt>
      <trkpt lat="46.19829" lon="4.53105">
        <ele>609</ele>
        <time>2017-11-07T08:13:37Z</time>
      </trkpt>
      <trkpt lat="46.1984" lon="4.53124">
        <ele>609</ele>
        <time>2017-11-07T08:15:37Z</time>
      </trkpt>
      <trkpt lat="46.19845" lon="4.53132">
        <ele>609</ele>
        <time>2017-11-07T08:17:37Z</time>
      </trkpt>
      <trkpt lat="46.19866" lon="4.53158">
        <ele>609</ele>
        <time>2017-11-07T08:19:37Z</time>
      </trkpt>
      <trkpt lat="46.19888" lon="4.53181">
        <ele>610</ele>
        <time>2017-11-07T08:21:37Z</time>
      </trkpt>
      <trkpt lat="46.19902" lon="4.53192">
        <ele>611</ele>
        <time>2017-11-07T08:23:37Z</time>
      </trkpt>
      <trkpt lat="46.19909" lon="4.53198">
        <ele>612</ele>
        <time>2017-11-07T08:25:37Z</time>
      </trkpt>
      <trkpt lat="46.19916" lon="4.53204">
        <ele>612</ele>
        <time>2017-11-07T08:27:37Z</time>
      </trkpt>
      <trkpt lat="46.19921" lon="4.53211">
        <ele>612</ele>
        <time>2017-11-07T08:29:37Z</time>
      </trkpt>
      <trkpt lat="46.19933" lon="4.53228">
        <ele>611</ele>
        <time>2017-11-07T08:31:37Z</time>
      </trkpt>
      <trkpt lat="46.19957" lon="4.5328">
        <ele>608</ele>
        <time>2017-11-07T08:33:37Z</time>
      </trkpt>
      <trkpt lat="46.20001" lon="4.53375">
        <ele>609</ele>
        <time>2017-11-07T08:35:37Z</time>
      </trkpt>
      <trkpt lat="46.20015" lon="4.53403">
        <ele>611</ele>
        <time>2017-11-07T08:37:37Z</time>
      </trkpt>
      <trkpt lat="46.20022" lon="4.5342">
        <ele>612</ele>
        <time>2017-11-07T08:39:37Z</time>
      </trkpt>
      <trkpt lat="46.20028" lon="4.53433">
        <ele>613</ele>
        <time>2017-11-07T08:41:37Z</time>
      </trkpt>
      <trkpt lat="46.20034" lon="4.53449">
        <ele>614</ele>
        <time>2017-11-07T08:43:37Z</time>
      </trkpt>
      <trkpt lat="46.20037" lon="4.53465">
        <ele>614</ele>
        <time>2017-11-07T08:45:37Z</time>
      </trkpt>
      <trkpt lat="46.20039" lon="4.53486">
        <ele>614</ele>
        <time>2017-11-07T08:47:37Z</time>
      </trkpt>
      <trkpt lat="46.20039" lon="4.53498">
        <ele>613</ele>
        <time>2017-11-07T08:49:37Z</time>
      </trkpt>
      <trkpt lat="46.20039" lon="4.5351">
        <ele>614</ele>
        <time>2017-11-07T08:51:37Z</time>
      </trkpt>
      <trkpt lat="46.20034" lon="4.53548">
        <ele>614</ele>
        <time>2017-11-07T08:53:37Z</time>
      </trkpt>
      <trkpt lat="46.20023" lon="4.53614">
        <ele>615</ele>
        <time>2017-11-07T08:55:37Z</time>
      </trkpt>
      <trkpt lat="46.20019" lon="4.5364">
        <ele>616</ele>
        <time>2017-11-07T08:57:37Z</time>
      </trkpt>
      <trkpt lat="46.20019" lon="4.53655">
        <ele>617</ele>
        <time>2017-11-07T08:59:37Z</time>
      </trkpt>
      <trkpt lat="46.20021" lon="4.53665">
        <ele>618</ele>
        <time>2017-11-07T09:01:37Z</time>
      </trkpt>
      <trkpt lat="46.20023" lon="4.53674">
        <ele>618</ele>
        <time>2017-11-07T09:03:37Z</time>
      </trkpt>
      <trkpt lat="46.20028" lon="4.53684">
        <ele>617</ele>
        <time>2017-11-07T09:05:37Z</time>
      </trkpt>
      <trkpt lat="46.20033" lon="4.53694">
        <ele>617</ele>
        <time>2017-11-07T09:07:37Z</time>
      </trkpt>
      <trkpt lat="46.20039" lon="4.53702">
        <ele>617</ele>
        <time>2017-11-07T09:09:37Z</time>
      </trkpt>
      <trkpt lat="46.20046" lon="4.53709">
        <ele>617</ele>
        <time>2017-11-07T09:11:37Z</time>
      </trkpt>
      <trkpt lat="46.20057" lon="4.53717">
        <ele>617</ele>
        <time>2017-11-07T09:13:37Z</time>
      </trkpt>
      <trkpt lat="46.20068" lon="4.53723">
        <ele>618</ele>
        <time>2017-11-07T09:15:37Z</time>
      </trkpt>
      <trkpt lat="46.20096" lon="4.53731">
        <ele>619</ele>
        <time>2017-11-07T09:17:37Z</time>
      </trkpt>
      <trkpt lat="46.20124" lon="4.53734">
        <ele>620</ele>
        <time>2017-11-07T09:19:37Z</time>
      </trkpt>
      <trkpt lat="46.2014" lon="4.53734">
        <ele>621</ele>
        <time>2017-11-07T09:21:37Z</time>
      </trkpt>
      <trkpt lat="46.20161" lon="4.53733">
        <ele>622</ele>
        <time>2017-11-07T09:23:37Z</time>
      </trkpt>
      <trkpt lat="46.20181" lon="4.53732">
        <ele>621</ele>
        <time>2017-11-07T09:25:37Z</time>
      </trkpt>
      <trkpt lat="46.20199" lon="4.53729">
        <ele>620</ele>
        <time>2017-11-07T09:27:37Z</time>
      </trkpt>
      <trkpt lat="46.20208" lon="4.53726">
        <ele>620</ele>
        <time>2017-11-07T09:29:37Z</time>
      </trkpt>
      <trkpt lat="46.20225" lon="4.53717">
        <ele>620</ele>
        <time>2017-11-07T09:31:37Z</time>
      </trkpt>
      <trkpt lat="46.20233" lon="4.53711">
        <ele>621</ele>
        <time>2017-11-07T09:33:37Z</time>
      </trkpt>
      <trkpt lat="46.20262" lon="4.53683">
        <ele>626</ele>
        <time>2017-11-07T09:35:37Z</time>
      </trkpt>
      <trkpt lat="46.20278" lon="4.5367">
        <ele>629</ele>
        <time>2017-11-07T09:37:37Z</time>
      </trkpt>
      <trkpt lat="46.20291" lon="4.53663">
        <ele>631</ele>
        <time>2017-11-07T09:39:37Z</time>
      </trkpt>
      <trkpt lat="46.20297" lon="4.53662">
        <ele>631</ele>
        <time>2017-11-07T09:41:37Z</time>
      </trkpt>
      <trkpt lat="46.20313" lon="4.53661">
        <ele>632</ele>
        <time>2017-11-07T09:43:37Z</time>
      </trkpt>
      <trkpt lat="46.20331" lon="4.53663">
        <ele>632</ele>
        <time>2017-11-07T09:45:37Z</time>
      </trkpt>
      <trkpt lat="46.2036" lon="4.53667">
        <ele>630</ele>
        <time>2017-11-07T09:47:37Z</time>
      </trkpt>
      <trkpt lat="46.20466" lon="4.53676">
        <ele>627</ele>
        <time>2017-11-07T09:49:37Z</time>
      </trkpt>
      <trkpt lat="46.20495" lon="4.5368">
        <ele>626</ele>
        <time>2017-11-07T09:51:37Z</time>
      </trkpt>
      <trkpt lat="46.20511" lon="4.53682">
        <ele>626</ele>
        <time>2017-11-07T09:53:37Z</time>
      </trkpt>
      <trkpt lat="46.20522" lon="4.53684">
        <ele>626</ele>
        <time>2017-11-07T09:55:37Z</time>
      </trkpt>
      <trkpt lat="46.2058" lon="4.53689">
        <ele>625</ele>
        <time>2017-11-07T09:57:37Z</time>
      </trkpt>
      <trkpt lat="46.2058" lon="4.53689">
        <ele>625</ele>
        <time>2017-11-07T09:59:37Z</time>
      </trkpt>
      <trkpt lat="46.20585" lon="4.53694">
        <ele>625</ele>
        <time>2017-11-07T10:01:37Z</time>
      </trkpt>
      <trkpt lat="46.20588" lon="4.53696">
        <ele>625</ele>
        <time>2017-11-07T10:03:37Z</time>
      </trkpt>
      <trkpt lat="46.20591" lon="4.53697">
        <ele>625</ele>
        <time>2017-11-07T10:05:37Z</time>
      </trkpt>
      <trkpt lat="46.20614" lon="4.537">
        <ele>625</ele>
        <time>2017-11-07T10:07:37Z</time>
      </trkpt>
      <trkpt lat="46.20656" lon="4.53715">
        <ele>624</ele>
        <time>2017-11-07T10:09:37Z</time>
      </trkpt>
      <trkpt lat="46.20656" lon="4.53715">
        <ele>624</ele>
        <time>2017-11-07T10:11:37Z</time>
      </trkpt>
      <trkpt lat="46.20657" lon="4.53721">
        <ele>624</ele>
        <time>2017-11-07T10:13:37Z</time>
      </trkpt>
      <trkpt lat="46.20659" lon="4.53726">
        <ele>624</ele>
        <time>2017-11-07T10:15:37Z</time>
      </trkpt>
      <trkpt lat="46.2066" lon="4.53728">
        <ele>624</ele>
        <time>2017-11-07T10:17:37Z</time>
      </trkpt>
      <trkpt lat="46.20663" lon="4.53732">
        <ele>624</ele>
        <time>2017-11-07T10:19:37Z</time>
      </trkpt>
      <trkpt lat="46.20664" lon="4.5375">
        <ele>623</ele>
        <time>2017-11-07T10:21:37Z</time>
      </trkpt>
      <trkpt lat="46.20665" lon="4.53784">
        <ele>621</ele>
        <time>2017-11-07T10:23:37Z</time>
      </trkpt>
      <trkpt lat="46.20667" lon="4.5382">
        <ele>620</ele>
        <time>2017-11-07T10:25:37Z</time>
      </trkpt>
      <trkpt lat="46.20668" lon="4.53847">
        <ele>618</ele>
        <time>2017-11-07T10:27:37Z</time>
      </trkpt>
      <trkpt lat="46.20669" lon="4.53873">
        <ele>617</ele>
        <time>2017-11-07T10:29:37Z</time>
      </trkpt>
      <trkpt lat="46.20671" lon="4.53884">
        <ele>617</ele>
        <time>2017-11-07T10:31:37Z</time>
      </trkpt>
      <trkpt lat="46.20672" lon="4.53904">
        <ele>616</ele>
        <time>2017-11-07T10:33:37Z</time>
      </trkpt>
      <trkpt lat="46.20672" lon="4.53914">
        <ele>616</ele>
        <time>2017-11-07T10:35:37Z</time>
      </trkpt>
      <trkpt lat="46.20672" lon="4.53924">
        <ele>615</ele>
        <time>2017-11-07T10:37:37Z</time>
      </trkpt>
      <trkpt lat="46.20672" lon="4.53946">
        <ele>615</ele>
        <time>2017-11-07T10:39:37Z</time>
      </trkpt>
      <trkpt lat="46.20672" lon="4.53967">
        <ele>614</ele>
        <time>2017-11-07T10:41:37Z</time>
      </trkpt>
      <trkpt lat="46.20672" lon="4.53979">
        <ele>614</ele>
        <time>2017-11-07T10:43:37Z</time>
      </trkpt>
      <trkpt lat="46.20672" lon="4.53991">
        <ele>614</ele>
        <time>2017-11-07T10:45:37Z</time>
      </trkpt>
      <trkpt lat="46.20669" lon="4.54023">
        <ele>614</ele>
        <time>2017-11-07T10:47:37Z</time>
      </trkpt>
      <trkpt lat="46.20665" lon="4.54056">
        <ele>614</ele>
        <time>2017-11-07T10:49:37Z</time>
      </trkpt>
      <trkpt lat="46.20659" lon="4.54113">
        <ele>613</ele>
        <time>2017-11-07T10:51:37Z</time>
      </trkpt>
      <trkpt lat="46.20656" lon="4.54137">
        <ele>612</ele>
        <time>2017-11-07T10:53:37Z</time>
      </trkpt>
      <trkpt lat="46.20651" lon="4.54171">
        <ele>611</ele>
        <time>2017-11-07T10:55:37Z</time>
      </trkpt>
      <trkpt lat="46.20647" lon="4.54193">
        <ele>610</ele>
        <time>2017-11-07T10:57:37Z</time>
      </trkpt>
      <trkpt lat="46.20643" lon="4.54212">
        <ele>609</ele>
        <time>2017-11-07T10:59:37Z</time>
      </trkpt>
      <trkpt lat="46.2064" lon="4.54228">
        <ele>608</ele>
        <time>2017-11-07T11:01:37Z</time>
      </trkpt>
      <trkpt lat="46.20636" lon="4.54249">
        <ele>608</ele>
        <time>2017-11-07T11:03:37Z</time>
      </trkpt>
      <trkpt lat="46.20633" lon="4.54261">
        <ele>607</ele>
        <time>2017-11-07T11:05:37Z</time>
      </trkpt>
      <trkpt lat="46.20629" lon="4.5428">
        <ele>606</ele>
        <time>2017-11-07T11:07:37Z</time>
      </trkpt>
      <trkpt lat="46.20627" lon="4.54294">
        <ele>606</ele>
        <time>2017-11-07T11:09:37Z</time>
      </trkpt>
      <trkpt lat="46.20624" lon="4.54306">
        <ele>605</ele>
        <time>2017-11-07T11:11:37Z</time>
      </trkpt>
      <trkpt lat="46.20623" lon="4.54318">
        <ele>605</ele>
        <time>2017-11-07T11:13:37Z</time>
      </trkpt>
      <trkpt lat="46.20621" lon="4.54329">
        <ele>605</ele>
        <time>2017-11-07T11:15:37Z</time>
      </trkpt>
      <trkpt lat="46.2062" lon="4.5434">
        <ele>605</ele>
        <time>2017-11-07T11:17:37Z</time>
      </trkpt>
      <trkpt lat="46.20619" lon="4.54352">
        <ele>605</ele>
        <time>2017-11-07T11:19:37Z</time>
      </trkpt>
      <trkpt lat="46.20618" lon="4.54364">
        <ele>605</ele>
        <time>2017-11-07T11:21:37Z</time>
      </trkpt>
      <trkpt lat="46.20616" lon="4.54375">
        <ele>604</ele>
        <time>2017-11-07T11:23:37Z</time>
      </trkpt>
      <trkpt lat="46.20615" lon="4.54386">
        <ele>604</ele>
        <time>2017-11-07T11:25:37Z</time>
      </trkpt>
      <trkpt lat="46.20614" lon="4.54397">
        <ele>604</ele>
        <time>2017-11-07T11:27:37Z</time>
      </trkpt>
      <trkpt lat="46.20611" lon="4.54408">
        <ele>603</ele>
        <time>2017-11-07T11:29:37Z</time>
      </trkpt>
      <trkpt lat="46.2061" lon="4.54417">
        <ele>603</ele>
        <time>2017-11-07T11:31:37Z</time>
      </trkpt>
      <trkpt lat="46.20607" lon="4.54427">
        <ele>603</ele>
        <time>2017-11-07T11:33:37Z</time>
      </trkpt>
      <trkpt lat="46.20604" lon="4.54436">
        <ele>602</ele>
        <time>2017-11-07T11:35:37Z</time>
      </trkpt>
      <trkpt lat="46.20597" lon="4.54456">
        <ele>601</ele>
        <time>2017-11-07T11:37:37Z</time>
      </trkpt>
      <trkpt lat="46.2059" lon="4.54472">
        <ele>600</ele>
        <time>2017-11-07T11:39:37Z</time>
      </trkpt>
      <trkpt lat="46.20572" lon="4.54515">
        <ele>599</ele>
        <time>2017-11-07T11:41:37Z</time>
      </trkpt>
      <trkpt lat="46.20553" lon="4.54558">
        <ele>597</ele>
        <time>2017-11-07T11:43:37Z</time>
      </trkpt>
      <trkpt lat="46.20542" lon="4.54585">
        <ele>596</ele>
        <time>2017-11-07T11:45:37Z</time>
      </trkpt>
      <trkpt lat="46.20539" lon="4.54594">
        <ele>596</ele>
        <time>2017-11-07T11:47:37Z</time>
      </trkpt>
      <trkpt lat="46.20535" lon="4.54605">
        <ele>595</ele>
        <time>2017-11-07T11:49:37Z</time>
      </trkpt>
      <trkpt lat="46.20529" lon="4.54625">
        <ele>594</ele>
        <time>2017-11-07T11:51:37Z</time>
      </trkpt>
      <trkpt lat="46.20524" lon="4.54644">
        <ele>593</ele>
        <time>2017-11-07T11:53:37Z</time>
      </trkpt>
      <trkpt lat="46.20522" lon="4.54656">
        <ele>593</ele>
        <time>2017-11-07T11:55:37Z</time>
      </trkpt>
      <trkpt lat="46.20518" lon="4.54676">
        <ele>592</ele>
        <time>2017-11-07T11:57:37Z</time>
      </trkpt>
      <trkpt lat="46.20514" lon="4.54696">
        <ele>592</ele>
        <time>2017-11-07T11:59:37Z</time>
      </trkpt>
      <trkpt lat="46.2051" lon="4.54717">
        <ele>591</ele>
        <time>2017-11-07T12:01:37Z</time>
      </trkpt>
      <trkpt lat="46.20507" lon="4.54735">
        <ele>591</ele>
        <time>2017-11-07T12:03:37Z</time>
      </trkpt>
      <trkpt lat="46.20504" lon="4.54752">
        <ele>591</ele>
        <time>2017-11-07T12:05:37Z</time>
      </trkpt>
      <trkpt lat="46.20501" lon="4.54768">
        <ele>591</ele>
        <time>2017-11-07T12:07:37Z</time>
      </trkpt>
      <trkpt lat="46.20498" lon="4.54784">
        <ele>591</ele>
        <time>2017-11-07T12:09:37Z</time>
      </trkpt>
      <trkpt lat="46.20496" lon="4.54799">
        <ele>591</ele>
        <time>2017-11-07T12:11:37Z</time>
      </trkpt>
      <trkpt lat="46.20494" lon="4.54808">
        <ele>591</ele>
        <time>2017-11-07T12:13:37Z</time>
      </trkpt>
      <trkpt lat="46.20493" lon="4.54815">
        <ele>591</ele>
        <time>2017-11-07T12:15:37Z</time>
      </trkpt>
      <trkpt lat="46.20491" lon="4.54822">
        <ele>591</ele>
        <time>2017-11-07T12:17:37Z</time>
      </trkpt>
      <trkpt lat="46.20488" lon="4.54829">
        <ele>591</ele>
        <time>2017-11-07T12:19:37Z</time>
      </trkpt>
      <trkpt lat="46.20486" lon="4.54835">
        <ele>591</ele>
        <time>2017-11-07T12:21:37Z</time>
      </trkpt>
      <trkpt lat="46.20482" lon="4.5484">
        <ele>591</ele>
        <time>2017-11-07T12:23:37Z</time>
      </trkpt>
      <trkpt lat="46.20479" lon="4.54844">
        <ele>591</ele>
        <time>2017-11-07T12:25:37Z</time>
      </trkpt>
      <trkpt lat="46.20478" lon="4.54845">
        <ele>591</ele>
        <time>2017-11-07T12:27:37Z</time>
      </trkpt>
      <trkpt lat="46.20474" lon="4.54848">
        <ele>591</ele>
        <time>2017-11-07T12:29:37Z</time>
      </trkpt>
      <trkpt lat="46.20469" lon="4.54851">
        <ele>591</ele>
        <time>2017-11-07T12:31:37Z</time>
      </trkpt>
      <trkpt lat="46.20465" lon="4.54853">
        <ele>591</ele>
        <time>2017-11-07T12:33:37Z</time>
      </trkpt>
      <trkpt lat="46.20462" lon="4.54854">
        <ele>591</ele>
        <time>2017-11-07T12:35:37Z</time>
      </trkpt>
      <trkpt lat="46.20454" lon="4.54853">
        <ele>591</ele>
        <time>2017-11-07T12:37:37Z</time>
      </trkpt>
      <trkpt lat="46.20449" lon="4.54852">
        <ele>591</ele>
        <time>2017-11-07T12:39:37Z</time>
      </trkpt>
      <trkpt lat="46.20444" lon="4.54851">
        <ele>590</ele>
        <time>2017-11-07T12:41:37Z</time>
      </trkpt>
      <trkpt lat="46.20442" lon="4.5485">
        <ele>590</ele>
        <time>2017-11-07T12:43:37Z</time>
      </trkpt>
      <trkpt lat="46.20442" lon="4.5485">
        <ele>590</ele>
        <time>2017-11-07T12:45:37Z</time>
      </trkpt>
      <trkpt lat="46.20437" lon="4.54855">
        <ele>590</ele>
        <time>2017-11-07T12:47:37Z</time>
      </trkpt>
      <trkpt lat="46.20436" lon="4.54855">
        <ele>590</ele>
        <time>2017-11-07T12:49:37Z</time>
      </trkpt>
      <trkpt lat="46.2043" lon="4.54855">
        <ele>590</ele>
        <time>2017-11-07T12:51:37Z</time>
      </trkpt>
      <trkpt lat="46.20424" lon="4.54854">
        <ele>590</ele>
        <time>2017-11-07T12:53:37Z</time>
      </trkpt>
      <trkpt lat="46.20413" lon="4.54851">
        <ele>589</ele>
        <time>2017-11-07T12:55:37Z</time>
      </trkpt>
      <trkpt lat="46.20401" lon="4.54851">
        <ele>590</ele>
        <time>2017-11-07T12:57:37Z</time>
      </trkpt>
      <trkpt lat="46.20385" lon="4.54855">
        <ele>591</ele>
        <time>2017-11-07T12:59:37Z</time>
      </trkpt>
      <trkpt lat="46.20368" lon="4.54862">
        <ele>593</ele>
        <time>2017-11-07T13:01:37Z</time>
      </trkpt>
      <trkpt lat="46.20358" lon="4.54869">
        <ele>594</ele>
        <time>2017-11-07T13:03:37Z</time>
      </trkpt>
      <trkpt lat="46.20353" lon="4.54872">
        <ele>595</ele>
        <time>2017-11-07T13:05:37Z</time>
      </trkpt>
      <trkpt lat="46.20344" lon="4.54874">
        <ele>595</ele>
        <time>2017-11-07T13:07:37Z</time>
      </trkpt>
      <trkpt lat="46.20333" lon="4.5488">
        <ele>597</ele>
        <time>2017-11-07T13:09:37Z</time>
      </trkpt>
      <trkpt lat="46.20322" lon="4.54882">
        <ele>598</ele>
        <time>2017-11-07T13:11:37Z</time>
      </trkpt>
      <trkpt lat="46.20269" lon="4.54881">
        <ele>600</ele>
        <time>2017-11-07T13:13:37Z</time>
      </trkpt>
      <trkpt lat="46.2024" lon="4.54882">
        <ele>601</ele>
        <time>2017-11-07T13:15:37Z</time>
      </trkpt>
      <trkpt lat="46.2023" lon="4.54882">
        <ele>600</ele>
        <time>2017-11-07T13:17:37Z</time>
      </trkpt>
      <trkpt lat="46.20216" lon="4.54879">
        <ele>599</ele>
        <time>2017-11-07T13:19:37Z</time>
      </trkpt>
      <trkpt lat="46.20202" lon="4.54874">
        <ele>599</ele>
        <time>2017-11-07T13:21:37Z</time>
      </trkpt>
      <trkpt lat="46.20195" lon="4.54873">
        <ele>598</ele>
        <time>2017-11-07T13:23:37Z</time>
      </trkpt>
      <trkpt lat="46.20185" lon="4.54868">
        <ele>598</ele>
        <time>2017-11-07T13:25:37Z</time>
      </trkpt>
      <trkpt lat="46.20174" lon="4.54862">
        <ele>597</ele>
        <time>2017-11-07T13:27:37Z</time>
      </trkpt>
      <trkpt lat="46.20168" lon="4.5486">
        <ele>597</ele>
        <time>2017-11-07T13:29:37Z</time>
      </trkpt>
      <trkpt lat="46.20155" lon="4.54852">
        <ele>595</ele>
        <time>2017-11-07T13:31:37Z</time>
      </trkpt>
      <trkpt lat="46.20148" lon="4.5485">
        <ele>595</ele>
        <time>2017-11-07T13:33:37Z</time>
      </trkpt>
      <trkpt lat="46.20141" lon="4.5485">
        <ele>595</ele>
        <time>2017-11-07T13:35:37Z</time>
      </trkpt>
      <trkpt lat="46.20127" lon="4.54849">
        <ele>594</ele>
        <time>2017-11-07T13:37:37Z</time>
      </trkpt>
      <trkpt lat="46.20103" lon="4.54852">
        <ele>593</ele>
        <time>2017-11-07T13:39:37Z</time>
      </trkpt>
      <trkpt lat="46.20085" lon="4.54854">
        <ele>592</ele>
        <time>2017-11-07T13:41:37Z</time>
      </trkpt>
      <trkpt lat="46.20079" lon="4.54854">
        <ele>592</ele>
        <time>2017-11-07T13:43:37Z</time>
      </trkpt>
      <trkpt lat="46.20066" lon="4.54854">
        <ele>590</ele>
        <time>2017-11-07T13:45:37Z</time>
      </trkpt>
      <trkpt lat="46.20052" lon="4.54856">
        <ele>589</ele>
        <time>2017-11-07T13:47:37Z</time>
      </trkpt>
      <trkpt lat="46.20039" lon="4.54855">
        <ele>587</ele>
        <time>2017-11-07T13:49:37Z</time>
      </trkpt>
      <trkpt lat="46.2003" lon="4.54853">
        <ele>586</ele>
        <time>2017-11-07T13:51:37Z</time>
      </trkpt>
      <trkpt lat="46.20015" lon="4.54854">
        <ele>585</ele>
        <time>2017-11-07T13:53:37Z</time>
      </trkpt>
      <trkpt lat="46.1999" lon="4.54858">
        <ele>581</ele>
        <time>2017-11-07T13:55:37Z</time>
      </trkpt>
      <trkpt lat="46.19978" lon="4.54859">
        <ele>580</ele>
        <time>2017-11-07T13:57:37Z</time>
      </trkpt>
      <trkpt lat="46.19959" lon="4.54859">
        <ele>577</ele>
        <time>2017-11-07T13:59:37Z</time>
      </trkpt>
      <trkpt lat="46.19942" lon="4.54861">
        <ele>575</ele>
        <time>2017-11-07T14:01:37Z</time>
      </trkpt>
      <trkpt lat="46.19923" lon="4.54862">
        <ele>572</ele>
        <time>2017-11-07T14:03:37Z</time>
      </trkpt>
      <trkpt lat="46.19913" lon="4.5486">
        <ele>571</ele>
        <time>2017-11-07T14:05:37Z</time>
      </trkpt>
      <trkpt lat="46.19901" lon="4.5486">
        <ele>569</ele>
        <time>2017-11-07T14:07:37Z</time>
      </trkpt>
      <trkpt lat="46.19889" lon="4.5486">
        <ele>567</ele>
        <time>2017-11-07T14:09:37Z</time>
      </trkpt>
      <trkpt lat="46.19883" lon="4.54859">
        <ele>565</ele>
        <time>2017-11-07T14:11:37Z</time>
      </trkpt>
      <trkpt lat="46.19878" lon="4.54857">
        <ele>565</ele>
        <time>2017-11-07T14:13:37Z</time>
      </trkpt>
      <trkpt lat="46.19858" lon="4.54842">
        <ele>561</ele>
        <time>2017-11-07T14:15:37Z</time>
      </trkpt>
      <trkpt lat="46.19832" lon="4.5482">
        <ele>557</ele>
        <time>2017-11-07T14:17:37Z</time>
      </trkpt>
      <trkpt lat="46.19827" lon="4.54818">
        <ele>557</ele>
        <time>2017-11-07T14:19:37Z</time>
      </trkpt>
      <trkpt lat="46.19786" lon="4.5481">
        <ele>551</ele>
        <time>2017-11-07T14:21:37Z</time>
      </trkpt>
      <trkpt lat="46.19768" lon="4.54806">
        <ele>548</ele>
        <time>2017-11-07T14:23:37Z</time>
      </trkpt>
      <trkpt lat="46.19755" lon="4.54801">
        <ele>547</ele>
        <time>2017-11-07T14:25:37Z</time>
      </trkpt>
      <trkpt lat="46.19751" lon="4.548">
        <ele>546</ele>
        <time>2017-11-07T14:27:37Z</time>
      </trkpt>
      <trkpt lat="46.19741" lon="4.54799">
        <ele>544</ele>
        <time>2017-11-07T14:29:37Z</time>
      </trkpt>
      <trkpt lat="46.19722" lon="4.548">
        <ele>540</ele>
        <time>2017-11-07T14:31:37Z</time>
      </trkpt>
      <trkpt lat="46.19697" lon="4.54796">
        <ele>535</ele>
        <time>2017-11-07T14:33:37Z</time>
      </trkpt>
      <trkpt lat="46.19669" lon="4.54788">
        <ele>530</ele>
        <time>2017-11-07T14:35:37Z</time>
      </trkpt>
      <trkpt lat="46.19652" lon="4.5478">
        <ele>527</ele>
        <time>2017-11-07T14:37:37Z</time>
      </trkpt>
      <trkpt lat="46.19613" lon="4.54761">
        <ele>522</ele>
        <time>2017-11-07T14:39:37Z</time>
      </trkpt>
      <trkpt lat="46.19582" lon="4.54748">
        <ele>517</ele>
        <time>2017-11-07T14:41:37Z</time>
      </trkpt>
      <trkpt lat="46.19574" lon="4.54747">
        <ele>517</ele>
        <time>2017-11-07T14:43:37Z</time>
      </trkpt>
      <trkpt lat="46.19566" lon="4.54748">
        <ele>516</ele>
        <time>2017-11-07T14:45:37Z</time>
      </trkpt>
      <trkpt lat="46.1951" lon="4.54761">
        <ele>507</ele>
        <time>2017-11-07T14:47:37Z</time>
      </trkpt>
      <trkpt lat="46.19496" lon="4.54764">
        <ele>505</ele>
        <time>2017-11-07T14:49:37Z</time>
      </trkpt>
      <trkpt lat="46.19473" lon="4.54766">
        <ele>501</ele>
        <time>2017-11-07T14:51:37Z</time>
      </trkpt>
      <trkpt lat="46.19459" lon="4.54766">
        <ele>499</ele>
        <time>2017-11-07T14:53:37Z</time>
      </trkpt>
      <trkpt lat="46.19437" lon="4.54767">
        <ele>496</ele>
        <time>2017-11-07T14:55:37Z</time>
      </trkpt>
      <trkpt lat="46.19401" lon="4.54767">
        <ele>490</ele>
        <time>2017-11-07T14:57:37Z</time>
      </trkpt>
      <trkpt lat="46.19386" lon="4.54769">
        <ele>488</ele>
        <time>2017-11-07T14:59:37Z</time>
      </trkpt>
      <trkpt lat="46.19372" lon="4.54776">
        <ele>484</ele>
        <time>2017-11-07T15:01:37Z</time>
      </trkpt>
      <trkpt lat="46.19368" lon="4.54779">
        <ele>483</ele>
        <time>2017-11-07T15:03:37Z</time>
      </trkpt>
      <trkpt lat="46.19331" lon="4.54805">
        <ele>472</ele>
        <time>2017-11-07T15:05:37Z</time>
      </trkpt>
      <trkpt lat="46.19325" lon="4.54808">
        <ele>471</ele>
        <time>2017-11-07T15:07:37Z</time>
      </trkpt>
      <trkpt lat="46.1927" lon="4.54814">
        <ele>464</ele>
        <time>2017-11-07T15:09:37Z</time>
      </trkpt>
      <trkpt lat="46.19246" lon="4.54814">
        <ele>461</ele>
        <time>2017-11-07T15:11:37Z</time>
      </trkpt>
      <trkpt lat="46.19232" lon="4.54815">
        <ele>459</ele>
        <time>2017-11-07T15:13:37Z</time>
      </trkpt>
      <trkpt lat="46.19218" lon="4.54819">
        <ele>457</ele>
        <time>2017-11-07T15:15:37Z</time>
      </trkpt>
      <trkpt lat="46.19212" lon="4.54821">
        <ele>456</ele>
        <time>2017-11-07T15:17:37Z</time>
      </trkpt>
      <trkpt lat="46.19208" lon="4.54824">
        <ele>455</ele>
        <time>2017-11-07T15:19:37Z</time>
      </trkpt>
      <trkpt lat="46.19197" lon="4.54833">
        <ele>452</ele>
        <time>2017-11-07T15:21:37Z</time>
      </trkpt>
      <trkpt lat="46.19197" lon="4.54833">
        <ele>452</ele>
        <time>2017-11-07T15:23:37Z</time>
      </trkpt>
      <trkpt lat="46.192" lon="4.54842">
        <ele>453</ele>
        <time>2017-11-07T15:25:37Z</time>
      </trkpt>
      <trkpt lat="46.19205" lon="4.54851">
        <ele>453</ele>
        <time>2017-11-07T15:27:37Z</time>
      </trkpt>
      <trkpt lat="46.19208" lon="4.54863">
        <ele>454</ele>
        <time>2017-11-07T15:29:37Z</time>
      </trkpt>
      <trkpt lat="46.1921" lon="4.5487">
        <ele>454</ele>
        <time>2017-11-07T15:31:37Z</time>
      </trkpt>
      <trkpt lat="46.1921" lon="4.54874">
        <ele>454</ele>
        <time>2017-11-07T15:33:37Z</time>
      </trkpt>
      <trkpt lat="46.19208" lon="4.54883">
        <ele>454</ele>
        <time>2017-11-07T15:35:37Z</time>
      </trkpt>
      <trkpt lat="46.19206" lon="4.54893">
        <ele>453</ele>
        <time>2017-11-07T15:37:37Z</time>
      </trkpt>
      <trkpt lat="46.19202" lon="4.54901">
        <ele>453</ele>
        <time>2017-11-07T15:39:37Z</time>
      </trkpt>
      <trkpt lat="46.19198" lon="4.54906">
        <ele>452</ele>
        <time>2017-11-07T15:41:37Z</time>
      </trkpt>
      <trkpt lat="46.19194" lon="4.54911">
        <ele>452</ele>
        <time>2017-11-07T15:43:37Z</time>
      </trkpt>
      <trkpt lat="46.19191" lon="4.54913">
        <ele>452</ele>
        <time>2017-11-07T15:45:37Z</time>
      </trkpt>
      <trkpt lat="46.19187" lon="4.54915">
        <ele>451</ele>
        <time>2017-11-07T15:47:37Z</time>
      </trkpt>
      <trkpt lat="46.19179" lon="4.54917">
        <ele>450</ele>
        <time>2017-11-07T15:49:37Z</time>
      </trkpt>
      <trkpt lat="46.19147" lon="4.54919">
        <ele>451</ele>
        <time>2017-11-07T15:51:37Z</time>
      </trkpt>
      <trkpt lat="46.19129" lon="4.5492">
        <ele>452</ele>
        <time>2017-11-07T15:53:37Z</time>
      </trkpt>
      <trkpt lat="46.19123" lon="4.54918">
        <ele>452</ele>
        <time>2017-11-07T15:55:37Z</time>
      </trkpt>
      <trkpt lat="46.19117" lon="4.54918">
        <ele>452</ele>
        <time>2017-11-07T15:57:37Z</time>
      </trkpt>
      <trkpt lat="46.19109" lon="4.54913">
        <ele>452</ele>
        <time>2017-11-07T15:59:37Z</time>
      </trkpt>
      <trkpt lat="46.191" lon="4.54906">
        <ele>451</ele>
        <time>2017-11-07T16:01:37Z</time>
      </trkpt>
      <trkpt lat="46.19058" lon="4.54867">
        <ele>446</ele>
        <time>2017-11-07T16:03:37Z</time>
      </trkpt>
      <trkpt lat="46.19048" lon="4.54856">
        <ele>445</ele>
        <time>2017-11-07T16:05:37Z</time>
      </trkpt>
      <trkpt lat="46.19039" lon="4.54845">
        <ele>443</ele>
        <time>2017-11-07T16:07:37Z</time>
      </trkpt>
      <trkpt lat="46.1903" lon="4.54832">
        <ele>441</ele>
        <time>2017-11-07T16:09:37Z</time>
      </trkpt>
      <trkpt lat="46.19022" lon="4.54818">
        <ele>440</ele>
        <time>2017-11-07T16:11:37Z</time>
      </trkpt>
      <trkpt lat="46.19013" lon="4.54799">
        <ele>439</ele>
        <time>2017-11-07T16:13:37Z</time>
      </trkpt>
      <trkpt lat="46.19003" lon="4.54778">
        <ele>436</ele>
        <time>2017-11-07T16:15:37Z</time>
      </trkpt>
      <trkpt lat="46.18996" lon="4.54761">
        <ele>433</ele>
        <time>2017-11-07T16:17:37Z</time>
      </trkpt>
      <trkpt lat="46.18987" lon="4.54745">
        <ele>432</ele>
        <time>2017-11-07T16:19:37Z</time>
      </trkpt>
      <trkpt lat="46.18978" lon="4.54736">
        <ele>432</ele>
        <time>2017-11-07T16:21:37Z</time>
      </trkpt>
      <trkpt lat="46.18973" lon="4.54731">
        <ele>431</ele>
        <time>2017-11-07T16:23:37Z</time>
      </trkpt>
      <trkpt lat="46.18965" lon="4.54727">
        <ele>431</ele>
        <time>2017-11-07T16:25:37Z</time>
      </trkpt>
      <trkpt lat="46.18952" lon="4.54723">
        <ele>429</ele>
        <time>2017-11-07T16:27:37Z</time>
      </trkpt>
      <trkpt lat="46.18942" lon="4.54723">
        <ele>428</ele>
        <time>2017-11-07T16:29:37Z</time>
      </trkpt>
      <trkpt lat="46.18934" lon="4.54727">
        <ele>428</ele>
        <time>2017-11-07T16:31:37Z</time>
      </trkpt>
      <trkpt lat="46.18928" lon="4.5473">
        <ele>427</ele>
        <time>2017-11-07T16:33:37Z</time>
      </trkpt>
      <trkpt lat="46.18921" lon="4.54735">
        <ele>427</ele>
        <time>2017-11-07T16:35:37Z</time>
      </trkpt>
      <trkpt lat="46.1891" lon="4.54746">
        <ele>427</ele>
        <time>2017-11-07T16:37:37Z</time>
      </trkpt>
      <trkpt lat="46.18879" lon="4.54784">
        <ele>427</ele>
        <time>2017-11-07T16:39:37Z</time>
      </trkpt>
      <trkpt lat="46.1886" lon="4.54809">
        <ele>426</ele>
        <time>2017-11-07T16:41:37Z</time>
      </trkpt>
      <trkpt lat="46.18835" lon="4.5484">
        <ele>423</ele>
        <time>2017-11-07T16:43:37Z</time>
      </trkpt>
      <trkpt lat="46.1883" lon="4.54846">
        <ele>423</ele>
        <time>2017-11-07T16:45:37Z</time>
      </trkpt>
      <trkpt lat="46.18825" lon="4.54852">
        <ele>423</ele>
        <time>2017-11-07T16:47:37Z</time>
      </trkpt>
      <trkpt lat="46.1881" lon="4.54871">
        <ele>423</ele>
        <time>2017-11-07T16:49:37Z</time>
      </trkpt>
      <trkpt lat="46.18751" lon="4.54932">
        <ele>418</ele>
        <time>2017-11-07T16:51:37Z</time>
      </trkpt>
      <trkpt lat="46.18731" lon="4.54951">
        <ele>418</ele>
        <time>2017-11-07T16:53:37Z</time>
      </trkpt>
      <trkpt lat="46.18717" lon="4.54964">
        <ele>417</ele>
        <time>2017-11-07T16:55:37Z</time>
      </trkpt>
      <trkpt lat="46.18691" lon="4.54985">
        <ele>415</ele>
        <time>2017-11-07T16:57:37Z</time>
      </trkpt>
      <trkpt lat="46.18679" lon="4.54993">
        <ele>413</ele>
        <time>2017-11-07T16:59:37Z</time>
      </trkpt>
      <trkpt lat="46.18621" lon="4.5502">
        <ele>408</ele>
        <time>2017-11-07T17:01:37Z</time>
      </trkpt>
      <trkpt lat="46.1861" lon="4.55025">
        <ele>407</ele>
        <time>2017-11-07T17:03:37Z</time>
      </trkpt>
      <trkpt lat="46.18603" lon="4.55028">
        <ele>406</ele>
        <time>2017-11-07T17:05:37Z</time>
      </trkpt>
      <trkpt lat="46.18521" lon="4.55066">
        <ele>402</ele>
        <time>2017-11-07T17:07:37Z</time>
      </trkpt>
      <trkpt lat="46.18473" lon="4.55087">
        <ele>399</ele>
        <time>2017-11-07T17:09:37Z</time>
      </trkpt>
      <trkpt lat="46.18417" lon="4.55114">
        <ele>402</ele>
        <time>2017-11-07T17:11:37Z</time>
      </trkpt>
      <trkpt lat="46.18403" lon="4.55119">
        <ele>404</ele>
        <time>2017-11-07T17:13:37Z</time>
      </trkpt>
      <trkpt lat="46.18389" lon="4.55124">
        <ele>406</ele>
        <time>2017-11-07T17:15:37Z</time>
      </trkpt>
      <trkpt lat="46.18376" lon="4.55125">
        <ele>407</ele>
        <time>2017-11-07T17:17:37Z</time>
      </trkpt>
      <trkpt lat="46.18364" lon="4.55124">
        <ele>407</ele>
        <time>2017-11-07T17:19:37Z</time>
      </trkpt>
      <trkpt lat="46.1833" lon="4.55113">
        <ele>405</ele>
        <time>2017-11-07T17:21:37Z</time>
      </trkpt>
      <trkpt lat="46.183" lon="4.55099">
        <ele>402</ele>
        <time>2017-11-07T17:23:37Z</time>
      </trkpt>
      <trkpt lat="46.18283" lon="4.55093">
        <ele>401</ele>
        <time>2017-11-07T17:25:37Z</time>
      </trkpt>
      <trkpt lat="46.18272" lon="4.5509">
        <ele>400</ele>
        <time>2017-11-07T17:27:37Z</time>
      </trkpt>
      <trkpt lat="46.1826" lon="4.55088">
        <ele>400</ele>
        <time>2017-11-07T17:29:37Z</time>
      </trkpt>
      <trkpt lat="46.18247" lon="4.55089">
        <ele>401</ele>
        <time>2017-11-07T17:31:37Z</time>
      </trkpt>
      <trkpt lat="46.18231" lon="4.55093">
        <ele>400</ele>
        <time>2017-11-07T17:33:37Z</time>
      </trkpt>
      <trkpt lat="46.18215" lon="4.55101">
        <ele>401</ele>
        <time>2017-11-07T17:35:37Z</time>
      </trkpt>
      <trkpt lat="46.18088" lon="4.55194">
        <ele>398</ele>
        <time>2017-11-07T17:37:37Z</time>
      </trkpt>
      <trkpt lat="46.18065" lon="4.55212">
        <ele>397</ele>
        <time>2017-11-07T17:39:37Z</time>
      </trkpt>
      <trkpt lat="46.18053" lon="4.55225">
        <ele>397</ele>
        <time>2017-11-07T17:41:37Z</time>
      </trkpt>
      <trkpt lat="46.18046" lon="4.55232">
        <ele>396</ele>
        <time>2017-11-07T17:43:37Z</time>
      </trkpt>
      <trkpt lat="46.18039" lon="4.55241">
        <ele>396</ele>
        <time>2017-11-07T17:45:37Z</time>
      </trkpt>
      <trkpt lat="46.18035" lon="4.55248">
        <ele>396</ele>
        <time>2017-11-07T17:47:37Z</time>
      </trkpt>
      <trkpt lat="46.18028" lon="4.55258">
        <ele>396</ele>
        <time>2017-11-07T17:49:37Z</time>
      </trkpt>
      <trkpt lat="46.18022" lon="4.5527">
        <ele>396</ele>
        <time>2017-11-07T17:51:37Z</time>
      </trkpt>
      <trkpt lat="46.18015" lon="4.55282">
        <ele>396</ele>
        <time>2017-11-07T17:53:37Z</time>
      </trkpt>
      <trkpt lat="46.1801" lon="4.55294">
        <ele>396</ele>
        <time>2017-11-07T17:55:37Z</time>
      </trkpt>
      <trkpt lat="46.18005" lon="4.55305">
        <ele>396</ele>
        <time>2017-11-07T17:57:37Z</time>
      </trkpt>
      <trkpt lat="46.18" lon="4.5532">
        <ele>396</ele>
        <time>2017-11-07T17:59:37Z</time>
      </trkpt>
      <trkpt lat="46.17992" lon="4.55336">
        <ele>396</ele>
        <time>2017-11-07T18:01:37Z</time>
      </trkpt>
      <trkpt lat="46.17988" lon="4.55348">
        <ele>396</ele>
        <time>2017-11-07T18:03:37Z</time>
      </trkpt>
      <trkpt lat="46.17987" lon="4.55354">
        <ele>396</ele>
        <time>2017-11-07T18:05:37Z</time>
      </trkpt>
      <trkpt lat="46.17985" lon="4.5536">
        <ele>396</ele>
        <time>2017-11-07T18:07:37Z</time>
      </trkpt>
      <trkpt lat="46.17981" lon="4.55371">
        <ele>396</ele>
        <time>2017-11-07T18:09:37Z</time>
      </trkpt>
      <trkpt lat="46.17976" lon="4.55379">
        <ele>396</ele>
        <time>2017-11-07T18:11:37Z</time>
      </trkpt>
      <trkpt lat="46.17971" lon="4.55388">
        <ele>395</ele>
        <time>2017-11-07T18:13:37Z</time>
      </trkpt>
      <trkpt lat="46.17964" lon="4.55398">
        <ele>395</ele>
        <time>2017-11-07T18:15:37Z</time>
      </trkpt>
      <trkpt lat="46.17958" lon="4.55406">
        <ele>394</ele>
        <time>2017-11-07T18:17:37Z</time>
      </trkpt>
      <trkpt lat="46.17949" lon="4.55415">
        <ele>394</ele>
        <time>2017-11-07T18:19:37Z</time>
      </trkpt>
      <trkpt lat="46.17937" lon="4.55423">
        <ele>393</ele>
        <time>2017-11-07T18:21:37Z</time>
      </trkpt>
      <trkpt lat="46.17925" lon="4.55431">
        <ele>392</ele>
        <time>2017-11-07T18:23:37Z</time>
      </trkpt>
      <trkpt lat="46.17915" lon="4.5544">
        <ele>392</ele>
        <time>2017-11-07T18:25:37Z</time>
      </trkpt>
      <trkpt lat="46.17909" lon="4.55444">
        <ele>391</ele>
        <time>2017-11-07T18:27:37Z</time>
      </trkpt>
      <trkpt lat="46.17902" lon="4.55452">
        <ele>392</ele>
        <time>2017-11-07T18:29:37Z</time>
      </trkpt>
      <trkpt lat="46.17896" lon="4.55459">
        <ele>392</ele>
        <time>2017-11-07T18:31:37Z</time>
      </trkpt>
      <trkpt lat="46.1789" lon="4.55466">
        <ele>392</ele>
        <time>2017-11-07T18:33:37Z</time>
      </trkpt>
      <trkpt lat="46.17883" lon="4.55477">
        <ele>392</ele>
        <time>2017-11-07T18:35:37Z</time>
      </trkpt>
      <trkpt lat="46.17875" lon="4.55489">
        <ele>392</ele>
        <time>2017-11-07T18:37:37Z</time>
      </trkpt>
      <trkpt lat="46.17868" lon="4.55497">
        <ele>391</ele>
        <time>2017-11-07T18:39:37Z</time>
      </trkpt>
      <trkpt lat="46.17863" lon="4.55505">
        <ele>391</ele>
        <time>2017-11-07T18:41:37Z</time>
      </trkpt>
      <trkpt lat="46.17861" lon="4.55508">
        <ele>391</ele>
        <time>2017-11-07T18:43:37Z</time>
      </trkpt>
      <trkpt lat="46.17855" lon="4.55516">
        <ele>390</ele>
        <time>2017-11-07T18:45:37Z</time>
      </trkpt>
      <trkpt lat="46.17838" lon="4.55528">
        <ele>387</ele>
        <time>2017-11-07T18:47:37Z</time>
      </trkpt>
      <trkpt lat="46.17823" lon="4.55534">
        <ele>386</ele>
        <time>2017-11-07T18:49:37Z</time>
      </trkpt>
      <trkpt lat="46.17809" lon="4.55538">
        <ele>386</ele>
        <time>2017-11-07T18:51:37Z</time>
      </trkpt>
      <trkpt lat="46.17777" lon="4.55543">
        <ele>385</ele>
        <time>2017-11-07T18:53:37Z</time>
      </trkpt>
      <trkpt lat="46.17754" lon="4.55546">
        <ele>384</ele>
        <time>2017-11-07T18:55:37Z</time>
      </trkpt>
      <trkpt lat="46.17743" lon="4.55546">
        <ele>384</ele>
        <time>2017-11-07T18:57:37Z</time>
      </trkpt>
      <trkpt lat="46.17721" lon="4.55549">
        <ele>383</ele>
        <time>2017-11-07T18:59:37Z</time>
      </trkpt>
      <trkpt lat="46.17699" lon="4.55554">
        <ele>382</ele>
        <time>2017-11-07T19:01:37Z</time>
      </trkpt>
      <trkpt lat="46.17657" lon="4.55568">
        <ele>381</ele>
        <time>2017-11-07T19:03:37Z</time>
      </trkpt>
      <trkpt lat="46.17642" lon="4.55575">
        <ele>381</ele>
        <time>2017-11-07T19:05:37Z</time>
      </trkpt>
      <trkpt lat="46.17626" lon="4.55583">
        <ele>381</ele>
        <time>2017-11-07T19:07:37Z</time>
      </trkpt>
      <trkpt lat="46.17608" lon="4.55594">
        <ele>380</ele>
        <time>2017-11-07T19:09:37Z</time>
      </trkpt>
      <trkpt lat="46.1759" lon="4.55608">
        <ele>380</ele>
        <time>2017-11-07T19:11:37Z</time>
      </trkpt>
      <trkpt lat="46.17542" lon="4.55648">
        <ele>377</ele>
        <time>2017-11-07T19:13:37Z</time>
      </trkpt>
      <trkpt lat="46.17522" lon="4.55664">
        <ele>376</ele>
        <time>2017-11-07T19:15:37Z</time>
      </trkpt>
      <trkpt lat="46.17501" lon="4.55682">
        <ele>376</ele>
        <time>2017-11-07T19:17:37Z</time>
      </trkpt>
      <trkpt lat="46.17495" lon="4.55687">
        <ele>376</ele>
        <time>2017-11-07T19:19:37Z</time>
      </trkpt>
      <trkpt lat="46.17491" lon="4.5569">
        <ele>376</ele>
        <time>2017-11-07T19:21:37Z</time>
      </trkpt>
      <trkpt lat="46.17485" lon="4.55695">
        <ele>376</ele>
        <time>2017-11-07T19:23:37Z</time>
      </trkpt>
      <trkpt lat="46.17475" lon="4.55704">
        <ele>376</ele>
        <time>2017-11-07T19:25:37Z</time>
      </trkpt>
      <trkpt lat="46.17464" lon="4.55709">
        <ele>375</ele>
        <time>2017-11-07T19:27:37Z</time>
      </trkpt>
      <trkpt lat="46.17451" lon="4.55712">
        <ele>375</ele>
        <time>2017-11-07T19:29:37Z</time>
      </trkpt>
      <trkpt lat="46.17439" lon="4.55712">
        <ele>374</ele>
        <time>2017-11-07T19:31:37Z</time>
      </trkpt>
      <trkpt lat="46.17425" lon="4.55707">
        <ele>373</ele>
        <time>2017-11-07T19:33:37Z</time>
      </trkpt>
      <trkpt lat="46.17398" lon="4.55699">
        <ele>370</ele>
        <time>2017-11-07T19:35:37Z</time>
      </trkpt>
      <trkpt lat="46.17384" lon="4.55696">
        <ele>369</ele>
        <time>2017-11-07T19:37:37Z</time>
      </trkpt>
      <trkpt lat="46.17372" lon="4.55696">
        <ele>368</ele>
        <time>2017-11-07T19:39:37Z</time>
      </trkpt>
      <trkpt lat="46.17357" lon="4.55698">
        <ele>367</ele>
        <time>2017-11-07T19:41:37Z</time>
      </trkpt>
      <trkpt lat="46.17287" lon="4.55734">
        <ele>366</ele>
        <time>2017-11-07T19:43:37Z</time>
      </trkpt>
      <trkpt lat="46.17275" lon="4.55741">
        <ele>366</ele>
        <time>2017-11-07T19:45:37Z</time>
      </trkpt>
      <trkpt lat="46.17252" lon="4.55748">
        <ele>364</ele>
        <time>2017-11-07T19:47:37Z</time>
      </trkpt>
      <trkpt lat="46.17212" lon="4.55754">
        <ele>361</ele>
        <time>2017-11-07T19:49:37Z</time>
      </trkpt>
      <trkpt lat="46.17199" lon="4.55756">
        <ele>360</ele>
        <time>2017-11-07T19:51:37Z</time>
      </trkpt>
      <trkpt lat="46.17188" lon="4.55761">
        <ele>360</ele>
        <time>2017-11-07T19:53:37Z</time>
      </trkpt>
      <trkpt lat="46.17177" lon="4.55766">
        <ele>359</ele>
        <time>2017-11-07T19:55:37Z</time>
      </trkpt>
      <trkpt lat="46.17168" lon="4.55772">
        <ele>359</ele>
        <time>2017-11-07T19:57:37Z</time>
      </trkpt>
      <trkpt lat="46.17152" lon="4.55782">
        <ele>359</ele>
        <time>2017-11-07T19:59:37Z</time>
      </trkpt>
      <trkpt lat="46.17086" lon="4.55827">
        <ele>355</ele>
        <time>2017-11-07T20:01:37Z</time>
      </trkpt>
      <trkpt lat="46.1708" lon="4.55833">
        <ele>355</ele>
        <time>2017-11-07T20:03:37Z</time>
      </trkpt>
      <trkpt lat="46.17077" lon="4.55834">
        <ele>355</ele>
        <time>2017-11-07T20:05:37Z</time>
      </trkpt>
      <trkpt lat="46.17058" lon="4.55849">
        <ele>355</ele>
        <time>2017-11-07T20:07:37Z</time>
      </trkpt>
      <trkpt lat="46.17047" lon="4.55856">
        <ele>355</ele>
        <time>2017-11-07T20:09:37Z</time>
      </trkpt>
      <trkpt lat="46.17027" lon="4.55868">
        <ele>355</ele>
        <time>2017-11-07T20:11:37Z</time>
      </trkpt>
      <trkpt lat="46.17" lon="4.55879">
        <ele>354</ele>
        <time>2017-11-07T20:13:37Z</time>
      </trkpt>
      <trkpt lat="46.16941" lon="4.55896">
        <ele>353</ele>
        <time>2017-11-07T20:15:37Z</time>
      </trkpt>
      <trkpt lat="46.16905" lon="4.55907">
        <ele>352</ele>
        <time>2017-11-07T20:17:37Z</time>
      </trkpt>
      <trkpt lat="46.16899" lon="4.55909">
        <ele>352</ele>
        <time>2017-11-07T20:19:37Z</time>
      </trkpt>
      <trkpt lat="46.16891" lon="4.55911">
        <ele>352</ele>
        <time>2017-11-07T20:21:37Z</time>
      </trkpt>
      <trkpt lat="46.16882" lon="4.55913">
        <ele>352</ele>
        <time>2017-11-07T20:23:37Z</time>
      </trkpt>
      <trkpt lat="46.16872" lon="4.55916">
        <ele>353</ele>
        <time>2017-11-07T20:25:37Z</time>
      </trkpt>
      <trkpt lat="46.16842" lon="4.55924">
        <ele>353</ele>
        <time>2017-11-07T20:27:37Z</time>
      </trkpt>
      <trkpt lat="46.16802" lon="4.55936">
        <ele>354</ele>
        <time>2017-11-07T20:29:37Z</time>
      </trkpt>
      <trkpt lat="46.16762" lon="4.55948">
        <ele>354</ele>
        <time>2017-11-07T20:31:37Z</time>
      </trkpt>
      <trkpt lat="46.16712" lon="4.55961">
        <ele>357</ele>
        <time>2017-11-07T20:33:37Z</time>
      </trkpt>
      <trkpt lat="46.16689" lon="4.55967">
        <ele>359</ele>
        <time>2017-11-07T20:35:37Z</time>
      </trkpt>
      <trkpt lat="46.16685" lon="4.55968">
        <ele>359</ele>
        <time>2017-11-07T20:37:37Z</time>
      </trkpt>
      <trkpt lat="46.16681" lon="4.55969">
        <ele>359</ele>
        <time>2017-11-07T20:39:37Z</time>
      </trkpt>
      <trkpt lat="46.16677" lon="4.55968">
        <ele>360</ele>
        <time>2017-11-07T20:41:37Z</time>
      </trkpt>
      <trkpt lat="46.16669" lon="4.55965">
        <ele>361</ele>
        <time>2017-11-07T20:43:37Z</time>
      </trkpt>
      <trkpt lat="46.16669" lon="4.55965">
        <ele>361</ele>
        <time>2017-11-07T20:45:37Z</time>
      </trkpt>
      <trkpt lat="46.16668" lon="4.55967">
        <ele>361</ele>
        <time>2017-11-07T20:47:37Z</time>
      </trkpt>
      <trkpt lat="46.16653" lon="4.56011">
        <ele>360</ele>
        <time>2017-11-07T20:49:37Z</time>
      </trkpt>
      <trkpt lat="46.16648" lon="4.56019">
        <ele>360</ele>
        <time>2017-11-07T20:51:37Z</time>
      </trkpt>
      <trkpt lat="46.16641" lon="4.56044">
        <ele>360</ele>
        <time>2017-11-07T20:53:37Z</time>
      </trkpt>
      <trkpt lat="46.16622" lon="4.56101">
        <ele>360</ele>
        <time>2017-11-07T20:55:37Z</time>
      </trkpt>
      <trkpt lat="46.16578" lon="4.56241">
        <ele>357</ele>
        <time>2017-11-07T20:57:37Z</time>
      </trkpt>
      <trkpt lat="46.16574" lon="4.56246">
        <ele>357</ele>
        <time>2017-11-07T20:59:37Z</time>
      </trkpt>
      <trkpt lat="46.16556" lon="4.56302">
        <ele>356</ele>
        <time>2017-11-07T21:01:37Z</time>
      </trkpt>
      <trkpt lat="46.16544" lon="4.56342">
        <ele>355</ele>
        <time>2017-11-07T21:03:37Z</time>
      </trkpt>
      <trkpt lat="46.16542" lon="4.56348">
        <ele>355</ele>
        <time>2017-11-07T21:05:37Z</time>
      </trkpt>
      <trkpt lat="46.16532" lon="4.56382">
        <ele>354</ele>
        <time>2017-11-07T21:07:37Z</time>
      </trkpt>
      <trkpt lat="46.16529" lon="4.56393">
        <ele>353</ele>
        <time>2017-11-07T21:09:37Z</time>
      </trkpt>
      <trkpt lat="46.16521" lon="4.56417">
        <ele>353</ele>
        <time>2017-11-07T21:11:37Z</time>
      </trkpt>
      <trkpt lat="46.16516" lon="4.56431">
        <ele>352</ele>
        <time>2017-11-07T21:13:37Z</time>
      </trkpt>
      <trkpt lat="46.16512" lon="4.56442">
        <ele>351</ele>
        <time>2017-11-07T21:15:37Z</time>
      </trkpt>
      <trkpt lat="46.16508" lon="4.56453">
        <ele>350</ele>
        <time>2017-11-07T21:17:37Z</time>
      </trkpt>
      <trkpt lat="46.16499" lon="4.56469">
        <ele>349</ele>
        <time>2017-11-07T21:19:37Z</time>
      </trkpt>
      <trkpt lat="46.16491" lon="4.56483">
        <ele>347</ele>
        <time>2017-11-07T21:21:37Z</time>
      </trkpt>
      <trkpt lat="46.16488" lon="4.56487">
        <ele>347</ele>
        <time>2017-11-07T21:23:37Z</time>
      </trkpt>
      <trkpt lat="46.16451" lon="4.56548">
        <ele>344</ele>
        <time>2017-11-07T21:25:37Z</time>
      </trkpt>
      <trkpt lat="46.16449" lon="4.56556">
        <ele>344</ele>
        <time>2017-11-07T21:27:37Z</time>
      </trkpt>
      <trkpt lat="46.16438" lon="4.56575">
        <ele>344</ele>
        <time>2017-11-07T21:29:37Z</time>
      </trkpt>
      <trkpt lat="46.16436" lon="4.5658">
        <ele>344</ele>
        <time>2017-11-07T21:31:37Z</time>
      </trkpt>
      <trkpt lat="46.16433" lon="4.5659">
        <ele>345</ele>
        <time>2017-11-07T21:33:37Z</time>
      </trkpt>
      <trkpt lat="46.16431" lon="4.56596">
        <ele>345</ele>
        <time>2017-11-07T21:35:37Z</time>
      </trkpt>
      <trkpt lat="46.16425" lon="4.56618">
        <ele>345</ele>
        <time>2017-11-07T21:37:37Z</time>
      </trkpt>
      <trkpt lat="46.16423" lon="4.56628">
        <ele>345</ele>
        <time>2017-11-07T21:39:37Z</time>
      </trkpt>
      <trkpt lat="46.16418" lon="4.56663">
        <ele>346</ele>
        <time>2017-11-07T21:41:37Z</time>
      </trkpt>
      <trkpt lat="46.16416" lon="4.56683">
        <ele>346</ele>
        <time>2017-11-07T21:43:37Z</time>
      </trkpt>
      <trkpt lat="46.16409" lon="4.56781">
        <ele>348</ele>
        <time>2017-11-07T21:45:37Z</time>
      </trkpt>
      <trkpt lat="46.16404" lon="4.56828">
        <ele>348</ele>
        <time>2017-11-07T21:47:37Z</time>
      </trkpt>
      <trkpt lat="46.16403" lon="4.56843">
        <ele>347</ele>
        <time>2017-11-07T21:49:37Z</time>
      </trkpt>
      <trkpt lat="46.16398" lon="4.56884">
        <ele>346</ele>
        <time>2017-11-07T21:51:37Z</time>
      </trkpt>
      <trkpt lat="46.16395" lon="4.56899">
        <ele>346</ele>
        <time>2017-11-07T21:53:37Z</time>
      </trkpt>
      <trkpt lat="46.16394" lon="4.56904">
        <ele>346</ele>
        <time>2017-11-07T21:55:37Z</time>
      </trkpt>
      <trkpt lat="46.16393" lon="4.56908">
        <ele>346</ele>
        <time>2017-11-07T21:57:37Z</time>
      </trkpt>
      <trkpt lat="46.1639" lon="4.56918">
        <ele>346</ele>
        <time>2017-11-07T21:59:37Z</time>
      </trkpt>
      <trkpt lat="46.16385" lon="4.56928">
        <ele>345</ele>
        <time>2017-11-07T22:01:37Z</time>
      </trkpt>
      <trkpt lat="46.16384" lon="4.56932">
        <ele>345</ele>
        <time>2017-11-07T22:03:37Z</time>
      </trkpt>
      <trkpt lat="46.16379" lon="4.56942">
        <ele>344</ele>
        <time>2017-11-07T22:05:37Z</time>
      </trkpt>
      <trkpt lat="46.16377" lon="4.56946">
        <ele>344</ele>
        <time>2017-11-07T22:07:37Z</time>
      </trkpt>
      <trkpt lat="46.16377" lon="4.56946">
        <ele>344</ele>
        <time>2017-11-07T22:09:37Z</time>
      </trkpt>
      <trkpt lat="46.16374" lon="4.56956">
        <ele>343</ele>
        <time>2017-11-07T22:11:37Z</time>
      </trkpt>
      <trkpt lat="46.16358" lon="4.56977">
        <ele>342</ele>
        <time>2017-11-07T22:13:37Z</time>
      </trkpt>
      <trkpt lat="46.16352" lon="4.56984">
        <ele>342</ele>
        <time>2017-11-07T22:15:37Z</time>
      </trkpt>
      <trkpt lat="46.16343" lon="4.56992">
        <ele>341</ele>
        <time>2017-11-07T22:17:37Z</time>
      </trkpt>
      <trkpt lat="46.16343" lon="4.56992">
        <ele>341</ele>
        <time>2017-11-07T22:19:37Z</time>
      </trkpt>
      <trkpt lat="46.16339" lon="4.56999">
        <ele>341</ele>
        <time>2017-11-07T22:21:37Z</time>
      </trkpt>
      <trkpt lat="46.16338" lon="4.57">
        <ele>341</ele>
        <time>2017-11-07T22:23:37Z</time>
      </trkpt>
      <trkpt lat="46.16326" lon="4.57011">
        <ele>342</ele>
        <time>2017-11-07T22:25:37Z</time>
      </trkpt>
      <trkpt lat="46.16311" lon="4.57026">
        <ele>344</ele>
        <time>2017-11-07T22:27:37Z</time>
      </trkpt>
      <trkpt lat="46.16301" lon="4.57039">
        <ele>346</ele>
        <time>2017-11-07T22:29:37Z</time>
      </trkpt>
      <trkpt lat="46.16294" lon="4.5705">
        <ele>346</ele>
        <time>2017-11-07T22:31:37Z</time>
      </trkpt>
      <trkpt lat="46.16287" lon="4.5706">
        <ele>347</ele>
        <time>2017-11-07T22:33:37Z</time>
      </trkpt>
      <trkpt lat="46.16275" lon="4.57087">
        <ele>347</ele>
        <time>2017-11-07T22:35:37Z</time>
      </trkpt>
      <trkpt lat="46.16261" lon="4.57119">
        <ele>345</ele>
        <time>2017-11-07T22:37:37Z</time>
      </trkpt>
      <trkpt lat="46.16248" lon="4.5715">
        <ele>343</ele>
        <time>2017-11-07T22:39:37Z</time>
      </trkpt>
      <trkpt lat="46.16241" lon="4.57168">
        <ele>343</ele>
        <time>2017-11-07T22:41:37Z</time>
      </trkpt>
      <trkpt lat="46.16232" lon="4.57194">
        <ele>342</ele>
        <time>2017-11-07T22:43:37Z</time>
      </trkpt>
      <trkpt lat="46.16227" lon="4.57212">
        <ele>341</ele>
        <time>2017-11-07T22:45:37Z</time>
      </trkpt>
      <trkpt lat="46.16215" lon="4.57259">
        <ele>339</ele>
        <time>2017-11-07T22:47:37Z</time>
      </trkpt>
      <trkpt lat="46.16204" lon="4.57299">
        <ele>338</ele>
        <time>2017-11-07T22:49:37Z</time>
      </trkpt>
      <trkpt lat="46.16176" lon="4.57376">
        <ele>336</ele>
        <time>2017-11-07T22:51:37Z</time>
      </trkpt>
      <trkpt lat="46.16134" lon="4.57477">
        <ele>333</ele>
        <time>2017-11-07T22:53:37Z</time>
      </trkpt>
      <trkpt lat="46.16107" lon="4.57541">
        <ele>331</ele>
        <time>2017-11-07T22:55:37Z</time>
      </trkpt>
      <trkpt lat="46.16051" lon="4.57679">
        <ele>328</ele>
        <time>2017-11-07T22:57:37Z</time>
      </trkpt>
      <trkpt lat="46.16002" lon="4.57798">
        <ele>323</ele>
        <time>2017-11-07T22:59:37Z</time>
      </trkpt>
      <trkpt lat="46.15978" lon="4.57864">
        <ele>328</ele>
        <time>2017-11-07T23:01:37Z</time>
      </trkpt>
      <trkpt lat="46.15961" lon="4.57924">
        <ele>329</ele>
        <time>2017-11-07T23:03:37Z</time>
      </trkpt>
      <trkpt lat="46.15942" lon="4.58003">
        <ele>327</ele>
        <time>2017-11-07T23:05:37Z</time>
      </trkpt>
      <trkpt lat="46.1593" lon="4.58083">
        <ele>320</ele>
        <time>2017-11-07T23:07:37Z</time>
      </trkpt>
      <trkpt lat="46.15928" lon="4.58087">
        <ele>320</ele>
        <time>2017-11-07T23:09:37Z</time>
      </trkpt>
      <trkpt lat="46.15922" lon="4.58101">
        <ele>319</ele>
        <time>2017-11-07T23:11:37Z</time>
      </trkpt>
      <trkpt lat="46.15892" lon="4.58159">
        <ele>318</ele>
        <time>2017-11-07T23:13:37Z</time>
      </trkpt>
      <trkpt lat="46.15886" lon="4.58168">
        <ele>318</ele>
        <time>2017-11-07T23:15:37Z</time>
      </trkpt>
      <trkpt lat="46.15878" lon="4.58177">
        <ele>318</ele>
        <time>2017-11-07T23:17:37Z</time>
      </trkpt>
      <trkpt lat="46.15846" lon="4.58206">
        <ele>317</ele>
        <time>2017-11-07T23:19:37Z</time>
      </trkpt>
      <trkpt lat="46.15826" lon="4.58236">
        <ele>315</ele>
        <time>2017-11-07T23:21:37Z</time>
      </trkpt>
      <trkpt lat="46.15811" lon="4.58262">
        <ele>315</ele>
        <time>2017-11-07T23:23:37Z</time>
      </trkpt>
      <trkpt lat="46.15793" lon="4.58289">
        <ele>316</ele>
        <time>2017-11-07T23:25:37Z</time>
      </trkpt>
      <trkpt lat="46.15773" lon="4.58311">
        <ele>315</ele>
        <time>2017-11-07T23:27:37Z</time>
      </trkpt>
      <trkpt lat="46.1575" lon="4.5833">
        <ele>314</ele>
        <time>2017-11-07T23:29:37Z</time>
      </trkpt>
      <trkpt lat="46.15738" lon="4.58343">
        <ele>316</ele>
        <time>2017-11-07T23:31:37Z</time>
      </trkpt>
      <trkpt lat="46.15692" lon="4.58402">
        <ele>316</ele>
        <time>2017-11-07T23:33:37Z</time>
      </trkpt>
      <trkpt lat="46.15682" lon="4.58413">
        <ele>314</ele>
        <time>2017-11-07T23:35:37Z</time>
      </trkpt>
      <trkpt lat="46.15662" lon="4.58431">
        <ele>313</ele>
        <time>2017-11-07T23:37:37Z</time>
      </trkpt>
      <trkpt lat="46.15626" lon="4.58463">
        <ele>314</ele>
        <time>2017-11-07T23:39:37Z</time>
      </trkpt>
      <trkpt lat="46.15618" lon="4.58466">
        <ele>313</ele>
        <time>2017-11-07T23:41:37Z</time>
      </trkpt>
      <trkpt lat="46.15609" lon="4.58466">
        <ele>313</ele>
        <time>2017-11-07T23:43:37Z</time>
      </trkpt>
      <trkpt lat="46.15602" lon="4.58467">
        <ele>313</ele>
        <time>2017-11-07T23:45:37Z</time>
      </trkpt>
      <trkpt lat="46.15587" lon="4.58467">
        <ele>313</ele>
        <time>2017-11-07T23:47:37Z</time>
      </trkpt>
      <trkpt lat="46.15579" lon="4.58469">
        <ele>313</ele>
        <time>2017-11-07T23:49:37Z</time>
      </trkpt>
      <trkpt lat="46.15571" lon="4.58472">
        <ele>313</ele>
        <time>2017-11-07T23:51:37Z</time>
      </trkpt>
      <trkpt lat="46.15559" lon="4.58483">
        <ele>311</ele>
        <time>2017-11-07T23:53:37Z</time>
      </trkpt>
      <trkpt lat="46.15544" lon="4.58498">
        <ele>309</ele>
        <time>2017-11-07T23:55:37Z</time>
      </trkpt>
      <trkpt lat="46.15532" lon="4.58514">
        <ele>309</ele>
        <time>2017-11-07T23:57:37Z</time>
      </trkpt>
      <trkpt lat="46.15516" lon="4.58537">
        <ele>309</ele>
        <time>2017-11-07T23:59:37Z</time>
      </trkpt>
      <trkpt lat="46.15514" lon="4.58552">
        <ele>309</ele>
        <time>2017-11-08T00:01:37Z</time>
      </trkpt>
      <trkpt lat="46.15514" lon="4.58568">
        <ele>309</ele>
        <time>2017-11-08T00:03:37Z</time>
      </trkpt>
      <trkpt lat="46.15517" lon="4.58599">
        <ele>309</ele>
        <time>2017-11-08T00:05:37Z</time>
      </trkpt>
      <trkpt lat="46.15517" lon="4.58617">
        <ele>309</ele>
        <time>2017-11-08T00:07:37Z</time>
      </trkpt>
      <trkpt lat="46.15517" lon="4.5864">
        <ele>310</ele>
        <time>2017-11-08T00:09:37Z</time>
      </trkpt>
      <trkpt lat="46.15515" lon="4.58662">
        <ele>310</ele>
        <time>2017-11-08T00:11:37Z</time>
      </trkpt>
      <trkpt lat="46.15511" lon="4.58682">
        <ele>310</ele>
        <time>2017-11-08T00:13:37Z</time>
      </trkpt>
      <trkpt lat="46.15503" lon="4.58714">
        <ele>310</ele>
        <time>2017-11-08T00:15:37Z</time>
      </trkpt>
      <trkpt lat="46.15488" lon="4.58772">
        <ele>312</ele>
        <time>2017-11-08T00:17:37Z</time>
      </trkpt>
      <trkpt lat="46.15485" lon="4.58782">
        <ele>312</ele>
        <time>2017-11-08T00:19:37Z</time>
      </trkpt>
      <trkpt lat="46.1548" lon="4.58795">
        <ele>312</ele>
        <time>2017-11-08T00:21:37Z</time>
      </trkpt>
      <trkpt lat="46.15467" lon="4.58825">
        <ele>312</ele>
        <time>2017-11-08T00:23:37Z</time>
      </trkpt>
      <trkpt lat="46.15447" lon="4.58862">
        <ele>311</ele>
        <time>2017-11-08T00:25:37Z</time>
      </trkpt>
      <trkpt lat="46.15415" lon="4.58925">
        <ele>307</ele>
        <time>2017-11-08T00:27:37Z</time>
      </trkpt>
      <trkpt lat="46.15396" lon="4.58961">
        <ele>307</ele>
        <time>2017-11-08T00:29:37Z</time>
      </trkpt>
      <trkpt lat="46.15392" lon="4.58966">
        <ele>307</ele>
        <time>2017-11-08T00:31:37Z</time>
      </trkpt>
      <trkpt lat="46.15368" lon="4.58999">
        <ele>305</ele>
        <time>2017-11-08T00:33:37Z</time>
      </trkpt>
      <trkpt lat="46.15358" lon="4.59014">
        <ele>305</ele>
        <time>2017-11-08T00:35:37Z</time>
      </trkpt>
      <trkpt lat="46.1534" lon="4.59047">
        <ele>304</ele>
        <time>2017-11-08T00:37:37Z</time>
      </trkpt>
      <trkpt lat="46.15237" lon="4.59231">
        <ele>301</ele>
        <time>2017-11-08T00:39:37Z</time>
      </trkpt>
      <trkpt lat="46.15145" lon="4.59392">
        <ele>298</ele>
        <time>2017-11-08T00:41:37Z</time>
      </trkpt>
      <trkpt lat="46.15117" lon="4.59441">
        <ele>298</ele>
        <time>2017-11-08T00:43:37Z</time>
      </trkpt>
      <trkpt lat="46.15077" lon="4.59512">
        <ele>295</ele>
        <time>2017-11-08T00:45:37Z</time>
      </trkpt>
      <trkpt lat="46.15057" lon="4.59549">
        <ele>296</ele>
        <time>2017-11-08T00:47:37Z</time>
      </trkpt>
      <trkpt lat="46.15054" lon="4.59552">
        <ele>296</ele>
        <time>2017-11-08T00:49:37Z</time>
      </trkpt>
      <trkpt lat="46.15052" lon="4.59554">
        <ele>296</ele>
        <time>2017-11-08T00:51:37Z</time>
      </trkpt>
      <trkpt lat="46.15047" lon="4.59563">
        <ele>296</ele>
        <time>2017-11-08T00:53:37Z</time>
      </trkpt>
      <trkpt lat="46.15046" lon="4.59566">
        <ele>296</ele>
        <time>2017-11-08T00:55:37Z</time>
      </trkpt>
      <trkpt lat="46.15042" lon="4.59572">
        <ele>296</ele>
        <time>2017-11-08T00:57:37Z</time>
      </trkpt>
      <trkpt lat="46.15039" lon="4.59579">
        <ele>296</ele>
        <time>2017-11-08T00:59:37Z</time>
      </trkpt>
      <trkpt lat="46.15033" lon="4.59588">
        <ele>296</ele>
        <time>2017-11-08T01:01:37Z</time>
      </trkpt>
      <trkpt lat="46.15027" lon="4.59597">
        <ele>296</ele>
        <time>2017-11-08T01:03:37Z</time>
      </trkpt>
      <trkpt lat="46.15018" lon="4.5961">
        <ele>297</ele>
        <time>2017-11-08T01:05:37Z</time>
      </trkpt>
      <trkpt lat="46.15014" lon="4.59614">
        <ele>297</ele>
        <time>2017-11-08T01:07:37Z</time>
      </trkpt>
      <trkpt lat="46.15009" lon="4.59619">
        <ele>297</ele>
        <time>2017-11-08T01:09:37Z</time>
      </trkpt>
      <trkpt lat="46.14998" lon="4.59629">
        <ele>297</ele>
        <time>2017-11-08T01:11:37Z</time>
      </trkpt>
      <trkpt lat="46.14989" lon="4.59636">
        <ele>297</ele>
        <time>2017-11-08T01:13:37Z</time>
      </trkpt>
      <trkpt lat="46.14976" lon="4.59646">
        <ele>297</ele>
        <time>2017-11-08T01:15:37Z</time>
      </trkpt>
      <trkpt lat="46.14972" lon="4.59648">
        <ele>297</ele>
        <time>2017-11-08T01:17:37Z</time>
      </trkpt>
      <trkpt lat="46.14968" lon="4.5965">
        <ele>296</ele>
        <time>2017-11-08T01:19:37Z</time>
      </trkpt>
      <trkpt lat="46.14963" lon="4.59652">
        <ele>296</ele>
        <time>2017-11-08T01:21:37Z</time>
      </trkpt>
      <trkpt lat="46.14955" lon="4.59655">
        <ele>296</ele>
        <time>2017-11-08T01:23:37Z</time>
      </trkpt>
      <trkpt lat="46.14947" lon="4.59658">
        <ele>295</ele>
        <time>2017-11-08T01:25:37Z</time>
      </trkpt>
      <trkpt lat="46.1494" lon="4.59659">
        <ele>295</ele>
        <time>2017-11-08T01:27:37Z</time>
      </trkpt>
      <trkpt lat="46.14938" lon="4.5966">
        <ele>294</ele>
        <time>2017-11-08T01:29:37Z</time>
      </trkpt>
      <trkpt lat="46.14934" lon="4.5966">
        <ele>294</ele>
        <time>2017-11-08T01:31:37Z</time>
      </trkpt>
      <trkpt lat="46.14929" lon="4.59661">
        <ele>294</ele>
        <time>2017-11-08T01:33:37Z</time>
      </trkpt>
      <trkpt lat="46.14925" lon="4.59661">
        <ele>293</ele>
        <time>2017-11-08T01:35:37Z</time>
      </trkpt>
      <trkpt lat="46.14921" lon="4.59663">
        <ele>293</ele>
        <time>2017-11-08T01:37:37Z</time>
      </trkpt>
      <trkpt lat="46.14921" lon="4.59663">
        <ele>293</ele>
        <time>2017-11-08T01:39:37Z</time>
      </trkpt>
      <trkpt lat="46.14918" lon="4.59667">
        <ele>293</ele>
        <time>2017-11-08T01:41:37Z</time>
      </trkpt>
      <trkpt lat="46.14914" lon="4.59673">
        <ele>293</ele>
        <time>2017-11-08T01:43:37Z</time>
      </trkpt>
      <trkpt lat="46.14904" lon="4.5969">
        <ele>294</ele>
        <time>2017-11-08T01:45:37Z</time>
      </trkpt>
      <trkpt lat="46.14901" lon="4.59696">
        <ele>294</ele>
        <time>2017-11-08T01:47:37Z</time>
      </trkpt>
      <trkpt lat="46.14898" lon="4.59703">
        <ele>294</ele>
        <time>2017-11-08T01:49:37Z</time>
      </trkpt>
      <trkpt lat="46.14888" lon="4.59723">
        <ele>294</ele>
        <time>2017-11-08T01:51:37Z</time>
      </trkpt>
      <trkpt lat="46.14882" lon="4.59737">
        <ele>294</ele>
        <time>2017-11-08T01:53:37Z</time>
      </trkpt>
      <trkpt lat="46.14876" lon="4.59752">
        <ele>294</ele>
        <time>2017-11-08T01:55:37Z</time>
      </trkpt>
      <trkpt lat="46.14873" lon="4.5976">
        <ele>294</ele>
        <time>2017-11-08T01:57:37Z</time>
      </trkpt>
      <trkpt lat="46.14871" lon="4.59768">
        <ele>294</ele>
        <time>2017-11-08T01:59:37Z</time>
      </trkpt>
      <trkpt lat="46.14868" lon="4.59776">
        <ele>295</ele>
        <time>2017-11-08T02:01:37Z</time>
      </trkpt>
      <trkpt lat="46.14864" lon="4.59793">
        <ele>295</ele>
        <time>2017-11-08T02:03:37Z</time>
      </trkpt>
      <trkpt lat="46.14859" lon="4.59818">
        <ele>296</ele>
        <time>2017-11-08T02:05:37Z</time>
      </trkpt>
      <trkpt lat="46.14857" lon="4.59826">
        <ele>296</ele>
        <time>2017-11-08T02:07:37Z</time>
      </trkpt>
      <trkpt lat="46.14855" lon="4.59834">
        <ele>296</ele>
        <time>2017-11-08T02:09:37Z</time>
      </trkpt>
      <trkpt lat="46.14852" lon="4.59851">
        <ele>297</ele>
        <time>2017-11-08T02:11:37Z</time>
      </trkpt>
      <trkpt lat="46.14849" lon="4.59859">
        <ele>297</ele>
        <time>2017-11-08T02:13:37Z</time>
      </trkpt>
      <trkpt lat="46.14842" lon="4.59884">
        <ele>297</ele>
        <time>2017-11-08T02:15:37Z</time>
      </trkpt>
      <trkpt lat="46.14834" lon="4.59909">
        <ele>296</ele>
        <time>2017-11-08T02:17:37Z</time>
      </trkpt>
      <trkpt lat="46.14829" lon="4.59924">
        <ele>296</ele>
        <time>2017-11-08T02:19:37Z</time>
      </trkpt>
      <trkpt lat="46.14826" lon="4.59931">
        <ele>297</ele>
        <time>2017-11-08T02:21:37Z</time>
      </trkpt>
      <trkpt lat="46.14823" lon="4.59938">
        <ele>297</ele>
        <time>2017-11-08T02:23:37Z</time>
      </trkpt>
      <trkpt lat="46.1482" lon="4.59944">
        <ele>297</ele>
        <time>2017-11-08T02:25:37Z</time>
      </trkpt>
      <trkpt lat="46.14816" lon="4.5995">
        <ele>297</ele>
        <time>2017-11-08T02:27:37Z</time>
      </trkpt>
      <trkpt lat="46.14812" lon="4.59955">
        <ele>297</ele>
        <time>2017-11-08T02:29:37Z</time>
      </trkpt>
      <trkpt lat="46.14808" lon="4.5996">
        <ele>297</ele>
        <time>2017-11-08T02:31:37Z</time>
      </trkpt>
      <trkpt lat="46.14803" lon="4.59964">
        <ele>296</ele>
        <time>2017-11-08T02:33:37Z</time>
      </trkpt>
      <trkpt lat="46.14794" lon="4.59971">
        <ele>296</ele>
        <time>2017-11-08T02:35:37Z</time>
      </trkpt>
      <trkpt lat="46.14789" lon="4.59974">
        <ele>295</ele>
        <time>2017-11-08T02:37:37Z</time>
      </trkpt>
      <trkpt lat="46.14784" lon="4.59978">
        <ele>295</ele>
        <time>2017-11-08T02:39:37Z</time>
      </trkpt>
      <trkpt lat="46.14779" lon="4.59982">
        <ele>294</ele>
        <time>2017-11-08T02:41:37Z</time>
      </trkpt>
      <trkpt lat="46.14775" lon="4.59986">
        <ele>294</ele>
        <time>2017-11-08T02:43:37Z</time>
      </trkpt>
      <trkpt lat="46.14771" lon="4.59991">
        <ele>293</ele>
        <time>2017-11-08T02:45:37Z</time>
      </trkpt>
      <trkpt lat="46.14767" lon="4.59997">
        <ele>293</ele>
        <time>2017-11-08T02:47:37Z</time>
      </trkpt>
      <trkpt lat="46.14763" lon="4.60003">
        <ele>292</ele>
        <time>2017-11-08T02:49:37Z</time>
      </trkpt>
      <trkpt lat="46.1476" lon="4.60009">
        <ele>292</ele>
        <time>2017-11-08T02:51:37Z</time>
      </trkpt>
      <trkpt lat="46.1476" lon="4.60009">
        <ele>292</ele>
        <time>2017-11-08T02:53:37Z</time>
      </trkpt>
      <trkpt lat="46.14756" lon="4.60009">
        <ele>292</ele>
        <time>2017-11-08T02:55:37Z</time>
      </trkpt>
      <trkpt lat="46.14754" lon="4.60009">
        <ele>291</ele>
        <time>2017-11-08T02:57:37Z</time>
      </trkpt>
      <trkpt lat="46.1475" lon="4.6001">
        <ele>291</ele>
        <time>2017-11-08T02:59:37Z</time>
      </trkpt>
      <trkpt lat="46.14736" lon="4.60015">
        <ele>290</ele>
        <time>2017-11-08T03:01:37Z</time>
      </trkpt>
      <trkpt lat="46.14727" lon="4.60021">
        <ele>290</ele>
        <time>2017-11-08T03:03:37Z</time>
      </trkpt>
      <trkpt lat="46.14727" lon="4.60021">
        <ele>290</ele>
        <time>2017-11-08T03:05:37Z</time>
      </trkpt>
      <trkpt lat="46.147" lon="4.60034">
        <ele>289</ele>
        <time>2017-11-08T03:07:37Z</time>
      </trkpt>
      <trkpt lat="46.14634" lon="4.60071">
        <ele>287</ele>
        <time>2017-11-08T03:09:37Z</time>
      </trkpt>
      <trkpt lat="46.14573" lon="4.60106">
        <ele>287</ele>
        <time>2017-11-08T03:11:37Z</time>
      </trkpt>
      <trkpt lat="46.14487" lon="4.60154">
        <ele>283</ele>
        <time>2017-11-08T03:13:37Z</time>
      </trkpt>
      <trkpt lat="46.14487" lon="4.60154">
        <ele>283</ele>
        <time>2017-11-08T03:15:37Z</time>
      </trkpt>
      <trkpt lat="46.14484" lon="4.60148">
        <ele>283</ele>
        <time>2017-11-08T03:17:37Z</time>
      </trkpt>
      <trkpt lat="46.14484" lon="4.60148">
        <ele>283</ele>
        <time>2017-11-08T03:19:37Z</time>
      </trkpt>
      <trkpt lat="46.14478" lon="4.60155">
        <ele>283</ele>
        <time>2017-11-08T03:21:37Z</time>
      </trkpt>
      <trkpt lat="46.14464" lon="4.60167">
        <ele>282</ele>
        <time>2017-11-08T03:23:37Z</time>
      </trkpt>
      <trkpt lat="46.14438" lon="4.60191">
        <ele>283</ele>
        <time>2017-11-08T03:25:37Z</time>
      </trkpt>
      <trkpt lat="46.14408" lon="4.60223">
        <ele>284</ele>
        <time>2017-11-08T03:27:37Z</time>
      </trkpt>
      <trkpt lat="46.14376" lon="4.60263">
        <ele>284</ele>
        <time>2017-11-08T03:29:37Z</time>
      </trkpt>
      <trkpt lat="46.14353" lon="4.60285">
        <ele>283</ele>
        <time>2017-11-08T03:31:37Z</time>
      </trkpt>
      <trkpt lat="46.14345" lon="4.60291">
        <ele>282</ele>
        <time>2017-11-08T03:33:37Z</time>
      </trkpt>
      <trkpt lat="46.14339" lon="4.60299">
        <ele>282</ele>
        <time>2017-11-08T03:35:37Z</time>
      </trkpt>
      <trkpt lat="46.14333" lon="4.60314">
        <ele>281</ele>
        <time>2017-11-08T03:37:37Z</time>
      </trkpt>
      <trkpt lat="46.14319" lon="4.60348">
        <ele>282</ele>
        <time>2017-11-08T03:39:37Z</time>
      </trkpt>
      <trkpt lat="46.14295" lon="4.60392">
        <ele>283</ele>
        <time>2017-11-08T03:41:37Z</time>
      </trkpt>
      <trkpt lat="46.14276" lon="4.60427">
        <ele>282</ele>
        <time>2017-11-08T03:43:37Z</time>
      </trkpt>
      <trkpt lat="46.14274" lon="4.60429">
        <ele>282</ele>
        <time>2017-11-08T03:45:37Z</time>
      </trkpt>
      <trkpt lat="46.14249" lon="4.6046">
        <ele>279</ele>
        <time>2017-11-08T03:47:37Z</time>
      </trkpt>
      <trkpt lat="46.14243" lon="4.6047">
        <ele>279</ele>
        <time>2017-11-08T03:49:37Z</time>
      </trkpt>
      <trkpt lat="46.14236" lon="4.6051">
        <ele>280</ele>
        <time>2017-11-08T03:51:37Z</time>
      </trkpt>
      <trkpt lat="46.14233" lon="4.60528">
        <ele>280</ele>
        <time>2017-11-08T03:53:37Z</time>
      </trkpt>
      <trkpt lat="46.14217" lon="4.60572">
        <ele>280</ele>
        <time>2017-11-08T03:55:37Z</time>
      </trkpt>
      <trkpt lat="46.14212" lon="4.60585">
        <ele>279</ele>
        <time>2017-11-08T03:57:37Z</time>
      </trkpt>
      <trkpt lat="46.14182" lon="4.6066">
        <ele>277</ele>
        <time>2017-11-08T03:59:37Z</time>
      </trkpt>
      <trkpt lat="46.14162" lon="4.60709">
        <ele>276</ele>
        <time>2017-11-08T04:01:37Z</time>
      </trkpt>
      <trkpt lat="46.14152" lon="4.60734">
        <ele>276</ele>
        <time>2017-11-08T04:03:37Z</time>
      </trkpt>
      <trkpt lat="46.14146" lon="4.60747">
        <ele>276</ele>
        <time>2017-11-08T04:05:37Z</time>
      </trkpt>
      <trkpt lat="46.14134" lon="4.60774">
        <ele>276</ele>
        <time>2017-11-08T04:07:37Z</time>
      </trkpt>
      <trkpt lat="46.14117" lon="4.60795">
        <ele>275</ele>
        <time>2017-11-08T04:09:37Z</time>
      </trkpt>
      <trkpt lat="46.14102" lon="4.60814">
        <ele>273</ele>
        <time>2017-11-08T04:11:37Z</time>
      </trkpt>
      <trkpt lat="46.14094" lon="4.60833">
        <ele>272</ele>
        <time>2017-11-08T04:13:37Z</time>
      </trkpt>
      <trkpt lat="46.1408" lon="4.60889">
        <ele>272</ele>
        <time>2017-11-08T04:15:37Z</time>
      </trkpt>
      <trkpt lat="46.14074" lon="4.60924">
        <ele>273</ele>
        <time>2017-11-08T04:17:37Z</time>
      </trkpt>
      <trkpt lat="46.14071" lon="4.60947">
        <ele>273</ele>
        <time>2017-11-08T04:19:37Z</time>
      </trkpt>
      <trkpt lat="46.1407" lon="4.60953">
        <ele>274</ele>
        <time>2017-11-08T04:21:37Z</time>
      </trkpt>
      <trkpt lat="46.1407" lon="4.60953">
        <ele>274</ele>
        <time>2017-11-08T04:23:37Z</time>
      </trkpt>
      <trkpt lat="46.14044" lon="4.61022">
        <ele>274</ele>
        <time>2017-11-08T04:25:37Z</time>
      </trkpt>
      <trkpt lat="46.14011" lon="4.61103">
        <ele>271</ele>
        <time>2017-11-08T04:27:37Z</time>
      </trkpt>
      <trkpt lat="46.13986" lon="4.61162">
        <ele>270</ele>
        <time>2017-11-08T04:29:37Z</time>
      </trkpt>
      <trkpt lat="46.13962" lon="4.61224">
        <ele>270</ele>
        <time>2017-11-08T04:31:37Z</time>
      </trkpt>
      <trkpt lat="46.13918" lon="4.61322">
        <ele>268</ele>
        <time>2017-11-08T04:33:37Z</time>
      </trkpt>
      <trkpt lat="46.13881" lon="4.61398">
        <ele>268</ele>
        <time>2017-11-08T04:35:37Z</time>
      </trkpt>
      <trkpt lat="46.13876" lon="4.61407">
        <ele>267</ele>
        <time>2017-11-08T04:37:37Z</time>
      </trkpt>
      <trkpt lat="46.13832" lon="4.61491">
        <ele>266</ele>
        <time>2017-11-08T04:39:37Z</time>
      </trkpt>
      <trkpt lat="46.13824" lon="4.61505">
        <ele>266</ele>
        <time>2017-11-08T04:41:37Z</time>
      </trkpt>
      <trkpt lat="46.13792" lon="4.61563">
        <ele>266</ele>
        <time>2017-11-08T04:43:37Z</time>
      </trkpt>
      <trkpt lat="46.13755" lon="4.61622">
        <ele>264</ele>
        <time>2017-11-08T04:45:37Z</time>
      </trkpt>
      <trkpt lat="46.13722" lon="4.61672">
        <ele>264</ele>
        <time>2017-11-08T04:47:37Z</time>
      </trkpt>
      <trkpt lat="46.13677" lon="4.61732">
        <ele>263</ele>
        <time>2017-11-08T04:49:37Z</time>
      </trkpt>
      <trkpt lat="46.13642" lon="4.61784">
        <ele>263</ele>
        <time>2017-11-08T04:51:37Z</time>
      </trkpt>
      <trkpt lat="46.1359" lon="4.61866">
        <ele>262</ele>
        <time>2017-11-08T04:53:37Z</time>
      </trkpt>
      <trkpt lat="46.13557" lon="4.61916">
        <ele>262</ele>
        <time>2017-11-08T04:55:37Z</time>
      </trkpt>
      <trkpt lat="46.13455" lon="4.62066">
        <ele>260</ele>
        <time>2017-11-08T04:57:37Z</time>
      </trkpt>
      <trkpt lat="46.13407" lon="4.62137">
        <ele>259</ele>
        <time>2017-11-08T04:59:37Z</time>
      </trkpt>
      <trkpt lat="46.13348" lon="4.62228">
        <ele>259</ele>
        <time>2017-11-08T05:01:37Z</time>
      </trkpt>
      <trkpt lat="46.13322" lon="4.62267">
        <ele>258</ele>
        <time>2017-11-08T05:03:37Z</time>
      </trkpt>
      <trkpt lat="46.13322" lon="4.62267">
        <ele>258</ele>
        <time>2017-11-08T05:05:37Z</time>
      </trkpt>
      <trkpt lat="46.13309" lon="4.62287">
        <ele>257</ele>
        <time>2017-11-08T05:07:37Z</time>
      </trkpt>
      <trkpt lat="46.13304" lon="4.62295">
        <ele>257</ele>
        <time>2017-11-08T05:09:37Z</time>
      </trkpt>
      <trkpt lat="46.133" lon="4.62301">
        <ele>257</ele>
        <time>2017-11-08T05:11:37Z</time>
      </trkpt>
      <trkpt lat="46.13274" lon="4.62339">
        <ele>257</ele>
        <time>2017-11-08T05:13:37Z</time>
      </trkpt>
      <trkpt lat="46.13217" lon="4.62422">
        <ele>255</ele>
        <time>2017-11-08T05:15:37Z</time>
      </trkpt>
      <trkpt lat="46.13157" lon="4.62513">
        <ele>253</ele>
        <time>2017-11-08T05:17:37Z</time>
      </trkpt>
      <trkpt lat="46.13146" lon="4.62531">
        <ele>254</ele>
        <time>2017-11-08T05:19:37Z</time>
      </trkpt>
      <trkpt lat="46.13138" lon="4.62548">
        <ele>254</ele>
        <time>2017-11-08T05:21:37Z</time>
      </trkpt>
      <trkpt lat="46.13107" lon="4.62594">
        <ele>254</ele>
        <time>2017-11-08T05:23:37Z</time>
      </trkpt>
      <trkpt lat="46.13078" lon="4.6264">
        <ele>254</ele>
        <time>2017-11-08T05:25:37Z</time>
      </trkpt>
      <trkpt lat="46.13015" lon="4.62735">
        <ele>252</ele>
        <time>2017-11-08T05:27:37Z</time>
      </trkpt>
      <trkpt lat="46.1297" lon="4.62808">
        <ele>252</ele>
        <time>2017-11-08T05:29:37Z</time>
      </trkpt>
      <trkpt lat="46.12951" lon="4.62838">
        <ele>251</ele>
        <time>2017-11-08T05:31:37Z</time>
      </trkpt>
      <trkpt lat="46.12889" lon="4.62936">
        <ele>249</ele>
        <time>2017-11-08T05:33:37Z</time>
      </trkpt>
      <trkpt lat="46.12856" lon="4.62988">
        <ele>248</ele>
        <time>2017-11-08T05:35:37Z</time>
      </trkpt>
      <trkpt lat="46.12817" lon="4.63044">
        <ele>248</ele>
        <time>2017-11-08T05:37:37Z</time>
      </trkpt>
      <trkpt lat="46.12666" lon="4.63283">
        <ele>247</ele>
        <time>2017-11-08T05:39:37Z</time>
      </trkpt>
      <trkpt lat="46.12627" lon="4.63344">
        <ele>247</ele>
        <time>2017-11-08T05:41:37Z</time>
      </trkpt>
      <trkpt lat="46.12603" lon="4.63384">
        <ele>246</ele>
        <time>2017-11-08T05:43:37Z</time>
      </trkpt>
      <trkpt lat="46.1255" lon="4.63467">
        <ele>244</ele>
        <time>2017-11-08T05:45:37Z</time>
      </trkpt>
      <trkpt lat="46.1252" lon="4.63512">
        <ele>243</ele>
        <time>2017-11-08T05:47:37Z</time>
      </trkpt>
      <trkpt lat="46.12483" lon="4.63569">
        <ele>242</ele>
        <time>2017-11-08T05:49:37Z</time>
      </trkpt>
      <trkpt lat="46.12405" lon="4.63695">
        <ele>241</ele>
        <time>2017-11-08T05:51:37Z</time>
      </trkpt>
      <trkpt lat="46.12399" lon="4.63705">
        <ele>241</ele>
        <time>2017-11-08T05:53:37Z</time>
      </trkpt>
      <trkpt lat="46.12351" lon="4.63781">
        <ele>239</ele>
        <time>2017-11-08T05:55:37Z</time>
      </trkpt>
      <trkpt lat="46.12149" lon="4.64096">
        <ele>236</ele>
        <time>2017-11-08T05:57:37Z</time>
      </trkpt>
      <trkpt lat="46.12126" lon="4.64134">
        <ele>236</ele>
        <time>2017-11-08T05:59:37Z</time>
      </trkpt>
      <trkpt lat="46.12096" lon="4.64179">
        <ele>236</ele>
        <time>2017-11-08T06:01:37Z</time>
      </trkpt>
      <trkpt lat="46.12047" lon="4.64256">
        <ele>235</ele>
        <time>2017-11-08T06:03:37Z</time>
      </trkpt>
      <trkpt lat="46.12004" lon="4.64336">
        <ele>234</ele>
        <time>2017-11-08T06:05:37Z</time>
      </trkpt>
      <trkpt lat="46.11973" lon="4.64404">
        <ele>236</ele>
        <time>2017-11-08T06:07:37Z</time>
      </trkpt>
      <trkpt lat="46.11966" lon="4.64418">
        <ele>236</ele>
        <time>2017-11-08T06:09:37Z</time>
      </trkpt>
      <trkpt lat="46.11962" lon="4.64428">
        <ele>236</ele>
        <time>2017-11-08T06:11:37Z</time>
      </trkpt>
      <trkpt lat="46.11936" lon="4.64498">
        <ele>235</ele>
        <time>2017-11-08T06:13:37Z</time>
      </trkpt>
      <trkpt lat="46.11922" lon="4.64543">
        <ele>234</ele>
        <time>2017-11-08T06:15:37Z</time>
      </trkpt>
      <trkpt lat="46.11904" lon="4.64615">
        <ele>235</ele>
        <time>2017-11-08T06:17:37Z</time>
      </trkpt>
      <trkpt lat="46.11891" lon="4.64674">
        <ele>235</ele>
        <time>2017-11-08T06:19:37Z</time>
      </trkpt>
      <trkpt lat="46.11889" lon="4.64682">
        <ele>235</ele>
        <time>2017-11-08T06:21:37Z</time>
      </trkpt>
      <trkpt lat="46.1188" lon="4.64736">
        <ele>235</ele>
        <time>2017-11-08T06:23:37Z</time>
      </trkpt>
      <trkpt lat="46.11874" lon="4.64787">
        <ele>234</ele>
        <time>2017-11-08T06:25:37Z</time>
      </trkpt>
      <trkpt lat="46.11869" lon="4.64854">
        <ele>233</ele>
        <time>2017-11-08T06:27:37Z</time>
      </trkpt>
      <trkpt lat="46.11866" lon="4.64914">
        <ele>233</ele>
        <time>2017-11-08T06:29:37Z</time>
      </trkpt>
      <trkpt lat="46.11867" lon="4.64964">
        <ele>232</ele>
        <time>2017-11-08T06:31:37Z</time>
      </trkpt>
      <trkpt lat="46.11871" lon="4.65057">
        <ele>231</ele>
        <time>2017-11-08T06:33:37Z</time>
      </trkpt>
      <trkpt lat="46.11872" lon="4.65073">
        <ele>231</ele>
        <time>2017-11-08T06:35:37Z</time>
      </trkpt>
      <trkpt lat="46.11876" lon="4.65147">
        <ele>230</ele>
        <time>2017-11-08T06:37:37Z</time>
      </trkpt>
      <trkpt lat="46.11876" lon="4.6519">
        <ele>230</ele>
        <time>2017-11-08T06:39:37Z</time>
      </trkpt>
      <trkpt lat="46.11882" lon="4.65329">
        <ele>228</ele>
        <time>2017-11-08T06:41:37Z</time>
      </trkpt>
      <trkpt lat="46.11888" lon="4.65476">
        <ele>227</ele>
        <time>2017-11-08T06:43:37Z</time>
      </trkpt>
      <trkpt lat="46.11894" lon="4.65622">
        <ele>226</ele>
        <time>2017-11-08T06:45:37Z</time>
      </trkpt>
      <trkpt lat="46.11906" lon="4.65891">
        <ele>227</ele>
        <time>2017-11-08T06:47:37Z</time>
      </trkpt>
      <trkpt lat="46.11913" lon="4.66015">
        <ele>226</ele>
        <time>2017-11-08T06:49:37Z</time>
      </trkpt>
      <trkpt lat="46.11923" lon="4.66108">
        <ele>225</ele>
        <time>2017-11-08T06:51:37Z</time>
      </trkpt>
      <trkpt lat="46.11928" lon="4.66161">
        <ele>224</ele>
        <time>2017-11-08T06:53:37Z</time>
      </trkpt>
      <trkpt lat="46.11936" lon="4.66211">
        <ele>224</ele>
        <time>2017-11-08T06:55:37Z</time>
      </trkpt>
      <trkpt lat="46.11948" lon="4.66269">
        <ele>225</ele>
        <time>2017-11-08T06:57:37Z</time>
      </trkpt>
      <trkpt lat="46.11961" lon="4.66323">
        <ele>224</ele>
        <time>2017-11-08T06:59:37Z</time>
      </trkpt>
      <trkpt lat="46.11964" lon="4.66336">
        <ele>224</ele>
        <time>2017-11-08T07:01:37Z</time>
      </trkpt>
      <trkpt lat="46.11989" lon="4.66456">
        <ele>222</ele>
        <time>2017-11-08T07:03:37Z</time>
      </trkpt>
      <trkpt lat="46.12021" lon="4.66608">
        <ele>222</ele>
        <time>2017-11-08T07:05:37Z</time>
      </trkpt>
      <trkpt lat="46.1204" lon="4.66693">
        <ele>222</ele>
        <time>2017-11-08T07:07:37Z</time>
      </trkpt>
      <trkpt lat="46.12042" lon="4.66704">
        <ele>222</ele>
        <time>2017-11-08T07:09:37Z</time>
      </trkpt>
      <trkpt lat="46.12046" lon="4.66721">
        <ele>222</ele>
        <time>2017-11-08T07:11:37Z</time>
      </trkpt>
      <trkpt lat="46.12053" lon="4.66751">
        <ele>222</ele>
        <time>2017-11-08T07:13:37Z</time>
      </trkpt>
      <trkpt lat="46.12062" lon="4.66799">
        <ele>222</ele>
        <time>2017-11-08T07:15:37Z</time>
      </trkpt>
      <trkpt lat="46.1207" lon="4.66836">
        <ele>222</ele>
        <time>2017-11-08T07:17:37Z</time>
      </trkpt>
      <trkpt lat="46.12083" lon="4.66894">
        <ele>221</ele>
        <time>2017-11-08T07:19:37Z</time>
      </trkpt>
      <trkpt lat="46.12102" lon="4.66982">
        <ele>221</ele>
        <time>2017-11-08T07:21:37Z</time>
      </trkpt>
      <trkpt lat="46.1212" lon="4.67063">
        <ele>222</ele>
        <time>2017-11-08T07:23:37Z</time>
      </trkpt>
      <trkpt lat="46.12122" lon="4.67073">
        <ele>222</ele>
        <time>2017-11-08T07:25:37Z</time>
      </trkpt>
      <trkpt lat="46.12134" lon="4.67127">
        <ele>222</ele>
        <time>2017-11-08T07:27:37Z</time>
      </trkpt>
      <trkpt lat="46.1216" lon="4.67271">
        <ele>219</ele>
        <time>2017-11-08T07:29:37Z</time>
      </trkpt>
      <trkpt lat="46.12178" lon="4.67377">
        <ele>217</ele>
        <time>2017-11-08T07:31:37Z</time>
      </trkpt>
      <trkpt lat="46.12191" lon="4.67457">
        <ele>218</ele>
        <time>2017-11-08T07:33:37Z</time>
      </trkpt>
      <trkpt lat="46.12192" lon="4.67459">
        <ele>218</ele>
        <time>2017-11-08T07:35:37Z</time>
      </trkpt>
      <trkpt lat="46.12197" lon="4.67496">
        <ele>217</ele>
        <time>2017-11-08T07:37:37Z</time>
      </trkpt>
      <trkpt lat="46.12207" lon="4.6756">
        <ele>217</ele>
        <time>2017-11-08T07:39:37Z</time>
      </trkpt>
      <trkpt lat="46.12223" lon="4.67664">
        <ele>217</ele>
        <time>2017-11-08T07:41:37Z</time>
      </trkpt>
      <trkpt lat="46.12224" lon="4.67669">
        <ele>217</ele>
        <time>2017-11-08T07:43:37Z</time>
      </trkpt>
      <trkpt lat="46.12236" lon="4.67761">
        <ele>216</ele>
        <time>2017-11-08T07:45:37Z</time>
      </trkpt>
      <trkpt lat="46.12239" lon="4.67778">
        <ele>216</ele>
        <time>2017-11-08T07:47:37Z</time>
      </trkpt>
      <trkpt lat="46.12272" lon="4.67981">
        <ele>214</ele>
        <time>2017-11-08T07:49:37Z</time>
      </trkpt>
      <trkpt lat="46.12305" lon="4.68187">
        <ele>215</ele>
        <time>2017-11-08T07:51:37Z</time>
      </trkpt>
      <trkpt lat="46.12326" lon="4.68315">
        <ele>217</ele>
        <time>2017-11-08T07:53:37Z</time>
      </trkpt>
      <trkpt lat="46.12369" lon="4.68557">
        <ele>222</ele>
        <time>2017-11-08T07:55:37Z</time>
      </trkpt>
      <trkpt lat="46.1238" lon="4.68647">
        <ele>221</ele>
        <time>2017-11-08T07:57:37Z</time>
      </trkpt>
      <trkpt lat="46.12384" lon="4.68717">
        <ele>220</ele>
        <time>2017-11-08T07:59:37Z</time>
      </trkpt>
      <trkpt lat="46.12385" lon="4.68793">
        <ele>218</ele>
        <time>2017-11-08T08:01:37Z</time>
      </trkpt>
      <trkpt lat="46.12381" lon="4.68902">
        <ele>216</ele>
        <time>2017-11-08T08:03:37Z</time>
      </trkpt>
      <trkpt lat="46.12375" lon="4.68982">
        <ele>216</ele>
        <time>2017-11-08T08:05:37Z</time>
      </trkpt>
      <trkpt lat="46.12371" lon="4.69054">
        <ele>215</ele>
        <time>2017-11-08T08:07:37Z</time>
      </trkpt>
      <trkpt lat="46.12374" lon="4.69104">
        <ele>214</ele>
        <time>2017-11-08T08:09:37Z</time>
      </trkpt>
      <trkpt lat="46.12379" lon="4.69188">
        <ele>215</ele>
        <time>2017-11-08T08:11:37Z</time>
      </trkpt>
      <trkpt lat="46.12384" lon="4.69236">
        <ele>216</ele>
        <time>2017-11-08T08:13:37Z</time>
      </trkpt>
      <trkpt lat="46.1239" lon="4.69279">
        <ele>217</ele>
        <time>2017-11-08T08:15:37Z</time>
      </trkpt>
      <trkpt lat="46.1241" lon="4.69357">
        <ele>219</ele>
        <time>2017-11-08T08:17:37Z</time>
      </trkpt>
      <trkpt lat="46.12422" lon="4.69392">
        <ele>219</ele>
        <time>2017-11-08T08:19:37Z</time>
      </trkpt>
      <trkpt lat="46.12436" lon="4.6944">
        <ele>217</ele>
        <time>2017-11-08T08:21:37Z</time>
      </trkpt>
      <trkpt lat="46.12451" lon="4.6948">
        <ele>214</ele>
        <time>2017-11-08T08:23:37Z</time>
      </trkpt>
      <trkpt lat="46.12483" lon="4.69583">
        <ele>210</ele>
        <time>2017-11-08T08:25:37Z</time>
      </trkpt>
      <trkpt lat="46.12497" lon="4.69629">
        <ele>209</ele>
        <time>2017-11-08T08:27:37Z</time>
      </trkpt>
      <trkpt lat="46.12499" lon="4.69637">
        <ele>209</ele>
        <time>2017-11-08T08:29:37Z</time>
      </trkpt>
      <trkpt lat="46.125" lon="4.69642">
        <ele>209</ele>
        <time>2017-11-08T08:31:37Z</time>
      </trkpt>
      <trkpt lat="46.12514" lon="4.69682">
        <ele>209</ele>
        <time>2017-11-08T08:33:37Z</time>
      </trkpt>
      <trkpt lat="46.12545" lon="4.69851">
        <ele>206</ele>
        <time>2017-11-08T08:35:37Z</time>
      </trkpt>
      <trkpt lat="46.12545" lon="4.69887">
        <ele>206</ele>
        <time>2017-11-08T08:37:37Z</time>
      </trkpt>
      <trkpt lat="46.12545" lon="4.699">
        <ele>206</ele>
        <time>2017-11-08T08:39:37Z</time>
      </trkpt>
      <trkpt lat="46.12541" lon="4.69989">
        <ele>205</ele>
        <time>2017-11-08T08:41:37Z</time>
      </trkpt>
      <trkpt lat="46.1254" lon="4.70005">
        <ele>205</ele>
        <time>2017-11-08T08:43:37Z</time>
      </trkpt>
      <trkpt lat="46.12539" lon="4.70018">
        <ele>204</ele>
        <time>2017-11-08T08:45:37Z</time>
      </trkpt>
      <trkpt lat="46.12534" lon="4.70058">
        <ele>204</ele>
        <time>2017-11-08T08:47:37Z</time>
      </trkpt>
      <trkpt lat="46.12532" lon="4.7007">
        <ele>203</ele>
        <time>2017-11-08T08:49:37Z</time>
      </trkpt>
      <trkpt lat="46.12524" lon="4.70108">
        <ele>203</ele>
        <time>2017-11-08T08:51:37Z</time>
      </trkpt>
      <trkpt lat="46.12521" lon="4.70121">
        <ele>203</ele>
        <time>2017-11-08T08:53:37Z</time>
      </trkpt>
      <trkpt lat="46.12475" lon="4.70299">
        <ele>202</ele>
        <time>2017-11-08T08:55:37Z</time>
      </trkpt>
      <trkpt lat="46.1246" lon="4.7036">
        <ele>203</ele>
        <time>2017-11-08T08:57:37Z</time>
      </trkpt>
      <trkpt lat="46.1245" lon="4.70402">
        <ele>204</ele>
        <time>2017-11-08T08:59:37Z</time>
      </trkpt>
      <trkpt lat="46.12377" lon="4.70676">
        <ele>200</ele>
        <time>2017-11-08T09:01:37Z</time>
      </trkpt>
      <trkpt lat="46.12282" lon="4.71043">
        <ele>198</ele>
        <time>2017-11-08T09:03:37Z</time>
      </trkpt>
      <trkpt lat="46.12255" lon="4.7114">
        <ele>199</ele>
        <time>2017-11-08T09:05:37Z</time>
      </trkpt>
      <trkpt lat="46.12253" lon="4.7115">
        <ele>199</ele>
        <time>2017-11-08T09:07:37Z</time>
      </trkpt>
      <trkpt lat="46.12211" lon="4.71311">
        <ele>196</ele>
        <time>2017-11-08T09:09:37Z</time>
      </trkpt>
      <trkpt lat="46.12177" lon="4.71438">
        <ele>197</ele>
        <time>2017-11-08T09:11:37Z</time>
      </trkpt>
      <trkpt lat="46.12151" lon="4.71542">
        <ele>195</ele>
        <time>2017-11-08T09:13:37Z</time>
      </trkpt>
      <trkpt lat="46.12123" lon="4.7165">
        <ele>193</ele>
        <time>2017-11-08T09:15:37Z</time>
      </trkpt>
      <trkpt lat="46.12114" lon="4.71687">
        <ele>193</ele>
        <time>2017-11-08T09:17:37Z</time>
      </trkpt>
      <trkpt lat="46.12086" lon="4.71787">
        <ele>191</ele>
        <time>2017-11-08T09:19:37Z</time>
      </trkpt>
      <trkpt lat="46.12085" lon="4.71796">
        <ele>191</ele>
        <time>2017-11-08T09:21:37Z</time>
      </trkpt>
      <trkpt lat="46.12086" lon="4.71798">
        <ele>191</ele>
        <time>2017-11-08T09:23:37Z</time>
      </trkpt>
      <trkpt lat="46.12086" lon="4.71799">
        <ele>191</ele>
        <time>2017-11-08T09:25:37Z</time>
      </trkpt>
      <trkpt lat="46.12086" lon="4.71799">
        <ele>191</ele>
        <time>2017-11-08T09:27:37Z</time>
      </trkpt>
      <trkpt lat="46.12087" lon="4.71801">
        <ele>191</ele>
        <time>2017-11-08T09:29:37Z</time>
      </trkpt>
      <trkpt lat="46.12089" lon="4.71803">
        <ele>191</ele>
        <time>2017-11-08T09:31:37Z</time>
      </trkpt>
      <trkpt lat="46.12147" lon="4.71824">
        <ele>190</ele>
        <time>2017-11-08T09:33:37Z</time>
      </trkpt>
      <trkpt lat="46.12179" lon="4.71836">
        <ele>190</ele>
        <time>2017-11-08T09:35:37Z</time>
      </trkpt>
      <trkpt lat="46.12195" lon="4.71843">
        <ele>190</ele>
        <time>2017-11-08T09:37:37Z</time>
      </trkpt>
      <trkpt lat="46.12199" lon="4.71847">
        <ele>190</ele>
        <time>2017-11-08T09:39:37Z</time>
      </trkpt>
      <trkpt lat="46.12209" lon="4.7186">
        <ele>190</ele>
        <time>2017-11-08T09:41:37Z</time>
      </trkpt>
      <trkpt lat="46.12209" lon="4.7186">
        <ele>190</ele>
        <time>2017-11-08T09:43:37Z</time>
      </trkpt>
      <trkpt lat="46.12212" lon="4.71866">
        <ele>190</ele>
        <time>2017-11-08T09:45:37Z</time>
      </trkpt>
      <trkpt lat="46.12213" lon="4.71868">
        <ele>190</ele>
        <time>2017-11-08T09:47:37Z</time>
      </trkpt>
      <trkpt lat="46.12213" lon="4.71873">
        <ele>190</ele>
        <time>2017-11-08T09:49:37Z</time>
      </trkpt>
      <trkpt lat="46.1221" lon="4.71879">
        <ele>190</ele>
        <time>2017-11-08T09:51:37Z</time>
      </trkpt>
      <trkpt lat="46.12191" lon="4.71909">
        <ele>190</ele>
        <time>2017-11-08T09:53:37Z</time>
      </trkpt>
      <trkpt lat="46.12183" lon="4.71919">
        <ele>190</ele>
        <time>2017-11-08T09:55:37Z</time>
      </trkpt>
      <trkpt lat="46.12175" lon="4.7193">
        <ele>190</ele>
        <time>2017-11-08T09:57:37Z</time>
      </trkpt>
      <trkpt lat="46.12162" lon="4.7196">
        <ele>191</ele>
        <time>2017-11-08T09:59:37Z</time>
      </trkpt>
      <trkpt lat="46.1214" lon="4.72023">
        <ele>192</ele>
        <time>2017-11-08T10:01:37Z</time>
      </trkpt>
      <trkpt lat="46.12135" lon="4.72035">
        <ele>192</ele>
        <time>2017-11-08T10:03:37Z</time>
      </trkpt>
      <trkpt lat="46.12133" lon="4.72043">
        <ele>192</ele>
        <time>2017-11-08T10:05:37Z</time>
      </trkpt>
      <trkpt lat="46.12132" lon="4.72049">
        <ele>192</ele>
        <time>2017-11-08T10:07:37Z</time>
      </trkpt>
      <trkpt lat="46.1213" lon="4.72063">
        <ele>192</ele>
        <time>2017-11-08T10:09:37Z</time>
      </trkpt>
      <trkpt lat="46.12128" lon="4.72078">
        <ele>192</ele>
        <time>2017-11-08T10:11:37Z</time>
      </trkpt>
      <trkpt lat="46.12137" lon="4.72112">
        <ele>192</ele>
        <time>2017-11-08T10:13:37Z</time>
      </trkpt>
      <trkpt lat="46.12151" lon="4.72158">
        <ele>191</ele>
        <time>2017-11-08T10:15:37Z</time>
      </trkpt>
      <trkpt lat="46.12163" lon="4.72199">
        <ele>191</ele>
        <time>2017-11-08T10:17:37Z</time>
      </trkpt>
      <trkpt lat="46.12177" lon="4.72234">
        <ele>190</ele>
        <time>2017-11-08T10:19:37Z</time>
      </trkpt>
      <trkpt lat="46.12195" lon="4.72278">
        <ele>189</ele>
        <time>2017-11-08T10:21:37Z</time>
      </trkpt>
      <trkpt lat="46.12197" lon="4.72283">
        <ele>189</ele>
        <time>2017-11-08T10:23:37Z</time>
      </trkpt>
      <trkpt lat="46.12209" lon="4.72319">
        <ele>189</ele>
        <time>2017-11-08T10:25:37Z</time>
      </trkpt>
      <trkpt lat="46.12224" lon="4.72368">
        <ele>188</ele>
        <time>2017-11-08T10:27:37Z</time>
      </trkpt>
      <trkpt lat="46.12235" lon="4.72409">
        <ele>187</ele>
        <time>2017-11-08T10:29:37Z</time>
      </trkpt>
      <trkpt lat="46.12246" lon="4.72457">
        <ele>185</ele>
        <time>2017-11-08T10:31:37Z</time>
      </trkpt>
      <trkpt lat="46.12253" lon="4.72493">
        <ele>184</ele>
        <time>2017-11-08T10:33:37Z</time>
      </trkpt>
      <trkpt lat="46.12255" lon="4.72512">
        <ele>184</ele>
        <time>2017-11-08T10:35:37Z</time>
      </trkpt>
      <trkpt lat="46.12258" lon="4.72538">
        <ele>184</ele>
        <time>2017-11-08T10:37:37Z</time>
      </trkpt>
      <trkpt lat="46.12261" lon="4.72577">
        <ele>183</ele>
        <time>2017-11-08T10:39:37Z</time>
      </trkpt>
      <trkpt lat="46.12264" lon="4.72617">
        <ele>184</ele>
        <time>2017-11-08T10:41:37Z</time>
      </trkpt>
      <trkpt lat="46.12265" lon="4.72661">
        <ele>184</ele>
        <time>2017-11-08T10:43:37Z</time>
      </trkpt>
      <trkpt lat="46.12263" lon="4.72725">
        <ele>186</ele>
        <time>2017-11-08T10:45:37Z</time>
      </trkpt>
      <trkpt lat="46.12259" lon="4.72767">
        <ele>186</ele>
        <time>2017-11-08T10:47:37Z</time>
      </trkpt>
      <trkpt lat="46.12257" lon="4.72801">
        <ele>185</ele>
        <time>2017-11-08T10:49:37Z</time>
      </trkpt>
      <trkpt lat="46.12252" lon="4.72831">
        <ele>185</ele>
        <time>2017-11-08T10:51:37Z</time>
      </trkpt>
      <trkpt lat="46.12244" lon="4.72873">
        <ele>184</ele>
        <time>2017-11-08T10:53:37Z</time>
      </trkpt>
      <trkpt lat="46.12236" lon="4.729">
        <ele>184</ele>
        <time>2017-11-08T10:55:37Z</time>
      </trkpt>
      <trkpt lat="46.1223" lon="4.72927">
        <ele>184</ele>
        <time>2017-11-08T10:57:37Z</time>
      </trkpt>
      <trkpt lat="46.12229" lon="4.72927">
        <ele>184</ele>
        <time>2017-11-08T10:59:37Z</time>
      </trkpt>
      <trkpt lat="46.12224" lon="4.72941">
        <ele>184</ele>
        <time>2017-11-08T11:01:37Z</time>
      </trkpt>
      <trkpt lat="46.12218" lon="4.72957">
        <ele>185</ele>
        <time>2017-11-08T11:03:37Z</time>
      </trkpt>
      <trkpt lat="46.12208" lon="4.72976">
        <ele>185</ele>
        <time>2017-11-08T11:05:37Z</time>
      </trkpt>
      <trkpt lat="46.12177" lon="4.73072">
        <ele>185</ele>
        <time>2017-11-08T11:07:37Z</time>
      </trkpt>
      <trkpt lat="46.12166" lon="4.73102">
        <ele>185</ele>
        <time>2017-11-08T11:09:37Z</time>
      </trkpt>
      <trkpt lat="46.12158" lon="4.73131">
        <ele>185</ele>
        <time>2017-11-08T11:11:37Z</time>
      </trkpt>
      <trkpt lat="46.12157" lon="4.73138">
        <ele>185</ele>
        <time>2017-11-08T11:13:37Z</time>
      </trkpt>
      <trkpt lat="46.12157" lon="4.7315">
        <ele>184</ele>
        <time>2017-11-08T11:15:37Z</time>
      </trkpt>
      <trkpt lat="46.12158" lon="4.73162">
        <ele>184</ele>
        <time>2017-11-08T11:17:37Z</time>
      </trkpt>
      <trkpt lat="46.1216" lon="4.73187">
        <ele>184</ele>
        <time>2017-11-08T11:19:37Z</time>
      </trkpt>
      <trkpt lat="46.1216" lon="4.73191">
        <ele>184</ele>
        <time>2017-11-08T11:21:37Z</time>
      </trkpt>
      <trkpt lat="46.12158" lon="4.73197">
        <ele>183</ele>
        <time>2017-11-08T11:23:37Z</time>
      </trkpt>
      <trkpt lat="46.12145" lon="4.73238">
        <ele>183</ele>
        <time>2017-11-08T11:25:37Z</time>
      </trkpt>
      <trkpt lat="46.12141" lon="4.73253">
        <ele>183</ele>
        <time>2017-11-08T11:27:37Z</time>
      </trkpt>
      <trkpt lat="46.12138" lon="4.7327">
        <ele>183</ele>
        <time>2017-11-08T11:29:37Z</time>
      </trkpt>
      <trkpt lat="46.12136" lon="4.73286">
        <ele>183</ele>
        <time>2017-11-08T11:31:37Z</time>
      </trkpt>
      <trkpt lat="46.12131" lon="4.73353">
        <ele>182</ele>
        <time>2017-11-08T11:33:37Z</time>
      </trkpt>
      <trkpt lat="46.12129" lon="4.73394">
        <ele>183</ele>
        <time>2017-11-08T11:35:37Z</time>
      </trkpt>
      <trkpt lat="46.12129" lon="4.73423">
        <ele>183</ele>
        <time>2017-11-08T11:37:37Z</time>
      </trkpt>
      <trkpt lat="46.1213" lon="4.73463">
        <ele>183</ele>
        <time>2017-11-08T11:39:37Z</time>
      </trkpt>
      <trkpt lat="46.12129" lon="4.735">
        <ele>183</ele>
        <time>2017-11-08T11:41:37Z</time>
      </trkpt>
      <trkpt lat="46.12127" lon="4.73529">
        <ele>183</ele>
        <time>2017-11-08T11:43:37Z</time>
      </trkpt>
      <trkpt lat="46.12124" lon="4.73567">
        <ele>183</ele>
        <time>2017-11-08T11:45:37Z</time>
      </trkpt>
      <trkpt lat="46.12116" lon="4.73609">
        <ele>183</ele>
        <time>2017-11-08T11:47:37Z</time>
      </trkpt>
      <trkpt lat="46.12108" lon="4.73652">
        <ele>183</ele>
        <time>2017-11-08T11:49:37Z</time>
      </trkpt>
      <trkpt lat="46.12106" lon="4.73666">
        <ele>183</ele>
        <time>2017-11-08T11:51:37Z</time>
      </trkpt>
      <trkpt lat="46.12106" lon="4.7367">
        <ele>183</ele>
        <time>2017-11-08T11:53:37Z</time>
      </trkpt>
      <trkpt lat="46.12106" lon="4.73674">
        <ele>183</ele>
        <time>2017-11-08T11:55:37Z</time>
      </trkpt>
      <trkpt lat="46.12107" lon="4.73678">
        <ele>183</ele>
        <time>2017-11-08T11:57:37Z</time>
      </trkpt>
      <trkpt lat="46.12109" lon="4.73689">
        <ele>183</ele>
        <time>2017-11-08T11:59:37Z</time>
      </trkpt>
      <trkpt lat="46.12111" lon="4.73694">
        <ele>183</ele>
        <time>2017-11-08T12:01:37Z</time>
      </trkpt>
      <trkpt lat="46.12114" lon="4.73703">
        <ele>183</ele>
        <time>2017-11-08T12:03:37Z</time>
      </trkpt>
      <trkpt lat="46.12115" lon="4.73707">
        <ele>183</ele>
        <time>2017-11-08T12:05:37Z</time>
      </trkpt>
      <trkpt lat="46.12115" lon="4.73711">
        <ele>183</ele>
        <time>2017-11-08T12:07:37Z</time>
      </trkpt>
      <trkpt lat="46.12115" lon="4.73716">
        <ele>183</ele>
        <time>2017-11-08T12:09:37Z</time>
      </trkpt>
      <trkpt lat="46.12114" lon="4.73725">
        <ele>183</ele>
        <time>2017-11-08T12:11:37Z</time>
      </trkpt>
      <trkpt lat="46.12112" lon="4.73733">
        <ele>183</ele>
        <time>2017-11-08T12:13:37Z</time>
      </trkpt>
      <trkpt lat="46.12107" lon="4.73739">
        <ele>183</ele>
        <time>2017-11-08T12:15:37Z</time>
      </trkpt>
      <trkpt lat="46.1209" lon="4.73753">
        <ele>183</ele>
        <time>2017-11-08T12:17:37Z</time>
      </trkpt>
      <trkpt lat="46.12086" lon="4.73755">
        <ele>183</ele>
        <time>2017-11-08T12:19:37Z</time>
      </trkpt>
      <trkpt lat="46.1208" lon="4.73753">
        <ele>183</ele>
        <time>2017-11-08T12:21:37Z</time>
      </trkpt>
      <trkpt lat="46.1208" lon="4.73753">
        <ele>183</ele>
        <time>2017-11-08T12:23:37Z</time>
      </trkpt>
      <trkpt lat="46.12077" lon="4.73769">
        <ele>182</ele>
        <time>2017-11-08T12:25:37Z</time>
      </trkpt>
      <trkpt lat="46.12068" lon="4.73807">
        <ele>181</ele>
        <time>2017-11-08T12:27:37Z</time>
      </trkpt>
      <trkpt lat="46.12058" lon="4.73839">
        <ele>181</ele>
        <time>2017-11-08T12:29:37Z</time>
      </trkpt>
      <trkpt lat="46.12044" lon="4.73884">
        <ele>180</ele>
        <time>2017-11-08T12:31:37Z</time>
      </trkpt>
      <trkpt lat="46.12036" lon="4.73913">
        <ele>179</ele>
        <time>2017-11-08T12:33:37Z</time>
      </trkpt>
      <trkpt lat="46.12031" lon="4.73931">
        <ele>179</ele>
        <time>2017-11-08T12:35:37Z</time>
      </trkpt>
      <trkpt lat="46.12031" lon="4.73931">
        <ele>179</ele>
        <time>2017-11-08T12:37:37Z</time>
      </trkpt>
      <trkpt lat="46.12028" lon="4.73937">
        <ele>179</ele>
        <time>2017-11-08T12:39:37Z</time>
      </trkpt>
      <trkpt lat="46.12028" lon="4.73938">
        <ele>179</ele>
        <time>2017-11-08T12:41:37Z</time>
      </trkpt>
      <trkpt lat="46.12024" lon="4.73955">
        <ele>179</ele>
        <time>2017-11-08T12:43:37Z</time>
      </trkpt>
      <trkpt lat="46.12014" lon="4.73996">
        <ele>179</ele>
        <time>2017-11-08T12:45:37Z</time>
      </trkpt>
      <trkpt lat="46.12001" lon="4.7405">
        <ele>178</ele>
        <time>2017-11-08T12:47:37Z</time>
      </trkpt>
      <trkpt lat="46.11993" lon="4.74083">
        <ele>177</ele>
        <time>2017-11-08T12:49:37Z</time>
      </trkpt>
      <trkpt lat="46.11991" lon="4.74094">
        <ele>177</ele>
        <time>2017-11-08T12:51:37Z</time>
      </trkpt>
      <trkpt lat="46.11989" lon="4.74105">
        <ele>177</ele>
        <time>2017-11-08T12:53:37Z</time>
      </trkpt>
      <trkpt lat="46.11982" lon="4.7413">
        <ele>177</ele>
        <time>2017-11-08T12:55:37Z</time>
      </trkpt>
      <trkpt lat="46.11959" lon="4.74207">
        <ele>176</ele>
        <time>2017-11-08T12:57:37Z</time>
      </trkpt>
      <trkpt lat="46.11951" lon="4.7424">
        <ele>176</ele>
        <time>2017-11-08T12:59:37Z</time>
      </trkpt>
      <trkpt lat="46.11945" lon="4.7426">
        <ele>176</ele>
        <time>2017-11-08T13:01:37Z</time>
      </trkpt>
      <trkpt lat="46.11943" lon="4.74266">
        <ele>177</ele>
        <time>2017-11-08T13:03:37Z</time>
      </trkpt>
      <trkpt lat="46.11943" lon="4.74267">
        <ele>177</ele>
        <time>2017-11-08T13:05:37Z</time>
      </trkpt>
      <trkpt lat="46.11943" lon="4.74273">
        <ele>177</ele>
        <time>2017-11-08T13:07:37Z</time>
      </trkpt>
      <trkpt lat="46.11915" lon="4.74357">
        <ele>177</ele>
        <time>2017-11-08T13:09:37Z</time>
      </trkpt>
      <trkpt lat="46.1189" lon="4.74418">
        <ele>176</ele>
        <time>2017-11-08T13:11:37Z</time>
      </trkpt>
      <trkpt lat="46.11872" lon="4.74461">
        <ele>175</ele>
        <time>2017-11-08T13:13:37Z</time>
      </trkpt>
      <trkpt lat="46.11858" lon="4.74489">
        <ele>175</ele>
        <time>2017-11-08T13:15:37Z</time>
      </trkpt>
      <trkpt lat="46.11841" lon="4.74523">
        <ele>175</ele>
        <time>2017-11-08T13:17:37Z</time>
      </trkpt>
      <trkpt lat="46.11826" lon="4.74552">
        <ele>175</ele>
        <time>2017-11-08T13:19:37Z</time>
      </trkpt>
      <trkpt lat="46.11809" lon="4.74582">
        <ele>175</ele>
        <time>2017-11-08T13:21:37Z</time>
      </trkpt>
      <trkpt lat="46.118" lon="4.74597">
        <ele>175</ele>
        <time>2017-11-08T13:23:37Z</time>
      </trkpt>
      <trkpt lat="46.11728" lon="4.74717">
        <ele>175</ele>
        <time>2017-11-08T13:25:37Z</time>
      </trkpt>
      <trkpt lat="46.11687" lon="4.74785">
        <ele>174</ele>
        <time>2017-11-08T13:27:37Z</time>
      </trkpt>
      <trkpt lat="46.11679" lon="4.74799">
        <ele>174</ele>
        <time>2017-11-08T13:29:37Z</time>
      </trkpt>
      <trkpt lat="46.11668" lon="4.74815">
        <ele>173</ele>
        <time>2017-11-08T13:31:37Z</time>
      </trkpt>
      <trkpt lat="46.11658" lon="4.74834">
        <ele>173</ele>
        <time>2017-11-08T13:33:37Z</time>
      </trkpt>
      <trkpt lat="46.1161" lon="4.74913">
        <ele>174</ele>
        <time>2017-11-08T13:35:37Z</time>
      </trkpt>
      <trkpt lat="46.11533" lon="4.7504">
        <ele>173</ele>
        <time>2017-11-08T13:37:37Z</time>
      </trkpt>
      <trkpt lat="46.11521" lon="4.75059">
        <ele>173</ele>
        <time>2017-11-08T13:39:37Z</time>
      </trkpt>
      <trkpt lat="46.11518" lon="4.75065">
        <ele>173</ele>
        <time>2017-11-08T13:41:37Z</time>
      </trkpt>
      <trkpt lat="46.11518" lon="4.75065">
        <ele>173</ele>
        <time>2017-11-08T13:43:37Z</time>
      </trkpt>
      <trkpt lat="46.11515" lon="4.75073">
        <ele>173</ele>
        <time>2017-11-08T13:45:37Z</time>
      </trkpt>
      <trkpt lat="46.11465" lon="4.75155">
        <ele>174</ele>
        <time>2017-11-08T13:47:37Z</time>
      </trkpt>
      <trkpt lat="46.11447" lon="4.75186">
        <ele>174</ele>
        <time>2017-11-08T13:49:37Z</time>
      </trkpt>
      <trkpt lat="46.11432" lon="4.75212">
        <ele>174</ele>
        <time>2017-11-08T13:51:37Z</time>
      </trkpt>
      <trkpt lat="46.11432" lon="4.75212">
        <ele>174</ele>
        <time>2017-11-08T13:53:37Z</time>
      </trkpt>
      <trkpt lat="46.11433" lon="4.75213">
        <ele>174</ele>
        <time>2017-11-08T13:55:37Z</time>
      </trkpt>
      <trkpt lat="46.11433" lon="4.75214">
        <ele>174</ele>
        <time>2017-11-08T13:57:37Z</time>
      </trkpt>
      <trkpt lat="46.11434" lon="4.75215">
        <ele>174</ele>
        <time>2017-11-08T13:59:37Z</time>
      </trkpt>
      <trkpt lat="46.11434" lon="4.75216">
        <ele>174</ele>
        <time>2017-11-08T14:01:37Z</time>
      </trkpt>
      <trkpt lat="46.11434" lon="4.75217">
        <ele>174</ele>
        <time>2017-11-08T14:03:37Z</time>
      </trkpt>
      <trkpt lat="46.11434" lon="4.75219">
        <ele>173</ele>
        <time>2017-11-08T14:05:37Z</time>
      </trkpt>
      <trkpt lat="46.11434" lon="4.7522">
        <ele>173</ele>
        <time>2017-11-08T14:07:37Z</time>
      </trkpt>
      <trkpt lat="46.11434" lon="4.75221">
        <ele>173</ele>
        <time>2017-11-08T14:09:37Z</time>
      </trkpt>
      <trkpt lat="46.11435" lon="4.75222">
        <ele>173</ele>
        <time>2017-11-08T14:11:37Z</time>
      </trkpt>
      <trkpt lat="46.11434" lon="4.75224">
        <ele>173</ele>
        <time>2017-11-08T14:13:37Z</time>
      </trkpt>
      <trkpt lat="46.11434" lon="4.75225">
        <ele>173</ele>
        <time>2017-11-08T14:15:37Z</time>
      </trkpt>
      <trkpt lat="46.11434" lon="4.75226">
        <ele>173</ele>
        <time>2017-11-08T14:17:37Z</time>
      </trkpt>
      <trkpt lat="46.11434" lon="4.75227">
        <ele>173</ele>
        <time>2017-11-08T14:19:37Z</time>
      </trkpt>
      <trkpt lat="46.11434" lon="4.75228">
        <ele>173</ele>
        <time>2017-11-08T14:21:37Z</time>
      </trkpt>
      <trkpt lat="46.11434" lon="4.7523">
        <ele>173</ele>
        <time>2017-11-08T14:23:37Z</time>
      </trkpt>
      <trkpt lat="46.11433" lon="4.75231">
        <ele>173</ele>
        <time>2017-11-08T14:25:37Z</time>
      </trkpt>
      <trkpt lat="46.11433" lon="4.75232">
        <ele>173</ele>
        <time>2017-11-08T14:27:37Z</time>
      </trkpt>
      <trkpt lat="46.11432" lon="4.75233">
        <ele>173</ele>
        <time>2017-11-08T14:29:37Z</time>
      </trkpt>
      <trkpt lat="46.11431" lon="4.75234">
        <ele>173</ele>
        <time>2017-11-08T14:31:37Z</time>
      </trkpt>
      <trkpt lat="46.11431" lon="4.75235">
        <ele>173</ele>
        <time>2017-11-08T14:33:37Z</time>
      </trkpt>
      <trkpt lat="46.1143" lon="4.75236">
        <ele>173</ele>
        <time>2017-11-08T14:35:37Z</time>
      </trkpt>
      <trkpt lat="46.1143" lon="4.75237">
        <ele>173</ele>
        <time>2017-11-08T14:37:37Z</time>
      </trkpt>
      <trkpt lat="46.11429" lon="4.75238">
        <ele>173</ele>
        <time>2017-11-08T14:39:37Z</time>
      </trkpt>
      <trkpt lat="46.11428" lon="4.75239">
        <ele>173</ele>
        <time>2017-11-08T14:41:37Z</time>
      </trkpt>
      <trkpt lat="46.11427" lon="4.75239">
        <ele>173</ele>
        <time>2017-11-08T14:43:37Z</time>
      </trkpt>
      <trkpt lat="46.11427" lon="4.7524">
        <ele>173</ele>
        <time>2017-11-08T14:45:37Z</time>
      </trkpt>
      <trkpt lat="46.11426" lon="4.7524">
        <ele>173</ele>
        <time>2017-11-08T14:47:37Z</time>
      </trkpt>
      <trkpt lat="46.11425" lon="4.7524">
        <ele>173</ele>
        <time>2017-11-08T14:49:37Z</time>
      </trkpt>
      <trkpt lat="46.11424" lon="4.75241">
        <ele>173</ele>
        <time>2017-11-08T14:51:37Z</time>
      </trkpt>
      <trkpt lat="46.11423" lon="4.75241">
        <ele>173</ele>
        <time>2017-11-08T14:53:37Z</time>
      </trkpt>
      <trkpt lat="46.11418" lon="4.75253">
        <ele>173</ele>
        <time>2017-11-08T14:55:37Z</time>
      </trkpt>
      <trkpt lat="46.114" lon="4.75285">
        <ele>174</ele>
        <time>2017-11-08T14:57:37Z</time>
      </trkpt>
      <trkpt lat="46.114" lon="4.75285">
        <ele>174</ele>
        <time>2017-11-08T14:59:37Z</time>
      </trkpt>
      <trkpt lat="46.11351" lon="4.75345">
        <ele>175</ele>
        <time>2017-11-08T15:01:37Z</time>
      </trkpt>
      <trkpt lat="46.11349" lon="4.75348">
        <ele>175</ele>
        <time>2017-11-08T15:03:37Z</time>
      </trkpt>
      <trkpt lat="46.11348" lon="4.75352">
        <ele>175</ele>
        <time>2017-11-08T15:05:37Z</time>
      </trkpt>
      <trkpt lat="46.11341" lon="4.75392">
        <ele>175</ele>
        <time>2017-11-08T15:07:37Z</time>
      </trkpt>
      <trkpt lat="46.11332" lon="4.75455">
        <ele>175</ele>
        <time>2017-11-08T15:09:37Z</time>
      </trkpt>
      <trkpt lat="46.11332" lon="4.75462">
        <ele>175</ele>
        <time>2017-11-08T15:11:37Z</time>
      </trkpt>
      <trkpt lat="46.11331" lon="4.75471">
        <ele>176</ele>
        <time>2017-11-08T15:13:37Z</time>
      </trkpt>
      <trkpt lat="46.11333" lon="4.75484">
        <ele>176</ele>
        <time>2017-11-08T15:15:37Z</time>
      </trkpt>
      <trkpt lat="46.11333" lon="4.75484">
        <ele>176</ele>
        <time>2017-11-08T15:17:37Z</time>
      </trkpt>
      <trkpt lat="46.11331" lon="4.75471">
        <ele>176</ele>
        <time>2017-11-08T15:19:37Z</time>
      </trkpt>
      <trkpt lat="46.11332" lon="4.75462">
        <ele>175</ele>
        <time>2017-11-08T15:21:37Z</time>
      </trkpt>
      <trkpt lat="46.11332" lon="4.75455">
        <ele>175</ele>
        <time>2017-11-08T15:23:37Z</time>
      </trkpt>
      <trkpt lat="46.11341" lon="4.75392">
        <ele>175</ele>
        <time>2017-11-08T15:25:37Z</time>
      </trkpt>
      <trkpt lat="46.11348" lon="4.75352">
        <ele>175</ele>
        <time>2017-11-08T15:27:37Z</time>
      </trkpt>
      <trkpt lat="46.11349" lon="4.75348">
        <ele>175</ele>
        <time>2017-11-08T15:29:37Z</time>
      </trkpt>
      <trkpt lat="46.11351" lon="4.75345">
        <ele>175</ele>
        <time>2017-11-08T15:31:37Z</time>
      </trkpt>
      <trkpt lat="46.11351" lon="4.75345">
        <ele>175</ele>
        <time>2017-11-08T15:33:37Z</time>
      </trkpt>
      <trkpt lat="46.114" lon="4.75285">
        <ele>174</ele>
        <time>2017-11-08T15:35:37Z</time>
      </trkpt>
      <trkpt lat="46.114" lon="4.75285">
        <ele>174</ele>
        <time>2017-11-08T15:37:37Z</time>
      </trkpt>
      <trkpt lat="46.11418" lon="4.75253">
        <ele>173</ele>
        <time>2017-11-08T15:39:37Z</time>
      </trkpt>
      <trkpt lat="46.11423" lon="4.75241">
        <ele>173</ele>
        <time>2017-11-08T15:41:37Z</time>
      </trkpt>
      <trkpt lat="46.11423" lon="4.75241">
        <ele>173</ele>
        <time>2017-11-08T15:43:37Z</time>
      </trkpt>
      <trkpt lat="46.11422" lon="4.75241">
        <ele>173</ele>
        <time>2017-11-08T15:45:37Z</time>
      </trkpt>
      <trkpt lat="46.11421" lon="4.75241">
        <ele>173</ele>
        <time>2017-11-08T15:47:37Z</time>
      </trkpt>
      <trkpt lat="46.1142" lon="4.75241">
        <ele>173</ele>
        <time>2017-11-08T15:49:37Z</time>
      </trkpt>
      <trkpt lat="46.11419" lon="4.75241">
        <ele>173</ele>
        <time>2017-11-08T15:51:37Z</time>
      </trkpt>
      <trkpt lat="46.11418" lon="4.75241">
        <ele>173</ele>
        <time>2017-11-08T15:53:37Z</time>
      </trkpt>
      <trkpt lat="46.11417" lon="4.7524">
        <ele>173</ele>
        <time>2017-11-08T15:55:37Z</time>
      </trkpt>
      <trkpt lat="46.11416" lon="4.7524">
        <ele>173</ele>
        <time>2017-11-08T15:57:37Z</time>
      </trkpt>
      <trkpt lat="46.11416" lon="4.75239">
        <ele>173</ele>
        <time>2017-11-08T15:59:37Z</time>
      </trkpt>
      <trkpt lat="46.11415" lon="4.75239">
        <ele>173</ele>
        <time>2017-11-08T16:01:37Z</time>
      </trkpt>
      <trkpt lat="46.11395" lon="4.75264">
        <ele>173</ele>
        <time>2017-11-08T16:03:37Z</time>
      </trkpt>
      <trkpt lat="46.11382" lon="4.75279">
        <ele>173</ele>
        <time>2017-11-08T16:05:37Z</time>
      </trkpt>
      <trkpt lat="46.11371" lon="4.7529">
        <ele>174</ele>
        <time>2017-11-08T16:07:37Z</time>
      </trkpt>
      <trkpt lat="46.11356" lon="4.75304">
        <ele>174</ele>
        <time>2017-11-08T16:09:37Z</time>
      </trkpt>
      <trkpt lat="46.1134" lon="4.75319">
        <ele>175</ele>
        <time>2017-11-08T16:11:37Z</time>
      </trkpt>
      <trkpt lat="46.11334" lon="4.7532">
        <ele>175</ele>
        <time>2017-11-08T16:13:37Z</time>
      </trkpt>
      <trkpt lat="46.11331" lon="4.75323">
        <ele>175</ele>
        <time>2017-11-08T16:15:37Z</time>
      </trkpt>
      <trkpt lat="46.11321" lon="4.75331">
        <ele>175</ele>
        <time>2017-11-08T16:17:37Z</time>
      </trkpt>
      <trkpt lat="46.11294" lon="4.75351">
        <ele>174</ele>
        <time>2017-11-08T16:19:37Z</time>
      </trkpt>
      <trkpt lat="46.11274" lon="4.75364">
        <ele>173</ele>
        <time>2017-11-08T16:21:37Z</time>
      </trkpt>
      <trkpt lat="46.11246" lon="4.75379">
        <ele>172</ele>
        <time>2017-11-08T16:23:37Z</time>
      </trkpt>
      <trkpt lat="46.11212" lon="4.75395">
        <ele>172</ele>
        <time>2017-11-08T16:25:37Z</time>
      </trkpt>
      <trkpt lat="46.11082" lon="4.75456">
        <ele>172</ele>
        <time>2017-11-08T16:27:37Z</time>
      </trkpt>
      <trkpt lat="46.11039" lon="4.75476">
        <ele>172</ele>
        <time>2017-11-08T16:29:37Z</time>
      </trkpt>
      <trkpt lat="46.11036" lon="4.75481">
        <ele>172</ele>
        <time>2017-11-08T16:31:37Z</time>
      </trkpt>
      <trkpt lat="46.10992" lon="4.75502">
        <ele>172</ele>
        <time>2017-11-08T16:33:37Z</time>
      </trkpt>
      <trkpt lat="46.10926" lon="4.75535">
        <ele>173</ele>
        <time>2017-11-08T16:35:37Z</time>
      </trkpt>
      <trkpt lat="46.1092" lon="4.75536">
        <ele>173</ele>
        <time>2017-11-08T16:37:37Z</time>
      </trkpt>
      <trkpt lat="46.10917" lon="4.75537">
        <ele>173</ele>
        <time>2017-11-08T16:39:37Z</time>
      </trkpt>
      <trkpt lat="46.10914" lon="4.75538">
        <ele>173</ele>
        <time>2017-11-08T16:41:37Z</time>
      </trkpt>
      <trkpt lat="46.10908" lon="4.75538">
        <ele>172</ele>
        <time>2017-11-08T16:43:37Z</time>
      </trkpt>
      <trkpt lat="46.10901" lon="4.75537">
        <ele>172</ele>
        <time>2017-11-08T16:45:37Z</time>
      </trkpt>
      <trkpt lat="46.10896" lon="4.75537">
        <ele>172</ele>
        <time>2017-11-08T16:47:37Z</time>
      </trkpt>
      <trkpt lat="46.10893" lon="4.75537">
        <ele>172</ele>
        <time>2017-11-08T16:49:37Z</time>
      </trkpt>
      <trkpt lat="46.1088" lon="4.75537">
        <ele>172</ele>
        <time>2017-11-08T16:51:37Z</time>
      </trkpt>
      <trkpt lat="46.10879" lon="4.7554">
        <ele>172</ele>
        <time>2017-11-08T16:53:37Z</time>
      </trkpt>
      <trkpt lat="46.10878" lon="4.75542">
        <ele>172</ele>
        <time>2017-11-08T16:55:37Z</time>
      </trkpt>
      <trkpt lat="46.10877" lon="4.75544">
        <ele>172</ele>
        <time>2017-11-08T16:57:37Z</time>
      </trkpt>
      <trkpt lat="46.10875" lon="4.75546">
        <ele>172</ele>
        <time>2017-11-08T16:59:37Z</time>
      </trkpt>
      <trkpt lat="46.10873" lon="4.75547">
        <ele>172</ele>
        <time>2017-11-08T17:01:37Z</time>
      </trkpt>
      <trkpt lat="46.10871" lon="4.75548">
        <ele>172</ele>
        <time>2017-11-08T17:03:37Z</time>
      </trkpt>
      <trkpt lat="46.10869" lon="4.75549">
        <ele>172</ele>
        <time>2017-11-08T17:05:37Z</time>
      </trkpt>
      <trkpt lat="46.10867" lon="4.7555">
        <ele>172</ele>
        <time>2017-11-08T17:07:37Z</time>
      </trkpt>
      <trkpt lat="46.10865" lon="4.75551">
        <ele>172</ele>
        <time>2017-11-08T17:09:37Z</time>
      </trkpt>
      <trkpt lat="46.10863" lon="4.75551">
        <ele>172</ele>
        <time>2017-11-08T17:11:37Z</time>
      </trkpt>
      <trkpt lat="46.10861" lon="4.75551">
        <ele>172</ele>
        <time>2017-11-08T17:13:37Z</time>
      </trkpt>
      <trkpt lat="46.10859" lon="4.75551">
        <ele>172</ele>
        <time>2017-11-08T17:15:37Z</time>
      </trkpt>
      <trkpt lat="46.10858" lon="4.75551">
        <ele>172</ele>
        <time>2017-11-08T17:17:37Z</time>
      </trkpt>
      <trkpt lat="46.10856" lon="4.7555">
        <ele>172</ele>
        <time>2017-11-08T17:19:37Z</time>
      </trkpt>
      <trkpt lat="46.10854" lon="4.7555">
        <ele>172</ele>
        <time>2017-11-08T17:21:37Z</time>
      </trkpt>
      <trkpt lat="46.10852" lon="4.75549">
        <ele>172</ele>
        <time>2017-11-08T17:23:37Z</time>
      </trkpt>
      <trkpt lat="46.10835" lon="4.7557">
        <ele>171</ele>
        <time>2017-11-08T17:25:37Z</time>
      </trkpt>
      <trkpt lat="46.10829" lon="4.75576">
        <ele>171</ele>
        <time>2017-11-08T17:27:37Z</time>
      </trkpt>
      <trkpt lat="46.10827" lon="4.75578">
        <ele>171</ele>
        <time>2017-11-08T17:29:37Z</time>
      </trkpt>
      <trkpt lat="46.10823" lon="4.75581">
        <ele>171</ele>
        <time>2017-11-08T17:31:37Z</time>
      </trkpt>
      <trkpt lat="46.10821" lon="4.75583">
        <ele>171</ele>
        <time>2017-11-08T17:33:37Z</time>
      </trkpt>
      <trkpt lat="46.10818" lon="4.75585">
        <ele>171</ele>
        <time>2017-11-08T17:35:37Z</time>
      </trkpt>
      <trkpt lat="46.10816" lon="4.75586">
        <ele>171</ele>
        <time>2017-11-08T17:37:37Z</time>
      </trkpt>
      <trkpt lat="46.10813" lon="4.75587">
        <ele>171</ele>
        <time>2017-11-08T17:39:37Z</time>
      </trkpt>
      <trkpt lat="46.10808" lon="4.7559">
        <ele>171</ele>
        <time>2017-11-08T17:41:37Z</time>
      </trkpt>
      <trkpt lat="46.1078" lon="4.75601">
        <ele>171</ele>
        <time>2017-11-08T17:43:37Z</time>
      </trkpt>
      <trkpt lat="46.10758" lon="4.75609">
        <ele>171</ele>
        <time>2017-11-08T17:45:37Z</time>
      </trkpt>
      <trkpt lat="46.10757" lon="4.75609">
        <ele>171</ele>
        <time>2017-11-08T17:47:37Z</time>
      </trkpt>
      <trkpt lat="46.10755" lon="4.7561">
        <ele>171</ele>
        <time>2017-11-08T17:49:37Z</time>
      </trkpt>
      <trkpt lat="46.10754" lon="4.7561">
        <ele>171</ele>
        <time>2017-11-08T17:51:37Z</time>
      </trkpt>
      <trkpt lat="46.10748" lon="4.75609">
        <ele>171</ele>
        <time>2017-11-08T17:53:37Z</time>
      </trkpt>
      <trkpt lat="46.10735" lon="4.75612">
        <ele>171</ele>
        <time>2017-11-08T17:55:37Z</time>
      </trkpt>
      <trkpt lat="46.10724" lon="4.75614">
        <ele>171</ele>
        <time>2017-11-08T17:57:37Z</time>
      </trkpt>
      <trkpt lat="46.10717" lon="4.75615">
        <ele>171</ele>
        <time>2017-11-08T17:59:37Z</time>
      </trkpt>
      <trkpt lat="46.10711" lon="4.75615">
        <ele>171</ele>
        <time>2017-11-08T18:01:37Z</time>
      </trkpt>
      <trkpt lat="46.10703" lon="4.75616">
        <ele>171</ele>
        <time>2017-11-08T18:03:37Z</time>
      </trkpt>
      <trkpt lat="46.10692" lon="4.75616">
        <ele>171</ele>
        <time>2017-11-08T18:05:37Z</time>
      </trkpt>
      <trkpt lat="46.10678" lon="4.75614">
        <ele>170</ele>
        <time>2017-11-08T18:07:37Z</time>
      </trkpt>
      <trkpt lat="46.10673" lon="4.75613">
        <ele>170</ele>
        <time>2017-11-08T18:09:37Z</time>
      </trkpt>
      <trkpt lat="46.10668" lon="4.75612">
        <ele>170</ele>
        <time>2017-11-08T18:11:37Z</time>
      </trkpt>
      <trkpt lat="46.1066" lon="4.75609">
        <ele>171</ele>
        <time>2017-11-08T18:13:37Z</time>
      </trkpt>
      <trkpt lat="46.10652" lon="4.75606">
        <ele>171</ele>
        <time>2017-11-08T18:15:37Z</time>
      </trkpt>
      <trkpt lat="46.10642" lon="4.75601">
        <ele>172</ele>
        <time>2017-11-08T18:17:37Z</time>
      </trkpt>
      <trkpt lat="46.10637" lon="4.75598">
        <ele>172</ele>
        <time>2017-11-08T18:19:37Z</time>
      </trkpt>
      <trkpt lat="46.1063" lon="4.75594">
        <ele>172</ele>
        <time>2017-11-08T18:21:37Z</time>
      </trkpt>
      <trkpt lat="46.10621" lon="4.75587">
        <ele>173</ele>
        <time>2017-11-08T18:23:37Z</time>
      </trkpt>
      <trkpt lat="46.10612" lon="4.7558">
        <ele>173</ele>
        <time>2017-11-08T18:25:37Z</time>
      </trkpt>
      <trkpt lat="46.10608" lon="4.75576">
        <ele>174</ele>
        <time>2017-11-08T18:27:37Z</time>
      </trkpt>
      <trkpt lat="46.10604" lon="4.75572">
        <ele>174</ele>
        <time>2017-11-08T18:29:37Z</time>
      </trkpt>
      <trkpt lat="46.10593" lon="4.75561">
        <ele>174</ele>
        <time>2017-11-08T18:31:37Z</time>
      </trkpt>
      <trkpt lat="46.10584" lon="4.75549">
        <ele>174</ele>
        <time>2017-11-08T18:33:37Z</time>
      </trkpt>
      <trkpt lat="46.10578" lon="4.75541">
        <ele>174</ele>
        <time>2017-11-08T18:35:37Z</time>
      </trkpt>
      <trkpt lat="46.10569" lon="4.75526">
        <ele>174</ele>
        <time>2017-11-08T18:37:37Z</time>
      </trkpt>
      <trkpt lat="46.10564" lon="4.75518">
        <ele>173</ele>
        <time>2017-11-08T18:39:37Z</time>
      </trkpt>
      <trkpt lat="46.10556" lon="4.75502">
        <ele>173</ele>
        <time>2017-11-08T18:41:37Z</time>
      </trkpt>
      <trkpt lat="46.10551" lon="4.7549">
        <ele>173</ele>
        <time>2017-11-08T18:43:37Z</time>
      </trkpt>
      <trkpt lat="46.10548" lon="4.75482">
        <ele>173</ele>
        <time>2017-11-08T18:45:37Z</time>
      </trkpt>
      <trkpt lat="46.10543" lon="4.75467">
        <ele>172</ele>
        <time>2017-11-08T18:47:37Z</time>
      </trkpt>
      <trkpt lat="46.10541" lon="4.75459">
        <ele>172</ele>
        <time>2017-11-08T18:49:37Z</time>
      </trkpt>
      <trkpt lat="46.10539" lon="4.75452">
        <ele>172</ele>
        <time>2017-11-08T18:51:37Z</time>
      </trkpt>
      <trkpt lat="46.10536" lon="4.75439">
        <ele>172</ele>
        <time>2017-11-08T18:53:37Z</time>
      </trkpt>
      <trkpt lat="46.10534" lon="4.75432">
        <ele>172</ele>
        <time>2017-11-08T18:55:37Z</time>
      </trkpt>
      <trkpt lat="46.10532" lon="4.75421">
        <ele>171</ele>
        <time>2017-11-08T18:57:37Z</time>
      </trkpt>
      <trkpt lat="46.10531" lon="4.75408">
        <ele>171</ele>
        <time>2017-11-08T18:59:37Z</time>
      </trkpt>
      <trkpt lat="46.10529" lon="4.75396">
        <ele>171</ele>
        <time>2017-11-08T19:01:37Z</time>
      </trkpt>
      <trkpt lat="46.10528" lon="4.75378">
        <ele>171</ele>
        <time>2017-11-08T19:03:37Z</time>
      </trkpt>
      <trkpt lat="46.10528" lon="4.7537">
        <ele>171</ele>
        <time>2017-11-08T19:05:37Z</time>
      </trkpt>
      <trkpt lat="46.10528" lon="4.75357">
        <ele>171</ele>
        <time>2017-11-08T19:07:37Z</time>
      </trkpt>
      <trkpt lat="46.10528" lon="4.75343">
        <ele>171</ele>
        <time>2017-11-08T19:09:37Z</time>
      </trkpt>
      <trkpt lat="46.10528" lon="4.75343">
        <ele>171</ele>
        <time>2017-11-08T19:11:37Z</time>
      </trkpt>
      <trkpt lat="46.1053" lon="4.7533">
        <ele>171</ele>
        <time>2017-11-08T19:13:37Z</time>
      </trkpt>
      <trkpt lat="46.10531" lon="4.75328">
        <ele>171</ele>
        <time>2017-11-08T19:15:37Z</time>
      </trkpt>
      <trkpt lat="46.10533" lon="4.75312">
        <ele>171</ele>
        <time>2017-11-08T19:17:37Z</time>
      </trkpt>
      <trkpt lat="46.10534" lon="4.75306">
        <ele>171</ele>
        <time>2017-11-08T19:19:37Z</time>
      </trkpt>
      <trkpt lat="46.10537" lon="4.75286">
        <ele>171</ele>
        <time>2017-11-08T19:21:37Z</time>
      </trkpt>
      <trkpt lat="46.1054" lon="4.75273">
        <ele>171</ele>
        <time>2017-11-08T19:23:37Z</time>
      </trkpt>
      <trkpt lat="46.10544" lon="4.75255">
        <ele>171</ele>
        <time>2017-11-08T19:25:37Z</time>
      </trkpt>
      <trkpt lat="46.10547" lon="4.75245">
        <ele>170</ele>
        <time>2017-11-08T19:27:37Z</time>
      </trkpt>
      <trkpt lat="46.1055" lon="4.75231">
        <ele>171</ele>
        <time>2017-11-08T19:29:37Z</time>
      </trkpt>
      <trkpt lat="46.10558" lon="4.75203">
        <ele>171</ele>
        <time>2017-11-08T19:31:37Z</time>
      </trkpt>
      <trkpt lat="46.10559" lon="4.75198">
        <ele>171</ele>
        <time>2017-11-08T19:33:37Z</time>
      </trkpt>
      <trkpt lat="46.1056" lon="4.75192">
        <ele>171</ele>
        <time>2017-11-08T19:35:37Z</time>
      </trkpt>
      <trkpt lat="46.10561" lon="4.75188">
        <ele>171</ele>
        <time>2017-11-08T19:37:37Z</time>
      </trkpt>
      <trkpt lat="46.10561" lon="4.75182">
        <ele>171</ele>
        <time>2017-11-08T19:39:37Z</time>
      </trkpt>
      <trkpt lat="46.10561" lon="4.75177">
        <ele>171</ele>
        <time>2017-11-08T19:41:37Z</time>
      </trkpt>
      <trkpt lat="46.10561" lon="4.75173">
        <ele>171</ele>
        <time>2017-11-08T19:43:37Z</time>
      </trkpt>
      <trkpt lat="46.10561" lon="4.75165">
        <ele>171</ele>
        <time>2017-11-08T19:45:37Z</time>
      </trkpt>
      <trkpt lat="46.10561" lon="4.75159">
        <ele>171</ele>
        <time>2017-11-08T19:47:37Z</time>
      </trkpt>
      <trkpt lat="46.10561" lon="4.75156">
        <ele>171</ele>
        <time>2017-11-08T19:49:37Z</time>
      </trkpt>
      <trkpt lat="46.10561" lon="4.75152">
        <ele>171</ele>
        <time>2017-11-08T19:51:37Z</time>
      </trkpt>
      <trkpt lat="46.10561" lon="4.75149">
        <ele>172</ele>
        <time>2017-11-08T19:53:37Z</time>
      </trkpt>
      <trkpt lat="46.10561" lon="4.75145">
        <ele>172</ele>
        <time>2017-11-08T19:55:37Z</time>
      </trkpt>
      <trkpt lat="46.10563" lon="4.75139">
        <ele>172</ele>
        <time>2017-11-08T19:57:37Z</time>
      </trkpt>
      <trkpt lat="46.10565" lon="4.75129">
        <ele>172</ele>
        <time>2017-11-08T19:59:37Z</time>
      </trkpt>
    </trkseg>
  </trk>
</gpx>